<?xml version="1.0" encoding="UTF-8"?>
<gpx version="1.1" creator="https://www.youtrack.es" xsi:schemaLocation="http://www.topografix.com/GPX/1/1 http://www.topografix.com/GPX/1/1/gpx.xsd http://www.garmin.com/xmlschemas/GpxExtensions/v3 http://www.garmin.com/xmlschemas/GpxExtensionsv3.xsd http://www.garmin.com/xmlschemas/TrackPointExtension/v1 http://www.garmin.com/xmlschemas/TrackPointExtensionv1.xsd" xmlns:gpxtpx="http://www.garmin.com/xmlschemas/TrackPointExtension/v1" xmlns:gpxx="http://www.garmin.com/xmlschemas/GpxExtensions/v3" xmlns:xsi="http://www.w3.org/2001/XMLSchema-instance">
  <metadata>
    <link href="https://www.youtrack.es">
      <text>YouTrack.es</text>
    </link>
    <time>2026-05-08T10:29:30Z</time>
  </metadata>
  <trk>
    <src>https://www.youtrack.es</src>
    <link href="https://www.youtrack.es/ruta/19381-pola-de-allande-puerto-del-palo-hospitales-borres">
      <text>YouTrack.es</text>
    </link>
    <trkseg>
      <trkpt lat="43.2715330" lon="-6.6114120">
        <ele>490.0</ele>
        <time>2021-02-07T07:57:32Z</time>
      </trkpt>
      <trkpt lat="43.2715330" lon="-6.6114120">
        <ele>490.0</ele>
        <time>2021-02-07T07:57:32Z</time>
      </trkpt>
      <trkpt lat="43.2715220" lon="-6.6114130">
        <ele>490.0</ele>
        <time>2021-02-07T07:57:33Z</time>
      </trkpt>
      <trkpt lat="43.2715190" lon="-6.6114140">
        <ele>490.0</ele>
        <time>2021-02-07T07:57:34Z</time>
      </trkpt>
      <trkpt lat="43.2715190" lon="-6.6114200">
        <ele>490.0</ele>
        <time>2021-02-07T07:57:35Z</time>
      </trkpt>
      <trkpt lat="43.2715180" lon="-6.6114270">
        <ele>490.0</ele>
        <time>2021-02-07T07:57:36Z</time>
      </trkpt>
      <trkpt lat="43.2715150" lon="-6.6114340">
        <ele>490.0</ele>
        <time>2021-02-07T07:57:37Z</time>
      </trkpt>
      <trkpt lat="43.2715100" lon="-6.6114430">
        <ele>490.0</ele>
        <time>2021-02-07T07:57:38Z</time>
      </trkpt>
      <trkpt lat="43.2714980" lon="-6.6114500">
        <ele>490.0</ele>
        <time>2021-02-07T07:57:39Z</time>
      </trkpt>
      <trkpt lat="43.2714840" lon="-6.6114580">
        <ele>490.0</ele>
        <time>2021-02-07T07:57:40Z</time>
      </trkpt>
      <trkpt lat="43.2714700" lon="-6.6114630">
        <ele>490.0</ele>
        <time>2021-02-07T07:57:41Z</time>
      </trkpt>
      <trkpt lat="43.2714550" lon="-6.6114680">
        <ele>490.0</ele>
        <time>2021-02-07T07:57:42Z</time>
      </trkpt>
      <trkpt lat="43.2714310" lon="-6.6115220">
        <ele>490.0</ele>
        <time>2021-02-07T07:57:48Z</time>
      </trkpt>
      <trkpt lat="43.2714160" lon="-6.6115930">
        <ele>490.0</ele>
        <time>2021-02-07T07:57:53Z</time>
      </trkpt>
      <trkpt lat="43.2713850" lon="-6.6116570">
        <ele>490.0</ele>
        <time>2021-02-07T07:57:58Z</time>
      </trkpt>
      <trkpt lat="43.2713710" lon="-6.6117630">
        <ele>490.0</ele>
        <time>2021-02-07T07:58:04Z</time>
      </trkpt>
      <trkpt lat="43.2713590" lon="-6.6118370">
        <ele>490.0</ele>
        <time>2021-02-07T07:58:08Z</time>
      </trkpt>
      <trkpt lat="43.2713520" lon="-6.6119180">
        <ele>490.0</ele>
        <time>2021-02-07T07:58:12Z</time>
      </trkpt>
      <trkpt lat="43.2713610" lon="-6.6120030">
        <ele>490.0</ele>
        <time>2021-02-07T07:58:16Z</time>
      </trkpt>
      <trkpt lat="43.2713650" lon="-6.6120930">
        <ele>490.0</ele>
        <time>2021-02-07T07:58:21Z</time>
      </trkpt>
      <trkpt lat="43.2713570" lon="-6.6121740">
        <ele>490.0</ele>
        <time>2021-02-07T07:58:26Z</time>
      </trkpt>
      <trkpt lat="43.2713540" lon="-6.6122740">
        <ele>490.0</ele>
        <time>2021-02-07T07:58:33Z</time>
      </trkpt>
      <trkpt lat="43.2713690" lon="-6.6123840">
        <ele>491.0</ele>
        <time>2021-02-07T07:58:38Z</time>
      </trkpt>
      <trkpt lat="43.2713910" lon="-6.6125090">
        <ele>491.0</ele>
        <time>2021-02-07T07:58:43Z</time>
      </trkpt>
      <trkpt lat="43.2714220" lon="-6.6125920">
        <ele>492.0</ele>
        <time>2021-02-07T07:58:45Z</time>
      </trkpt>
      <trkpt lat="43.2714540" lon="-6.6126540">
        <ele>492.0</ele>
        <time>2021-02-07T07:58:47Z</time>
      </trkpt>
      <trkpt lat="43.2714840" lon="-6.6127410">
        <ele>492.0</ele>
        <time>2021-02-07T07:58:50Z</time>
      </trkpt>
      <trkpt lat="43.2715040" lon="-6.6128100">
        <ele>493.0</ele>
        <time>2021-02-07T07:58:53Z</time>
      </trkpt>
      <trkpt lat="43.2715170" lon="-6.6128830">
        <ele>493.0</ele>
        <time>2021-02-07T07:58:57Z</time>
      </trkpt>
      <trkpt lat="43.2715160" lon="-6.6129480">
        <ele>493.0</ele>
        <time>2021-02-07T07:59:01Z</time>
      </trkpt>
      <trkpt lat="43.2715110" lon="-6.6130400">
        <ele>494.0</ele>
        <time>2021-02-07T07:59:06Z</time>
      </trkpt>
      <trkpt lat="43.2715240" lon="-6.6131040">
        <ele>494.0</ele>
        <time>2021-02-07T07:59:10Z</time>
      </trkpt>
      <trkpt lat="43.2715510" lon="-6.6131720">
        <ele>494.0</ele>
        <time>2021-02-07T07:59:16Z</time>
      </trkpt>
      <trkpt lat="43.2715770" lon="-6.6132490">
        <ele>495.0</ele>
        <time>2021-02-07T07:59:23Z</time>
      </trkpt>
      <trkpt lat="43.2715950" lon="-6.6133120">
        <ele>496.0</ele>
        <time>2021-02-07T07:59:28Z</time>
      </trkpt>
      <trkpt lat="43.2716300" lon="-6.6133720">
        <ele>496.0</ele>
        <time>2021-02-07T07:59:33Z</time>
      </trkpt>
      <trkpt lat="43.2716610" lon="-6.6134270">
        <ele>496.0</ele>
        <time>2021-02-07T07:59:38Z</time>
      </trkpt>
      <trkpt lat="43.2716850" lon="-6.6135070">
        <ele>497.0</ele>
        <time>2021-02-07T07:59:43Z</time>
      </trkpt>
      <trkpt lat="43.2716950" lon="-6.6135900">
        <ele>497.0</ele>
        <time>2021-02-07T07:59:47Z</time>
      </trkpt>
      <trkpt lat="43.2716910" lon="-6.6136620">
        <ele>497.0</ele>
        <time>2021-02-07T07:59:50Z</time>
      </trkpt>
      <trkpt lat="43.2716920" lon="-6.6137310">
        <ele>497.0</ele>
        <time>2021-02-07T07:59:53Z</time>
      </trkpt>
      <trkpt lat="43.2717100" lon="-6.6138150">
        <ele>498.0</ele>
        <time>2021-02-07T07:59:57Z</time>
      </trkpt>
      <trkpt lat="43.2717140" lon="-6.6138800">
        <ele>498.0</ele>
        <time>2021-02-07T08:00:01Z</time>
      </trkpt>
      <trkpt lat="43.2717230" lon="-6.6139640">
        <ele>499.0</ele>
        <time>2021-02-07T08:00:06Z</time>
      </trkpt>
      <trkpt lat="43.2717420" lon="-6.6140340">
        <ele>499.0</ele>
        <time>2021-02-07T08:00:10Z</time>
      </trkpt>
      <trkpt lat="43.2717630" lon="-6.6141110">
        <ele>499.0</ele>
        <time>2021-02-07T08:00:15Z</time>
      </trkpt>
      <trkpt lat="43.2717860" lon="-6.6141820">
        <ele>499.0</ele>
        <time>2021-02-07T08:00:19Z</time>
      </trkpt>
      <trkpt lat="43.2718000" lon="-6.6142510">
        <ele>500.0</ele>
        <time>2021-02-07T08:00:23Z</time>
      </trkpt>
      <trkpt lat="43.2718250" lon="-6.6143280">
        <ele>500.0</ele>
        <time>2021-02-07T08:00:28Z</time>
      </trkpt>
      <trkpt lat="43.2718480" lon="-6.6143900">
        <ele>501.0</ele>
        <time>2021-02-07T08:00:32Z</time>
      </trkpt>
      <trkpt lat="43.2718680" lon="-6.6144610">
        <ele>501.0</ele>
        <time>2021-02-07T08:00:36Z</time>
      </trkpt>
      <trkpt lat="43.2718710" lon="-6.6145280">
        <ele>501.0</ele>
        <time>2021-02-07T08:00:40Z</time>
      </trkpt>
      <trkpt lat="43.2718880" lon="-6.6145930">
        <ele>501.0</ele>
        <time>2021-02-07T08:00:45Z</time>
      </trkpt>
      <trkpt lat="43.2719160" lon="-6.6146700">
        <ele>502.0</ele>
        <time>2021-02-07T08:00:50Z</time>
      </trkpt>
      <trkpt lat="43.2719460" lon="-6.6147320">
        <ele>503.0</ele>
        <time>2021-02-07T08:00:55Z</time>
      </trkpt>
      <trkpt lat="43.2719700" lon="-6.6148040">
        <ele>503.0</ele>
        <time>2021-02-07T08:01:00Z</time>
      </trkpt>
      <trkpt lat="43.2719960" lon="-6.6148660">
        <ele>503.0</ele>
        <time>2021-02-07T08:01:04Z</time>
      </trkpt>
      <trkpt lat="43.2720240" lon="-6.6149370">
        <ele>504.0</ele>
        <time>2021-02-07T08:01:09Z</time>
      </trkpt>
      <trkpt lat="43.2720570" lon="-6.6150070">
        <ele>504.0</ele>
        <time>2021-02-07T08:01:14Z</time>
      </trkpt>
      <trkpt lat="43.2720850" lon="-6.6150660">
        <ele>504.0</ele>
        <time>2021-02-07T08:01:18Z</time>
      </trkpt>
      <trkpt lat="43.2721080" lon="-6.6151330">
        <ele>505.0</ele>
        <time>2021-02-07T08:01:22Z</time>
      </trkpt>
      <trkpt lat="43.2721280" lon="-6.6152010">
        <ele>505.0</ele>
        <time>2021-02-07T08:01:26Z</time>
      </trkpt>
      <trkpt lat="43.2721480" lon="-6.6152660">
        <ele>505.0</ele>
        <time>2021-02-07T08:01:30Z</time>
      </trkpt>
      <trkpt lat="43.2721770" lon="-6.6153280">
        <ele>506.0</ele>
        <time>2021-02-07T08:01:35Z</time>
      </trkpt>
      <trkpt lat="43.2722080" lon="-6.6154040">
        <ele>506.0</ele>
        <time>2021-02-07T08:01:40Z</time>
      </trkpt>
      <trkpt lat="43.2722290" lon="-6.6154680">
        <ele>506.0</ele>
        <time>2021-02-07T08:01:44Z</time>
      </trkpt>
      <trkpt lat="43.2722600" lon="-6.6155450">
        <ele>507.0</ele>
        <time>2021-02-07T08:01:49Z</time>
      </trkpt>
      <trkpt lat="43.2722850" lon="-6.6156190">
        <ele>507.0</ele>
        <time>2021-02-07T08:01:54Z</time>
      </trkpt>
      <trkpt lat="43.2723080" lon="-6.6156810">
        <ele>507.0</ele>
        <time>2021-02-07T08:01:58Z</time>
      </trkpt>
      <trkpt lat="43.2723380" lon="-6.6157380">
        <ele>508.0</ele>
        <time>2021-02-07T08:02:03Z</time>
      </trkpt>
      <trkpt lat="43.2723660" lon="-6.6158030">
        <ele>508.0</ele>
        <time>2021-02-07T08:02:08Z</time>
      </trkpt>
      <trkpt lat="43.2723910" lon="-6.6158750">
        <ele>509.0</ele>
        <time>2021-02-07T08:02:12Z</time>
      </trkpt>
      <trkpt lat="43.2724120" lon="-6.6159340">
        <ele>509.0</ele>
        <time>2021-02-07T08:02:16Z</time>
      </trkpt>
      <trkpt lat="43.2724410" lon="-6.6160010">
        <ele>510.0</ele>
        <time>2021-02-07T08:02:21Z</time>
      </trkpt>
      <trkpt lat="43.2724680" lon="-6.6160730">
        <ele>510.0</ele>
        <time>2021-02-07T08:02:26Z</time>
      </trkpt>
      <trkpt lat="43.2724960" lon="-6.6161370">
        <ele>510.0</ele>
        <time>2021-02-07T08:02:31Z</time>
      </trkpt>
      <trkpt lat="43.2725220" lon="-6.6162060">
        <ele>511.0</ele>
        <time>2021-02-07T08:02:36Z</time>
      </trkpt>
      <trkpt lat="43.2725460" lon="-6.6162800">
        <ele>511.0</ele>
        <time>2021-02-07T08:02:40Z</time>
      </trkpt>
      <trkpt lat="43.2725670" lon="-6.6163490">
        <ele>512.0</ele>
        <time>2021-02-07T08:02:44Z</time>
      </trkpt>
      <trkpt lat="43.2725910" lon="-6.6164210">
        <ele>512.0</ele>
        <time>2021-02-07T08:02:49Z</time>
      </trkpt>
      <trkpt lat="43.2726150" lon="-6.6164810">
        <ele>513.0</ele>
        <time>2021-02-07T08:02:53Z</time>
      </trkpt>
      <trkpt lat="43.2726430" lon="-6.6165530">
        <ele>513.0</ele>
        <time>2021-02-07T08:02:58Z</time>
      </trkpt>
      <trkpt lat="43.2726620" lon="-6.6166120">
        <ele>514.0</ele>
        <time>2021-02-07T08:03:02Z</time>
      </trkpt>
      <trkpt lat="43.2726970" lon="-6.6166810">
        <ele>514.0</ele>
        <time>2021-02-07T08:03:07Z</time>
      </trkpt>
      <trkpt lat="43.2727260" lon="-6.6167390">
        <ele>514.0</ele>
        <time>2021-02-07T08:03:11Z</time>
      </trkpt>
      <trkpt lat="43.2727450" lon="-6.6167950">
        <ele>515.0</ele>
        <time>2021-02-07T08:03:15Z</time>
      </trkpt>
      <trkpt lat="43.2727700" lon="-6.6168720">
        <ele>515.0</ele>
        <time>2021-02-07T08:03:20Z</time>
      </trkpt>
      <trkpt lat="43.2727930" lon="-6.6169270">
        <ele>516.0</ele>
        <time>2021-02-07T08:03:24Z</time>
      </trkpt>
      <trkpt lat="43.2728330" lon="-6.6169950">
        <ele>516.0</ele>
        <time>2021-02-07T08:03:30Z</time>
      </trkpt>
      <trkpt lat="43.2728610" lon="-6.6170590">
        <ele>516.0</ele>
        <time>2021-02-07T08:03:35Z</time>
      </trkpt>
      <trkpt lat="43.2728910" lon="-6.6171350">
        <ele>517.0</ele>
        <time>2021-02-07T08:03:40Z</time>
      </trkpt>
      <trkpt lat="43.2729200" lon="-6.6172130">
        <ele>517.0</ele>
        <time>2021-02-07T08:03:45Z</time>
      </trkpt>
      <trkpt lat="43.2729440" lon="-6.6172810">
        <ele>518.0</ele>
        <time>2021-02-07T08:03:50Z</time>
      </trkpt>
      <trkpt lat="43.2729740" lon="-6.6173530">
        <ele>519.0</ele>
        <time>2021-02-07T08:03:55Z</time>
      </trkpt>
      <trkpt lat="43.2729990" lon="-6.6174150">
        <ele>519.0</ele>
        <time>2021-02-07T08:03:59Z</time>
      </trkpt>
      <trkpt lat="43.2730250" lon="-6.6174950">
        <ele>519.0</ele>
        <time>2021-02-07T08:04:04Z</time>
      </trkpt>
      <trkpt lat="43.2730510" lon="-6.6175660">
        <ele>519.0</ele>
        <time>2021-02-07T08:04:08Z</time>
      </trkpt>
      <trkpt lat="43.2730780" lon="-6.6176400">
        <ele>520.0</ele>
        <time>2021-02-07T08:04:13Z</time>
      </trkpt>
      <trkpt lat="43.2731050" lon="-6.6177070">
        <ele>520.0</ele>
        <time>2021-02-07T08:04:17Z</time>
      </trkpt>
      <trkpt lat="43.2731230" lon="-6.6177680">
        <ele>520.0</ele>
        <time>2021-02-07T08:04:21Z</time>
      </trkpt>
      <trkpt lat="43.2731460" lon="-6.6178420">
        <ele>521.0</ele>
        <time>2021-02-07T08:04:26Z</time>
      </trkpt>
      <trkpt lat="43.2731700" lon="-6.6178980">
        <ele>521.0</ele>
        <time>2021-02-07T08:04:30Z</time>
      </trkpt>
      <trkpt lat="43.2731970" lon="-6.6179630">
        <ele>521.0</ele>
        <time>2021-02-07T08:04:35Z</time>
      </trkpt>
      <trkpt lat="43.2732310" lon="-6.6180430">
        <ele>522.0</ele>
        <time>2021-02-07T08:04:40Z</time>
      </trkpt>
      <trkpt lat="43.2732590" lon="-6.6181160">
        <ele>522.0</ele>
        <time>2021-02-07T08:04:45Z</time>
      </trkpt>
      <trkpt lat="43.2732870" lon="-6.6181820">
        <ele>523.0</ele>
        <time>2021-02-07T08:04:49Z</time>
      </trkpt>
      <trkpt lat="43.2733150" lon="-6.6182470">
        <ele>523.0</ele>
        <time>2021-02-07T08:04:53Z</time>
      </trkpt>
      <trkpt lat="43.2733450" lon="-6.6183170">
        <ele>523.0</ele>
        <time>2021-02-07T08:04:58Z</time>
      </trkpt>
      <trkpt lat="43.2733730" lon="-6.6183920">
        <ele>524.0</ele>
        <time>2021-02-07T08:05:03Z</time>
      </trkpt>
      <trkpt lat="43.2733990" lon="-6.6184550">
        <ele>524.0</ele>
        <time>2021-02-07T08:05:07Z</time>
      </trkpt>
      <trkpt lat="43.2734250" lon="-6.6185160">
        <ele>524.0</ele>
        <time>2021-02-07T08:05:11Z</time>
      </trkpt>
      <trkpt lat="43.2734490" lon="-6.6185700">
        <ele>524.0</ele>
        <time>2021-02-07T08:05:15Z</time>
      </trkpt>
      <trkpt lat="43.2734750" lon="-6.6186520">
        <ele>525.0</ele>
        <time>2021-02-07T08:05:20Z</time>
      </trkpt>
      <trkpt lat="43.2734930" lon="-6.6187180">
        <ele>525.0</ele>
        <time>2021-02-07T08:05:24Z</time>
      </trkpt>
      <trkpt lat="43.2735180" lon="-6.6188000">
        <ele>526.0</ele>
        <time>2021-02-07T08:05:29Z</time>
      </trkpt>
      <trkpt lat="43.2735410" lon="-6.6188690">
        <ele>526.0</ele>
        <time>2021-02-07T08:05:33Z</time>
      </trkpt>
      <trkpt lat="43.2735630" lon="-6.6189380">
        <ele>527.0</ele>
        <time>2021-02-07T08:05:37Z</time>
      </trkpt>
      <trkpt lat="43.2735860" lon="-6.6190090">
        <ele>527.0</ele>
        <time>2021-02-07T08:05:42Z</time>
      </trkpt>
      <trkpt lat="43.2736130" lon="-6.6190840">
        <ele>527.0</ele>
        <time>2021-02-07T08:05:48Z</time>
      </trkpt>
      <trkpt lat="43.2736360" lon="-6.6191490">
        <ele>528.0</ele>
        <time>2021-02-07T08:05:53Z</time>
      </trkpt>
      <trkpt lat="43.2736660" lon="-6.6192180">
        <ele>528.0</ele>
        <time>2021-02-07T08:05:58Z</time>
      </trkpt>
      <trkpt lat="43.2736920" lon="-6.6192840">
        <ele>528.0</ele>
        <time>2021-02-07T08:06:02Z</time>
      </trkpt>
      <trkpt lat="43.2737150" lon="-6.6193590">
        <ele>528.0</ele>
        <time>2021-02-07T08:06:07Z</time>
      </trkpt>
      <trkpt lat="43.2737370" lon="-6.6194210">
        <ele>529.0</ele>
        <time>2021-02-07T08:06:11Z</time>
      </trkpt>
      <trkpt lat="43.2737580" lon="-6.6194920">
        <ele>529.0</ele>
        <time>2021-02-07T08:06:15Z</time>
      </trkpt>
      <trkpt lat="43.2737800" lon="-6.6195520">
        <ele>529.0</ele>
        <time>2021-02-07T08:06:19Z</time>
      </trkpt>
      <trkpt lat="43.2738110" lon="-6.6196170">
        <ele>529.0</ele>
        <time>2021-02-07T08:06:24Z</time>
      </trkpt>
      <trkpt lat="43.2738460" lon="-6.6196840">
        <ele>529.0</ele>
        <time>2021-02-07T08:06:29Z</time>
      </trkpt>
      <trkpt lat="43.2738750" lon="-6.6197530">
        <ele>530.0</ele>
        <time>2021-02-07T08:06:34Z</time>
      </trkpt>
      <trkpt lat="43.2739020" lon="-6.6198230">
        <ele>530.0</ele>
        <time>2021-02-07T08:06:39Z</time>
      </trkpt>
      <trkpt lat="43.2739280" lon="-6.6198940">
        <ele>530.0</ele>
        <time>2021-02-07T08:06:43Z</time>
      </trkpt>
      <trkpt lat="43.2739510" lon="-6.6199680">
        <ele>531.0</ele>
        <time>2021-02-07T08:06:47Z</time>
      </trkpt>
      <trkpt lat="43.2739700" lon="-6.6200440">
        <ele>531.0</ele>
        <time>2021-02-07T08:06:52Z</time>
      </trkpt>
      <trkpt lat="43.2739910" lon="-6.6201050">
        <ele>531.0</ele>
        <time>2021-02-07T08:06:56Z</time>
      </trkpt>
      <trkpt lat="43.2740230" lon="-6.6201750">
        <ele>532.0</ele>
        <time>2021-02-07T08:07:01Z</time>
      </trkpt>
      <trkpt lat="43.2740650" lon="-6.6202390">
        <ele>532.0</ele>
        <time>2021-02-07T08:07:05Z</time>
      </trkpt>
      <trkpt lat="43.2740920" lon="-6.6203020">
        <ele>532.0</ele>
        <time>2021-02-07T08:07:09Z</time>
      </trkpt>
      <trkpt lat="43.2741160" lon="-6.6203570">
        <ele>533.0</ele>
        <time>2021-02-07T08:07:13Z</time>
      </trkpt>
      <trkpt lat="43.2741380" lon="-6.6204270">
        <ele>533.0</ele>
        <time>2021-02-07T08:07:18Z</time>
      </trkpt>
      <trkpt lat="43.2741640" lon="-6.6205050">
        <ele>533.0</ele>
        <time>2021-02-07T08:07:23Z</time>
      </trkpt>
      <trkpt lat="43.2741900" lon="-6.6205800">
        <ele>534.0</ele>
        <time>2021-02-07T08:07:28Z</time>
      </trkpt>
      <trkpt lat="43.2742160" lon="-6.6206520">
        <ele>534.0</ele>
        <time>2021-02-07T08:07:33Z</time>
      </trkpt>
      <trkpt lat="43.2742350" lon="-6.6207180">
        <ele>534.0</ele>
        <time>2021-02-07T08:07:37Z</time>
      </trkpt>
      <trkpt lat="43.2742570" lon="-6.6207930">
        <ele>534.0</ele>
        <time>2021-02-07T08:07:42Z</time>
      </trkpt>
      <trkpt lat="43.2742780" lon="-6.6208680">
        <ele>535.0</ele>
        <time>2021-02-07T08:07:47Z</time>
      </trkpt>
      <trkpt lat="43.2743030" lon="-6.6209480">
        <ele>535.0</ele>
        <time>2021-02-07T08:07:52Z</time>
      </trkpt>
      <trkpt lat="43.2743290" lon="-6.6210110">
        <ele>535.0</ele>
        <time>2021-02-07T08:07:56Z</time>
      </trkpt>
      <trkpt lat="43.2743490" lon="-6.6210720">
        <ele>536.0</ele>
        <time>2021-02-07T08:08:00Z</time>
      </trkpt>
      <trkpt lat="43.2743760" lon="-6.6211520">
        <ele>536.0</ele>
        <time>2021-02-07T08:08:05Z</time>
      </trkpt>
      <trkpt lat="43.2744070" lon="-6.6212260">
        <ele>536.0</ele>
        <time>2021-02-07T08:08:10Z</time>
      </trkpt>
      <trkpt lat="43.2744360" lon="-6.6213030">
        <ele>536.0</ele>
        <time>2021-02-07T08:08:15Z</time>
      </trkpt>
      <trkpt lat="43.2744640" lon="-6.6213770">
        <ele>537.0</ele>
        <time>2021-02-07T08:08:20Z</time>
      </trkpt>
      <trkpt lat="43.2744860" lon="-6.6214380">
        <ele>537.0</ele>
        <time>2021-02-07T08:08:24Z</time>
      </trkpt>
      <trkpt lat="43.2745070" lon="-6.6215010">
        <ele>537.0</ele>
        <time>2021-02-07T08:08:28Z</time>
      </trkpt>
      <trkpt lat="43.2745390" lon="-6.6215760">
        <ele>537.0</ele>
        <time>2021-02-07T08:08:33Z</time>
      </trkpt>
      <trkpt lat="43.2745680" lon="-6.6216490">
        <ele>538.0</ele>
        <time>2021-02-07T08:08:38Z</time>
      </trkpt>
      <trkpt lat="43.2745970" lon="-6.6217200">
        <ele>538.0</ele>
        <time>2021-02-07T08:08:43Z</time>
      </trkpt>
      <trkpt lat="43.2746290" lon="-6.6217750">
        <ele>538.0</ele>
        <time>2021-02-07T08:08:47Z</time>
      </trkpt>
      <trkpt lat="43.2746660" lon="-6.6218420">
        <ele>539.0</ele>
        <time>2021-02-07T08:08:52Z</time>
      </trkpt>
      <trkpt lat="43.2747050" lon="-6.6218990">
        <ele>539.0</ele>
        <time>2021-02-07T08:08:57Z</time>
      </trkpt>
      <trkpt lat="43.2747420" lon="-6.6219500">
        <ele>539.0</ele>
        <time>2021-02-07T08:09:01Z</time>
      </trkpt>
      <trkpt lat="43.2747780" lon="-6.6220060">
        <ele>539.0</ele>
        <time>2021-02-07T08:09:05Z</time>
      </trkpt>
      <trkpt lat="43.2748170" lon="-6.6220640">
        <ele>540.0</ele>
        <time>2021-02-07T08:09:09Z</time>
      </trkpt>
      <trkpt lat="43.2748460" lon="-6.6221260">
        <ele>540.0</ele>
        <time>2021-02-07T08:09:13Z</time>
      </trkpt>
      <trkpt lat="43.2748800" lon="-6.6221840">
        <ele>540.0</ele>
        <time>2021-02-07T08:09:17Z</time>
      </trkpt>
      <trkpt lat="43.2749100" lon="-6.6222350">
        <ele>540.0</ele>
        <time>2021-02-07T08:09:21Z</time>
      </trkpt>
      <trkpt lat="43.2749470" lon="-6.6223040">
        <ele>540.0</ele>
        <time>2021-02-07T08:09:26Z</time>
      </trkpt>
      <trkpt lat="43.2749760" lon="-6.6223670">
        <ele>541.0</ele>
        <time>2021-02-07T08:09:30Z</time>
      </trkpt>
      <trkpt lat="43.2750090" lon="-6.6224300">
        <ele>541.0</ele>
        <time>2021-02-07T08:09:34Z</time>
      </trkpt>
      <trkpt lat="43.2750410" lon="-6.6224870">
        <ele>541.0</ele>
        <time>2021-02-07T08:09:38Z</time>
      </trkpt>
      <trkpt lat="43.2750690" lon="-6.6225390">
        <ele>541.0</ele>
        <time>2021-02-07T08:09:42Z</time>
      </trkpt>
      <trkpt lat="43.2751000" lon="-6.6226000">
        <ele>541.0</ele>
        <time>2021-02-07T08:09:47Z</time>
      </trkpt>
      <trkpt lat="43.2751420" lon="-6.6226720">
        <ele>541.0</ele>
        <time>2021-02-07T08:09:52Z</time>
      </trkpt>
      <trkpt lat="43.2751790" lon="-6.6227330">
        <ele>542.0</ele>
        <time>2021-02-07T08:09:56Z</time>
      </trkpt>
      <trkpt lat="43.2752120" lon="-6.6227910">
        <ele>542.0</ele>
        <time>2021-02-07T08:10:00Z</time>
      </trkpt>
      <trkpt lat="43.2752450" lon="-6.6228470">
        <ele>542.0</ele>
        <time>2021-02-07T08:10:04Z</time>
      </trkpt>
      <trkpt lat="43.2752820" lon="-6.6228960">
        <ele>542.0</ele>
        <time>2021-02-07T08:10:08Z</time>
      </trkpt>
      <trkpt lat="43.2753250" lon="-6.6229420">
        <ele>542.0</ele>
        <time>2021-02-07T08:10:12Z</time>
      </trkpt>
      <trkpt lat="43.2753660" lon="-6.6229940">
        <ele>543.0</ele>
        <time>2021-02-07T08:10:16Z</time>
      </trkpt>
      <trkpt lat="43.2753970" lon="-6.6230520">
        <ele>543.0</ele>
        <time>2021-02-07T08:10:20Z</time>
      </trkpt>
      <trkpt lat="43.2754270" lon="-6.6231040">
        <ele>543.0</ele>
        <time>2021-02-07T08:10:24Z</time>
      </trkpt>
      <trkpt lat="43.2754800" lon="-6.6231700">
        <ele>543.0</ele>
        <time>2021-02-07T08:10:30Z</time>
      </trkpt>
      <trkpt lat="43.2755190" lon="-6.6232220">
        <ele>544.0</ele>
        <time>2021-02-07T08:10:34Z</time>
      </trkpt>
      <trkpt lat="43.2755590" lon="-6.6232790">
        <ele>544.0</ele>
        <time>2021-02-07T08:10:39Z</time>
      </trkpt>
      <trkpt lat="43.2755930" lon="-6.6233200">
        <ele>544.0</ele>
        <time>2021-02-07T08:10:43Z</time>
      </trkpt>
      <trkpt lat="43.2756350" lon="-6.6233770">
        <ele>545.0</ele>
        <time>2021-02-07T08:10:48Z</time>
      </trkpt>
      <trkpt lat="43.2756760" lon="-6.6234280">
        <ele>545.0</ele>
        <time>2021-02-07T08:10:52Z</time>
      </trkpt>
      <trkpt lat="43.2757190" lon="-6.6234770">
        <ele>545.0</ele>
        <time>2021-02-07T08:10:57Z</time>
      </trkpt>
      <trkpt lat="43.2757620" lon="-6.6235240">
        <ele>546.0</ele>
        <time>2021-02-07T08:11:02Z</time>
      </trkpt>
      <trkpt lat="43.2758170" lon="-6.6235530">
        <ele>546.0</ele>
        <time>2021-02-07T08:11:07Z</time>
      </trkpt>
      <trkpt lat="43.2758660" lon="-6.6235830">
        <ele>546.0</ele>
        <time>2021-02-07T08:11:11Z</time>
      </trkpt>
      <trkpt lat="43.2759180" lon="-6.6236140">
        <ele>546.0</ele>
        <time>2021-02-07T08:11:15Z</time>
      </trkpt>
      <trkpt lat="43.2759750" lon="-6.6236480">
        <ele>546.0</ele>
        <time>2021-02-07T08:11:19Z</time>
      </trkpt>
      <trkpt lat="43.2760230" lon="-6.6236760">
        <ele>547.0</ele>
        <time>2021-02-07T08:11:23Z</time>
      </trkpt>
      <trkpt lat="43.2760780" lon="-6.6237070">
        <ele>547.0</ele>
        <time>2021-02-07T08:11:28Z</time>
      </trkpt>
      <trkpt lat="43.2761270" lon="-6.6237380">
        <ele>547.0</ele>
        <time>2021-02-07T08:11:32Z</time>
      </trkpt>
      <trkpt lat="43.2761840" lon="-6.6237830">
        <ele>547.0</ele>
        <time>2021-02-07T08:11:37Z</time>
      </trkpt>
      <trkpt lat="43.2762230" lon="-6.6238220">
        <ele>547.0</ele>
        <time>2021-02-07T08:11:41Z</time>
      </trkpt>
      <trkpt lat="43.2762760" lon="-6.6238650">
        <ele>548.0</ele>
        <time>2021-02-07T08:11:46Z</time>
      </trkpt>
      <trkpt lat="43.2763160" lon="-6.6239140">
        <ele>548.0</ele>
        <time>2021-02-07T08:11:51Z</time>
      </trkpt>
      <trkpt lat="43.2763410" lon="-6.6239930">
        <ele>548.0</ele>
        <time>2021-02-07T08:11:56Z</time>
      </trkpt>
      <trkpt lat="43.2763640" lon="-6.6240620">
        <ele>549.0</ele>
        <time>2021-02-07T08:12:03Z</time>
      </trkpt>
      <trkpt lat="43.2764020" lon="-6.6241250">
        <ele>548.0</ele>
        <time>2021-02-07T08:12:09Z</time>
      </trkpt>
      <trkpt lat="43.2764360" lon="-6.6241860">
        <ele>547.0</ele>
        <time>2021-02-07T08:12:15Z</time>
      </trkpt>
      <trkpt lat="43.2764660" lon="-6.6242310">
        <ele>547.0</ele>
        <time>2021-02-07T08:12:22Z</time>
      </trkpt>
      <trkpt lat="43.2764880" lon="-6.6243110">
        <ele>546.0</ele>
        <time>2021-02-07T08:12:28Z</time>
      </trkpt>
      <trkpt lat="43.2765010" lon="-6.6243800">
        <ele>545.0</ele>
        <time>2021-02-07T08:12:32Z</time>
      </trkpt>
      <trkpt lat="43.2765000" lon="-6.6244600">
        <ele>545.0</ele>
        <time>2021-02-07T08:12:36Z</time>
      </trkpt>
      <trkpt lat="43.2765270" lon="-6.6245340">
        <ele>544.0</ele>
        <time>2021-02-07T08:12:41Z</time>
      </trkpt>
      <trkpt lat="43.2765590" lon="-6.6245880">
        <ele>544.0</ele>
        <time>2021-02-07T08:12:46Z</time>
      </trkpt>
      <trkpt lat="43.2766020" lon="-6.6246330">
        <ele>543.0</ele>
        <time>2021-02-07T08:12:51Z</time>
      </trkpt>
      <trkpt lat="43.2766590" lon="-6.6246880">
        <ele>543.0</ele>
        <time>2021-02-07T08:12:56Z</time>
      </trkpt>
      <trkpt lat="43.2767010" lon="-6.6247370">
        <ele>543.0</ele>
        <time>2021-02-07T08:13:00Z</time>
      </trkpt>
      <trkpt lat="43.2767470" lon="-6.6247740">
        <ele>543.0</ele>
        <time>2021-02-07T08:13:05Z</time>
      </trkpt>
      <trkpt lat="43.2768030" lon="-6.6248110">
        <ele>543.0</ele>
        <time>2021-02-07T08:13:10Z</time>
      </trkpt>
      <trkpt lat="43.2768490" lon="-6.6248440">
        <ele>542.0</ele>
        <time>2021-02-07T08:13:14Z</time>
      </trkpt>
      <trkpt lat="43.2769010" lon="-6.6248800">
        <ele>542.0</ele>
        <time>2021-02-07T08:13:18Z</time>
      </trkpt>
      <trkpt lat="43.2769450" lon="-6.6249360">
        <ele>541.0</ele>
        <time>2021-02-07T08:13:23Z</time>
      </trkpt>
      <trkpt lat="43.2769930" lon="-6.6249740">
        <ele>540.0</ele>
        <time>2021-02-07T08:13:29Z</time>
      </trkpt>
      <trkpt lat="43.2770310" lon="-6.6250160">
        <ele>539.0</ele>
        <time>2021-02-07T08:13:34Z</time>
      </trkpt>
      <trkpt lat="43.2770750" lon="-6.6250830">
        <ele>539.0</ele>
        <time>2021-02-07T08:13:39Z</time>
      </trkpt>
      <trkpt lat="43.2771120" lon="-6.6251330">
        <ele>538.0</ele>
        <time>2021-02-07T08:13:43Z</time>
      </trkpt>
      <trkpt lat="43.2771510" lon="-6.6251950">
        <ele>537.0</ele>
        <time>2021-02-07T08:13:48Z</time>
      </trkpt>
      <trkpt lat="43.2771830" lon="-6.6252550">
        <ele>537.0</ele>
        <time>2021-02-07T08:13:52Z</time>
      </trkpt>
      <trkpt lat="43.2772050" lon="-6.6253240">
        <ele>536.0</ele>
        <time>2021-02-07T08:13:57Z</time>
      </trkpt>
      <trkpt lat="43.2772370" lon="-6.6253830">
        <ele>535.0</ele>
        <time>2021-02-07T08:14:01Z</time>
      </trkpt>
      <trkpt lat="43.2772610" lon="-6.6254370">
        <ele>535.0</ele>
        <time>2021-02-07T08:14:05Z</time>
      </trkpt>
      <trkpt lat="43.2772980" lon="-6.6254810">
        <ele>535.0</ele>
        <time>2021-02-07T08:14:15Z</time>
      </trkpt>
      <trkpt lat="43.2773120" lon="-6.6255480">
        <ele>535.0</ele>
        <time>2021-02-07T08:14:22Z</time>
      </trkpt>
      <trkpt lat="43.2773420" lon="-6.6256130">
        <ele>535.0</ele>
        <time>2021-02-07T08:14:29Z</time>
      </trkpt>
      <trkpt lat="43.2773910" lon="-6.6256700">
        <ele>535.0</ele>
        <time>2021-02-07T08:14:35Z</time>
      </trkpt>
      <trkpt lat="43.2774450" lon="-6.6257060">
        <ele>535.0</ele>
        <time>2021-02-07T08:14:40Z</time>
      </trkpt>
      <trkpt lat="43.2774850" lon="-6.6257340">
        <ele>536.0</ele>
        <time>2021-02-07T08:14:45Z</time>
      </trkpt>
      <trkpt lat="43.2775130" lon="-6.6257940">
        <ele>537.0</ele>
        <time>2021-02-07T08:14:52Z</time>
      </trkpt>
      <trkpt lat="43.2775260" lon="-6.6258670">
        <ele>538.0</ele>
        <time>2021-02-07T08:14:58Z</time>
      </trkpt>
      <trkpt lat="43.2775270" lon="-6.6259230">
        <ele>539.0</ele>
        <time>2021-02-07T08:15:07Z</time>
      </trkpt>
      <trkpt lat="43.2775600" lon="-6.6259950">
        <ele>541.0</ele>
        <time>2021-02-07T08:15:15Z</time>
      </trkpt>
      <trkpt lat="43.2776050" lon="-6.6260400">
        <ele>542.0</ele>
        <time>2021-02-07T08:15:22Z</time>
      </trkpt>
      <trkpt lat="43.2776530" lon="-6.6260560">
        <ele>543.0</ele>
        <time>2021-02-07T08:15:29Z</time>
      </trkpt>
      <trkpt lat="43.2777000" lon="-6.6260810">
        <ele>544.0</ele>
        <time>2021-02-07T08:15:36Z</time>
      </trkpt>
      <trkpt lat="43.2777510" lon="-6.6261080">
        <ele>545.0</ele>
        <time>2021-02-07T08:15:43Z</time>
      </trkpt>
      <trkpt lat="43.2777940" lon="-6.6261420">
        <ele>546.0</ele>
        <time>2021-02-07T08:15:52Z</time>
      </trkpt>
      <trkpt lat="43.2779640" lon="-6.6262250">
        <ele>549.0</ele>
        <time>2021-02-07T08:16:25Z</time>
      </trkpt>
      <trkpt lat="43.2780130" lon="-6.6262510">
        <ele>550.0</ele>
        <time>2021-02-07T08:16:32Z</time>
      </trkpt>
      <trkpt lat="43.2780620" lon="-6.6262720">
        <ele>551.0</ele>
        <time>2021-02-07T08:16:39Z</time>
      </trkpt>
      <trkpt lat="43.2781170" lon="-6.6262990">
        <ele>552.0</ele>
        <time>2021-02-07T08:16:51Z</time>
      </trkpt>
      <trkpt lat="43.2781590" lon="-6.6263390">
        <ele>553.0</ele>
        <time>2021-02-07T08:16:58Z</time>
      </trkpt>
      <trkpt lat="43.2781990" lon="-6.6263910">
        <ele>554.0</ele>
        <time>2021-02-07T08:17:06Z</time>
      </trkpt>
      <trkpt lat="43.2782420" lon="-6.6264390">
        <ele>555.0</ele>
        <time>2021-02-07T08:17:14Z</time>
      </trkpt>
      <trkpt lat="43.2782830" lon="-6.6264770">
        <ele>555.0</ele>
        <time>2021-02-07T08:17:19Z</time>
      </trkpt>
      <trkpt lat="43.2783320" lon="-6.6265340">
        <ele>556.0</ele>
        <time>2021-02-07T08:17:25Z</time>
      </trkpt>
      <trkpt lat="43.2783720" lon="-6.6265840">
        <ele>557.0</ele>
        <time>2021-02-07T08:17:31Z</time>
      </trkpt>
      <trkpt lat="43.2784200" lon="-6.6266330">
        <ele>558.0</ele>
        <time>2021-02-07T08:17:37Z</time>
      </trkpt>
      <trkpt lat="43.2784690" lon="-6.6266780">
        <ele>558.0</ele>
        <time>2021-02-07T08:17:42Z</time>
      </trkpt>
      <trkpt lat="43.2784960" lon="-6.6267480">
        <ele>558.0</ele>
        <time>2021-02-07T08:17:47Z</time>
      </trkpt>
      <trkpt lat="43.2785210" lon="-6.6268110">
        <ele>558.0</ele>
        <time>2021-02-07T08:17:52Z</time>
      </trkpt>
      <trkpt lat="43.2785400" lon="-6.6268740">
        <ele>558.0</ele>
        <time>2021-02-07T08:17:57Z</time>
      </trkpt>
      <trkpt lat="43.2785570" lon="-6.6269560">
        <ele>558.0</ele>
        <time>2021-02-07T08:18:02Z</time>
      </trkpt>
      <trkpt lat="43.2785760" lon="-6.6270310">
        <ele>557.0</ele>
        <time>2021-02-07T08:18:06Z</time>
      </trkpt>
      <trkpt lat="43.2785970" lon="-6.6271050">
        <ele>557.0</ele>
        <time>2021-02-07T08:18:10Z</time>
      </trkpt>
      <trkpt lat="43.2786280" lon="-6.6271750">
        <ele>556.0</ele>
        <time>2021-02-07T08:18:15Z</time>
      </trkpt>
      <trkpt lat="43.2786640" lon="-6.6272270">
        <ele>556.0</ele>
        <time>2021-02-07T08:18:19Z</time>
      </trkpt>
      <trkpt lat="43.2787060" lon="-6.6272700">
        <ele>556.0</ele>
        <time>2021-02-07T08:18:23Z</time>
      </trkpt>
      <trkpt lat="43.2787490" lon="-6.6273060">
        <ele>555.0</ele>
        <time>2021-02-07T08:18:27Z</time>
      </trkpt>
      <trkpt lat="43.2788010" lon="-6.6273440">
        <ele>555.0</ele>
        <time>2021-02-07T08:18:32Z</time>
      </trkpt>
      <trkpt lat="43.2788480" lon="-6.6273800">
        <ele>555.0</ele>
        <time>2021-02-07T08:18:36Z</time>
      </trkpt>
      <trkpt lat="43.2789080" lon="-6.6274140">
        <ele>554.0</ele>
        <time>2021-02-07T08:18:40Z</time>
      </trkpt>
      <trkpt lat="43.2789530" lon="-6.6274390">
        <ele>554.0</ele>
        <time>2021-02-07T08:18:43Z</time>
      </trkpt>
      <trkpt lat="43.2790130" lon="-6.6274740">
        <ele>553.0</ele>
        <time>2021-02-07T08:18:47Z</time>
      </trkpt>
      <trkpt lat="43.2790690" lon="-6.6275170">
        <ele>553.0</ele>
        <time>2021-02-07T08:18:51Z</time>
      </trkpt>
      <trkpt lat="43.2791130" lon="-6.6275540">
        <ele>552.0</ele>
        <time>2021-02-07T08:18:55Z</time>
      </trkpt>
      <trkpt lat="43.2791540" lon="-6.6275920">
        <ele>552.0</ele>
        <time>2021-02-07T08:18:59Z</time>
      </trkpt>
      <trkpt lat="43.2791840" lon="-6.6276580">
        <ele>552.0</ele>
        <time>2021-02-07T08:19:04Z</time>
      </trkpt>
      <trkpt lat="43.2791810" lon="-6.6277260">
        <ele>551.0</ele>
        <time>2021-02-07T08:19:08Z</time>
      </trkpt>
      <trkpt lat="43.2791580" lon="-6.6277940">
        <ele>551.0</ele>
        <time>2021-02-07T08:19:12Z</time>
      </trkpt>
      <trkpt lat="43.2791240" lon="-6.6278630">
        <ele>551.0</ele>
        <time>2021-02-07T08:19:16Z</time>
      </trkpt>
      <trkpt lat="43.2790910" lon="-6.6279270">
        <ele>551.0</ele>
        <time>2021-02-07T08:19:20Z</time>
      </trkpt>
      <trkpt lat="43.2790520" lon="-6.6279870">
        <ele>550.0</ele>
        <time>2021-02-07T08:19:24Z</time>
      </trkpt>
      <trkpt lat="43.2790280" lon="-6.6280430">
        <ele>550.0</ele>
        <time>2021-02-07T08:19:28Z</time>
      </trkpt>
      <trkpt lat="43.2790050" lon="-6.6281110">
        <ele>550.0</ele>
        <time>2021-02-07T08:19:32Z</time>
      </trkpt>
      <trkpt lat="43.2789800" lon="-6.6281930">
        <ele>549.0</ele>
        <time>2021-02-07T08:19:36Z</time>
      </trkpt>
      <trkpt lat="43.2789660" lon="-6.6282730">
        <ele>549.0</ele>
        <time>2021-02-07T08:19:40Z</time>
      </trkpt>
      <trkpt lat="43.2789620" lon="-6.6283450">
        <ele>548.0</ele>
        <time>2021-02-07T08:19:44Z</time>
      </trkpt>
      <trkpt lat="43.2789550" lon="-6.6284260">
        <ele>548.0</ele>
        <time>2021-02-07T08:19:49Z</time>
      </trkpt>
      <trkpt lat="43.2789580" lon="-6.6284960">
        <ele>547.0</ele>
        <time>2021-02-07T08:19:53Z</time>
      </trkpt>
      <trkpt lat="43.2789750" lon="-6.6285670">
        <ele>547.0</ele>
        <time>2021-02-07T08:19:57Z</time>
      </trkpt>
      <trkpt lat="43.2789830" lon="-6.6286540">
        <ele>547.0</ele>
        <time>2021-02-07T08:20:01Z</time>
      </trkpt>
      <trkpt lat="43.2789880" lon="-6.6287220">
        <ele>547.0</ele>
        <time>2021-02-07T08:20:04Z</time>
      </trkpt>
      <trkpt lat="43.2789990" lon="-6.6287970">
        <ele>546.0</ele>
        <time>2021-02-07T08:20:08Z</time>
      </trkpt>
      <trkpt lat="43.2790340" lon="-6.6288490">
        <ele>546.0</ele>
        <time>2021-02-07T08:20:12Z</time>
      </trkpt>
      <trkpt lat="43.2790790" lon="-6.6289040">
        <ele>546.0</ele>
        <time>2021-02-07T08:20:16Z</time>
      </trkpt>
      <trkpt lat="43.2791180" lon="-6.6289570">
        <ele>546.0</ele>
        <time>2021-02-07T08:20:20Z</time>
      </trkpt>
      <trkpt lat="43.2791560" lon="-6.6290040">
        <ele>546.0</ele>
        <time>2021-02-07T08:20:24Z</time>
      </trkpt>
      <trkpt lat="43.2792120" lon="-6.6290450">
        <ele>547.0</ele>
        <time>2021-02-07T08:20:29Z</time>
      </trkpt>
      <trkpt lat="43.2792640" lon="-6.6290730">
        <ele>547.0</ele>
        <time>2021-02-07T08:20:34Z</time>
      </trkpt>
      <trkpt lat="43.2793100" lon="-6.6291050">
        <ele>548.0</ele>
        <time>2021-02-07T08:20:38Z</time>
      </trkpt>
      <trkpt lat="43.2793660" lon="-6.6291430">
        <ele>548.0</ele>
        <time>2021-02-07T08:20:43Z</time>
      </trkpt>
      <trkpt lat="43.2794260" lon="-6.6291740">
        <ele>548.0</ele>
        <time>2021-02-07T08:20:48Z</time>
      </trkpt>
      <trkpt lat="43.2794730" lon="-6.6292080">
        <ele>548.0</ele>
        <time>2021-02-07T08:20:53Z</time>
      </trkpt>
      <trkpt lat="43.2795240" lon="-6.6292400">
        <ele>548.0</ele>
        <time>2021-02-07T08:20:58Z</time>
      </trkpt>
      <trkpt lat="43.2795590" lon="-6.6292820">
        <ele>548.0</ele>
        <time>2021-02-07T08:21:03Z</time>
      </trkpt>
      <trkpt lat="43.2796100" lon="-6.6293350">
        <ele>548.0</ele>
        <time>2021-02-07T08:21:08Z</time>
      </trkpt>
      <trkpt lat="43.2796550" lon="-6.6293650">
        <ele>548.0</ele>
        <time>2021-02-07T08:21:12Z</time>
      </trkpt>
      <trkpt lat="43.2797070" lon="-6.6293940">
        <ele>548.0</ele>
        <time>2021-02-07T08:21:16Z</time>
      </trkpt>
      <trkpt lat="43.2797610" lon="-6.6294230">
        <ele>548.0</ele>
        <time>2021-02-07T08:21:20Z</time>
      </trkpt>
      <trkpt lat="43.2798160" lon="-6.6294450">
        <ele>548.0</ele>
        <time>2021-02-07T08:21:24Z</time>
      </trkpt>
      <trkpt lat="43.2798710" lon="-6.6294760">
        <ele>548.0</ele>
        <time>2021-02-07T08:21:28Z</time>
      </trkpt>
      <trkpt lat="43.2799160" lon="-6.6295400">
        <ele>548.0</ele>
        <time>2021-02-07T08:21:32Z</time>
      </trkpt>
      <trkpt lat="43.2799320" lon="-6.6296140">
        <ele>548.0</ele>
        <time>2021-02-07T08:21:36Z</time>
      </trkpt>
      <trkpt lat="43.2799670" lon="-6.6296760">
        <ele>548.0</ele>
        <time>2021-02-07T08:21:40Z</time>
      </trkpt>
      <trkpt lat="43.2799990" lon="-6.6297330">
        <ele>548.0</ele>
        <time>2021-02-07T08:21:44Z</time>
      </trkpt>
      <trkpt lat="43.2800430" lon="-6.6297890">
        <ele>549.0</ele>
        <time>2021-02-07T08:21:49Z</time>
      </trkpt>
      <trkpt lat="43.2800950" lon="-6.6298370">
        <ele>549.0</ele>
        <time>2021-02-07T08:21:54Z</time>
      </trkpt>
      <trkpt lat="43.2801420" lon="-6.6298860">
        <ele>550.0</ele>
        <time>2021-02-07T08:21:59Z</time>
      </trkpt>
      <trkpt lat="43.2801840" lon="-6.6299240">
        <ele>550.0</ele>
        <time>2021-02-07T08:22:03Z</time>
      </trkpt>
      <trkpt lat="43.2802240" lon="-6.6299800">
        <ele>551.0</ele>
        <time>2021-02-07T08:22:07Z</time>
      </trkpt>
      <trkpt lat="43.2802650" lon="-6.6300280">
        <ele>551.0</ele>
        <time>2021-02-07T08:22:11Z</time>
      </trkpt>
      <trkpt lat="43.2803180" lon="-6.6300700">
        <ele>551.0</ele>
        <time>2021-02-07T08:22:15Z</time>
      </trkpt>
      <trkpt lat="43.2803640" lon="-6.6301210">
        <ele>551.0</ele>
        <time>2021-02-07T08:22:19Z</time>
      </trkpt>
      <trkpt lat="43.2804070" lon="-6.6301740">
        <ele>552.0</ele>
        <time>2021-02-07T08:22:24Z</time>
      </trkpt>
      <trkpt lat="43.2804520" lon="-6.6302210">
        <ele>552.0</ele>
        <time>2021-02-07T08:22:28Z</time>
      </trkpt>
      <trkpt lat="43.2804840" lon="-6.6302720">
        <ele>552.0</ele>
        <time>2021-02-07T08:22:32Z</time>
      </trkpt>
      <trkpt lat="43.2805070" lon="-6.6303400">
        <ele>552.0</ele>
        <time>2021-02-07T08:22:36Z</time>
      </trkpt>
      <trkpt lat="43.2805140" lon="-6.6304190">
        <ele>552.0</ele>
        <time>2021-02-07T08:22:40Z</time>
      </trkpt>
      <trkpt lat="43.2805230" lon="-6.6304730">
        <ele>552.0</ele>
        <time>2021-02-07T08:22:43Z</time>
      </trkpt>
      <trkpt lat="43.2805620" lon="-6.6305280">
        <ele>553.0</ele>
        <time>2021-02-07T08:22:48Z</time>
      </trkpt>
      <trkpt lat="43.2806200" lon="-6.6305750">
        <ele>554.0</ele>
        <time>2021-02-07T08:22:54Z</time>
      </trkpt>
      <trkpt lat="43.2806520" lon="-6.6306400">
        <ele>556.0</ele>
        <time>2021-02-07T08:23:01Z</time>
      </trkpt>
      <trkpt lat="43.2806840" lon="-6.6306760">
        <ele>556.0</ele>
        <time>2021-02-07T08:23:06Z</time>
      </trkpt>
      <trkpt lat="43.2806930" lon="-6.6307570">
        <ele>558.0</ele>
        <time>2021-02-07T08:23:14Z</time>
      </trkpt>
      <trkpt lat="43.2807240" lon="-6.6308140">
        <ele>559.0</ele>
        <time>2021-02-07T08:23:20Z</time>
      </trkpt>
      <trkpt lat="43.2807620" lon="-6.6308600">
        <ele>560.0</ele>
        <time>2021-02-07T08:23:26Z</time>
      </trkpt>
      <trkpt lat="43.2808130" lon="-6.6309020">
        <ele>560.0</ele>
        <time>2021-02-07T08:23:33Z</time>
      </trkpt>
      <trkpt lat="43.2808570" lon="-6.6309460">
        <ele>562.0</ele>
        <time>2021-02-07T08:23:38Z</time>
      </trkpt>
      <trkpt lat="43.2808950" lon="-6.6310130">
        <ele>563.0</ele>
        <time>2021-02-07T08:23:43Z</time>
      </trkpt>
      <trkpt lat="43.2809310" lon="-6.6310620">
        <ele>564.0</ele>
        <time>2021-02-07T08:23:47Z</time>
      </trkpt>
      <trkpt lat="43.2809780" lon="-6.6311100">
        <ele>564.0</ele>
        <time>2021-02-07T08:23:52Z</time>
      </trkpt>
      <trkpt lat="43.2810240" lon="-6.6311380">
        <ele>565.0</ele>
        <time>2021-02-07T08:23:57Z</time>
      </trkpt>
      <trkpt lat="43.2810630" lon="-6.6311810">
        <ele>565.0</ele>
        <time>2021-02-07T08:24:03Z</time>
      </trkpt>
      <trkpt lat="43.2811190" lon="-6.6312290">
        <ele>565.0</ele>
        <time>2021-02-07T08:24:09Z</time>
      </trkpt>
      <trkpt lat="43.2811580" lon="-6.6312650">
        <ele>566.0</ele>
        <time>2021-02-07T08:24:13Z</time>
      </trkpt>
      <trkpt lat="43.2812030" lon="-6.6313300">
        <ele>566.0</ele>
        <time>2021-02-07T08:24:18Z</time>
      </trkpt>
      <trkpt lat="43.2812300" lon="-6.6313990">
        <ele>566.0</ele>
        <time>2021-02-07T08:24:22Z</time>
      </trkpt>
      <trkpt lat="43.2812540" lon="-6.6314690">
        <ele>565.0</ele>
        <time>2021-02-07T08:24:26Z</time>
      </trkpt>
      <trkpt lat="43.2812770" lon="-6.6315390">
        <ele>565.0</ele>
        <time>2021-02-07T08:24:30Z</time>
      </trkpt>
      <trkpt lat="43.2813000" lon="-6.6316110">
        <ele>564.0</ele>
        <time>2021-02-07T08:24:35Z</time>
      </trkpt>
      <trkpt lat="43.2813170" lon="-6.6316760">
        <ele>564.0</ele>
        <time>2021-02-07T08:24:39Z</time>
      </trkpt>
      <trkpt lat="43.2813340" lon="-6.6317490">
        <ele>563.0</ele>
        <time>2021-02-07T08:24:44Z</time>
      </trkpt>
      <trkpt lat="43.2813390" lon="-6.6318410">
        <ele>563.0</ele>
        <time>2021-02-07T08:24:50Z</time>
      </trkpt>
      <trkpt lat="43.2813290" lon="-6.6319290">
        <ele>562.0</ele>
        <time>2021-02-07T08:24:54Z</time>
      </trkpt>
      <trkpt lat="43.2813280" lon="-6.6319990">
        <ele>562.0</ele>
        <time>2021-02-07T08:24:58Z</time>
      </trkpt>
      <trkpt lat="43.2813370" lon="-6.6320710">
        <ele>562.0</ele>
        <time>2021-02-07T08:25:02Z</time>
      </trkpt>
      <trkpt lat="43.2813480" lon="-6.6321400">
        <ele>562.0</ele>
        <time>2021-02-07T08:25:06Z</time>
      </trkpt>
      <trkpt lat="43.2813530" lon="-6.6322330">
        <ele>562.0</ele>
        <time>2021-02-07T08:25:11Z</time>
      </trkpt>
      <trkpt lat="43.2813590" lon="-6.6323140">
        <ele>561.0</ele>
        <time>2021-02-07T08:25:15Z</time>
      </trkpt>
      <trkpt lat="43.2813660" lon="-6.6323930">
        <ele>561.0</ele>
        <time>2021-02-07T08:25:19Z</time>
      </trkpt>
      <trkpt lat="43.2813750" lon="-6.6324580">
        <ele>561.0</ele>
        <time>2021-02-07T08:25:23Z</time>
      </trkpt>
      <trkpt lat="43.2813750" lon="-6.6325300">
        <ele>561.0</ele>
        <time>2021-02-07T08:25:28Z</time>
      </trkpt>
      <trkpt lat="43.2813680" lon="-6.6326160">
        <ele>560.0</ele>
        <time>2021-02-07T08:25:33Z</time>
      </trkpt>
      <trkpt lat="43.2813550" lon="-6.6326880">
        <ele>559.0</ele>
        <time>2021-02-07T08:25:37Z</time>
      </trkpt>
      <trkpt lat="43.2813360" lon="-6.6327520">
        <ele>558.0</ele>
        <time>2021-02-07T08:25:40Z</time>
      </trkpt>
      <trkpt lat="43.2813290" lon="-6.6328300">
        <ele>558.0</ele>
        <time>2021-02-07T08:25:44Z</time>
      </trkpt>
      <trkpt lat="43.2813360" lon="-6.6329070">
        <ele>558.0</ele>
        <time>2021-02-07T08:25:48Z</time>
      </trkpt>
      <trkpt lat="43.2813460" lon="-6.6329840">
        <ele>558.0</ele>
        <time>2021-02-07T08:25:52Z</time>
      </trkpt>
      <trkpt lat="43.2813570" lon="-6.6330470">
        <ele>558.0</ele>
        <time>2021-02-07T08:25:56Z</time>
      </trkpt>
      <trkpt lat="43.2813600" lon="-6.6331330">
        <ele>558.0</ele>
        <time>2021-02-07T08:26:01Z</time>
      </trkpt>
      <trkpt lat="43.2813670" lon="-6.6332090">
        <ele>558.0</ele>
        <time>2021-02-07T08:26:05Z</time>
      </trkpt>
      <trkpt lat="43.2813760" lon="-6.6332840">
        <ele>558.0</ele>
        <time>2021-02-07T08:26:09Z</time>
      </trkpt>
      <trkpt lat="43.2813850" lon="-6.6333560">
        <ele>558.0</ele>
        <time>2021-02-07T08:26:13Z</time>
      </trkpt>
      <trkpt lat="43.2814000" lon="-6.6334230">
        <ele>559.0</ele>
        <time>2021-02-07T08:26:17Z</time>
      </trkpt>
      <trkpt lat="43.2814090" lon="-6.6335020">
        <ele>559.0</ele>
        <time>2021-02-07T08:26:22Z</time>
      </trkpt>
      <trkpt lat="43.2814350" lon="-6.6335750">
        <ele>560.0</ele>
        <time>2021-02-07T08:26:28Z</time>
      </trkpt>
      <trkpt lat="43.2814500" lon="-6.6336400">
        <ele>560.0</ele>
        <time>2021-02-07T08:26:32Z</time>
      </trkpt>
      <trkpt lat="43.2814540" lon="-6.6337280">
        <ele>560.0</ele>
        <time>2021-02-07T08:26:37Z</time>
      </trkpt>
      <trkpt lat="43.2814450" lon="-6.6338110">
        <ele>560.0</ele>
        <time>2021-02-07T08:26:41Z</time>
      </trkpt>
      <trkpt lat="43.2814370" lon="-6.6338880">
        <ele>560.0</ele>
        <time>2021-02-07T08:26:45Z</time>
      </trkpt>
      <trkpt lat="43.2814450" lon="-6.6339600">
        <ele>560.0</ele>
        <time>2021-02-07T08:26:49Z</time>
      </trkpt>
      <trkpt lat="43.2814520" lon="-6.6340380">
        <ele>560.0</ele>
        <time>2021-02-07T08:26:53Z</time>
      </trkpt>
      <trkpt lat="43.2814620" lon="-6.6341090">
        <ele>560.0</ele>
        <time>2021-02-07T08:26:57Z</time>
      </trkpt>
      <trkpt lat="43.2814710" lon="-6.6341800">
        <ele>560.0</ele>
        <time>2021-02-07T08:27:02Z</time>
      </trkpt>
      <trkpt lat="43.2815030" lon="-6.6342350">
        <ele>561.0</ele>
        <time>2021-02-07T08:27:08Z</time>
      </trkpt>
      <trkpt lat="43.2815530" lon="-6.6342630">
        <ele>562.0</ele>
        <time>2021-02-07T08:27:14Z</time>
      </trkpt>
      <trkpt lat="43.2815850" lon="-6.6342920">
        <ele>562.0</ele>
        <time>2021-02-07T08:27:20Z</time>
      </trkpt>
      <trkpt lat="43.2815780" lon="-6.6343830">
        <ele>563.0</ele>
        <time>2021-02-07T08:27:26Z</time>
      </trkpt>
      <trkpt lat="43.2816060" lon="-6.6344270">
        <ele>564.0</ele>
        <time>2021-02-07T08:27:30Z</time>
      </trkpt>
      <trkpt lat="43.2816060" lon="-6.6345190">
        <ele>564.0</ele>
        <time>2021-02-07T08:27:35Z</time>
      </trkpt>
      <trkpt lat="43.2816100" lon="-6.6346000">
        <ele>565.0</ele>
        <time>2021-02-07T08:27:40Z</time>
      </trkpt>
      <trkpt lat="43.2816250" lon="-6.6346790">
        <ele>565.0</ele>
        <time>2021-02-07T08:27:46Z</time>
      </trkpt>
      <trkpt lat="43.2816580" lon="-6.6347520">
        <ele>566.0</ele>
        <time>2021-02-07T08:27:52Z</time>
      </trkpt>
      <trkpt lat="43.2816940" lon="-6.6347990">
        <ele>566.0</ele>
        <time>2021-02-07T08:27:56Z</time>
      </trkpt>
      <trkpt lat="43.2817240" lon="-6.6348650">
        <ele>566.0</ele>
        <time>2021-02-07T08:28:01Z</time>
      </trkpt>
      <trkpt lat="43.2817620" lon="-6.6349360">
        <ele>567.0</ele>
        <time>2021-02-07T08:28:06Z</time>
      </trkpt>
      <trkpt lat="43.2817800" lon="-6.6349920">
        <ele>567.0</ele>
        <time>2021-02-07T08:28:10Z</time>
      </trkpt>
      <trkpt lat="43.2818010" lon="-6.6350730">
        <ele>567.0</ele>
        <time>2021-02-07T08:28:15Z</time>
      </trkpt>
      <trkpt lat="43.2818250" lon="-6.6351360">
        <ele>568.0</ele>
        <time>2021-02-07T08:28:22Z</time>
      </trkpt>
      <trkpt lat="43.2818500" lon="-6.6351990">
        <ele>568.0</ele>
        <time>2021-02-07T08:28:28Z</time>
      </trkpt>
      <trkpt lat="43.2818610" lon="-6.6352760">
        <ele>569.0</ele>
        <time>2021-02-07T08:28:34Z</time>
      </trkpt>
      <trkpt lat="43.2818720" lon="-6.6353400">
        <ele>569.0</ele>
        <time>2021-02-07T08:28:39Z</time>
      </trkpt>
      <trkpt lat="43.2818910" lon="-6.6354030">
        <ele>570.0</ele>
        <time>2021-02-07T08:28:45Z</time>
      </trkpt>
      <trkpt lat="43.2818560" lon="-6.6354580">
        <ele>571.0</ele>
        <time>2021-02-07T08:28:49Z</time>
      </trkpt>
      <trkpt lat="43.2818650" lon="-6.6355290">
        <ele>571.0</ele>
        <time>2021-02-07T08:28:56Z</time>
      </trkpt>
      <trkpt lat="43.2818760" lon="-6.6355970">
        <ele>572.0</ele>
        <time>2021-02-07T08:29:01Z</time>
      </trkpt>
      <trkpt lat="43.2819040" lon="-6.6356520">
        <ele>572.0</ele>
        <time>2021-02-07T08:29:06Z</time>
      </trkpt>
      <trkpt lat="43.2819470" lon="-6.6356900">
        <ele>573.0</ele>
        <time>2021-02-07T08:29:12Z</time>
      </trkpt>
      <trkpt lat="43.2819860" lon="-6.6357560">
        <ele>574.0</ele>
        <time>2021-02-07T08:29:18Z</time>
      </trkpt>
      <trkpt lat="43.2820070" lon="-6.6358140">
        <ele>574.0</ele>
        <time>2021-02-07T08:29:23Z</time>
      </trkpt>
      <trkpt lat="43.2820360" lon="-6.6358740">
        <ele>575.0</ele>
        <time>2021-02-07T08:29:28Z</time>
      </trkpt>
      <trkpt lat="43.2820730" lon="-6.6359500">
        <ele>575.0</ele>
        <time>2021-02-07T08:29:33Z</time>
      </trkpt>
      <trkpt lat="43.2821090" lon="-6.6360170">
        <ele>575.0</ele>
        <time>2021-02-07T08:29:38Z</time>
      </trkpt>
      <trkpt lat="43.2821230" lon="-6.6360920">
        <ele>575.0</ele>
        <time>2021-02-07T08:29:42Z</time>
      </trkpt>
      <trkpt lat="43.2821390" lon="-6.6361700">
        <ele>575.0</ele>
        <time>2021-02-07T08:29:46Z</time>
      </trkpt>
      <trkpt lat="43.2821380" lon="-6.6362450">
        <ele>575.0</ele>
        <time>2021-02-07T08:29:49Z</time>
      </trkpt>
      <trkpt lat="43.2821420" lon="-6.6363190">
        <ele>575.0</ele>
        <time>2021-02-07T08:29:52Z</time>
      </trkpt>
      <trkpt lat="43.2821440" lon="-6.6363930">
        <ele>575.0</ele>
        <time>2021-02-07T08:29:55Z</time>
      </trkpt>
      <trkpt lat="43.2821610" lon="-6.6364630">
        <ele>575.0</ele>
        <time>2021-02-07T08:29:59Z</time>
      </trkpt>
      <trkpt lat="43.2821790" lon="-6.6365250">
        <ele>575.0</ele>
        <time>2021-02-07T08:30:03Z</time>
      </trkpt>
      <trkpt lat="43.2821970" lon="-6.6365950">
        <ele>575.0</ele>
        <time>2021-02-07T08:30:08Z</time>
      </trkpt>
      <trkpt lat="43.2822390" lon="-6.6366340">
        <ele>575.0</ele>
        <time>2021-02-07T08:30:13Z</time>
      </trkpt>
      <trkpt lat="43.2822800" lon="-6.6366860">
        <ele>576.0</ele>
        <time>2021-02-07T08:30:20Z</time>
      </trkpt>
      <trkpt lat="43.2823080" lon="-6.6367390">
        <ele>576.0</ele>
        <time>2021-02-07T08:30:27Z</time>
      </trkpt>
      <trkpt lat="43.2823510" lon="-6.6367890">
        <ele>577.0</ele>
        <time>2021-02-07T08:30:34Z</time>
      </trkpt>
      <trkpt lat="43.2823610" lon="-6.6368580">
        <ele>579.0</ele>
        <time>2021-02-07T08:30:42Z</time>
      </trkpt>
      <trkpt lat="43.2823890" lon="-6.6369110">
        <ele>580.0</ele>
        <time>2021-02-07T08:30:50Z</time>
      </trkpt>
      <trkpt lat="43.2824010" lon="-6.6369840">
        <ele>581.0</ele>
        <time>2021-02-07T08:31:00Z</time>
      </trkpt>
      <trkpt lat="43.2824420" lon="-6.6370310">
        <ele>582.0</ele>
        <time>2021-02-07T08:31:11Z</time>
      </trkpt>
      <trkpt lat="43.2824880" lon="-6.6370520">
        <ele>583.0</ele>
        <time>2021-02-07T08:31:19Z</time>
      </trkpt>
      <trkpt lat="43.2825230" lon="-6.6371040">
        <ele>584.0</ele>
        <time>2021-02-07T08:31:29Z</time>
      </trkpt>
      <trkpt lat="43.2825430" lon="-6.6371640">
        <ele>585.0</ele>
        <time>2021-02-07T08:31:36Z</time>
      </trkpt>
      <trkpt lat="43.2826000" lon="-6.6371950">
        <ele>586.0</ele>
        <time>2021-02-07T08:31:42Z</time>
      </trkpt>
      <trkpt lat="43.2826230" lon="-6.6372110">
        <ele>587.0</ele>
        <time>2021-02-07T08:31:57Z</time>
      </trkpt>
      <trkpt lat="43.2826740" lon="-6.6372750">
        <ele>588.0</ele>
        <time>2021-02-07T08:32:07Z</time>
      </trkpt>
      <trkpt lat="43.2827190" lon="-6.6372980">
        <ele>589.0</ele>
        <time>2021-02-07T08:32:16Z</time>
      </trkpt>
      <trkpt lat="43.2827450" lon="-6.6373750">
        <ele>590.0</ele>
        <time>2021-02-07T08:32:23Z</time>
      </trkpt>
      <trkpt lat="43.2827700" lon="-6.6374350">
        <ele>590.0</ele>
        <time>2021-02-07T08:32:27Z</time>
      </trkpt>
      <trkpt lat="43.2828050" lon="-6.6374810">
        <ele>590.0</ele>
        <time>2021-02-07T08:32:32Z</time>
      </trkpt>
      <trkpt lat="43.2828560" lon="-6.6375320">
        <ele>591.0</ele>
        <time>2021-02-07T08:32:38Z</time>
      </trkpt>
      <trkpt lat="43.2828910" lon="-6.6375790">
        <ele>591.0</ele>
        <time>2021-02-07T08:32:44Z</time>
      </trkpt>
      <trkpt lat="43.2829340" lon="-6.6376460">
        <ele>592.0</ele>
        <time>2021-02-07T08:32:55Z</time>
      </trkpt>
      <trkpt lat="43.2829750" lon="-6.6376940">
        <ele>592.0</ele>
        <time>2021-02-07T08:33:00Z</time>
      </trkpt>
      <trkpt lat="43.2830310" lon="-6.6377230">
        <ele>593.0</ele>
        <time>2021-02-07T08:33:05Z</time>
      </trkpt>
      <trkpt lat="43.2830790" lon="-6.6377290">
        <ele>593.0</ele>
        <time>2021-02-07T08:33:11Z</time>
      </trkpt>
      <trkpt lat="43.2831470" lon="-6.6377240">
        <ele>594.0</ele>
        <time>2021-02-07T08:33:20Z</time>
      </trkpt>
      <trkpt lat="43.2831990" lon="-6.6377550">
        <ele>595.0</ele>
        <time>2021-02-07T08:33:27Z</time>
      </trkpt>
      <trkpt lat="43.2832410" lon="-6.6377740">
        <ele>595.0</ele>
        <time>2021-02-07T08:33:31Z</time>
      </trkpt>
      <trkpt lat="43.2832820" lon="-6.6378220">
        <ele>596.0</ele>
        <time>2021-02-07T08:33:36Z</time>
      </trkpt>
      <trkpt lat="43.2833280" lon="-6.6378490">
        <ele>596.0</ele>
        <time>2021-02-07T08:33:44Z</time>
      </trkpt>
      <trkpt lat="43.2833800" lon="-6.6378780">
        <ele>597.0</ele>
        <time>2021-02-07T08:33:51Z</time>
      </trkpt>
      <trkpt lat="43.2834220" lon="-6.6379060">
        <ele>598.0</ele>
        <time>2021-02-07T08:33:57Z</time>
      </trkpt>
      <trkpt lat="43.2834300" lon="-6.6379750">
        <ele>599.0</ele>
        <time>2021-02-07T08:34:07Z</time>
      </trkpt>
      <trkpt lat="43.2834940" lon="-6.6380140">
        <ele>600.0</ele>
        <time>2021-02-07T08:34:13Z</time>
      </trkpt>
      <trkpt lat="43.2835340" lon="-6.6380430">
        <ele>600.0</ele>
        <time>2021-02-07T08:34:17Z</time>
      </trkpt>
      <trkpt lat="43.2835910" lon="-6.6380560">
        <ele>601.0</ele>
        <time>2021-02-07T08:34:25Z</time>
      </trkpt>
      <trkpt lat="43.2836340" lon="-6.6381200">
        <ele>601.0</ele>
        <time>2021-02-07T08:34:31Z</time>
      </trkpt>
      <trkpt lat="43.2836580" lon="-6.6381880">
        <ele>601.0</ele>
        <time>2021-02-07T08:34:35Z</time>
      </trkpt>
      <trkpt lat="43.2836920" lon="-6.6382440">
        <ele>601.0</ele>
        <time>2021-02-07T08:34:39Z</time>
      </trkpt>
      <trkpt lat="43.2837360" lon="-6.6382890">
        <ele>601.0</ele>
        <time>2021-02-07T08:34:42Z</time>
      </trkpt>
      <trkpt lat="43.2837920" lon="-6.6383360">
        <ele>600.0</ele>
        <time>2021-02-07T08:34:46Z</time>
      </trkpt>
      <trkpt lat="43.2838260" lon="-6.6383810">
        <ele>600.0</ele>
        <time>2021-02-07T08:34:50Z</time>
      </trkpt>
      <trkpt lat="43.2838310" lon="-6.6384550">
        <ele>600.0</ele>
        <time>2021-02-07T08:34:55Z</time>
      </trkpt>
      <trkpt lat="43.2838360" lon="-6.6385170">
        <ele>600.0</ele>
        <time>2021-02-07T08:35:00Z</time>
      </trkpt>
      <trkpt lat="43.2838900" lon="-6.6385600">
        <ele>600.0</ele>
        <time>2021-02-07T08:35:05Z</time>
      </trkpt>
      <trkpt lat="43.2839400" lon="-6.6385950">
        <ele>600.0</ele>
        <time>2021-02-07T08:35:10Z</time>
      </trkpt>
      <trkpt lat="43.2839810" lon="-6.6386320">
        <ele>600.0</ele>
        <time>2021-02-07T08:35:15Z</time>
      </trkpt>
      <trkpt lat="43.2840290" lon="-6.6386740">
        <ele>600.0</ele>
        <time>2021-02-07T08:35:20Z</time>
      </trkpt>
      <trkpt lat="43.2840490" lon="-6.6387440">
        <ele>600.0</ele>
        <time>2021-02-07T08:35:24Z</time>
      </trkpt>
      <trkpt lat="43.2840560" lon="-6.6388230">
        <ele>600.0</ele>
        <time>2021-02-07T08:35:28Z</time>
      </trkpt>
      <trkpt lat="43.2840930" lon="-6.6388800">
        <ele>600.0</ele>
        <time>2021-02-07T08:35:33Z</time>
      </trkpt>
      <trkpt lat="43.2841330" lon="-6.6389360">
        <ele>600.0</ele>
        <time>2021-02-07T08:35:38Z</time>
      </trkpt>
      <trkpt lat="43.2841720" lon="-6.6389860">
        <ele>600.0</ele>
        <time>2021-02-07T08:35:43Z</time>
      </trkpt>
      <trkpt lat="43.2842180" lon="-6.6390450">
        <ele>600.0</ele>
        <time>2021-02-07T08:35:49Z</time>
      </trkpt>
      <trkpt lat="43.2842560" lon="-6.6391130">
        <ele>600.0</ele>
        <time>2021-02-07T08:35:54Z</time>
      </trkpt>
      <trkpt lat="43.2842980" lon="-6.6391570">
        <ele>601.0</ele>
        <time>2021-02-07T08:35:58Z</time>
      </trkpt>
      <trkpt lat="43.2843280" lon="-6.6392160">
        <ele>601.0</ele>
        <time>2021-02-07T08:36:02Z</time>
      </trkpt>
      <trkpt lat="43.2843430" lon="-6.6392720">
        <ele>602.0</ele>
        <time>2021-02-07T08:36:07Z</time>
      </trkpt>
      <trkpt lat="43.2844010" lon="-6.6393160">
        <ele>602.0</ele>
        <time>2021-02-07T08:36:12Z</time>
      </trkpt>
      <trkpt lat="43.2844490" lon="-6.6393610">
        <ele>602.0</ele>
        <time>2021-02-07T08:36:17Z</time>
      </trkpt>
      <trkpt lat="43.2844750" lon="-6.6394180">
        <ele>602.0</ele>
        <time>2021-02-07T08:36:21Z</time>
      </trkpt>
      <trkpt lat="43.2845070" lon="-6.6394800">
        <ele>602.0</ele>
        <time>2021-02-07T08:36:26Z</time>
      </trkpt>
      <trkpt lat="43.2845370" lon="-6.6395420">
        <ele>602.0</ele>
        <time>2021-02-07T08:36:31Z</time>
      </trkpt>
      <trkpt lat="43.2845890" lon="-6.6396000">
        <ele>602.0</ele>
        <time>2021-02-07T08:36:36Z</time>
      </trkpt>
      <trkpt lat="43.2846090" lon="-6.6396580">
        <ele>602.0</ele>
        <time>2021-02-07T08:36:40Z</time>
      </trkpt>
      <trkpt lat="43.2846530" lon="-6.6397060">
        <ele>602.0</ele>
        <time>2021-02-07T08:36:45Z</time>
      </trkpt>
      <trkpt lat="43.2846940" lon="-6.6397480">
        <ele>602.0</ele>
        <time>2021-02-07T08:36:50Z</time>
      </trkpt>
      <trkpt lat="43.2847430" lon="-6.6397690">
        <ele>602.0</ele>
        <time>2021-02-07T08:36:56Z</time>
      </trkpt>
      <trkpt lat="43.2847420" lon="-6.6398500">
        <ele>602.0</ele>
        <time>2021-02-07T08:37:02Z</time>
      </trkpt>
      <trkpt lat="43.2847490" lon="-6.6399180">
        <ele>602.0</ele>
        <time>2021-02-07T08:37:06Z</time>
      </trkpt>
      <trkpt lat="43.2847600" lon="-6.6399990">
        <ele>602.0</ele>
        <time>2021-02-07T08:37:11Z</time>
      </trkpt>
      <trkpt lat="43.2847860" lon="-6.6400690">
        <ele>602.0</ele>
        <time>2021-02-07T08:37:15Z</time>
      </trkpt>
      <trkpt lat="43.2848240" lon="-6.6401320">
        <ele>602.0</ele>
        <time>2021-02-07T08:37:19Z</time>
      </trkpt>
      <trkpt lat="43.2848460" lon="-6.6401940">
        <ele>602.0</ele>
        <time>2021-02-07T08:37:23Z</time>
      </trkpt>
      <trkpt lat="43.2848690" lon="-6.6402650">
        <ele>602.0</ele>
        <time>2021-02-07T08:37:28Z</time>
      </trkpt>
      <trkpt lat="43.2848810" lon="-6.6403310">
        <ele>602.0</ele>
        <time>2021-02-07T08:37:32Z</time>
      </trkpt>
      <trkpt lat="43.2848950" lon="-6.6404110">
        <ele>602.0</ele>
        <time>2021-02-07T08:37:37Z</time>
      </trkpt>
      <trkpt lat="43.2849160" lon="-6.6404860">
        <ele>602.0</ele>
        <time>2021-02-07T08:37:42Z</time>
      </trkpt>
      <trkpt lat="43.2849180" lon="-6.6405820">
        <ele>602.0</ele>
        <time>2021-02-07T08:37:47Z</time>
      </trkpt>
      <trkpt lat="43.2849060" lon="-6.6406440">
        <ele>602.0</ele>
        <time>2021-02-07T08:37:51Z</time>
      </trkpt>
      <trkpt lat="43.2849040" lon="-6.6407270">
        <ele>602.0</ele>
        <time>2021-02-07T08:37:56Z</time>
      </trkpt>
      <trkpt lat="43.2849120" lon="-6.6407960">
        <ele>602.0</ele>
        <time>2021-02-07T08:38:00Z</time>
      </trkpt>
      <trkpt lat="43.2849400" lon="-6.6408620">
        <ele>602.0</ele>
        <time>2021-02-07T08:38:05Z</time>
      </trkpt>
      <trkpt lat="43.2849430" lon="-6.6409330">
        <ele>602.0</ele>
        <time>2021-02-07T08:38:10Z</time>
      </trkpt>
      <trkpt lat="43.2849360" lon="-6.6410000">
        <ele>602.0</ele>
        <time>2021-02-07T08:38:15Z</time>
      </trkpt>
      <trkpt lat="43.2849400" lon="-6.6410800">
        <ele>602.0</ele>
        <time>2021-02-07T08:38:19Z</time>
      </trkpt>
      <trkpt lat="43.2849370" lon="-6.6411500">
        <ele>602.0</ele>
        <time>2021-02-07T08:38:23Z</time>
      </trkpt>
      <trkpt lat="43.2849390" lon="-6.6412390">
        <ele>602.0</ele>
        <time>2021-02-07T08:38:28Z</time>
      </trkpt>
      <trkpt lat="43.2849410" lon="-6.6413120">
        <ele>602.0</ele>
        <time>2021-02-07T08:38:32Z</time>
      </trkpt>
      <trkpt lat="43.2849540" lon="-6.6413780">
        <ele>602.0</ele>
        <time>2021-02-07T08:38:36Z</time>
      </trkpt>
      <trkpt lat="43.2849850" lon="-6.6414390">
        <ele>602.0</ele>
        <time>2021-02-07T08:38:40Z</time>
      </trkpt>
      <trkpt lat="43.2850140" lon="-6.6415190">
        <ele>602.0</ele>
        <time>2021-02-07T08:38:44Z</time>
      </trkpt>
      <trkpt lat="43.2850370" lon="-6.6415730">
        <ele>602.0</ele>
        <time>2021-02-07T08:38:49Z</time>
      </trkpt>
      <trkpt lat="43.2850830" lon="-6.6416410">
        <ele>602.0</ele>
        <time>2021-02-07T08:38:54Z</time>
      </trkpt>
      <trkpt lat="43.2851290" lon="-6.6416860">
        <ele>602.0</ele>
        <time>2021-02-07T08:38:58Z</time>
      </trkpt>
      <trkpt lat="43.2851880" lon="-6.6417060">
        <ele>602.0</ele>
        <time>2021-02-07T08:39:01Z</time>
      </trkpt>
      <trkpt lat="43.2852430" lon="-6.6417150">
        <ele>602.0</ele>
        <time>2021-02-07T08:39:04Z</time>
      </trkpt>
      <trkpt lat="43.2852900" lon="-6.6417210">
        <ele>602.0</ele>
        <time>2021-02-07T08:39:08Z</time>
      </trkpt>
      <trkpt lat="43.2853400" lon="-6.6417340">
        <ele>602.0</ele>
        <time>2021-02-07T08:39:14Z</time>
      </trkpt>
      <trkpt lat="43.2854210" lon="-6.6417340">
        <ele>602.0</ele>
        <time>2021-02-07T08:39:18Z</time>
      </trkpt>
      <trkpt lat="43.2854680" lon="-6.6417460">
        <ele>602.0</ele>
        <time>2021-02-07T08:39:21Z</time>
      </trkpt>
      <trkpt lat="43.2855330" lon="-6.6417670">
        <ele>603.0</ele>
        <time>2021-02-07T08:39:25Z</time>
      </trkpt>
      <trkpt lat="43.2855930" lon="-6.6417630">
        <ele>603.0</ele>
        <time>2021-02-07T08:39:29Z</time>
      </trkpt>
      <trkpt lat="43.2856410" lon="-6.6417460">
        <ele>603.0</ele>
        <time>2021-02-07T08:39:32Z</time>
      </trkpt>
      <trkpt lat="43.2856880" lon="-6.6417630">
        <ele>603.0</ele>
        <time>2021-02-07T08:39:37Z</time>
      </trkpt>
      <trkpt lat="43.2857430" lon="-6.6417740">
        <ele>603.0</ele>
        <time>2021-02-07T08:39:43Z</time>
      </trkpt>
      <trkpt lat="43.2858010" lon="-6.6417870">
        <ele>603.0</ele>
        <time>2021-02-07T08:39:49Z</time>
      </trkpt>
      <trkpt lat="43.2858420" lon="-6.6418110">
        <ele>603.0</ele>
        <time>2021-02-07T08:39:54Z</time>
      </trkpt>
      <trkpt lat="43.2858900" lon="-6.6418550">
        <ele>603.0</ele>
        <time>2021-02-07T08:40:02Z</time>
      </trkpt>
      <trkpt lat="43.2859350" lon="-6.6418960">
        <ele>603.0</ele>
        <time>2021-02-07T08:40:08Z</time>
      </trkpt>
      <trkpt lat="43.2859790" lon="-6.6419360">
        <ele>603.0</ele>
        <time>2021-02-07T08:40:14Z</time>
      </trkpt>
      <trkpt lat="43.2860190" lon="-6.6419950">
        <ele>603.0</ele>
        <time>2021-02-07T08:40:20Z</time>
      </trkpt>
      <trkpt lat="43.2860500" lon="-6.6420540">
        <ele>603.0</ele>
        <time>2021-02-07T08:40:25Z</time>
      </trkpt>
      <trkpt lat="43.2860770" lon="-6.6421110">
        <ele>603.0</ele>
        <time>2021-02-07T08:40:29Z</time>
      </trkpt>
      <trkpt lat="43.2860940" lon="-6.6421880">
        <ele>603.0</ele>
        <time>2021-02-07T08:40:34Z</time>
      </trkpt>
      <trkpt lat="43.2861000" lon="-6.6422530">
        <ele>603.0</ele>
        <time>2021-02-07T08:40:38Z</time>
      </trkpt>
      <trkpt lat="43.2861060" lon="-6.6423450">
        <ele>603.0</ele>
        <time>2021-02-07T08:40:43Z</time>
      </trkpt>
      <trkpt lat="43.2861070" lon="-6.6424300">
        <ele>603.0</ele>
        <time>2021-02-07T08:40:47Z</time>
      </trkpt>
      <trkpt lat="43.2861280" lon="-6.6425050">
        <ele>603.0</ele>
        <time>2021-02-07T08:40:51Z</time>
      </trkpt>
      <trkpt lat="43.2861380" lon="-6.6425660">
        <ele>603.0</ele>
        <time>2021-02-07T08:40:55Z</time>
      </trkpt>
      <trkpt lat="43.2861720" lon="-6.6426230">
        <ele>603.0</ele>
        <time>2021-02-07T08:41:01Z</time>
      </trkpt>
      <trkpt lat="43.2862100" lon="-6.6426620">
        <ele>603.0</ele>
        <time>2021-02-07T08:41:08Z</time>
      </trkpt>
      <trkpt lat="43.2862600" lon="-6.6426660">
        <ele>604.0</ele>
        <time>2021-02-07T08:41:14Z</time>
      </trkpt>
      <trkpt lat="43.2862980" lon="-6.6426860">
        <ele>605.0</ele>
        <time>2021-02-07T08:41:24Z</time>
      </trkpt>
      <trkpt lat="43.2863470" lon="-6.6427190">
        <ele>606.0</ele>
        <time>2021-02-07T08:41:34Z</time>
      </trkpt>
      <trkpt lat="43.2863960" lon="-6.6427010">
        <ele>608.0</ele>
        <time>2021-02-07T08:41:44Z</time>
      </trkpt>
      <trkpt lat="43.2864530" lon="-6.6426850">
        <ele>608.0</ele>
        <time>2021-02-07T08:41:51Z</time>
      </trkpt>
      <trkpt lat="43.2865170" lon="-6.6426690">
        <ele>609.0</ele>
        <time>2021-02-07T08:41:59Z</time>
      </trkpt>
      <trkpt lat="43.2865620" lon="-6.6426590">
        <ele>610.0</ele>
        <time>2021-02-07T08:42:04Z</time>
      </trkpt>
      <trkpt lat="43.2866210" lon="-6.6426330">
        <ele>610.0</ele>
        <time>2021-02-07T08:42:10Z</time>
      </trkpt>
      <trkpt lat="43.2866730" lon="-6.6426110">
        <ele>610.0</ele>
        <time>2021-02-07T08:42:15Z</time>
      </trkpt>
      <trkpt lat="43.2867330" lon="-6.6425920">
        <ele>611.0</ele>
        <time>2021-02-07T08:42:20Z</time>
      </trkpt>
      <trkpt lat="43.2867790" lon="-6.6425960">
        <ele>611.0</ele>
        <time>2021-02-07T08:42:24Z</time>
      </trkpt>
      <trkpt lat="43.2868260" lon="-6.6425960">
        <ele>611.0</ele>
        <time>2021-02-07T08:42:29Z</time>
      </trkpt>
      <trkpt lat="43.2868820" lon="-6.6425820">
        <ele>612.0</ele>
        <time>2021-02-07T08:42:39Z</time>
      </trkpt>
      <trkpt lat="43.2869470" lon="-6.6425720">
        <ele>613.0</ele>
        <time>2021-02-07T08:42:46Z</time>
      </trkpt>
      <trkpt lat="43.2869970" lon="-6.6425630">
        <ele>614.0</ele>
        <time>2021-02-07T08:42:56Z</time>
      </trkpt>
      <trkpt lat="43.2870530" lon="-6.6425450">
        <ele>614.0</ele>
        <time>2021-02-07T08:43:03Z</time>
      </trkpt>
      <trkpt lat="43.2871110" lon="-6.6425440">
        <ele>615.0</ele>
        <time>2021-02-07T08:43:09Z</time>
      </trkpt>
      <trkpt lat="43.2871620" lon="-6.6425870">
        <ele>616.0</ele>
        <time>2021-02-07T08:43:17Z</time>
      </trkpt>
      <trkpt lat="43.2872040" lon="-6.6426100">
        <ele>616.0</ele>
        <time>2021-02-07T08:43:25Z</time>
      </trkpt>
      <trkpt lat="43.2872500" lon="-6.6426630">
        <ele>617.0</ele>
        <time>2021-02-07T08:43:32Z</time>
      </trkpt>
      <trkpt lat="43.2872970" lon="-6.6427040">
        <ele>617.0</ele>
        <time>2021-02-07T08:43:37Z</time>
      </trkpt>
      <trkpt lat="43.2873290" lon="-6.6427600">
        <ele>617.0</ele>
        <time>2021-02-07T08:43:42Z</time>
      </trkpt>
      <trkpt lat="43.2873640" lon="-6.6427950">
        <ele>617.0</ele>
        <time>2021-02-07T08:43:47Z</time>
      </trkpt>
      <trkpt lat="43.2874040" lon="-6.6428640">
        <ele>617.0</ele>
        <time>2021-02-07T08:43:53Z</time>
      </trkpt>
      <trkpt lat="43.2874440" lon="-6.6428880">
        <ele>618.0</ele>
        <time>2021-02-07T08:43:57Z</time>
      </trkpt>
      <trkpt lat="43.2875000" lon="-6.6429180">
        <ele>618.0</ele>
        <time>2021-02-07T08:44:04Z</time>
      </trkpt>
      <trkpt lat="43.2875500" lon="-6.6429250">
        <ele>618.0</ele>
        <time>2021-02-07T08:44:08Z</time>
      </trkpt>
      <trkpt lat="43.2876100" lon="-6.6429190">
        <ele>618.0</ele>
        <time>2021-02-07T08:44:13Z</time>
      </trkpt>
      <trkpt lat="43.2876470" lon="-6.6429400">
        <ele>618.0</ele>
        <time>2021-02-07T08:44:18Z</time>
      </trkpt>
      <trkpt lat="43.2876880" lon="-6.6429840">
        <ele>618.0</ele>
        <time>2021-02-07T08:44:23Z</time>
      </trkpt>
      <trkpt lat="43.2877400" lon="-6.6430160">
        <ele>618.0</ele>
        <time>2021-02-07T08:44:29Z</time>
      </trkpt>
      <trkpt lat="43.2877750" lon="-6.6430640">
        <ele>618.0</ele>
        <time>2021-02-07T08:44:36Z</time>
      </trkpt>
      <trkpt lat="43.2877970" lon="-6.6431140">
        <ele>618.0</ele>
        <time>2021-02-07T08:44:44Z</time>
      </trkpt>
      <trkpt lat="43.2878070" lon="-6.6431470">
        <ele>618.0</ele>
        <time>2021-02-07T08:44:55Z</time>
      </trkpt>
      <trkpt lat="43.2877670" lon="-6.6432050">
        <ele>618.0</ele>
        <time>2021-02-07T08:45:03Z</time>
      </trkpt>
      <trkpt lat="43.2877210" lon="-6.6432600">
        <ele>620.0</ele>
        <time>2021-02-07T08:45:11Z</time>
      </trkpt>
      <trkpt lat="43.2876860" lon="-6.6432970">
        <ele>621.0</ele>
        <time>2021-02-07T08:45:18Z</time>
      </trkpt>
      <trkpt lat="43.2876680" lon="-6.6433820">
        <ele>622.0</ele>
        <time>2021-02-07T08:45:26Z</time>
      </trkpt>
      <trkpt lat="43.2876650" lon="-6.6434460">
        <ele>622.0</ele>
        <time>2021-02-07T08:45:31Z</time>
      </trkpt>
      <trkpt lat="43.2876590" lon="-6.6435140">
        <ele>623.0</ele>
        <time>2021-02-07T08:45:37Z</time>
      </trkpt>
      <trkpt lat="43.2876750" lon="-6.6435900">
        <ele>623.0</ele>
        <time>2021-02-07T08:45:43Z</time>
      </trkpt>
      <trkpt lat="43.2876780" lon="-6.6436740">
        <ele>624.0</ele>
        <time>2021-02-07T08:45:48Z</time>
      </trkpt>
      <trkpt lat="43.2876910" lon="-6.6437500">
        <ele>624.0</ele>
        <time>2021-02-07T08:45:53Z</time>
      </trkpt>
      <trkpt lat="43.2876860" lon="-6.6438210">
        <ele>625.0</ele>
        <time>2021-02-07T08:45:58Z</time>
      </trkpt>
      <trkpt lat="43.2876890" lon="-6.6438950">
        <ele>626.0</ele>
        <time>2021-02-07T08:46:04Z</time>
      </trkpt>
      <trkpt lat="43.2876810" lon="-6.6439580">
        <ele>626.0</ele>
        <time>2021-02-07T08:46:08Z</time>
      </trkpt>
      <trkpt lat="43.2876930" lon="-6.6440260">
        <ele>627.0</ele>
        <time>2021-02-07T08:46:15Z</time>
      </trkpt>
      <trkpt lat="43.2877160" lon="-6.6440960">
        <ele>627.0</ele>
        <time>2021-02-07T08:46:21Z</time>
      </trkpt>
      <trkpt lat="43.2877160" lon="-6.6441830">
        <ele>628.0</ele>
        <time>2021-02-07T08:46:28Z</time>
      </trkpt>
      <trkpt lat="43.2877320" lon="-6.6442410">
        <ele>629.0</ele>
        <time>2021-02-07T08:46:37Z</time>
      </trkpt>
      <trkpt lat="43.2877400" lon="-6.6443120">
        <ele>630.0</ele>
        <time>2021-02-07T08:46:45Z</time>
      </trkpt>
      <trkpt lat="43.2877540" lon="-6.6443880">
        <ele>630.0</ele>
        <time>2021-02-07T08:46:50Z</time>
      </trkpt>
      <trkpt lat="43.2877960" lon="-6.6446230">
        <ele>630.0</ele>
        <time>2021-02-07T08:47:25Z</time>
      </trkpt>
      <trkpt lat="43.2878170" lon="-6.6446970">
        <ele>630.0</ele>
        <time>2021-02-07T08:47:29Z</time>
      </trkpt>
      <trkpt lat="43.2878380" lon="-6.6447650">
        <ele>630.0</ele>
        <time>2021-02-07T08:47:34Z</time>
      </trkpt>
      <trkpt lat="43.2878510" lon="-6.6448370">
        <ele>630.0</ele>
        <time>2021-02-07T08:47:39Z</time>
      </trkpt>
      <trkpt lat="43.2878650" lon="-6.6449130">
        <ele>630.0</ele>
        <time>2021-02-07T08:47:44Z</time>
      </trkpt>
      <trkpt lat="43.2878840" lon="-6.6449810">
        <ele>630.0</ele>
        <time>2021-02-07T08:47:49Z</time>
      </trkpt>
      <trkpt lat="43.2879170" lon="-6.6450370">
        <ele>630.0</ele>
        <time>2021-02-07T08:47:54Z</time>
      </trkpt>
      <trkpt lat="43.2879530" lon="-6.6451010">
        <ele>630.0</ele>
        <time>2021-02-07T08:47:59Z</time>
      </trkpt>
      <trkpt lat="43.2879600" lon="-6.6451650">
        <ele>630.0</ele>
        <time>2021-02-07T08:48:04Z</time>
      </trkpt>
      <trkpt lat="43.2879820" lon="-6.6452430">
        <ele>629.0</ele>
        <time>2021-02-07T08:48:10Z</time>
      </trkpt>
      <trkpt lat="43.2880350" lon="-6.6453040">
        <ele>628.0</ele>
        <time>2021-02-07T08:48:16Z</time>
      </trkpt>
      <trkpt lat="43.2880670" lon="-6.6453370">
        <ele>628.0</ele>
        <time>2021-02-07T08:48:20Z</time>
      </trkpt>
      <trkpt lat="43.2881140" lon="-6.6453950">
        <ele>628.0</ele>
        <time>2021-02-07T08:48:27Z</time>
      </trkpt>
      <trkpt lat="43.2881490" lon="-6.6454560">
        <ele>628.0</ele>
        <time>2021-02-07T08:48:32Z</time>
      </trkpt>
      <trkpt lat="43.2881920" lon="-6.6455050">
        <ele>628.0</ele>
        <time>2021-02-07T08:48:36Z</time>
      </trkpt>
      <trkpt lat="43.2882200" lon="-6.6455790">
        <ele>628.0</ele>
        <time>2021-02-07T08:48:41Z</time>
      </trkpt>
      <trkpt lat="43.2882360" lon="-6.6456610">
        <ele>628.0</ele>
        <time>2021-02-07T08:48:46Z</time>
      </trkpt>
      <trkpt lat="43.2882610" lon="-6.6457330">
        <ele>628.0</ele>
        <time>2021-02-07T08:48:51Z</time>
      </trkpt>
      <trkpt lat="43.2882830" lon="-6.6458040">
        <ele>628.0</ele>
        <time>2021-02-07T08:48:55Z</time>
      </trkpt>
      <trkpt lat="43.2883170" lon="-6.6458690">
        <ele>628.0</ele>
        <time>2021-02-07T08:48:59Z</time>
      </trkpt>
      <trkpt lat="43.2883460" lon="-6.6459300">
        <ele>628.0</ele>
        <time>2021-02-07T08:49:03Z</time>
      </trkpt>
      <trkpt lat="43.2883760" lon="-6.6459910">
        <ele>628.0</ele>
        <time>2021-02-07T08:49:07Z</time>
      </trkpt>
      <trkpt lat="43.2883970" lon="-6.6460530">
        <ele>627.0</ele>
        <time>2021-02-07T08:49:11Z</time>
      </trkpt>
      <trkpt lat="43.2884220" lon="-6.6461240">
        <ele>627.0</ele>
        <time>2021-02-07T08:49:16Z</time>
      </trkpt>
      <trkpt lat="43.2884380" lon="-6.6461920">
        <ele>627.0</ele>
        <time>2021-02-07T08:49:20Z</time>
      </trkpt>
      <trkpt lat="43.2884590" lon="-6.6462680">
        <ele>627.0</ele>
        <time>2021-02-07T08:49:24Z</time>
      </trkpt>
      <trkpt lat="43.2884850" lon="-6.6463270">
        <ele>627.0</ele>
        <time>2021-02-07T08:49:28Z</time>
      </trkpt>
      <trkpt lat="43.2885070" lon="-6.6463960">
        <ele>627.0</ele>
        <time>2021-02-07T08:49:33Z</time>
      </trkpt>
      <trkpt lat="43.2885180" lon="-6.6464640">
        <ele>627.0</ele>
        <time>2021-02-07T08:49:37Z</time>
      </trkpt>
      <trkpt lat="43.2885380" lon="-6.6465300">
        <ele>627.0</ele>
        <time>2021-02-07T08:49:41Z</time>
      </trkpt>
      <trkpt lat="43.2885430" lon="-6.6466050">
        <ele>627.0</ele>
        <time>2021-02-07T08:49:46Z</time>
      </trkpt>
      <trkpt lat="43.2885660" lon="-6.6466700">
        <ele>627.0</ele>
        <time>2021-02-07T08:49:51Z</time>
      </trkpt>
      <trkpt lat="43.2885800" lon="-6.6467430">
        <ele>627.0</ele>
        <time>2021-02-07T08:49:56Z</time>
      </trkpt>
      <trkpt lat="43.2885740" lon="-6.6468300">
        <ele>627.0</ele>
        <time>2021-02-07T08:50:01Z</time>
      </trkpt>
      <trkpt lat="43.2885710" lon="-6.6468940">
        <ele>627.0</ele>
        <time>2021-02-07T08:50:05Z</time>
      </trkpt>
      <trkpt lat="43.2885990" lon="-6.6469610">
        <ele>627.0</ele>
        <time>2021-02-07T08:50:11Z</time>
      </trkpt>
      <trkpt lat="43.2886280" lon="-6.6470240">
        <ele>627.0</ele>
        <time>2021-02-07T08:50:15Z</time>
      </trkpt>
      <trkpt lat="43.2886470" lon="-6.6470860">
        <ele>626.0</ele>
        <time>2021-02-07T08:50:20Z</time>
      </trkpt>
      <trkpt lat="43.2886700" lon="-6.6471590">
        <ele>626.0</ele>
        <time>2021-02-07T08:50:25Z</time>
      </trkpt>
      <trkpt lat="43.2886800" lon="-6.6472270">
        <ele>626.0</ele>
        <time>2021-02-07T08:50:30Z</time>
      </trkpt>
      <trkpt lat="43.2887060" lon="-6.6473160">
        <ele>626.0</ele>
        <time>2021-02-07T08:50:35Z</time>
      </trkpt>
      <trkpt lat="43.2887210" lon="-6.6473670">
        <ele>625.0</ele>
        <time>2021-02-07T08:50:39Z</time>
      </trkpt>
      <trkpt lat="43.2887380" lon="-6.6474440">
        <ele>625.0</ele>
        <time>2021-02-07T08:50:44Z</time>
      </trkpt>
      <trkpt lat="43.2887460" lon="-6.6475370">
        <ele>625.0</ele>
        <time>2021-02-07T08:50:49Z</time>
      </trkpt>
      <trkpt lat="43.2887650" lon="-6.6476010">
        <ele>625.0</ele>
        <time>2021-02-07T08:50:53Z</time>
      </trkpt>
      <trkpt lat="43.2888100" lon="-6.6476550">
        <ele>625.0</ele>
        <time>2021-02-07T08:50:57Z</time>
      </trkpt>
      <trkpt lat="43.2888600" lon="-6.6477030">
        <ele>625.0</ele>
        <time>2021-02-07T08:51:01Z</time>
      </trkpt>
      <trkpt lat="43.2888850" lon="-6.6477720">
        <ele>625.0</ele>
        <time>2021-02-07T08:51:06Z</time>
      </trkpt>
      <trkpt lat="43.2889110" lon="-6.6478430">
        <ele>625.0</ele>
        <time>2021-02-07T08:51:12Z</time>
      </trkpt>
      <trkpt lat="43.2889360" lon="-6.6478960">
        <ele>626.0</ele>
        <time>2021-02-07T08:51:17Z</time>
      </trkpt>
      <trkpt lat="43.2889780" lon="-6.6479480">
        <ele>627.0</ele>
        <time>2021-02-07T08:51:23Z</time>
      </trkpt>
      <trkpt lat="43.2890290" lon="-6.6479700">
        <ele>627.0</ele>
        <time>2021-02-07T08:51:27Z</time>
      </trkpt>
      <trkpt lat="43.2890790" lon="-6.6480240">
        <ele>627.0</ele>
        <time>2021-02-07T08:51:32Z</time>
      </trkpt>
      <trkpt lat="43.2891090" lon="-6.6480990">
        <ele>628.0</ele>
        <time>2021-02-07T08:51:36Z</time>
      </trkpt>
      <trkpt lat="43.2891300" lon="-6.6481650">
        <ele>628.0</ele>
        <time>2021-02-07T08:51:41Z</time>
      </trkpt>
      <trkpt lat="43.2891490" lon="-6.6482240">
        <ele>628.0</ele>
        <time>2021-02-07T08:51:46Z</time>
      </trkpt>
      <trkpt lat="43.2891700" lon="-6.6482850">
        <ele>628.0</ele>
        <time>2021-02-07T08:51:53Z</time>
      </trkpt>
      <trkpt lat="43.2891760" lon="-6.6483580">
        <ele>628.0</ele>
        <time>2021-02-07T08:52:00Z</time>
      </trkpt>
      <trkpt lat="43.2891710" lon="-6.6484430">
        <ele>628.0</ele>
        <time>2021-02-07T08:52:06Z</time>
      </trkpt>
      <trkpt lat="43.2891830" lon="-6.6485110">
        <ele>628.0</ele>
        <time>2021-02-07T08:52:10Z</time>
      </trkpt>
      <trkpt lat="43.2892110" lon="-6.6485750">
        <ele>628.0</ele>
        <time>2021-02-07T08:52:15Z</time>
      </trkpt>
      <trkpt lat="43.2892300" lon="-6.6486220">
        <ele>628.0</ele>
        <time>2021-02-07T08:52:23Z</time>
      </trkpt>
      <trkpt lat="43.2892390" lon="-6.6486800">
        <ele>656.0</ele>
        <time>2021-02-07T08:58:13Z</time>
      </trkpt>
      <trkpt lat="43.2892190" lon="-6.6487440">
        <ele>656.0</ele>
        <time>2021-02-07T08:58:44Z</time>
      </trkpt>
      <trkpt lat="43.2892560" lon="-6.6490420">
        <ele>656.0</ele>
        <time>2021-02-07T09:00:21Z</time>
      </trkpt>
      <trkpt lat="43.2892640" lon="-6.6491100">
        <ele>656.0</ele>
        <time>2021-02-07T09:00:27Z</time>
      </trkpt>
      <trkpt lat="43.2892600" lon="-6.6491840">
        <ele>656.0</ele>
        <time>2021-02-07T09:00:34Z</time>
      </trkpt>
      <trkpt lat="43.2892660" lon="-6.6492510">
        <ele>656.0</ele>
        <time>2021-02-07T09:00:42Z</time>
      </trkpt>
      <trkpt lat="43.2892930" lon="-6.6493180">
        <ele>661.0</ele>
        <time>2021-02-07T09:00:48Z</time>
      </trkpt>
      <trkpt lat="43.2893080" lon="-6.6493850">
        <ele>661.0</ele>
        <time>2021-02-07T09:00:53Z</time>
      </trkpt>
      <trkpt lat="43.2893340" lon="-6.6494560">
        <ele>662.0</ele>
        <time>2021-02-07T09:00:58Z</time>
      </trkpt>
      <trkpt lat="43.2893680" lon="-6.6495230">
        <ele>662.0</ele>
        <time>2021-02-07T09:01:03Z</time>
      </trkpt>
      <trkpt lat="43.2893970" lon="-6.6495700">
        <ele>663.0</ele>
        <time>2021-02-07T09:01:07Z</time>
      </trkpt>
      <trkpt lat="43.2894270" lon="-6.6496280">
        <ele>664.0</ele>
        <time>2021-02-07T09:01:12Z</time>
      </trkpt>
      <trkpt lat="43.2894550" lon="-6.6496900">
        <ele>665.0</ele>
        <time>2021-02-07T09:01:18Z</time>
      </trkpt>
      <trkpt lat="43.2894520" lon="-6.6497620">
        <ele>665.0</ele>
        <time>2021-02-07T09:01:25Z</time>
      </trkpt>
      <trkpt lat="43.2894820" lon="-6.6498410">
        <ele>666.0</ele>
        <time>2021-02-07T09:01:34Z</time>
      </trkpt>
      <trkpt lat="43.2894870" lon="-6.6499110">
        <ele>666.0</ele>
        <time>2021-02-07T09:01:38Z</time>
      </trkpt>
      <trkpt lat="43.2894950" lon="-6.6499920">
        <ele>667.0</ele>
        <time>2021-02-07T09:01:44Z</time>
      </trkpt>
      <trkpt lat="43.2895080" lon="-6.6500580">
        <ele>667.0</ele>
        <time>2021-02-07T09:01:49Z</time>
      </trkpt>
      <trkpt lat="43.2895150" lon="-6.6501210">
        <ele>668.0</ele>
        <time>2021-02-07T09:01:56Z</time>
      </trkpt>
      <trkpt lat="43.2895460" lon="-6.6501890">
        <ele>669.0</ele>
        <time>2021-02-07T09:02:03Z</time>
      </trkpt>
      <trkpt lat="43.2895620" lon="-6.6502410">
        <ele>669.0</ele>
        <time>2021-02-07T09:02:10Z</time>
      </trkpt>
      <trkpt lat="43.2895670" lon="-6.6503190">
        <ele>670.0</ele>
        <time>2021-02-07T09:02:17Z</time>
      </trkpt>
      <trkpt lat="43.2895880" lon="-6.6503980">
        <ele>670.0</ele>
        <time>2021-02-07T09:02:23Z</time>
      </trkpt>
      <trkpt lat="43.2896060" lon="-6.6504560">
        <ele>670.0</ele>
        <time>2021-02-07T09:02:29Z</time>
      </trkpt>
      <trkpt lat="43.2896120" lon="-6.6505240">
        <ele>670.0</ele>
        <time>2021-02-07T09:02:38Z</time>
      </trkpt>
      <trkpt lat="43.2895810" lon="-6.6506100">
        <ele>670.0</ele>
        <time>2021-02-07T09:02:44Z</time>
      </trkpt>
      <trkpt lat="43.2895530" lon="-6.6506790">
        <ele>670.0</ele>
        <time>2021-02-07T09:02:48Z</time>
      </trkpt>
      <trkpt lat="43.2895290" lon="-6.6507720">
        <ele>670.0</ele>
        <time>2021-02-07T09:02:52Z</time>
      </trkpt>
      <trkpt lat="43.2895050" lon="-6.6508530">
        <ele>670.0</ele>
        <time>2021-02-07T09:02:56Z</time>
      </trkpt>
      <trkpt lat="43.2894800" lon="-6.6509050">
        <ele>671.0</ele>
        <time>2021-02-07T09:03:00Z</time>
      </trkpt>
      <trkpt lat="43.2894560" lon="-6.6509770">
        <ele>671.0</ele>
        <time>2021-02-07T09:03:05Z</time>
      </trkpt>
      <trkpt lat="43.2894560" lon="-6.6510580">
        <ele>671.0</ele>
        <time>2021-02-07T09:03:10Z</time>
      </trkpt>
      <trkpt lat="43.2894430" lon="-6.6511290">
        <ele>671.0</ele>
        <time>2021-02-07T09:03:15Z</time>
      </trkpt>
      <trkpt lat="43.2894580" lon="-6.6511980">
        <ele>671.0</ele>
        <time>2021-02-07T09:03:20Z</time>
      </trkpt>
      <trkpt lat="43.2894650" lon="-6.6512730">
        <ele>671.0</ele>
        <time>2021-02-07T09:03:25Z</time>
      </trkpt>
      <trkpt lat="43.2894890" lon="-6.6513510">
        <ele>671.0</ele>
        <time>2021-02-07T09:03:30Z</time>
      </trkpt>
      <trkpt lat="43.2894840" lon="-6.6514320">
        <ele>671.0</ele>
        <time>2021-02-07T09:03:36Z</time>
      </trkpt>
      <trkpt lat="43.2894780" lon="-6.6515060">
        <ele>671.0</ele>
        <time>2021-02-07T09:03:42Z</time>
      </trkpt>
      <trkpt lat="43.2894770" lon="-6.6515810">
        <ele>671.0</ele>
        <time>2021-02-07T09:03:47Z</time>
      </trkpt>
      <trkpt lat="43.2894780" lon="-6.6516680">
        <ele>671.0</ele>
        <time>2021-02-07T09:03:52Z</time>
      </trkpt>
      <trkpt lat="43.2894840" lon="-6.6517400">
        <ele>671.0</ele>
        <time>2021-02-07T09:03:55Z</time>
      </trkpt>
      <trkpt lat="43.2894900" lon="-6.6518210">
        <ele>671.0</ele>
        <time>2021-02-07T09:03:59Z</time>
      </trkpt>
      <trkpt lat="43.2894930" lon="-6.6518920">
        <ele>671.0</ele>
        <time>2021-02-07T09:04:03Z</time>
      </trkpt>
      <trkpt lat="43.2895030" lon="-6.6519690">
        <ele>672.0</ele>
        <time>2021-02-07T09:04:08Z</time>
      </trkpt>
      <trkpt lat="43.2895160" lon="-6.6520470">
        <ele>672.0</ele>
        <time>2021-02-07T09:04:12Z</time>
      </trkpt>
      <trkpt lat="43.2895410" lon="-6.6521230">
        <ele>672.0</ele>
        <time>2021-02-07T09:04:17Z</time>
      </trkpt>
      <trkpt lat="43.2895640" lon="-6.6521910">
        <ele>672.0</ele>
        <time>2021-02-07T09:04:22Z</time>
      </trkpt>
      <trkpt lat="43.2895740" lon="-6.6522790">
        <ele>672.0</ele>
        <time>2021-02-07T09:04:28Z</time>
      </trkpt>
      <trkpt lat="43.2895770" lon="-6.6523560">
        <ele>672.0</ele>
        <time>2021-02-07T09:04:34Z</time>
      </trkpt>
      <trkpt lat="43.2895660" lon="-6.6524320">
        <ele>672.0</ele>
        <time>2021-02-07T09:04:40Z</time>
      </trkpt>
      <trkpt lat="43.2895650" lon="-6.6525110">
        <ele>672.0</ele>
        <time>2021-02-07T09:04:46Z</time>
      </trkpt>
      <trkpt lat="43.2895780" lon="-6.6525930">
        <ele>673.0</ele>
        <time>2021-02-07T09:04:51Z</time>
      </trkpt>
      <trkpt lat="43.2895800" lon="-6.6526700">
        <ele>674.0</ele>
        <time>2021-02-07T09:04:57Z</time>
      </trkpt>
      <trkpt lat="43.2895730" lon="-6.6527290">
        <ele>675.0</ele>
        <time>2021-02-07T09:05:03Z</time>
      </trkpt>
      <trkpt lat="43.2895850" lon="-6.6527930">
        <ele>676.0</ele>
        <time>2021-02-07T09:05:10Z</time>
      </trkpt>
      <trkpt lat="43.2895770" lon="-6.6528720">
        <ele>677.0</ele>
        <time>2021-02-07T09:05:17Z</time>
      </trkpt>
      <trkpt lat="43.2895660" lon="-6.6529490">
        <ele>678.0</ele>
        <time>2021-02-07T09:05:24Z</time>
      </trkpt>
      <trkpt lat="43.2895690" lon="-6.6530140">
        <ele>678.0</ele>
        <time>2021-02-07T09:05:29Z</time>
      </trkpt>
      <trkpt lat="43.2895570" lon="-6.6530980">
        <ele>679.0</ele>
        <time>2021-02-07T09:05:35Z</time>
      </trkpt>
      <trkpt lat="43.2895400" lon="-6.6531780">
        <ele>679.0</ele>
        <time>2021-02-07T09:05:40Z</time>
      </trkpt>
      <trkpt lat="43.2895190" lon="-6.6532410">
        <ele>680.0</ele>
        <time>2021-02-07T09:05:44Z</time>
      </trkpt>
      <trkpt lat="43.2894930" lon="-6.6533090">
        <ele>680.0</ele>
        <time>2021-02-07T09:05:49Z</time>
      </trkpt>
      <trkpt lat="43.2894830" lon="-6.6533840">
        <ele>681.0</ele>
        <time>2021-02-07T09:05:55Z</time>
      </trkpt>
      <trkpt lat="43.2894820" lon="-6.6534470">
        <ele>681.0</ele>
        <time>2021-02-07T09:05:59Z</time>
      </trkpt>
      <trkpt lat="43.2894560" lon="-6.6535340">
        <ele>682.0</ele>
        <time>2021-02-07T09:06:05Z</time>
      </trkpt>
      <trkpt lat="43.2894390" lon="-6.6535960">
        <ele>683.0</ele>
        <time>2021-02-07T09:06:10Z</time>
      </trkpt>
      <trkpt lat="43.2894420" lon="-6.6536660">
        <ele>683.0</ele>
        <time>2021-02-07T09:06:18Z</time>
      </trkpt>
      <trkpt lat="43.2894300" lon="-6.6537470">
        <ele>684.0</ele>
        <time>2021-02-07T09:06:26Z</time>
      </trkpt>
      <trkpt lat="43.2894330" lon="-6.6538200">
        <ele>685.0</ele>
        <time>2021-02-07T09:06:31Z</time>
      </trkpt>
      <trkpt lat="43.2894330" lon="-6.6538840">
        <ele>685.0</ele>
        <time>2021-02-07T09:06:36Z</time>
      </trkpt>
      <trkpt lat="43.2894620" lon="-6.6539530">
        <ele>686.0</ele>
        <time>2021-02-07T09:06:41Z</time>
      </trkpt>
      <trkpt lat="43.2895010" lon="-6.6540130">
        <ele>687.0</ele>
        <time>2021-02-07T09:06:46Z</time>
      </trkpt>
      <trkpt lat="43.2895340" lon="-6.6540670">
        <ele>688.0</ele>
        <time>2021-02-07T09:06:53Z</time>
      </trkpt>
      <trkpt lat="43.2895320" lon="-6.6541430">
        <ele>689.0</ele>
        <time>2021-02-07T09:07:05Z</time>
      </trkpt>
      <trkpt lat="43.2895340" lon="-6.6542080">
        <ele>689.0</ele>
        <time>2021-02-07T09:07:11Z</time>
      </trkpt>
      <trkpt lat="43.2895670" lon="-6.6542740">
        <ele>690.0</ele>
        <time>2021-02-07T09:07:19Z</time>
      </trkpt>
      <trkpt lat="43.2895910" lon="-6.6543470">
        <ele>690.0</ele>
        <time>2021-02-07T09:07:24Z</time>
      </trkpt>
      <trkpt lat="43.2896130" lon="-6.6544250">
        <ele>690.0</ele>
        <time>2021-02-07T09:07:28Z</time>
      </trkpt>
      <trkpt lat="43.2896420" lon="-6.6545070">
        <ele>691.0</ele>
        <time>2021-02-07T09:07:32Z</time>
      </trkpt>
      <trkpt lat="43.2896810" lon="-6.6545540">
        <ele>691.0</ele>
        <time>2021-02-07T09:07:35Z</time>
      </trkpt>
      <trkpt lat="43.2897150" lon="-6.6546060">
        <ele>691.0</ele>
        <time>2021-02-07T09:07:39Z</time>
      </trkpt>
      <trkpt lat="43.2897550" lon="-6.6546560">
        <ele>691.0</ele>
        <time>2021-02-07T09:07:44Z</time>
      </trkpt>
      <trkpt lat="43.2898040" lon="-6.6547070">
        <ele>691.0</ele>
        <time>2021-02-07T09:07:49Z</time>
      </trkpt>
      <trkpt lat="43.2898580" lon="-6.6547320">
        <ele>691.0</ele>
        <time>2021-02-07T09:07:53Z</time>
      </trkpt>
      <trkpt lat="43.2899050" lon="-6.6547710">
        <ele>691.0</ele>
        <time>2021-02-07T09:07:58Z</time>
      </trkpt>
      <trkpt lat="43.2899530" lon="-6.6547960">
        <ele>691.0</ele>
        <time>2021-02-07T09:08:02Z</time>
      </trkpt>
      <trkpt lat="43.2900200" lon="-6.6547970">
        <ele>691.0</ele>
        <time>2021-02-07T09:08:06Z</time>
      </trkpt>
      <trkpt lat="43.2900840" lon="-6.6547930">
        <ele>691.0</ele>
        <time>2021-02-07T09:08:10Z</time>
      </trkpt>
      <trkpt lat="43.2901310" lon="-6.6547920">
        <ele>691.0</ele>
        <time>2021-02-07T09:08:13Z</time>
      </trkpt>
      <trkpt lat="43.2901830" lon="-6.6548070">
        <ele>690.0</ele>
        <time>2021-02-07T09:08:18Z</time>
      </trkpt>
      <trkpt lat="43.2902310" lon="-6.6548070">
        <ele>690.0</ele>
        <time>2021-02-07T09:08:22Z</time>
      </trkpt>
      <trkpt lat="43.2902820" lon="-6.6548230">
        <ele>690.0</ele>
        <time>2021-02-07T09:08:27Z</time>
      </trkpt>
      <trkpt lat="43.2903340" lon="-6.6548700">
        <ele>690.0</ele>
        <time>2021-02-07T09:08:33Z</time>
      </trkpt>
      <trkpt lat="43.2903760" lon="-6.6549190">
        <ele>690.0</ele>
        <time>2021-02-07T09:08:37Z</time>
      </trkpt>
      <trkpt lat="43.2904210" lon="-6.6549770">
        <ele>690.0</ele>
        <time>2021-02-07T09:08:42Z</time>
      </trkpt>
      <trkpt lat="43.2904490" lon="-6.6550330">
        <ele>690.0</ele>
        <time>2021-02-07T09:08:45Z</time>
      </trkpt>
      <trkpt lat="43.2905000" lon="-6.6550780">
        <ele>690.0</ele>
        <time>2021-02-07T09:08:49Z</time>
      </trkpt>
      <trkpt lat="43.2905470" lon="-6.6551070">
        <ele>690.0</ele>
        <time>2021-02-07T09:08:53Z</time>
      </trkpt>
      <trkpt lat="43.2906000" lon="-6.6551380">
        <ele>690.0</ele>
        <time>2021-02-07T09:08:58Z</time>
      </trkpt>
      <trkpt lat="43.2906510" lon="-6.6551540">
        <ele>690.0</ele>
        <time>2021-02-07T09:09:02Z</time>
      </trkpt>
      <trkpt lat="43.2907080" lon="-6.6551670">
        <ele>690.0</ele>
        <time>2021-02-07T09:09:06Z</time>
      </trkpt>
      <trkpt lat="43.2907580" lon="-6.6552040">
        <ele>690.0</ele>
        <time>2021-02-07T09:09:10Z</time>
      </trkpt>
      <trkpt lat="43.2907920" lon="-6.6552580">
        <ele>690.0</ele>
        <time>2021-02-07T09:09:14Z</time>
      </trkpt>
      <trkpt lat="43.2908320" lon="-6.6553070">
        <ele>690.0</ele>
        <time>2021-02-07T09:09:19Z</time>
      </trkpt>
      <trkpt lat="43.2908630" lon="-6.6553650">
        <ele>690.0</ele>
        <time>2021-02-07T09:09:24Z</time>
      </trkpt>
      <trkpt lat="43.2909130" lon="-6.6554220">
        <ele>691.0</ele>
        <time>2021-02-07T09:09:30Z</time>
      </trkpt>
      <trkpt lat="43.2909460" lon="-6.6554800">
        <ele>691.0</ele>
        <time>2021-02-07T09:09:35Z</time>
      </trkpt>
      <trkpt lat="43.2909750" lon="-6.6555460">
        <ele>692.0</ele>
        <time>2021-02-07T09:09:40Z</time>
      </trkpt>
      <trkpt lat="43.2910160" lon="-6.6555950">
        <ele>692.0</ele>
        <time>2021-02-07T09:09:45Z</time>
      </trkpt>
      <trkpt lat="43.2910500" lon="-6.6556390">
        <ele>692.0</ele>
        <time>2021-02-07T09:09:50Z</time>
      </trkpt>
      <trkpt lat="43.2910940" lon="-6.6557030">
        <ele>692.0</ele>
        <time>2021-02-07T09:09:55Z</time>
      </trkpt>
      <trkpt lat="43.2911250" lon="-6.6557560">
        <ele>692.0</ele>
        <time>2021-02-07T09:09:59Z</time>
      </trkpt>
      <trkpt lat="43.2911570" lon="-6.6558300">
        <ele>692.0</ele>
        <time>2021-02-07T09:10:04Z</time>
      </trkpt>
      <trkpt lat="43.2911840" lon="-6.6558780">
        <ele>692.0</ele>
        <time>2021-02-07T09:10:08Z</time>
      </trkpt>
      <trkpt lat="43.2912240" lon="-6.6559240">
        <ele>692.0</ele>
        <time>2021-02-07T09:10:14Z</time>
      </trkpt>
      <trkpt lat="43.2912610" lon="-6.6559720">
        <ele>692.0</ele>
        <time>2021-02-07T09:10:19Z</time>
      </trkpt>
      <trkpt lat="43.2913040" lon="-6.6560340">
        <ele>692.0</ele>
        <time>2021-02-07T09:10:24Z</time>
      </trkpt>
      <trkpt lat="43.2913330" lon="-6.6561050">
        <ele>692.0</ele>
        <time>2021-02-07T09:10:29Z</time>
      </trkpt>
      <trkpt lat="43.2913710" lon="-6.6561630">
        <ele>692.0</ele>
        <time>2021-02-07T09:10:33Z</time>
      </trkpt>
      <trkpt lat="43.2914000" lon="-6.6562230">
        <ele>693.0</ele>
        <time>2021-02-07T09:10:37Z</time>
      </trkpt>
      <trkpt lat="43.2914230" lon="-6.6562980">
        <ele>693.0</ele>
        <time>2021-02-07T09:10:41Z</time>
      </trkpt>
      <trkpt lat="43.2914310" lon="-6.6563750">
        <ele>693.0</ele>
        <time>2021-02-07T09:10:45Z</time>
      </trkpt>
      <trkpt lat="43.2914240" lon="-6.6564540">
        <ele>693.0</ele>
        <time>2021-02-07T09:10:49Z</time>
      </trkpt>
      <trkpt lat="43.2914170" lon="-6.6565260">
        <ele>693.0</ele>
        <time>2021-02-07T09:10:53Z</time>
      </trkpt>
      <trkpt lat="43.2914120" lon="-6.6566110">
        <ele>693.0</ele>
        <time>2021-02-07T09:10:58Z</time>
      </trkpt>
      <trkpt lat="43.2913930" lon="-6.6567000">
        <ele>693.0</ele>
        <time>2021-02-07T09:11:03Z</time>
      </trkpt>
      <trkpt lat="43.2913930" lon="-6.6567800">
        <ele>693.0</ele>
        <time>2021-02-07T09:11:07Z</time>
      </trkpt>
      <trkpt lat="43.2913920" lon="-6.6568640">
        <ele>693.0</ele>
        <time>2021-02-07T09:11:12Z</time>
      </trkpt>
      <trkpt lat="43.2913830" lon="-6.6569440">
        <ele>693.0</ele>
        <time>2021-02-07T09:11:17Z</time>
      </trkpt>
      <trkpt lat="43.2913910" lon="-6.6570090">
        <ele>694.0</ele>
        <time>2021-02-07T09:11:22Z</time>
      </trkpt>
      <trkpt lat="43.2914080" lon="-6.6570850">
        <ele>694.0</ele>
        <time>2021-02-07T09:11:28Z</time>
      </trkpt>
      <trkpt lat="43.2914300" lon="-6.6571530">
        <ele>695.0</ele>
        <time>2021-02-07T09:11:33Z</time>
      </trkpt>
      <trkpt lat="43.2914480" lon="-6.6572260">
        <ele>696.0</ele>
        <time>2021-02-07T09:11:38Z</time>
      </trkpt>
      <trkpt lat="43.2914780" lon="-6.6572850">
        <ele>697.0</ele>
        <time>2021-02-07T09:11:43Z</time>
      </trkpt>
      <trkpt lat="43.2915020" lon="-6.6573580">
        <ele>698.0</ele>
        <time>2021-02-07T09:11:49Z</time>
      </trkpt>
      <trkpt lat="43.2915150" lon="-6.6574280">
        <ele>699.0</ele>
        <time>2021-02-07T09:11:53Z</time>
      </trkpt>
      <trkpt lat="43.2915240" lon="-6.6575060">
        <ele>699.0</ele>
        <time>2021-02-07T09:11:58Z</time>
      </trkpt>
      <trkpt lat="43.2915040" lon="-6.6575780">
        <ele>700.0</ele>
        <time>2021-02-07T09:12:03Z</time>
      </trkpt>
      <trkpt lat="43.2915130" lon="-6.6576640">
        <ele>700.0</ele>
        <time>2021-02-07T09:12:08Z</time>
      </trkpt>
      <trkpt lat="43.2915170" lon="-6.6577340">
        <ele>700.0</ele>
        <time>2021-02-07T09:12:12Z</time>
      </trkpt>
      <trkpt lat="43.2915090" lon="-6.6577980">
        <ele>699.0</ele>
        <time>2021-02-07T09:12:16Z</time>
      </trkpt>
      <trkpt lat="43.2914930" lon="-6.6578880">
        <ele>698.0</ele>
        <time>2021-02-07T09:12:21Z</time>
      </trkpt>
      <trkpt lat="43.2914820" lon="-6.6579610">
        <ele>697.0</ele>
        <time>2021-02-07T09:12:25Z</time>
      </trkpt>
      <trkpt lat="43.2914550" lon="-6.6580220">
        <ele>697.0</ele>
        <time>2021-02-07T09:12:29Z</time>
      </trkpt>
      <trkpt lat="43.2914100" lon="-6.6580550">
        <ele>697.0</ele>
        <time>2021-02-07T09:12:33Z</time>
      </trkpt>
      <trkpt lat="43.2913580" lon="-6.6580640">
        <ele>697.0</ele>
        <time>2021-02-07T09:12:37Z</time>
      </trkpt>
      <trkpt lat="43.2912930" lon="-6.6580620">
        <ele>697.0</ele>
        <time>2021-02-07T09:12:42Z</time>
      </trkpt>
      <trkpt lat="43.2912380" lon="-6.6580920">
        <ele>697.0</ele>
        <time>2021-02-07T09:12:47Z</time>
      </trkpt>
      <trkpt lat="43.2911800" lon="-6.6581380">
        <ele>697.0</ele>
        <time>2021-02-07T09:12:52Z</time>
      </trkpt>
      <trkpt lat="43.2911380" lon="-6.6581740">
        <ele>698.0</ele>
        <time>2021-02-07T09:12:56Z</time>
      </trkpt>
      <trkpt lat="43.2910980" lon="-6.6582320">
        <ele>698.0</ele>
        <time>2021-02-07T09:13:01Z</time>
      </trkpt>
      <trkpt lat="43.2910820" lon="-6.6583150">
        <ele>699.0</ele>
        <time>2021-02-07T09:13:06Z</time>
      </trkpt>
      <trkpt lat="43.2910820" lon="-6.6583930">
        <ele>699.0</ele>
        <time>2021-02-07T09:13:10Z</time>
      </trkpt>
      <trkpt lat="43.2910830" lon="-6.6584710">
        <ele>700.0</ele>
        <time>2021-02-07T09:13:14Z</time>
      </trkpt>
      <trkpt lat="43.2910750" lon="-6.6585450">
        <ele>701.0</ele>
        <time>2021-02-07T09:13:19Z</time>
      </trkpt>
      <trkpt lat="43.2910590" lon="-6.6586110">
        <ele>701.0</ele>
        <time>2021-02-07T09:13:24Z</time>
      </trkpt>
      <trkpt lat="43.2910540" lon="-6.6586950">
        <ele>702.0</ele>
        <time>2021-02-07T09:13:29Z</time>
      </trkpt>
      <trkpt lat="43.2910570" lon="-6.6587600">
        <ele>703.0</ele>
        <time>2021-02-07T09:13:33Z</time>
      </trkpt>
      <trkpt lat="43.2910600" lon="-6.6588370">
        <ele>703.0</ele>
        <time>2021-02-07T09:13:39Z</time>
      </trkpt>
      <trkpt lat="43.2910530" lon="-6.6589100">
        <ele>704.0</ele>
        <time>2021-02-07T09:13:44Z</time>
      </trkpt>
      <trkpt lat="43.2910430" lon="-6.6589750">
        <ele>705.0</ele>
        <time>2021-02-07T09:13:49Z</time>
      </trkpt>
      <trkpt lat="43.2910300" lon="-6.6590490">
        <ele>705.0</ele>
        <time>2021-02-07T09:13:55Z</time>
      </trkpt>
      <trkpt lat="43.2910070" lon="-6.6591160">
        <ele>706.0</ele>
        <time>2021-02-07T09:14:02Z</time>
      </trkpt>
      <trkpt lat="43.2909890" lon="-6.6591860">
        <ele>706.0</ele>
        <time>2021-02-07T09:14:08Z</time>
      </trkpt>
      <trkpt lat="43.2909760" lon="-6.6592510">
        <ele>707.0</ele>
        <time>2021-02-07T09:14:14Z</time>
      </trkpt>
      <trkpt lat="43.2909550" lon="-6.6593250">
        <ele>708.0</ele>
        <time>2021-02-07T09:14:20Z</time>
      </trkpt>
      <trkpt lat="43.2909280" lon="-6.6593880">
        <ele>708.0</ele>
        <time>2021-02-07T09:14:26Z</time>
      </trkpt>
      <trkpt lat="43.2909010" lon="-6.6594450">
        <ele>709.0</ele>
        <time>2021-02-07T09:14:31Z</time>
      </trkpt>
      <trkpt lat="43.2908830" lon="-6.6595220">
        <ele>709.0</ele>
        <time>2021-02-07T09:14:37Z</time>
      </trkpt>
      <trkpt lat="43.2908670" lon="-6.6595930">
        <ele>709.0</ele>
        <time>2021-02-07T09:14:42Z</time>
      </trkpt>
      <trkpt lat="43.2908490" lon="-6.6596620">
        <ele>709.0</ele>
        <time>2021-02-07T09:14:46Z</time>
      </trkpt>
      <trkpt lat="43.2908210" lon="-6.6597300">
        <ele>710.0</ele>
        <time>2021-02-07T09:14:51Z</time>
      </trkpt>
      <trkpt lat="43.2907950" lon="-6.6597830">
        <ele>710.0</ele>
        <time>2021-02-07T09:14:56Z</time>
      </trkpt>
      <trkpt lat="43.2907570" lon="-6.6598440">
        <ele>711.0</ele>
        <time>2021-02-07T09:15:01Z</time>
      </trkpt>
      <trkpt lat="43.2907240" lon="-6.6599010">
        <ele>711.0</ele>
        <time>2021-02-07T09:15:06Z</time>
      </trkpt>
      <trkpt lat="43.2906860" lon="-6.6599740">
        <ele>712.0</ele>
        <time>2021-02-07T09:15:11Z</time>
      </trkpt>
      <trkpt lat="43.2906540" lon="-6.6600320">
        <ele>712.0</ele>
        <time>2021-02-07T09:15:15Z</time>
      </trkpt>
      <trkpt lat="43.2906180" lon="-6.6600920">
        <ele>712.0</ele>
        <time>2021-02-07T09:15:20Z</time>
      </trkpt>
      <trkpt lat="43.2905890" lon="-6.6601550">
        <ele>713.0</ele>
        <time>2021-02-07T09:15:26Z</time>
      </trkpt>
      <trkpt lat="43.2905590" lon="-6.6602150">
        <ele>713.0</ele>
        <time>2021-02-07T09:15:32Z</time>
      </trkpt>
      <trkpt lat="43.2905300" lon="-6.6602860">
        <ele>714.0</ele>
        <time>2021-02-07T09:15:38Z</time>
      </trkpt>
      <trkpt lat="43.2905050" lon="-6.6603390">
        <ele>715.0</ele>
        <time>2021-02-07T09:15:44Z</time>
      </trkpt>
      <trkpt lat="43.2904910" lon="-6.6604140">
        <ele>716.0</ele>
        <time>2021-02-07T09:15:50Z</time>
      </trkpt>
      <trkpt lat="43.2904740" lon="-6.6604810">
        <ele>717.0</ele>
        <time>2021-02-07T09:15:56Z</time>
      </trkpt>
      <trkpt lat="43.2904540" lon="-6.6605420">
        <ele>718.0</ele>
        <time>2021-02-07T09:16:02Z</time>
      </trkpt>
      <trkpt lat="43.2904240" lon="-6.6606010">
        <ele>719.0</ele>
        <time>2021-02-07T09:16:09Z</time>
      </trkpt>
      <trkpt lat="43.2904030" lon="-6.6606670">
        <ele>721.0</ele>
        <time>2021-02-07T09:16:38Z</time>
      </trkpt>
      <trkpt lat="43.2903610" lon="-6.6607360">
        <ele>722.0</ele>
        <time>2021-02-07T09:16:43Z</time>
      </trkpt>
      <trkpt lat="43.2903290" lon="-6.6607890">
        <ele>722.0</ele>
        <time>2021-02-07T09:16:48Z</time>
      </trkpt>
      <trkpt lat="43.2902990" lon="-6.6608360">
        <ele>723.0</ele>
        <time>2021-02-07T09:16:55Z</time>
      </trkpt>
      <trkpt lat="43.2903030" lon="-6.6609000">
        <ele>724.0</ele>
        <time>2021-02-07T09:17:03Z</time>
      </trkpt>
      <trkpt lat="43.2902510" lon="-6.6609400">
        <ele>725.0</ele>
        <time>2021-02-07T09:17:15Z</time>
      </trkpt>
      <trkpt lat="43.2902070" lon="-6.6609750">
        <ele>726.0</ele>
        <time>2021-02-07T09:17:23Z</time>
      </trkpt>
      <trkpt lat="43.2901590" lon="-6.6610090">
        <ele>727.0</ele>
        <time>2021-02-07T09:17:31Z</time>
      </trkpt>
      <trkpt lat="43.2901120" lon="-6.6610340">
        <ele>728.0</ele>
        <time>2021-02-07T09:17:39Z</time>
      </trkpt>
      <trkpt lat="43.2900530" lon="-6.6610170">
        <ele>729.0</ele>
        <time>2021-02-07T09:17:45Z</time>
      </trkpt>
      <trkpt lat="43.2900040" lon="-6.6610410">
        <ele>730.0</ele>
        <time>2021-02-07T09:17:54Z</time>
      </trkpt>
      <trkpt lat="43.2899470" lon="-6.6610420">
        <ele>731.0</ele>
        <time>2021-02-07T09:18:00Z</time>
      </trkpt>
      <trkpt lat="43.2898990" lon="-6.6610550">
        <ele>731.0</ele>
        <time>2021-02-07T09:18:06Z</time>
      </trkpt>
      <trkpt lat="43.2898510" lon="-6.6611020">
        <ele>732.0</ele>
        <time>2021-02-07T09:18:13Z</time>
      </trkpt>
      <trkpt lat="43.2898210" lon="-6.6611430">
        <ele>733.0</ele>
        <time>2021-02-07T09:18:17Z</time>
      </trkpt>
      <trkpt lat="43.2897710" lon="-6.6611690">
        <ele>734.0</ele>
        <time>2021-02-07T09:18:24Z</time>
      </trkpt>
      <trkpt lat="43.2896860" lon="-6.6612380">
        <ele>735.0</ele>
        <time>2021-02-07T09:18:57Z</time>
      </trkpt>
      <trkpt lat="43.2896390" lon="-6.6612990">
        <ele>736.0</ele>
        <time>2021-02-07T09:19:04Z</time>
      </trkpt>
      <trkpt lat="43.2895870" lon="-6.6613120">
        <ele>737.0</ele>
        <time>2021-02-07T09:19:09Z</time>
      </trkpt>
      <trkpt lat="43.2895290" lon="-6.6613370">
        <ele>739.0</ele>
        <time>2021-02-07T09:19:20Z</time>
      </trkpt>
      <trkpt lat="43.2894840" lon="-6.6613680">
        <ele>740.0</ele>
        <time>2021-02-07T09:19:30Z</time>
      </trkpt>
      <trkpt lat="43.2894340" lon="-6.6614040">
        <ele>742.0</ele>
        <time>2021-02-07T09:19:41Z</time>
      </trkpt>
      <trkpt lat="43.2893810" lon="-6.6614190">
        <ele>743.0</ele>
        <time>2021-02-07T09:19:48Z</time>
      </trkpt>
      <trkpt lat="43.2893360" lon="-6.6614510">
        <ele>744.0</ele>
        <time>2021-02-07T09:19:55Z</time>
      </trkpt>
      <trkpt lat="43.2893000" lon="-6.6615080">
        <ele>744.0</ele>
        <time>2021-02-07T09:20:03Z</time>
      </trkpt>
      <trkpt lat="43.2892480" lon="-6.6615430">
        <ele>745.0</ele>
        <time>2021-02-07T09:20:10Z</time>
      </trkpt>
      <trkpt lat="43.2891930" lon="-6.6615850">
        <ele>745.0</ele>
        <time>2021-02-07T09:20:16Z</time>
      </trkpt>
      <trkpt lat="43.2891490" lon="-6.6616300">
        <ele>747.0</ele>
        <time>2021-02-07T09:20:23Z</time>
      </trkpt>
      <trkpt lat="43.2891130" lon="-6.6616840">
        <ele>747.0</ele>
        <time>2021-02-07T09:20:30Z</time>
      </trkpt>
      <trkpt lat="43.2890190" lon="-6.6618000">
        <ele>747.0</ele>
        <time>2021-02-07T09:20:53Z</time>
      </trkpt>
      <trkpt lat="43.2889840" lon="-6.6618630">
        <ele>747.0</ele>
        <time>2021-02-07T09:20:57Z</time>
      </trkpt>
      <trkpt lat="43.2889590" lon="-6.6619290">
        <ele>747.0</ele>
        <time>2021-02-07T09:21:02Z</time>
      </trkpt>
      <trkpt lat="43.2889390" lon="-6.6619920">
        <ele>747.0</ele>
        <time>2021-02-07T09:21:06Z</time>
      </trkpt>
      <trkpt lat="43.2889120" lon="-6.6620570">
        <ele>747.0</ele>
        <time>2021-02-07T09:21:11Z</time>
      </trkpt>
      <trkpt lat="43.2888850" lon="-6.6621170">
        <ele>747.0</ele>
        <time>2021-02-07T09:21:16Z</time>
      </trkpt>
      <trkpt lat="43.2888630" lon="-6.6621930">
        <ele>747.0</ele>
        <time>2021-02-07T09:21:24Z</time>
      </trkpt>
      <trkpt lat="43.2888290" lon="-6.6622640">
        <ele>747.0</ele>
        <time>2021-02-07T09:21:28Z</time>
      </trkpt>
      <trkpt lat="43.2888040" lon="-6.6623390">
        <ele>747.0</ele>
        <time>2021-02-07T09:21:32Z</time>
      </trkpt>
      <trkpt lat="43.2887790" lon="-6.6624070">
        <ele>747.0</ele>
        <time>2021-02-07T09:21:36Z</time>
      </trkpt>
      <trkpt lat="43.2887560" lon="-6.6624760">
        <ele>747.0</ele>
        <time>2021-02-07T09:21:41Z</time>
      </trkpt>
      <trkpt lat="43.2887340" lon="-6.6625400">
        <ele>747.0</ele>
        <time>2021-02-07T09:21:46Z</time>
      </trkpt>
      <trkpt lat="43.2887060" lon="-6.6626070">
        <ele>747.0</ele>
        <time>2021-02-07T09:21:51Z</time>
      </trkpt>
      <trkpt lat="43.2886730" lon="-6.6626700">
        <ele>747.0</ele>
        <time>2021-02-07T09:21:56Z</time>
      </trkpt>
      <trkpt lat="43.2886350" lon="-6.6627350">
        <ele>747.0</ele>
        <time>2021-02-07T09:22:01Z</time>
      </trkpt>
      <trkpt lat="43.2885940" lon="-6.6627680">
        <ele>747.0</ele>
        <time>2021-02-07T09:22:05Z</time>
      </trkpt>
      <trkpt lat="43.2885450" lon="-6.6627890">
        <ele>746.0</ele>
        <time>2021-02-07T09:22:12Z</time>
      </trkpt>
      <trkpt lat="43.2885030" lon="-6.6628230">
        <ele>746.0</ele>
        <time>2021-02-07T09:22:18Z</time>
      </trkpt>
      <trkpt lat="43.2884460" lon="-6.6628330">
        <ele>745.0</ele>
        <time>2021-02-07T09:22:24Z</time>
      </trkpt>
      <trkpt lat="43.2883920" lon="-6.6628410">
        <ele>745.0</ele>
        <time>2021-02-07T09:22:31Z</time>
      </trkpt>
      <trkpt lat="43.2883270" lon="-6.6628510">
        <ele>745.0</ele>
        <time>2021-02-07T09:22:37Z</time>
      </trkpt>
      <trkpt lat="43.2882770" lon="-6.6628560">
        <ele>744.0</ele>
        <time>2021-02-07T09:22:43Z</time>
      </trkpt>
      <trkpt lat="43.2882200" lon="-6.6628680">
        <ele>744.0</ele>
        <time>2021-02-07T09:22:52Z</time>
      </trkpt>
      <trkpt lat="43.2881690" lon="-6.6628820">
        <ele>743.0</ele>
        <time>2021-02-07T09:22:57Z</time>
      </trkpt>
      <trkpt lat="43.2881100" lon="-6.6628830">
        <ele>743.0</ele>
        <time>2021-02-07T09:23:03Z</time>
      </trkpt>
      <trkpt lat="43.2880650" lon="-6.6628690">
        <ele>743.0</ele>
        <time>2021-02-07T09:23:07Z</time>
      </trkpt>
      <trkpt lat="43.2880030" lon="-6.6628890">
        <ele>743.0</ele>
        <time>2021-02-07T09:23:12Z</time>
      </trkpt>
      <trkpt lat="43.2879560" lon="-6.6629240">
        <ele>742.0</ele>
        <time>2021-02-07T09:23:17Z</time>
      </trkpt>
      <trkpt lat="43.2879140" lon="-6.6629710">
        <ele>742.0</ele>
        <time>2021-02-07T09:23:24Z</time>
      </trkpt>
      <trkpt lat="43.2878740" lon="-6.6630190">
        <ele>743.0</ele>
        <time>2021-02-07T09:23:30Z</time>
      </trkpt>
      <trkpt lat="43.2878280" lon="-6.6630490">
        <ele>745.0</ele>
        <time>2021-02-07T09:23:36Z</time>
      </trkpt>
      <trkpt lat="43.2877800" lon="-6.6630780">
        <ele>746.0</ele>
        <time>2021-02-07T09:23:42Z</time>
      </trkpt>
      <trkpt lat="43.2877270" lon="-6.6630920">
        <ele>747.0</ele>
        <time>2021-02-07T09:23:49Z</time>
      </trkpt>
      <trkpt lat="43.2876750" lon="-6.6631150">
        <ele>749.0</ele>
        <time>2021-02-07T09:23:56Z</time>
      </trkpt>
      <trkpt lat="43.2876150" lon="-6.6631300">
        <ele>749.0</ele>
        <time>2021-02-07T09:24:06Z</time>
      </trkpt>
      <trkpt lat="43.2875580" lon="-6.6631350">
        <ele>749.0</ele>
        <time>2021-02-07T09:24:13Z</time>
      </trkpt>
      <trkpt lat="43.2874940" lon="-6.6631540">
        <ele>749.0</ele>
        <time>2021-02-07T09:24:19Z</time>
      </trkpt>
      <trkpt lat="43.2874510" lon="-6.6631440">
        <ele>748.0</ele>
        <time>2021-02-07T09:24:23Z</time>
      </trkpt>
      <trkpt lat="43.2873930" lon="-6.6631170">
        <ele>748.0</ele>
        <time>2021-02-07T09:24:28Z</time>
      </trkpt>
      <trkpt lat="43.2873420" lon="-6.6630950">
        <ele>748.0</ele>
        <time>2021-02-07T09:24:32Z</time>
      </trkpt>
      <trkpt lat="43.2872920" lon="-6.6630840">
        <ele>748.0</ele>
        <time>2021-02-07T09:24:37Z</time>
      </trkpt>
      <trkpt lat="43.2872430" lon="-6.6630920">
        <ele>748.0</ele>
        <time>2021-02-07T09:24:42Z</time>
      </trkpt>
      <trkpt lat="43.2871850" lon="-6.6631060">
        <ele>748.0</ele>
        <time>2021-02-07T09:24:49Z</time>
      </trkpt>
      <trkpt lat="43.2871380" lon="-6.6631250">
        <ele>748.0</ele>
        <time>2021-02-07T09:24:54Z</time>
      </trkpt>
      <trkpt lat="43.2870850" lon="-6.6631420">
        <ele>749.0</ele>
        <time>2021-02-07T09:25:00Z</time>
      </trkpt>
      <trkpt lat="43.2870290" lon="-6.6631550">
        <ele>749.0</ele>
        <time>2021-02-07T09:25:07Z</time>
      </trkpt>
      <trkpt lat="43.2869730" lon="-6.6631730">
        <ele>750.0</ele>
        <time>2021-02-07T09:25:14Z</time>
      </trkpt>
      <trkpt lat="43.2869240" lon="-6.6631710">
        <ele>751.0</ele>
        <time>2021-02-07T09:25:19Z</time>
      </trkpt>
      <trkpt lat="43.2868660" lon="-6.6631680">
        <ele>751.0</ele>
        <time>2021-02-07T09:25:25Z</time>
      </trkpt>
      <trkpt lat="43.2868130" lon="-6.6631480">
        <ele>752.0</ele>
        <time>2021-02-07T09:25:30Z</time>
      </trkpt>
      <trkpt lat="43.2867610" lon="-6.6631320">
        <ele>752.0</ele>
        <time>2021-02-07T09:25:36Z</time>
      </trkpt>
      <trkpt lat="43.2867070" lon="-6.6631350">
        <ele>752.0</ele>
        <time>2021-02-07T09:25:43Z</time>
      </trkpt>
      <trkpt lat="43.2866580" lon="-6.6631550">
        <ele>752.0</ele>
        <time>2021-02-07T09:25:48Z</time>
      </trkpt>
      <trkpt lat="43.2866040" lon="-6.6631660">
        <ele>752.0</ele>
        <time>2021-02-07T09:25:54Z</time>
      </trkpt>
      <trkpt lat="43.2865540" lon="-6.6631740">
        <ele>752.0</ele>
        <time>2021-02-07T09:25:59Z</time>
      </trkpt>
      <trkpt lat="43.2864980" lon="-6.6631830">
        <ele>752.0</ele>
        <time>2021-02-07T09:26:04Z</time>
      </trkpt>
      <trkpt lat="43.2864420" lon="-6.6631990">
        <ele>752.0</ele>
        <time>2021-02-07T09:26:09Z</time>
      </trkpt>
      <trkpt lat="43.2863870" lon="-6.6632070">
        <ele>752.0</ele>
        <time>2021-02-07T09:26:14Z</time>
      </trkpt>
      <trkpt lat="43.2863280" lon="-6.6632140">
        <ele>752.0</ele>
        <time>2021-02-07T09:26:19Z</time>
      </trkpt>
      <trkpt lat="43.2862680" lon="-6.6632250">
        <ele>752.0</ele>
        <time>2021-02-07T09:26:24Z</time>
      </trkpt>
      <trkpt lat="43.2862130" lon="-6.6632370">
        <ele>752.0</ele>
        <time>2021-02-07T09:26:29Z</time>
      </trkpt>
      <trkpt lat="43.2861670" lon="-6.6632520">
        <ele>752.0</ele>
        <time>2021-02-07T09:26:33Z</time>
      </trkpt>
      <trkpt lat="43.2861100" lon="-6.6632610">
        <ele>752.0</ele>
        <time>2021-02-07T09:26:38Z</time>
      </trkpt>
      <trkpt lat="43.2860520" lon="-6.6632650">
        <ele>752.0</ele>
        <time>2021-02-07T09:26:43Z</time>
      </trkpt>
      <trkpt lat="43.2859940" lon="-6.6632810">
        <ele>752.0</ele>
        <time>2021-02-07T09:26:49Z</time>
      </trkpt>
      <trkpt lat="43.2859410" lon="-6.6632870">
        <ele>752.0</ele>
        <time>2021-02-07T09:26:54Z</time>
      </trkpt>
      <trkpt lat="43.2858840" lon="-6.6633060">
        <ele>753.0</ele>
        <time>2021-02-07T09:27:00Z</time>
      </trkpt>
      <trkpt lat="43.2858300" lon="-6.6633010">
        <ele>753.0</ele>
        <time>2021-02-07T09:27:05Z</time>
      </trkpt>
      <trkpt lat="43.2857760" lon="-6.6633050">
        <ele>753.0</ele>
        <time>2021-02-07T09:27:10Z</time>
      </trkpt>
      <trkpt lat="43.2857150" lon="-6.6633060">
        <ele>754.0</ele>
        <time>2021-02-07T09:27:15Z</time>
      </trkpt>
      <trkpt lat="43.2856660" lon="-6.6632950">
        <ele>754.0</ele>
        <time>2021-02-07T09:27:19Z</time>
      </trkpt>
      <trkpt lat="43.2856140" lon="-6.6632850">
        <ele>754.0</ele>
        <time>2021-02-07T09:27:23Z</time>
      </trkpt>
      <trkpt lat="43.2855580" lon="-6.6632650">
        <ele>754.0</ele>
        <time>2021-02-07T09:27:27Z</time>
      </trkpt>
      <trkpt lat="43.2855050" lon="-6.6632490">
        <ele>754.0</ele>
        <time>2021-02-07T09:27:32Z</time>
      </trkpt>
      <trkpt lat="43.2854520" lon="-6.6632430">
        <ele>754.0</ele>
        <time>2021-02-07T09:27:37Z</time>
      </trkpt>
      <trkpt lat="43.2853990" lon="-6.6632240">
        <ele>755.0</ele>
        <time>2021-02-07T09:27:43Z</time>
      </trkpt>
      <trkpt lat="43.2853470" lon="-6.6632060">
        <ele>755.0</ele>
        <time>2021-02-07T09:27:49Z</time>
      </trkpt>
      <trkpt lat="43.2853040" lon="-6.6631860">
        <ele>755.0</ele>
        <time>2021-02-07T09:27:55Z</time>
      </trkpt>
      <trkpt lat="43.2852500" lon="-6.6631600">
        <ele>755.0</ele>
        <time>2021-02-07T09:28:02Z</time>
      </trkpt>
      <trkpt lat="43.2851940" lon="-6.6631590">
        <ele>756.0</ele>
        <time>2021-02-07T09:28:17Z</time>
      </trkpt>
      <trkpt lat="43.2851600" lon="-6.6631960">
        <ele>756.0</ele>
        <time>2021-02-07T09:29:09Z</time>
      </trkpt>
      <trkpt lat="43.2850920" lon="-6.6631780">
        <ele>756.0</ele>
        <time>2021-02-07T09:29:16Z</time>
      </trkpt>
      <trkpt lat="43.2850420" lon="-6.6631820">
        <ele>756.0</ele>
        <time>2021-02-07T09:29:22Z</time>
      </trkpt>
      <trkpt lat="43.2849930" lon="-6.6631630">
        <ele>756.0</ele>
        <time>2021-02-07T09:29:28Z</time>
      </trkpt>
      <trkpt lat="43.2849570" lon="-6.6631150">
        <ele>756.0</ele>
        <time>2021-02-07T09:29:41Z</time>
      </trkpt>
      <trkpt lat="43.2850110" lon="-6.6632500">
        <ele>756.0</ele>
        <time>2021-02-07T09:30:34Z</time>
      </trkpt>
      <trkpt lat="43.2850510" lon="-6.6632770">
        <ele>779.0</ele>
        <time>2021-02-07T09:33:11Z</time>
      </trkpt>
      <trkpt lat="43.2851150" lon="-6.6632880">
        <ele>779.0</ele>
        <time>2021-02-07T09:33:17Z</time>
      </trkpt>
      <trkpt lat="43.2851520" lon="-6.6633010">
        <ele>779.0</ele>
        <time>2021-02-07T09:33:26Z</time>
      </trkpt>
      <trkpt lat="43.2849970" lon="-6.6632170">
        <ele>779.0</ele>
        <time>2021-02-07T09:35:42Z</time>
      </trkpt>
      <trkpt lat="43.2849440" lon="-6.6632480">
        <ele>779.0</ele>
        <time>2021-02-07T09:35:47Z</time>
      </trkpt>
      <trkpt lat="43.2848930" lon="-6.6632700">
        <ele>779.0</ele>
        <time>2021-02-07T09:35:52Z</time>
      </trkpt>
      <trkpt lat="43.2848510" lon="-6.6632860">
        <ele>779.0</ele>
        <time>2021-02-07T09:35:58Z</time>
      </trkpt>
      <trkpt lat="43.2847940" lon="-6.6633160">
        <ele>779.0</ele>
        <time>2021-02-07T09:36:05Z</time>
      </trkpt>
      <trkpt lat="43.2847570" lon="-6.6633570">
        <ele>784.0</ele>
        <time>2021-02-07T09:36:10Z</time>
      </trkpt>
      <trkpt lat="43.2847400" lon="-6.6634370">
        <ele>785.0</ele>
        <time>2021-02-07T09:36:16Z</time>
      </trkpt>
      <trkpt lat="43.2847080" lon="-6.6634960">
        <ele>786.0</ele>
        <time>2021-02-07T09:36:21Z</time>
      </trkpt>
      <trkpt lat="43.2846560" lon="-6.6635300">
        <ele>786.0</ele>
        <time>2021-02-07T09:36:27Z</time>
      </trkpt>
      <trkpt lat="43.2846120" lon="-6.6635800">
        <ele>787.0</ele>
        <time>2021-02-07T09:36:33Z</time>
      </trkpt>
      <trkpt lat="43.2845650" lon="-6.6636150">
        <ele>787.0</ele>
        <time>2021-02-07T09:36:37Z</time>
      </trkpt>
      <trkpt lat="43.2845190" lon="-6.6636540">
        <ele>788.0</ele>
        <time>2021-02-07T09:36:42Z</time>
      </trkpt>
      <trkpt lat="43.2844770" lon="-6.6636900">
        <ele>789.0</ele>
        <time>2021-02-07T09:36:48Z</time>
      </trkpt>
      <trkpt lat="43.2844320" lon="-6.6637340">
        <ele>790.0</ele>
        <time>2021-02-07T09:36:55Z</time>
      </trkpt>
      <trkpt lat="43.2843940" lon="-6.6637820">
        <ele>791.0</ele>
        <time>2021-02-07T09:37:02Z</time>
      </trkpt>
      <trkpt lat="43.2843840" lon="-6.6638560">
        <ele>792.0</ele>
        <time>2021-02-07T09:37:08Z</time>
      </trkpt>
      <trkpt lat="43.2843620" lon="-6.6639200">
        <ele>793.0</ele>
        <time>2021-02-07T09:37:15Z</time>
      </trkpt>
      <trkpt lat="43.2843580" lon="-6.6640020">
        <ele>793.0</ele>
        <time>2021-02-07T09:37:22Z</time>
      </trkpt>
      <trkpt lat="43.2843430" lon="-6.6640680">
        <ele>794.0</ele>
        <time>2021-02-07T09:37:27Z</time>
      </trkpt>
      <trkpt lat="43.2843300" lon="-6.6641310">
        <ele>795.0</ele>
        <time>2021-02-07T09:37:33Z</time>
      </trkpt>
      <trkpt lat="43.2843070" lon="-6.6641980">
        <ele>796.0</ele>
        <time>2021-02-07T09:37:40Z</time>
      </trkpt>
      <trkpt lat="43.2842610" lon="-6.6642450">
        <ele>797.0</ele>
        <time>2021-02-07T09:37:47Z</time>
      </trkpt>
      <trkpt lat="43.2842420" lon="-6.6643070">
        <ele>797.0</ele>
        <time>2021-02-07T09:37:52Z</time>
      </trkpt>
      <trkpt lat="43.2842210" lon="-6.6643780">
        <ele>798.0</ele>
        <time>2021-02-07T09:37:58Z</time>
      </trkpt>
      <trkpt lat="43.2841940" lon="-6.6644370">
        <ele>799.0</ele>
        <time>2021-02-07T09:38:04Z</time>
      </trkpt>
      <trkpt lat="43.2841590" lon="-6.6644860">
        <ele>800.0</ele>
        <time>2021-02-07T09:38:12Z</time>
      </trkpt>
      <trkpt lat="43.2841350" lon="-6.6645510">
        <ele>801.0</ele>
        <time>2021-02-07T09:38:20Z</time>
      </trkpt>
      <trkpt lat="43.2841200" lon="-6.6646230">
        <ele>801.0</ele>
        <time>2021-02-07T09:38:26Z</time>
      </trkpt>
      <trkpt lat="43.2840860" lon="-6.6646730">
        <ele>802.0</ele>
        <time>2021-02-07T09:38:33Z</time>
      </trkpt>
      <trkpt lat="43.2840490" lon="-6.6647410">
        <ele>803.0</ele>
        <time>2021-02-07T09:38:39Z</time>
      </trkpt>
      <trkpt lat="43.2840250" lon="-6.6648040">
        <ele>804.0</ele>
        <time>2021-02-07T09:38:45Z</time>
      </trkpt>
      <trkpt lat="43.2839960" lon="-6.6648510">
        <ele>805.0</ele>
        <time>2021-02-07T09:38:52Z</time>
      </trkpt>
      <trkpt lat="43.2839470" lon="-6.6648960">
        <ele>806.0</ele>
        <time>2021-02-07T09:39:00Z</time>
      </trkpt>
      <trkpt lat="43.2839290" lon="-6.6649690">
        <ele>807.0</ele>
        <time>2021-02-07T09:39:07Z</time>
      </trkpt>
      <trkpt lat="43.2838980" lon="-6.6650050">
        <ele>808.0</ele>
        <time>2021-02-07T09:39:13Z</time>
      </trkpt>
      <trkpt lat="43.2838510" lon="-6.6650560">
        <ele>809.0</ele>
        <time>2021-02-07T09:39:20Z</time>
      </trkpt>
      <trkpt lat="43.2838220" lon="-6.6651120">
        <ele>809.0</ele>
        <time>2021-02-07T09:39:27Z</time>
      </trkpt>
      <trkpt lat="43.2837700" lon="-6.6651470">
        <ele>810.0</ele>
        <time>2021-02-07T09:39:33Z</time>
      </trkpt>
      <trkpt lat="43.2837250" lon="-6.6651810">
        <ele>811.0</ele>
        <time>2021-02-07T09:39:38Z</time>
      </trkpt>
      <trkpt lat="43.2836940" lon="-6.6652310">
        <ele>812.0</ele>
        <time>2021-02-07T09:39:50Z</time>
      </trkpt>
      <trkpt lat="43.2836580" lon="-6.6652800">
        <ele>813.0</ele>
        <time>2021-02-07T09:39:58Z</time>
      </trkpt>
      <trkpt lat="43.2836170" lon="-6.6653280">
        <ele>814.0</ele>
        <time>2021-02-07T09:40:05Z</time>
      </trkpt>
      <trkpt lat="43.2835860" lon="-6.6653970">
        <ele>815.0</ele>
        <time>2021-02-07T09:40:12Z</time>
      </trkpt>
      <trkpt lat="43.2835630" lon="-6.6654610">
        <ele>815.0</ele>
        <time>2021-02-07T09:40:17Z</time>
      </trkpt>
      <trkpt lat="43.2835220" lon="-6.6655250">
        <ele>816.0</ele>
        <time>2021-02-07T09:40:22Z</time>
      </trkpt>
      <trkpt lat="43.2834910" lon="-6.6655710">
        <ele>816.0</ele>
        <time>2021-02-07T09:40:27Z</time>
      </trkpt>
      <trkpt lat="43.2834580" lon="-6.6656230">
        <ele>817.0</ele>
        <time>2021-02-07T09:40:35Z</time>
      </trkpt>
      <trkpt lat="43.2834390" lon="-6.6656910">
        <ele>818.0</ele>
        <time>2021-02-07T09:40:42Z</time>
      </trkpt>
      <trkpt lat="43.2834150" lon="-6.6657590">
        <ele>818.0</ele>
        <time>2021-02-07T09:40:48Z</time>
      </trkpt>
      <trkpt lat="43.2833840" lon="-6.6658180">
        <ele>819.0</ele>
        <time>2021-02-07T09:40:54Z</time>
      </trkpt>
      <trkpt lat="43.2833560" lon="-6.6658860">
        <ele>820.0</ele>
        <time>2021-02-07T09:41:03Z</time>
      </trkpt>
      <trkpt lat="43.2833190" lon="-6.6659320">
        <ele>821.0</ele>
        <time>2021-02-07T09:41:09Z</time>
      </trkpt>
      <trkpt lat="43.2832780" lon="-6.6660010">
        <ele>822.0</ele>
        <time>2021-02-07T09:41:16Z</time>
      </trkpt>
      <trkpt lat="43.2832450" lon="-6.6660630">
        <ele>822.0</ele>
        <time>2021-02-07T09:41:22Z</time>
      </trkpt>
      <trkpt lat="43.2832270" lon="-6.6661350">
        <ele>822.0</ele>
        <time>2021-02-07T09:41:28Z</time>
      </trkpt>
      <trkpt lat="43.2832080" lon="-6.6662060">
        <ele>823.0</ele>
        <time>2021-02-07T09:41:33Z</time>
      </trkpt>
      <trkpt lat="43.2831780" lon="-6.6662620">
        <ele>823.0</ele>
        <time>2021-02-07T09:41:38Z</time>
      </trkpt>
      <trkpt lat="43.2831490" lon="-6.6663130">
        <ele>824.0</ele>
        <time>2021-02-07T09:41:45Z</time>
      </trkpt>
      <trkpt lat="43.2831500" lon="-6.6663900">
        <ele>825.0</ele>
        <time>2021-02-07T09:41:53Z</time>
      </trkpt>
      <trkpt lat="43.2831270" lon="-6.6664560">
        <ele>826.0</ele>
        <time>2021-02-07T09:42:00Z</time>
      </trkpt>
      <trkpt lat="43.2831110" lon="-6.6665320">
        <ele>827.0</ele>
        <time>2021-02-07T09:42:07Z</time>
      </trkpt>
      <trkpt lat="43.2830980" lon="-6.6666090">
        <ele>827.0</ele>
        <time>2021-02-07T09:42:13Z</time>
      </trkpt>
      <trkpt lat="43.2831000" lon="-6.6666820">
        <ele>828.0</ele>
        <time>2021-02-07T09:42:18Z</time>
      </trkpt>
      <trkpt lat="43.2830750" lon="-6.6667300">
        <ele>829.0</ele>
        <time>2021-02-07T09:42:27Z</time>
      </trkpt>
      <trkpt lat="43.2830600" lon="-6.6668090">
        <ele>829.0</ele>
        <time>2021-02-07T09:42:40Z</time>
      </trkpt>
      <trkpt lat="43.2830290" lon="-6.6668660">
        <ele>829.0</ele>
        <time>2021-02-07T09:42:46Z</time>
      </trkpt>
      <trkpt lat="43.2829910" lon="-6.6669220">
        <ele>830.0</ele>
        <time>2021-02-07T09:42:52Z</time>
      </trkpt>
      <trkpt lat="43.2829500" lon="-6.6669640">
        <ele>831.0</ele>
        <time>2021-02-07T09:42:58Z</time>
      </trkpt>
      <trkpt lat="43.2829180" lon="-6.6670170">
        <ele>831.0</ele>
        <time>2021-02-07T09:43:04Z</time>
      </trkpt>
      <trkpt lat="43.2829020" lon="-6.6670920">
        <ele>832.0</ele>
        <time>2021-02-07T09:43:10Z</time>
      </trkpt>
      <trkpt lat="43.2828670" lon="-6.6671460">
        <ele>832.0</ele>
        <time>2021-02-07T09:43:15Z</time>
      </trkpt>
      <trkpt lat="43.2828560" lon="-6.6672110">
        <ele>833.0</ele>
        <time>2021-02-07T09:43:21Z</time>
      </trkpt>
      <trkpt lat="43.2828560" lon="-6.6672840">
        <ele>834.0</ele>
        <time>2021-02-07T09:43:29Z</time>
      </trkpt>
      <trkpt lat="43.2828580" lon="-6.6673520">
        <ele>835.0</ele>
        <time>2021-02-07T09:43:35Z</time>
      </trkpt>
      <trkpt lat="43.2828220" lon="-6.6674210">
        <ele>836.0</ele>
        <time>2021-02-07T09:43:43Z</time>
      </trkpt>
      <trkpt lat="43.2828070" lon="-6.6674790">
        <ele>836.0</ele>
        <time>2021-02-07T09:43:48Z</time>
      </trkpt>
      <trkpt lat="43.2827760" lon="-6.6675530">
        <ele>837.0</ele>
        <time>2021-02-07T09:43:55Z</time>
      </trkpt>
      <trkpt lat="43.2827390" lon="-6.6675990">
        <ele>837.0</ele>
        <time>2021-02-07T09:44:01Z</time>
      </trkpt>
      <trkpt lat="43.2827300" lon="-6.6676770">
        <ele>838.0</ele>
        <time>2021-02-07T09:44:08Z</time>
      </trkpt>
      <trkpt lat="43.2827030" lon="-6.6677300">
        <ele>839.0</ele>
        <time>2021-02-07T09:44:18Z</time>
      </trkpt>
      <trkpt lat="43.2826530" lon="-6.6677690">
        <ele>840.0</ele>
        <time>2021-02-07T09:44:25Z</time>
      </trkpt>
      <trkpt lat="43.2826250" lon="-6.6678290">
        <ele>840.0</ele>
        <time>2021-02-07T09:44:31Z</time>
      </trkpt>
      <trkpt lat="43.2825910" lon="-6.6678840">
        <ele>841.0</ele>
        <time>2021-02-07T09:44:37Z</time>
      </trkpt>
      <trkpt lat="43.2825560" lon="-6.6679330">
        <ele>842.0</ele>
        <time>2021-02-07T09:44:44Z</time>
      </trkpt>
      <trkpt lat="43.2825170" lon="-6.6679750">
        <ele>842.0</ele>
        <time>2021-02-07T09:44:56Z</time>
      </trkpt>
      <trkpt lat="43.2823490" lon="-6.6682040">
        <ele>845.0</ele>
        <time>2021-02-07T09:45:31Z</time>
      </trkpt>
      <trkpt lat="43.2823080" lon="-6.6682590">
        <ele>846.0</ele>
        <time>2021-02-07T09:45:37Z</time>
      </trkpt>
      <trkpt lat="43.2822750" lon="-6.6683090">
        <ele>846.0</ele>
        <time>2021-02-07T09:45:41Z</time>
      </trkpt>
      <trkpt lat="43.2822530" lon="-6.6683620">
        <ele>847.0</ele>
        <time>2021-02-07T09:45:47Z</time>
      </trkpt>
      <trkpt lat="43.2822530" lon="-6.6684440">
        <ele>847.0</ele>
        <time>2021-02-07T09:45:54Z</time>
      </trkpt>
      <trkpt lat="43.2822290" lon="-6.6685050">
        <ele>847.0</ele>
        <time>2021-02-07T09:45:59Z</time>
      </trkpt>
      <trkpt lat="43.2821890" lon="-6.6685570">
        <ele>848.0</ele>
        <time>2021-02-07T09:46:06Z</time>
      </trkpt>
      <trkpt lat="43.2821610" lon="-6.6686110">
        <ele>848.0</ele>
        <time>2021-02-07T09:46:13Z</time>
      </trkpt>
      <trkpt lat="43.2821260" lon="-6.6686250">
        <ele>848.0</ele>
        <time>2021-02-07T09:47:32Z</time>
      </trkpt>
      <trkpt lat="43.2820820" lon="-6.6685900">
        <ele>848.0</ele>
        <time>2021-02-07T09:47:52Z</time>
      </trkpt>
      <trkpt lat="43.2820210" lon="-6.6685220">
        <ele>848.0</ele>
        <time>2021-02-07T09:48:00Z</time>
      </trkpt>
      <trkpt lat="43.2819620" lon="-6.6684780">
        <ele>848.0</ele>
        <time>2021-02-07T09:48:04Z</time>
      </trkpt>
      <trkpt lat="43.2819100" lon="-6.6684630">
        <ele>848.0</ele>
        <time>2021-02-07T09:48:09Z</time>
      </trkpt>
      <trkpt lat="43.2818560" lon="-6.6684700">
        <ele>848.0</ele>
        <time>2021-02-07T09:48:14Z</time>
      </trkpt>
      <trkpt lat="43.2818020" lon="-6.6684760">
        <ele>853.0</ele>
        <time>2021-02-07T09:48:20Z</time>
      </trkpt>
      <trkpt lat="43.2817510" lon="-6.6684830">
        <ele>853.0</ele>
        <time>2021-02-07T09:48:26Z</time>
      </trkpt>
      <trkpt lat="43.2816910" lon="-6.6684750">
        <ele>854.0</ele>
        <time>2021-02-07T09:48:33Z</time>
      </trkpt>
      <trkpt lat="43.2816340" lon="-6.6684680">
        <ele>855.0</ele>
        <time>2021-02-07T09:48:40Z</time>
      </trkpt>
      <trkpt lat="43.2815760" lon="-6.6684740">
        <ele>856.0</ele>
        <time>2021-02-07T09:48:48Z</time>
      </trkpt>
      <trkpt lat="43.2815150" lon="-6.6684580">
        <ele>857.0</ele>
        <time>2021-02-07T09:48:53Z</time>
      </trkpt>
      <trkpt lat="43.2814680" lon="-6.6684520">
        <ele>857.0</ele>
        <time>2021-02-07T09:48:58Z</time>
      </trkpt>
      <trkpt lat="43.2814120" lon="-6.6684450">
        <ele>858.0</ele>
        <time>2021-02-07T09:49:05Z</time>
      </trkpt>
      <trkpt lat="43.2813620" lon="-6.6684560">
        <ele>859.0</ele>
        <time>2021-02-07T09:49:13Z</time>
      </trkpt>
      <trkpt lat="43.2813130" lon="-6.6684690">
        <ele>860.0</ele>
        <time>2021-02-07T09:49:24Z</time>
      </trkpt>
      <trkpt lat="43.2812520" lon="-6.6684650">
        <ele>861.0</ele>
        <time>2021-02-07T09:49:31Z</time>
      </trkpt>
      <trkpt lat="43.2811970" lon="-6.6684630">
        <ele>862.0</ele>
        <time>2021-02-07T09:49:37Z</time>
      </trkpt>
      <trkpt lat="43.2811470" lon="-6.6684670">
        <ele>862.0</ele>
        <time>2021-02-07T09:49:42Z</time>
      </trkpt>
      <trkpt lat="43.2810920" lon="-6.6684610">
        <ele>863.0</ele>
        <time>2021-02-07T09:49:51Z</time>
      </trkpt>
      <trkpt lat="43.2810440" lon="-6.6684720">
        <ele>864.0</ele>
        <time>2021-02-07T09:49:59Z</time>
      </trkpt>
      <trkpt lat="43.2809850" lon="-6.6684770">
        <ele>865.0</ele>
        <time>2021-02-07T09:50:07Z</time>
      </trkpt>
      <trkpt lat="43.2809340" lon="-6.6684810">
        <ele>866.0</ele>
        <time>2021-02-07T09:50:14Z</time>
      </trkpt>
      <trkpt lat="43.2808800" lon="-6.6684830">
        <ele>867.0</ele>
        <time>2021-02-07T09:50:21Z</time>
      </trkpt>
      <trkpt lat="43.2808400" lon="-6.6685190">
        <ele>868.0</ele>
        <time>2021-02-07T09:50:28Z</time>
      </trkpt>
      <trkpt lat="43.2807810" lon="-6.6685300">
        <ele>868.0</ele>
        <time>2021-02-07T09:50:35Z</time>
      </trkpt>
      <trkpt lat="43.2807300" lon="-6.6685470">
        <ele>869.0</ele>
        <time>2021-02-07T09:50:42Z</time>
      </trkpt>
      <trkpt lat="43.2806800" lon="-6.6685680">
        <ele>870.0</ele>
        <time>2021-02-07T09:50:48Z</time>
      </trkpt>
      <trkpt lat="43.2806290" lon="-6.6685760">
        <ele>871.0</ele>
        <time>2021-02-07T09:50:55Z</time>
      </trkpt>
      <trkpt lat="43.2805760" lon="-6.6685670">
        <ele>872.0</ele>
        <time>2021-02-07T09:51:03Z</time>
      </trkpt>
      <trkpt lat="43.2805280" lon="-6.6685560">
        <ele>873.0</ele>
        <time>2021-02-07T09:51:12Z</time>
      </trkpt>
      <trkpt lat="43.2804700" lon="-6.6685640">
        <ele>873.0</ele>
        <time>2021-02-07T09:51:20Z</time>
      </trkpt>
      <trkpt lat="43.2804240" lon="-6.6685860">
        <ele>874.0</ele>
        <time>2021-02-07T09:51:27Z</time>
      </trkpt>
      <trkpt lat="43.2803770" lon="-6.6686110">
        <ele>876.0</ele>
        <time>2021-02-07T09:51:37Z</time>
      </trkpt>
      <trkpt lat="43.2803200" lon="-6.6686000">
        <ele>878.0</ele>
        <time>2021-02-07T09:51:46Z</time>
      </trkpt>
      <trkpt lat="43.2802700" lon="-6.6686010">
        <ele>879.0</ele>
        <time>2021-02-07T09:51:54Z</time>
      </trkpt>
      <trkpt lat="43.2802160" lon="-6.6685890">
        <ele>880.0</ele>
        <time>2021-02-07T09:52:04Z</time>
      </trkpt>
      <trkpt lat="43.2801610" lon="-6.6685670">
        <ele>881.0</ele>
        <time>2021-02-07T09:52:11Z</time>
      </trkpt>
      <trkpt lat="43.2800760" lon="-6.6685260">
        <ele>882.0</ele>
        <time>2021-02-07T09:52:40Z</time>
      </trkpt>
      <trkpt lat="43.2800240" lon="-6.6685040">
        <ele>883.0</ele>
        <time>2021-02-07T09:52:45Z</time>
      </trkpt>
      <trkpt lat="43.2799790" lon="-6.6684790">
        <ele>884.0</ele>
        <time>2021-02-07T09:52:53Z</time>
      </trkpt>
      <trkpt lat="43.2799330" lon="-6.6684480">
        <ele>884.0</ele>
        <time>2021-02-07T09:53:02Z</time>
      </trkpt>
      <trkpt lat="43.2798830" lon="-6.6684110">
        <ele>885.0</ele>
        <time>2021-02-07T09:53:09Z</time>
      </trkpt>
      <trkpt lat="43.2798350" lon="-6.6683640">
        <ele>886.0</ele>
        <time>2021-02-07T09:53:16Z</time>
      </trkpt>
      <trkpt lat="43.2797790" lon="-6.6683370">
        <ele>887.0</ele>
        <time>2021-02-07T09:53:21Z</time>
      </trkpt>
      <trkpt lat="43.2797360" lon="-6.6683150">
        <ele>888.0</ele>
        <time>2021-02-07T09:53:26Z</time>
      </trkpt>
      <trkpt lat="43.2796870" lon="-6.6682910">
        <ele>888.0</ele>
        <time>2021-02-07T09:53:33Z</time>
      </trkpt>
      <trkpt lat="43.2796320" lon="-6.6682770">
        <ele>890.0</ele>
        <time>2021-02-07T09:53:40Z</time>
      </trkpt>
      <trkpt lat="43.2795810" lon="-6.6682790">
        <ele>890.0</ele>
        <time>2021-02-07T09:53:47Z</time>
      </trkpt>
      <trkpt lat="43.2795250" lon="-6.6682950">
        <ele>891.0</ele>
        <time>2021-02-07T09:53:56Z</time>
      </trkpt>
      <trkpt lat="43.2794750" lon="-6.6683240">
        <ele>892.0</ele>
        <time>2021-02-07T09:54:03Z</time>
      </trkpt>
      <trkpt lat="43.2794230" lon="-6.6683530">
        <ele>893.0</ele>
        <time>2021-02-07T09:54:10Z</time>
      </trkpt>
      <trkpt lat="43.2793810" lon="-6.6683850">
        <ele>894.0</ele>
        <time>2021-02-07T09:54:15Z</time>
      </trkpt>
      <trkpt lat="43.2793240" lon="-6.6684230">
        <ele>894.0</ele>
        <time>2021-02-07T09:54:24Z</time>
      </trkpt>
      <trkpt lat="43.2792860" lon="-6.6684570">
        <ele>894.0</ele>
        <time>2021-02-07T09:54:29Z</time>
      </trkpt>
      <trkpt lat="43.2792380" lon="-6.6684980">
        <ele>894.0</ele>
        <time>2021-02-07T09:54:37Z</time>
      </trkpt>
      <trkpt lat="43.2791900" lon="-6.6685480">
        <ele>895.0</ele>
        <time>2021-02-07T09:54:42Z</time>
      </trkpt>
      <trkpt lat="43.2791480" lon="-6.6685970">
        <ele>895.0</ele>
        <time>2021-02-07T09:54:46Z</time>
      </trkpt>
      <trkpt lat="43.2791100" lon="-6.6686530">
        <ele>895.0</ele>
        <time>2021-02-07T09:54:50Z</time>
      </trkpt>
      <trkpt lat="43.2790730" lon="-6.6687140">
        <ele>895.0</ele>
        <time>2021-02-07T09:54:54Z</time>
      </trkpt>
      <trkpt lat="43.2790350" lon="-6.6687630">
        <ele>895.0</ele>
        <time>2021-02-07T09:54:58Z</time>
      </trkpt>
      <trkpt lat="43.2789920" lon="-6.6688200">
        <ele>895.0</ele>
        <time>2021-02-07T09:55:03Z</time>
      </trkpt>
      <trkpt lat="43.2789500" lon="-6.6688590">
        <ele>895.0</ele>
        <time>2021-02-07T09:55:07Z</time>
      </trkpt>
      <trkpt lat="43.2789170" lon="-6.6689270">
        <ele>896.0</ele>
        <time>2021-02-07T09:55:12Z</time>
      </trkpt>
      <trkpt lat="43.2789070" lon="-6.6690020">
        <ele>896.0</ele>
        <time>2021-02-07T09:55:16Z</time>
      </trkpt>
      <trkpt lat="43.2788590" lon="-6.6690530">
        <ele>897.0</ele>
        <time>2021-02-07T09:55:21Z</time>
      </trkpt>
      <trkpt lat="43.2788040" lon="-6.6690800">
        <ele>898.0</ele>
        <time>2021-02-07T09:55:26Z</time>
      </trkpt>
      <trkpt lat="43.2787600" lon="-6.6691260">
        <ele>898.0</ele>
        <time>2021-02-07T09:55:32Z</time>
      </trkpt>
      <trkpt lat="43.2786990" lon="-6.6691560">
        <ele>898.0</ele>
        <time>2021-02-07T09:55:37Z</time>
      </trkpt>
      <trkpt lat="43.2786470" lon="-6.6691750">
        <ele>898.0</ele>
        <time>2021-02-07T09:55:41Z</time>
      </trkpt>
      <trkpt lat="43.2785980" lon="-6.6691940">
        <ele>899.0</ele>
        <time>2021-02-07T09:55:45Z</time>
      </trkpt>
      <trkpt lat="43.2785380" lon="-6.6691870">
        <ele>899.0</ele>
        <time>2021-02-07T09:55:50Z</time>
      </trkpt>
      <trkpt lat="43.2784820" lon="-6.6691950">
        <ele>900.0</ele>
        <time>2021-02-07T09:55:54Z</time>
      </trkpt>
      <trkpt lat="43.2784360" lon="-6.6692040">
        <ele>900.0</ele>
        <time>2021-02-07T09:55:58Z</time>
      </trkpt>
      <trkpt lat="43.2783880" lon="-6.6692590">
        <ele>900.0</ele>
        <time>2021-02-07T09:56:03Z</time>
      </trkpt>
      <trkpt lat="43.2783610" lon="-6.6693210">
        <ele>900.0</ele>
        <time>2021-02-07T09:56:07Z</time>
      </trkpt>
      <trkpt lat="43.2783270" lon="-6.6693820">
        <ele>901.0</ele>
        <time>2021-02-07T09:56:12Z</time>
      </trkpt>
      <trkpt lat="43.2782840" lon="-6.6694260">
        <ele>901.0</ele>
        <time>2021-02-07T09:56:17Z</time>
      </trkpt>
      <trkpt lat="43.2782340" lon="-6.6694550">
        <ele>901.0</ele>
        <time>2021-02-07T09:56:22Z</time>
      </trkpt>
      <trkpt lat="43.2781910" lon="-6.6694870">
        <ele>901.0</ele>
        <time>2021-02-07T09:56:28Z</time>
      </trkpt>
      <trkpt lat="43.2781380" lon="-6.6695290">
        <ele>901.0</ele>
        <time>2021-02-07T09:56:34Z</time>
      </trkpt>
      <trkpt lat="43.2780790" lon="-6.6695680">
        <ele>901.0</ele>
        <time>2021-02-07T09:56:40Z</time>
      </trkpt>
      <trkpt lat="43.2780250" lon="-6.6696140">
        <ele>901.0</ele>
        <time>2021-02-07T09:56:45Z</time>
      </trkpt>
      <trkpt lat="43.2779900" lon="-6.6696590">
        <ele>901.0</ele>
        <time>2021-02-07T09:56:49Z</time>
      </trkpt>
      <trkpt lat="43.2779570" lon="-6.6697160">
        <ele>901.0</ele>
        <time>2021-02-07T09:56:54Z</time>
      </trkpt>
      <trkpt lat="43.2779250" lon="-6.6697750">
        <ele>902.0</ele>
        <time>2021-02-07T09:57:00Z</time>
      </trkpt>
      <trkpt lat="43.2779100" lon="-6.6698450">
        <ele>903.0</ele>
        <time>2021-02-07T09:57:06Z</time>
      </trkpt>
      <trkpt lat="43.2779390" lon="-6.6698840">
        <ele>904.0</ele>
        <time>2021-02-07T09:57:12Z</time>
      </trkpt>
      <trkpt lat="43.2779860" lon="-6.6698360">
        <ele>906.0</ele>
        <time>2021-02-07T09:57:22Z</time>
      </trkpt>
      <trkpt lat="43.2780340" lon="-6.6697990">
        <ele>907.0</ele>
        <time>2021-02-07T09:57:30Z</time>
      </trkpt>
      <trkpt lat="43.2780850" lon="-6.6697990">
        <ele>908.0</ele>
        <time>2021-02-07T09:57:37Z</time>
      </trkpt>
      <trkpt lat="43.2781450" lon="-6.6697890">
        <ele>909.0</ele>
        <time>2021-02-07T09:57:45Z</time>
      </trkpt>
      <trkpt lat="43.2781930" lon="-6.6697600">
        <ele>910.0</ele>
        <time>2021-02-07T09:57:51Z</time>
      </trkpt>
      <trkpt lat="43.2782360" lon="-6.6697310">
        <ele>911.0</ele>
        <time>2021-02-07T09:57:56Z</time>
      </trkpt>
      <trkpt lat="43.2782860" lon="-6.6697010">
        <ele>912.0</ele>
        <time>2021-02-07T09:58:03Z</time>
      </trkpt>
      <trkpt lat="43.2783380" lon="-6.6696830">
        <ele>912.0</ele>
        <time>2021-02-07T09:58:11Z</time>
      </trkpt>
      <trkpt lat="43.2783870" lon="-6.6696620">
        <ele>913.0</ele>
        <time>2021-02-07T09:58:18Z</time>
      </trkpt>
      <trkpt lat="43.2784410" lon="-6.6696440">
        <ele>914.0</ele>
        <time>2021-02-07T09:58:25Z</time>
      </trkpt>
      <trkpt lat="43.2784970" lon="-6.6696360">
        <ele>914.0</ele>
        <time>2021-02-07T09:58:32Z</time>
      </trkpt>
      <trkpt lat="43.2785400" lon="-6.6696530">
        <ele>915.0</ele>
        <time>2021-02-07T09:58:40Z</time>
      </trkpt>
      <trkpt lat="43.2785030" lon="-6.6696930">
        <ele>916.0</ele>
        <time>2021-02-07T09:58:56Z</time>
      </trkpt>
      <trkpt lat="43.2784420" lon="-6.6697910">
        <ele>919.0</ele>
        <time>2021-02-07T09:59:12Z</time>
      </trkpt>
      <trkpt lat="43.2784040" lon="-6.6698360">
        <ele>920.0</ele>
        <time>2021-02-07T09:59:21Z</time>
      </trkpt>
      <trkpt lat="43.2783700" lon="-6.6698880">
        <ele>921.0</ele>
        <time>2021-02-07T09:59:30Z</time>
      </trkpt>
      <trkpt lat="43.2783330" lon="-6.6699420">
        <ele>922.0</ele>
        <time>2021-02-07T09:59:37Z</time>
      </trkpt>
      <trkpt lat="43.2783030" lon="-6.6699930">
        <ele>923.0</ele>
        <time>2021-02-07T09:59:45Z</time>
      </trkpt>
      <trkpt lat="43.2782580" lon="-6.6700280">
        <ele>924.0</ele>
        <time>2021-02-07T09:59:54Z</time>
      </trkpt>
      <trkpt lat="43.2782070" lon="-6.6700670">
        <ele>925.0</ele>
        <time>2021-02-07T10:00:03Z</time>
      </trkpt>
      <trkpt lat="43.2781790" lon="-6.6701230">
        <ele>926.0</ele>
        <time>2021-02-07T10:00:10Z</time>
      </trkpt>
      <trkpt lat="43.2781450" lon="-6.6701860">
        <ele>927.0</ele>
        <time>2021-02-07T10:00:18Z</time>
      </trkpt>
      <trkpt lat="43.2780940" lon="-6.6703500">
        <ele>927.0</ele>
        <time>2021-02-07T10:01:04Z</time>
      </trkpt>
      <trkpt lat="43.2780670" lon="-6.6704040">
        <ele>928.0</ele>
        <time>2021-02-07T10:01:08Z</time>
      </trkpt>
      <trkpt lat="43.2780380" lon="-6.6704660">
        <ele>929.0</ele>
        <time>2021-02-07T10:01:13Z</time>
      </trkpt>
      <trkpt lat="43.2780230" lon="-6.6705310">
        <ele>929.0</ele>
        <time>2021-02-07T10:01:18Z</time>
      </trkpt>
      <trkpt lat="43.2780110" lon="-6.6706150">
        <ele>930.0</ele>
        <time>2021-02-07T10:01:24Z</time>
      </trkpt>
      <trkpt lat="43.2779950" lon="-6.6706710">
        <ele>931.0</ele>
        <time>2021-02-07T10:01:29Z</time>
      </trkpt>
      <trkpt lat="43.2779710" lon="-6.6707440">
        <ele>931.0</ele>
        <time>2021-02-07T10:01:36Z</time>
      </trkpt>
      <trkpt lat="43.2779490" lon="-6.6708050">
        <ele>932.0</ele>
        <time>2021-02-07T10:01:42Z</time>
      </trkpt>
      <trkpt lat="43.2779150" lon="-6.6708670">
        <ele>932.0</ele>
        <time>2021-02-07T10:01:49Z</time>
      </trkpt>
      <trkpt lat="43.2778850" lon="-6.6709270">
        <ele>931.0</ele>
        <time>2021-02-07T10:01:56Z</time>
      </trkpt>
      <trkpt lat="43.2778600" lon="-6.6709920">
        <ele>932.0</ele>
        <time>2021-02-07T10:02:02Z</time>
      </trkpt>
      <trkpt lat="43.2778370" lon="-6.6710700">
        <ele>933.0</ele>
        <time>2021-02-07T10:02:08Z</time>
      </trkpt>
      <trkpt lat="43.2778130" lon="-6.6711360">
        <ele>934.0</ele>
        <time>2021-02-07T10:02:13Z</time>
      </trkpt>
      <trkpt lat="43.2777870" lon="-6.6711990">
        <ele>935.0</ele>
        <time>2021-02-07T10:02:18Z</time>
      </trkpt>
      <trkpt lat="43.2777630" lon="-6.6712610">
        <ele>936.0</ele>
        <time>2021-02-07T10:02:23Z</time>
      </trkpt>
      <trkpt lat="43.2777420" lon="-6.6713220">
        <ele>937.0</ele>
        <time>2021-02-07T10:02:28Z</time>
      </trkpt>
      <trkpt lat="43.2777220" lon="-6.6713870">
        <ele>938.0</ele>
        <time>2021-02-07T10:02:39Z</time>
      </trkpt>
      <trkpt lat="43.2776990" lon="-6.6714620">
        <ele>938.0</ele>
        <time>2021-02-07T10:02:47Z</time>
      </trkpt>
      <trkpt lat="43.2776800" lon="-6.6715340">
        <ele>939.0</ele>
        <time>2021-02-07T10:02:53Z</time>
      </trkpt>
      <trkpt lat="43.2776600" lon="-6.6715990">
        <ele>940.0</ele>
        <time>2021-02-07T10:02:58Z</time>
      </trkpt>
      <trkpt lat="43.2776380" lon="-6.6716710">
        <ele>940.0</ele>
        <time>2021-02-07T10:03:04Z</time>
      </trkpt>
      <trkpt lat="43.2776290" lon="-6.6717290">
        <ele>942.0</ele>
        <time>2021-02-07T10:03:11Z</time>
      </trkpt>
      <trkpt lat="43.2775950" lon="-6.6718020">
        <ele>942.0</ele>
        <time>2021-02-07T10:03:19Z</time>
      </trkpt>
      <trkpt lat="43.2775690" lon="-6.6718630">
        <ele>942.0</ele>
        <time>2021-02-07T10:03:25Z</time>
      </trkpt>
      <trkpt lat="43.2775460" lon="-6.6719320">
        <ele>943.0</ele>
        <time>2021-02-07T10:03:31Z</time>
      </trkpt>
      <trkpt lat="43.2775100" lon="-6.6719900">
        <ele>944.0</ele>
        <time>2021-02-07T10:03:37Z</time>
      </trkpt>
      <trkpt lat="43.2774790" lon="-6.6720470">
        <ele>944.0</ele>
        <time>2021-02-07T10:03:42Z</time>
      </trkpt>
      <trkpt lat="43.2774460" lon="-6.6721080">
        <ele>945.0</ele>
        <time>2021-02-07T10:03:48Z</time>
      </trkpt>
      <trkpt lat="43.2774150" lon="-6.6721600">
        <ele>946.0</ele>
        <time>2021-02-07T10:03:54Z</time>
      </trkpt>
      <trkpt lat="43.2773800" lon="-6.6722160">
        <ele>947.0</ele>
        <time>2021-02-07T10:04:01Z</time>
      </trkpt>
      <trkpt lat="43.2773510" lon="-6.6722840">
        <ele>947.0</ele>
        <time>2021-02-07T10:04:08Z</time>
      </trkpt>
      <trkpt lat="43.2773210" lon="-6.6723340">
        <ele>948.0</ele>
        <time>2021-02-07T10:04:14Z</time>
      </trkpt>
      <trkpt lat="43.2772870" lon="-6.6724000">
        <ele>949.0</ele>
        <time>2021-02-07T10:04:21Z</time>
      </trkpt>
      <trkpt lat="43.2772670" lon="-6.6724670">
        <ele>949.0</ele>
        <time>2021-02-07T10:04:29Z</time>
      </trkpt>
      <trkpt lat="43.2772410" lon="-6.6725320">
        <ele>950.0</ele>
        <time>2021-02-07T10:04:37Z</time>
      </trkpt>
      <trkpt lat="43.2772210" lon="-6.6725970">
        <ele>951.0</ele>
        <time>2021-02-07T10:04:44Z</time>
      </trkpt>
      <trkpt lat="43.2771940" lon="-6.6726620">
        <ele>952.0</ele>
        <time>2021-02-07T10:04:51Z</time>
      </trkpt>
      <trkpt lat="43.2771670" lon="-6.6727200">
        <ele>953.0</ele>
        <time>2021-02-07T10:04:58Z</time>
      </trkpt>
      <trkpt lat="43.2771390" lon="-6.6728060">
        <ele>953.0</ele>
        <time>2021-02-07T10:05:08Z</time>
      </trkpt>
      <trkpt lat="43.2771180" lon="-6.6728680">
        <ele>954.0</ele>
        <time>2021-02-07T10:05:14Z</time>
      </trkpt>
      <trkpt lat="43.2770950" lon="-6.6729370">
        <ele>955.0</ele>
        <time>2021-02-07T10:05:20Z</time>
      </trkpt>
      <trkpt lat="43.2770830" lon="-6.6730040">
        <ele>956.0</ele>
        <time>2021-02-07T10:05:26Z</time>
      </trkpt>
      <trkpt lat="43.2770570" lon="-6.6730790">
        <ele>957.0</ele>
        <time>2021-02-07T10:05:33Z</time>
      </trkpt>
      <trkpt lat="43.2770420" lon="-6.6731500">
        <ele>958.0</ele>
        <time>2021-02-07T10:05:40Z</time>
      </trkpt>
      <trkpt lat="43.2770170" lon="-6.6732090">
        <ele>959.0</ele>
        <time>2021-02-07T10:05:47Z</time>
      </trkpt>
      <trkpt lat="43.2769850" lon="-6.6732780">
        <ele>960.0</ele>
        <time>2021-02-07T10:05:54Z</time>
      </trkpt>
      <trkpt lat="43.2769630" lon="-6.6733360">
        <ele>960.0</ele>
        <time>2021-02-07T10:06:00Z</time>
      </trkpt>
      <trkpt lat="43.2769380" lon="-6.6733980">
        <ele>961.0</ele>
        <time>2021-02-07T10:06:07Z</time>
      </trkpt>
      <trkpt lat="43.2768920" lon="-6.6734550">
        <ele>962.0</ele>
        <time>2021-02-07T10:06:14Z</time>
      </trkpt>
      <trkpt lat="43.2768340" lon="-6.6734770">
        <ele>963.0</ele>
        <time>2021-02-07T10:06:21Z</time>
      </trkpt>
      <trkpt lat="43.2767810" lon="-6.6734640">
        <ele>963.0</ele>
        <time>2021-02-07T10:06:27Z</time>
      </trkpt>
      <trkpt lat="43.2767390" lon="-6.6734180">
        <ele>964.0</ele>
        <time>2021-02-07T10:06:33Z</time>
      </trkpt>
      <trkpt lat="43.2767120" lon="-6.6733600">
        <ele>964.0</ele>
        <time>2021-02-07T10:06:39Z</time>
      </trkpt>
      <trkpt lat="43.2766910" lon="-6.6732900">
        <ele>965.0</ele>
        <time>2021-02-07T10:06:45Z</time>
      </trkpt>
      <trkpt lat="43.2766540" lon="-6.6732500">
        <ele>965.0</ele>
        <time>2021-02-07T10:06:56Z</time>
      </trkpt>
      <trkpt lat="43.2765770" lon="-6.6732620">
        <ele>967.0</ele>
        <time>2021-02-07T10:07:31Z</time>
      </trkpt>
      <trkpt lat="43.2765110" lon="-6.6733000">
        <ele>967.0</ele>
        <time>2021-02-07T10:07:37Z</time>
      </trkpt>
      <trkpt lat="43.2764570" lon="-6.6733260">
        <ele>968.0</ele>
        <time>2021-02-07T10:07:43Z</time>
      </trkpt>
      <trkpt lat="43.2764080" lon="-6.6733490">
        <ele>968.0</ele>
        <time>2021-02-07T10:07:49Z</time>
      </trkpt>
      <trkpt lat="43.2763630" lon="-6.6733840">
        <ele>969.0</ele>
        <time>2021-02-07T10:07:56Z</time>
      </trkpt>
      <trkpt lat="43.2763230" lon="-6.6734200">
        <ele>970.0</ele>
        <time>2021-02-07T10:08:05Z</time>
      </trkpt>
      <trkpt lat="43.2762850" lon="-6.6734710">
        <ele>971.0</ele>
        <time>2021-02-07T10:08:17Z</time>
      </trkpt>
      <trkpt lat="43.2762510" lon="-6.6735210">
        <ele>972.0</ele>
        <time>2021-02-07T10:08:33Z</time>
      </trkpt>
      <trkpt lat="43.2762150" lon="-6.6735840">
        <ele>973.0</ele>
        <time>2021-02-07T10:08:43Z</time>
      </trkpt>
      <trkpt lat="43.2761830" lon="-6.6736450">
        <ele>974.0</ele>
        <time>2021-02-07T10:08:55Z</time>
      </trkpt>
      <trkpt lat="43.2761390" lon="-6.6736980">
        <ele>975.0</ele>
        <time>2021-02-07T10:09:02Z</time>
      </trkpt>
      <trkpt lat="43.2760960" lon="-6.6737400">
        <ele>975.0</ele>
        <time>2021-02-07T10:09:08Z</time>
      </trkpt>
      <trkpt lat="43.2760650" lon="-6.6737960">
        <ele>977.0</ele>
        <time>2021-02-07T10:09:15Z</time>
      </trkpt>
      <trkpt lat="43.2760300" lon="-6.6738400">
        <ele>977.0</ele>
        <time>2021-02-07T10:09:22Z</time>
      </trkpt>
      <trkpt lat="43.2759860" lon="-6.6738800">
        <ele>978.0</ele>
        <time>2021-02-07T10:09:30Z</time>
      </trkpt>
      <trkpt lat="43.2759340" lon="-6.6739590">
        <ele>980.0</ele>
        <time>2021-02-07T10:09:48Z</time>
      </trkpt>
      <trkpt lat="43.2759050" lon="-6.6740110">
        <ele>980.0</ele>
        <time>2021-02-07T10:09:54Z</time>
      </trkpt>
      <trkpt lat="43.2758730" lon="-6.6740640">
        <ele>981.0</ele>
        <time>2021-02-07T10:10:02Z</time>
      </trkpt>
      <trkpt lat="43.2758250" lon="-6.6740970">
        <ele>981.0</ele>
        <time>2021-02-07T10:10:09Z</time>
      </trkpt>
      <trkpt lat="43.2757810" lon="-6.6741290">
        <ele>982.0</ele>
        <time>2021-02-07T10:10:16Z</time>
      </trkpt>
      <trkpt lat="43.2757370" lon="-6.6741750">
        <ele>983.0</ele>
        <time>2021-02-07T10:10:25Z</time>
      </trkpt>
      <trkpt lat="43.2756960" lon="-6.6742240">
        <ele>984.0</ele>
        <time>2021-02-07T10:10:33Z</time>
      </trkpt>
      <trkpt lat="43.2756560" lon="-6.6742760">
        <ele>984.0</ele>
        <time>2021-02-07T10:10:40Z</time>
      </trkpt>
      <trkpt lat="43.2756130" lon="-6.6743220">
        <ele>985.0</ele>
        <time>2021-02-07T10:10:47Z</time>
      </trkpt>
      <trkpt lat="43.2755640" lon="-6.6743610">
        <ele>986.0</ele>
        <time>2021-02-07T10:10:53Z</time>
      </trkpt>
      <trkpt lat="43.2755130" lon="-6.6743800">
        <ele>987.0</ele>
        <time>2021-02-07T10:10:59Z</time>
      </trkpt>
      <trkpt lat="43.2754720" lon="-6.6744300">
        <ele>987.0</ele>
        <time>2021-02-07T10:11:06Z</time>
      </trkpt>
      <trkpt lat="43.2754390" lon="-6.6744840">
        <ele>988.0</ele>
        <time>2021-02-07T10:11:12Z</time>
      </trkpt>
      <trkpt lat="43.2754090" lon="-6.6745470">
        <ele>989.0</ele>
        <time>2021-02-07T10:11:20Z</time>
      </trkpt>
      <trkpt lat="43.2753720" lon="-6.6745940">
        <ele>990.0</ele>
        <time>2021-02-07T10:11:28Z</time>
      </trkpt>
      <trkpt lat="43.2753250" lon="-6.6746340">
        <ele>990.0</ele>
        <time>2021-02-07T10:11:36Z</time>
      </trkpt>
      <trkpt lat="43.2752860" lon="-6.6746880">
        <ele>991.0</ele>
        <time>2021-02-07T10:11:43Z</time>
      </trkpt>
      <trkpt lat="43.2752440" lon="-6.6747390">
        <ele>992.0</ele>
        <time>2021-02-07T10:11:51Z</time>
      </trkpt>
      <trkpt lat="43.2752060" lon="-6.6747770">
        <ele>993.0</ele>
        <time>2021-02-07T10:11:57Z</time>
      </trkpt>
      <trkpt lat="43.2751510" lon="-6.6748110">
        <ele>994.0</ele>
        <time>2021-02-07T10:12:05Z</time>
      </trkpt>
      <trkpt lat="43.2751110" lon="-6.6748450">
        <ele>994.0</ele>
        <time>2021-02-07T10:12:12Z</time>
      </trkpt>
      <trkpt lat="43.2750600" lon="-6.6748810">
        <ele>995.0</ele>
        <time>2021-02-07T10:12:20Z</time>
      </trkpt>
      <trkpt lat="43.2750100" lon="-6.6749080">
        <ele>996.0</ele>
        <time>2021-02-07T10:12:27Z</time>
      </trkpt>
      <trkpt lat="43.2749670" lon="-6.6749430">
        <ele>997.0</ele>
        <time>2021-02-07T10:12:35Z</time>
      </trkpt>
      <trkpt lat="43.2749270" lon="-6.6749940">
        <ele>997.0</ele>
        <time>2021-02-07T10:12:43Z</time>
      </trkpt>
      <trkpt lat="43.2748800" lon="-6.6750270">
        <ele>998.0</ele>
        <time>2021-02-07T10:12:52Z</time>
      </trkpt>
      <trkpt lat="43.2748290" lon="-6.6750580">
        <ele>999.0</ele>
        <time>2021-02-07T10:13:00Z</time>
      </trkpt>
      <trkpt lat="43.2747820" lon="-6.6751020">
        <ele>1000.0</ele>
        <time>2021-02-07T10:13:08Z</time>
      </trkpt>
      <trkpt lat="43.2747370" lon="-6.6751400">
        <ele>1001.0</ele>
        <time>2021-02-07T10:13:17Z</time>
      </trkpt>
      <trkpt lat="43.2746900" lon="-6.6751680">
        <ele>1002.0</ele>
        <time>2021-02-07T10:13:25Z</time>
      </trkpt>
      <trkpt lat="43.2746400" lon="-6.6752000">
        <ele>1003.0</ele>
        <time>2021-02-07T10:13:33Z</time>
      </trkpt>
      <trkpt lat="43.2745780" lon="-6.6752180">
        <ele>1004.0</ele>
        <time>2021-02-07T10:13:43Z</time>
      </trkpt>
      <trkpt lat="43.2745270" lon="-6.6752520">
        <ele>1004.0</ele>
        <time>2021-02-07T10:13:51Z</time>
      </trkpt>
      <trkpt lat="43.2744890" lon="-6.6752970">
        <ele>1005.0</ele>
        <time>2021-02-07T10:13:58Z</time>
      </trkpt>
      <trkpt lat="43.2744380" lon="-6.6753190">
        <ele>1007.0</ele>
        <time>2021-02-07T10:14:06Z</time>
      </trkpt>
      <trkpt lat="43.2743930" lon="-6.6753500">
        <ele>1008.0</ele>
        <time>2021-02-07T10:14:15Z</time>
      </trkpt>
      <trkpt lat="43.2742630" lon="-6.6754300">
        <ele>1010.0</ele>
        <time>2021-02-07T10:15:09Z</time>
      </trkpt>
      <trkpt lat="43.2742140" lon="-6.6754430">
        <ele>1010.0</ele>
        <time>2021-02-07T10:15:14Z</time>
      </trkpt>
      <trkpt lat="43.2741620" lon="-6.6754580">
        <ele>1011.0</ele>
        <time>2021-02-07T10:15:21Z</time>
      </trkpt>
      <trkpt lat="43.2741140" lon="-6.6754830">
        <ele>1012.0</ele>
        <time>2021-02-07T10:15:28Z</time>
      </trkpt>
      <trkpt lat="43.2740580" lon="-6.6755090">
        <ele>1013.0</ele>
        <time>2021-02-07T10:15:36Z</time>
      </trkpt>
      <trkpt lat="43.2740080" lon="-6.6755260">
        <ele>1014.0</ele>
        <time>2021-02-07T10:15:43Z</time>
      </trkpt>
      <trkpt lat="43.2739560" lon="-6.6755430">
        <ele>1015.0</ele>
        <time>2021-02-07T10:15:51Z</time>
      </trkpt>
      <trkpt lat="43.2739060" lon="-6.6755700">
        <ele>1017.0</ele>
        <time>2021-02-07T10:16:00Z</time>
      </trkpt>
      <trkpt lat="43.2738510" lon="-6.6755760">
        <ele>1018.0</ele>
        <time>2021-02-07T10:16:08Z</time>
      </trkpt>
      <trkpt lat="43.2738040" lon="-6.6755820">
        <ele>1019.0</ele>
        <time>2021-02-07T10:16:15Z</time>
      </trkpt>
      <trkpt lat="43.2737220" lon="-6.6756040">
        <ele>1020.0</ele>
        <time>2021-02-07T10:16:50Z</time>
      </trkpt>
      <trkpt lat="43.2736640" lon="-6.6755990">
        <ele>1021.0</ele>
        <time>2021-02-07T10:16:56Z</time>
      </trkpt>
      <trkpt lat="43.2736200" lon="-6.6756060">
        <ele>1022.0</ele>
        <time>2021-02-07T10:17:11Z</time>
      </trkpt>
      <trkpt lat="43.2735620" lon="-6.6756200">
        <ele>1023.0</ele>
        <time>2021-02-07T10:17:22Z</time>
      </trkpt>
      <trkpt lat="43.2735030" lon="-6.6756440">
        <ele>1024.0</ele>
        <time>2021-02-07T10:17:29Z</time>
      </trkpt>
      <trkpt lat="43.2734510" lon="-6.6756620">
        <ele>1025.0</ele>
        <time>2021-02-07T10:17:35Z</time>
      </trkpt>
      <trkpt lat="43.2734050" lon="-6.6756740">
        <ele>1026.0</ele>
        <time>2021-02-07T10:17:41Z</time>
      </trkpt>
      <trkpt lat="43.2733520" lon="-6.6756990">
        <ele>1027.0</ele>
        <time>2021-02-07T10:17:48Z</time>
      </trkpt>
      <trkpt lat="43.2733190" lon="-6.6757410">
        <ele>1027.0</ele>
        <time>2021-02-07T10:17:56Z</time>
      </trkpt>
      <trkpt lat="43.2732710" lon="-6.6757920">
        <ele>1029.0</ele>
        <time>2021-02-07T10:18:06Z</time>
      </trkpt>
      <trkpt lat="43.2732350" lon="-6.6758300">
        <ele>1030.0</ele>
        <time>2021-02-07T10:18:15Z</time>
      </trkpt>
      <trkpt lat="43.2730920" lon="-6.6758630">
        <ele>1032.0</ele>
        <time>2021-02-07T10:19:00Z</time>
      </trkpt>
      <trkpt lat="43.2730460" lon="-6.6758680">
        <ele>1032.0</ele>
        <time>2021-02-07T10:19:04Z</time>
      </trkpt>
      <trkpt lat="43.2729960" lon="-6.6758650">
        <ele>1033.0</ele>
        <time>2021-02-07T10:19:09Z</time>
      </trkpt>
      <trkpt lat="43.2729420" lon="-6.6758900">
        <ele>1034.0</ele>
        <time>2021-02-07T10:19:15Z</time>
      </trkpt>
      <trkpt lat="43.2728960" lon="-6.6759200">
        <ele>1034.0</ele>
        <time>2021-02-07T10:19:21Z</time>
      </trkpt>
      <trkpt lat="43.2728460" lon="-6.6759440">
        <ele>1035.0</ele>
        <time>2021-02-07T10:19:28Z</time>
      </trkpt>
      <trkpt lat="43.2727950" lon="-6.6759740">
        <ele>1037.0</ele>
        <time>2021-02-07T10:19:36Z</time>
      </trkpt>
      <trkpt lat="43.2727480" lon="-6.6760020">
        <ele>1038.0</ele>
        <time>2021-02-07T10:19:46Z</time>
      </trkpt>
      <trkpt lat="43.2726980" lon="-6.6760300">
        <ele>1038.0</ele>
        <time>2021-02-07T10:19:56Z</time>
      </trkpt>
      <trkpt lat="43.2726450" lon="-6.6760450">
        <ele>1039.0</ele>
        <time>2021-02-07T10:20:04Z</time>
      </trkpt>
      <trkpt lat="43.2726100" lon="-6.6760830">
        <ele>1041.0</ele>
        <time>2021-02-07T10:20:13Z</time>
      </trkpt>
      <trkpt lat="43.2725690" lon="-6.6760910">
        <ele>1042.0</ele>
        <time>2021-02-07T10:20:25Z</time>
      </trkpt>
      <trkpt lat="43.2725380" lon="-6.6761380">
        <ele>1043.0</ele>
        <time>2021-02-07T10:20:33Z</time>
      </trkpt>
      <trkpt lat="43.2725500" lon="-6.6762100">
        <ele>1044.0</ele>
        <time>2021-02-07T10:20:44Z</time>
      </trkpt>
      <trkpt lat="43.2725600" lon="-6.6762850">
        <ele>1045.0</ele>
        <time>2021-02-07T10:20:56Z</time>
      </trkpt>
      <trkpt lat="43.2725860" lon="-6.6763470">
        <ele>1047.0</ele>
        <time>2021-02-07T10:21:06Z</time>
      </trkpt>
      <trkpt lat="43.2726270" lon="-6.6763840">
        <ele>1047.0</ele>
        <time>2021-02-07T10:21:15Z</time>
      </trkpt>
      <trkpt lat="43.2726800" lon="-6.6764140">
        <ele>1048.0</ele>
        <time>2021-02-07T10:21:24Z</time>
      </trkpt>
      <trkpt lat="43.2727300" lon="-6.6764200">
        <ele>1048.0</ele>
        <time>2021-02-07T10:21:32Z</time>
      </trkpt>
      <trkpt lat="43.2727850" lon="-6.6764280">
        <ele>1050.0</ele>
        <time>2021-02-07T10:21:40Z</time>
      </trkpt>
      <trkpt lat="43.2728370" lon="-6.6764290">
        <ele>1051.0</ele>
        <time>2021-02-07T10:21:47Z</time>
      </trkpt>
      <trkpt lat="43.2728890" lon="-6.6764290">
        <ele>1052.0</ele>
        <time>2021-02-07T10:22:21Z</time>
      </trkpt>
      <trkpt lat="43.2729480" lon="-6.6764470">
        <ele>1053.0</ele>
        <time>2021-02-07T10:22:26Z</time>
      </trkpt>
      <trkpt lat="43.2730010" lon="-6.6764690">
        <ele>1054.0</ele>
        <time>2021-02-07T10:22:30Z</time>
      </trkpt>
      <trkpt lat="43.2730440" lon="-6.6764900">
        <ele>1055.0</ele>
        <time>2021-02-07T10:22:35Z</time>
      </trkpt>
      <trkpt lat="43.2730930" lon="-6.6765060">
        <ele>1056.0</ele>
        <time>2021-02-07T10:22:42Z</time>
      </trkpt>
      <trkpt lat="43.2731370" lon="-6.6765350">
        <ele>1057.0</ele>
        <time>2021-02-07T10:22:51Z</time>
      </trkpt>
      <trkpt lat="43.2731140" lon="-6.6765980">
        <ele>1057.0</ele>
        <time>2021-02-07T10:23:01Z</time>
      </trkpt>
      <trkpt lat="43.2730720" lon="-6.6766320">
        <ele>1059.0</ele>
        <time>2021-02-07T10:23:08Z</time>
      </trkpt>
      <trkpt lat="43.2730170" lon="-6.6766540">
        <ele>1059.0</ele>
        <time>2021-02-07T10:23:19Z</time>
      </trkpt>
      <trkpt lat="43.2729760" lon="-6.6766900">
        <ele>1060.0</ele>
        <time>2021-02-07T10:23:26Z</time>
      </trkpt>
      <trkpt lat="43.2729250" lon="-6.6767090">
        <ele>1062.0</ele>
        <time>2021-02-07T10:23:40Z</time>
      </trkpt>
      <trkpt lat="43.2728970" lon="-6.6767790">
        <ele>1063.0</ele>
        <time>2021-02-07T10:23:51Z</time>
      </trkpt>
      <trkpt lat="43.2728120" lon="-6.6769120">
        <ele>1063.0</ele>
        <time>2021-02-07T10:24:16Z</time>
      </trkpt>
      <trkpt lat="43.2727840" lon="-6.6769790">
        <ele>1063.0</ele>
        <time>2021-02-07T10:24:23Z</time>
      </trkpt>
      <trkpt lat="43.2727670" lon="-6.6770550">
        <ele>1064.0</ele>
        <time>2021-02-07T10:24:30Z</time>
      </trkpt>
      <trkpt lat="43.2727610" lon="-6.6771250">
        <ele>1065.0</ele>
        <time>2021-02-07T10:24:37Z</time>
      </trkpt>
      <trkpt lat="43.2727450" lon="-6.6771970">
        <ele>1066.0</ele>
        <time>2021-02-07T10:24:44Z</time>
      </trkpt>
      <trkpt lat="43.2727350" lon="-6.6772580">
        <ele>1066.0</ele>
        <time>2021-02-07T10:24:52Z</time>
      </trkpt>
      <trkpt lat="43.2727770" lon="-6.6773220">
        <ele>1066.0</ele>
        <time>2021-02-07T10:25:01Z</time>
      </trkpt>
      <trkpt lat="43.2728190" lon="-6.6773470">
        <ele>1070.0</ele>
        <time>2021-02-07T10:25:07Z</time>
      </trkpt>
      <trkpt lat="43.2728200" lon="-6.6773140">
        <ele>1072.0</ele>
        <time>2021-02-07T10:27:04Z</time>
      </trkpt>
      <trkpt lat="43.2728200" lon="-6.6773140">
        <ele>1072.0</ele>
        <time>2021-02-07T10:27:05Z</time>
      </trkpt>
      <trkpt lat="43.2728200" lon="-6.6773140">
        <ele>1072.0</ele>
        <time>2021-02-07T10:27:06Z</time>
      </trkpt>
      <trkpt lat="43.2728200" lon="-6.6773140">
        <ele>1072.0</ele>
        <time>2021-02-07T10:27:07Z</time>
      </trkpt>
      <trkpt lat="43.2728210" lon="-6.6773140">
        <ele>1072.0</ele>
        <time>2021-02-07T10:27:10Z</time>
      </trkpt>
      <trkpt lat="43.2728210" lon="-6.6773140">
        <ele>1072.0</ele>
        <time>2021-02-07T10:27:11Z</time>
      </trkpt>
      <trkpt lat="43.2728210" lon="-6.6773140">
        <ele>1072.0</ele>
        <time>2021-02-07T10:27:12Z</time>
      </trkpt>
      <trkpt lat="43.2728210" lon="-6.6773140">
        <ele>1072.0</ele>
        <time>2021-02-07T10:27:13Z</time>
      </trkpt>
      <trkpt lat="43.2728210" lon="-6.6773140">
        <ele>1072.0</ele>
        <time>2021-02-07T10:27:14Z</time>
      </trkpt>
      <trkpt lat="43.2728210" lon="-6.6773140">
        <ele>1072.0</ele>
        <time>2021-02-07T10:27:15Z</time>
      </trkpt>
      <trkpt lat="43.2728210" lon="-6.6773140">
        <ele>1072.0</ele>
        <time>2021-02-07T10:27:16Z</time>
      </trkpt>
      <trkpt lat="43.2728210" lon="-6.6773140">
        <ele>1072.0</ele>
        <time>2021-02-07T10:27:17Z</time>
      </trkpt>
      <trkpt lat="43.2728230" lon="-6.6773140">
        <ele>1072.0</ele>
        <time>2021-02-07T10:27:18Z</time>
      </trkpt>
      <trkpt lat="43.2728230" lon="-6.6773140">
        <ele>1072.0</ele>
        <time>2021-02-07T10:27:19Z</time>
      </trkpt>
      <trkpt lat="43.2728250" lon="-6.6773140">
        <ele>1072.0</ele>
        <time>2021-02-07T10:27:20Z</time>
      </trkpt>
      <trkpt lat="43.2728260" lon="-6.6773140">
        <ele>1072.0</ele>
        <time>2021-02-07T10:27:21Z</time>
      </trkpt>
      <trkpt lat="43.2728280" lon="-6.6773140">
        <ele>1072.0</ele>
        <time>2021-02-07T10:27:22Z</time>
      </trkpt>
      <trkpt lat="43.2728300" lon="-6.6773140">
        <ele>1072.0</ele>
        <time>2021-02-07T10:27:23Z</time>
      </trkpt>
      <trkpt lat="43.2728310" lon="-6.6773140">
        <ele>1072.0</ele>
        <time>2021-02-07T10:27:24Z</time>
      </trkpt>
      <trkpt lat="43.2728310" lon="-6.6773140">
        <ele>1072.0</ele>
        <time>2021-02-07T10:27:25Z</time>
      </trkpt>
      <trkpt lat="43.2728330" lon="-6.6773140">
        <ele>1072.0</ele>
        <time>2021-02-07T10:27:26Z</time>
      </trkpt>
      <trkpt lat="43.2728340" lon="-6.6773140">
        <ele>1072.0</ele>
        <time>2021-02-07T10:27:27Z</time>
      </trkpt>
      <trkpt lat="43.2728340" lon="-6.6773160">
        <ele>1072.0</ele>
        <time>2021-02-07T10:27:28Z</time>
      </trkpt>
      <trkpt lat="43.2728340" lon="-6.6773160">
        <ele>1072.0</ele>
        <time>2021-02-07T10:27:29Z</time>
      </trkpt>
      <trkpt lat="43.2728340" lon="-6.6773160">
        <ele>1072.0</ele>
        <time>2021-02-07T10:27:30Z</time>
      </trkpt>
      <trkpt lat="43.2728360" lon="-6.6773160">
        <ele>1072.0</ele>
        <time>2021-02-07T10:27:31Z</time>
      </trkpt>
      <trkpt lat="43.2728360" lon="-6.6773160">
        <ele>1072.0</ele>
        <time>2021-02-07T10:27:32Z</time>
      </trkpt>
      <trkpt lat="43.2728360" lon="-6.6773160">
        <ele>1072.0</ele>
        <time>2021-02-07T10:27:33Z</time>
      </trkpt>
      <trkpt lat="43.2728360" lon="-6.6773160">
        <ele>1072.0</ele>
        <time>2021-02-07T10:27:34Z</time>
      </trkpt>
      <trkpt lat="43.2728360" lon="-6.6773160">
        <ele>1072.0</ele>
        <time>2021-02-07T10:27:35Z</time>
      </trkpt>
      <trkpt lat="43.2728360" lon="-6.6773160">
        <ele>1072.0</ele>
        <time>2021-02-07T10:27:36Z</time>
      </trkpt>
      <trkpt lat="43.2728360" lon="-6.6773160">
        <ele>1072.0</ele>
        <time>2021-02-07T10:27:37Z</time>
      </trkpt>
      <trkpt lat="43.2728360" lon="-6.6773160">
        <ele>1072.0</ele>
        <time>2021-02-07T10:27:38Z</time>
      </trkpt>
      <trkpt lat="43.2728360" lon="-6.6773230">
        <ele>1072.0</ele>
        <time>2021-02-07T10:27:39Z</time>
      </trkpt>
      <trkpt lat="43.2728250" lon="-6.6774060">
        <ele>1072.0</ele>
        <time>2021-02-07T10:27:45Z</time>
      </trkpt>
      <trkpt lat="43.2728160" lon="-6.6775010">
        <ele>1072.0</ele>
        <time>2021-02-07T10:27:50Z</time>
      </trkpt>
      <trkpt lat="43.2728130" lon="-6.6775770">
        <ele>1071.0</ele>
        <time>2021-02-07T10:27:54Z</time>
      </trkpt>
      <trkpt lat="43.2728150" lon="-6.6776580">
        <ele>1071.0</ele>
        <time>2021-02-07T10:27:59Z</time>
      </trkpt>
      <trkpt lat="43.2728210" lon="-6.6777300">
        <ele>1071.0</ele>
        <time>2021-02-07T10:28:04Z</time>
      </trkpt>
      <trkpt lat="43.2728060" lon="-6.6778020">
        <ele>1071.0</ele>
        <time>2021-02-07T10:28:08Z</time>
      </trkpt>
      <trkpt lat="43.2727940" lon="-6.6778690">
        <ele>1071.0</ele>
        <time>2021-02-07T10:28:12Z</time>
      </trkpt>
      <trkpt lat="43.2727950" lon="-6.6779480">
        <ele>1071.0</ele>
        <time>2021-02-07T10:28:16Z</time>
      </trkpt>
      <trkpt lat="43.2727960" lon="-6.6780300">
        <ele>1072.0</ele>
        <time>2021-02-07T10:28:20Z</time>
      </trkpt>
      <trkpt lat="43.2728060" lon="-6.6780950">
        <ele>1072.0</ele>
        <time>2021-02-07T10:28:24Z</time>
      </trkpt>
      <trkpt lat="43.2728350" lon="-6.6781120">
        <ele>1136.0</ele>
        <time>2021-02-07T10:30:28Z</time>
      </trkpt>
      <trkpt lat="43.2728350" lon="-6.6781120">
        <ele>1136.0</ele>
        <time>2021-02-07T10:30:28Z</time>
      </trkpt>
      <trkpt lat="43.2728350" lon="-6.6781120">
        <ele>1136.0</ele>
        <time>2021-02-07T10:30:29Z</time>
      </trkpt>
      <trkpt lat="43.2728350" lon="-6.6781110">
        <ele>1136.0</ele>
        <time>2021-02-07T10:30:30Z</time>
      </trkpt>
      <trkpt lat="43.2728350" lon="-6.6781110">
        <ele>1136.0</ele>
        <time>2021-02-07T10:30:31Z</time>
      </trkpt>
      <trkpt lat="43.2728350" lon="-6.6781100">
        <ele>1136.0</ele>
        <time>2021-02-07T10:30:32Z</time>
      </trkpt>
      <trkpt lat="43.2728350" lon="-6.6781100">
        <ele>1136.0</ele>
        <time>2021-02-07T10:30:33Z</time>
      </trkpt>
      <trkpt lat="43.2728350" lon="-6.6781100">
        <ele>1136.0</ele>
        <time>2021-02-07T10:30:34Z</time>
      </trkpt>
      <trkpt lat="43.2728360" lon="-6.6781100">
        <ele>1136.0</ele>
        <time>2021-02-07T10:30:35Z</time>
      </trkpt>
      <trkpt lat="43.2728360" lon="-6.6781100">
        <ele>1136.0</ele>
        <time>2021-02-07T10:30:36Z</time>
      </trkpt>
      <trkpt lat="43.2728360" lon="-6.6781100">
        <ele>1136.0</ele>
        <time>2021-02-07T10:30:37Z</time>
      </trkpt>
      <trkpt lat="43.2728360" lon="-6.6781100">
        <ele>1136.0</ele>
        <time>2021-02-07T10:30:38Z</time>
      </trkpt>
      <trkpt lat="43.2728360" lon="-6.6781100">
        <ele>1136.0</ele>
        <time>2021-02-07T10:30:39Z</time>
      </trkpt>
      <trkpt lat="43.2728390" lon="-6.6781110">
        <ele>1136.0</ele>
        <time>2021-02-07T10:31:05Z</time>
      </trkpt>
      <trkpt lat="43.2728360" lon="-6.6781100">
        <ele>1136.0</ele>
        <time>2021-02-07T10:31:06Z</time>
      </trkpt>
      <trkpt lat="43.2728310" lon="-6.6781100">
        <ele>1136.0</ele>
        <time>2021-02-07T10:31:07Z</time>
      </trkpt>
      <trkpt lat="43.2728260" lon="-6.6781090">
        <ele>1136.0</ele>
        <time>2021-02-07T10:31:08Z</time>
      </trkpt>
      <trkpt lat="43.2728210" lon="-6.6781070">
        <ele>1136.0</ele>
        <time>2021-02-07T10:31:09Z</time>
      </trkpt>
      <trkpt lat="43.2728160" lon="-6.6781060">
        <ele>1136.0</ele>
        <time>2021-02-07T10:31:10Z</time>
      </trkpt>
      <trkpt lat="43.2728120" lon="-6.6781040">
        <ele>1136.0</ele>
        <time>2021-02-07T10:31:11Z</time>
      </trkpt>
      <trkpt lat="43.2728080" lon="-6.6781020">
        <ele>1136.0</ele>
        <time>2021-02-07T10:31:12Z</time>
      </trkpt>
      <trkpt lat="43.2728030" lon="-6.6781030">
        <ele>1136.0</ele>
        <time>2021-02-07T10:31:13Z</time>
      </trkpt>
      <trkpt lat="43.2727960" lon="-6.6781070">
        <ele>1136.0</ele>
        <time>2021-02-07T10:31:14Z</time>
      </trkpt>
      <trkpt lat="43.2727910" lon="-6.6781130">
        <ele>1136.0</ele>
        <time>2021-02-07T10:31:15Z</time>
      </trkpt>
      <trkpt lat="43.2727860" lon="-6.6781240">
        <ele>1135.0</ele>
        <time>2021-02-07T10:31:16Z</time>
      </trkpt>
      <trkpt lat="43.2727810" lon="-6.6781360">
        <ele>1135.0</ele>
        <time>2021-02-07T10:31:17Z</time>
      </trkpt>
      <trkpt lat="43.2727760" lon="-6.6781500">
        <ele>1135.0</ele>
        <time>2021-02-07T10:31:18Z</time>
      </trkpt>
      <trkpt lat="43.2727710" lon="-6.6781650">
        <ele>1134.0</ele>
        <time>2021-02-07T10:31:19Z</time>
      </trkpt>
      <trkpt lat="43.2727670" lon="-6.6781800">
        <ele>1134.0</ele>
        <time>2021-02-07T10:31:20Z</time>
      </trkpt>
      <trkpt lat="43.2727510" lon="-6.6782420">
        <ele>1133.0</ele>
        <time>2021-02-07T10:31:24Z</time>
      </trkpt>
      <trkpt lat="43.2727380" lon="-6.6783150">
        <ele>1133.0</ele>
        <time>2021-02-07T10:31:29Z</time>
      </trkpt>
      <trkpt lat="43.2727590" lon="-6.6783750">
        <ele>1133.0</ele>
        <time>2021-02-07T10:31:34Z</time>
      </trkpt>
      <trkpt lat="43.2727980" lon="-6.6784240">
        <ele>1133.0</ele>
        <time>2021-02-07T10:31:41Z</time>
      </trkpt>
      <trkpt lat="43.2728530" lon="-6.6784500">
        <ele>1134.0</ele>
        <time>2021-02-07T10:31:48Z</time>
      </trkpt>
      <trkpt lat="43.2729110" lon="-6.6784640">
        <ele>1135.0</ele>
        <time>2021-02-07T10:31:53Z</time>
      </trkpt>
      <trkpt lat="43.2729670" lon="-6.6784880">
        <ele>1135.0</ele>
        <time>2021-02-07T10:31:58Z</time>
      </trkpt>
      <trkpt lat="43.2730190" lon="-6.6785050">
        <ele>1136.0</ele>
        <time>2021-02-07T10:32:03Z</time>
      </trkpt>
      <trkpt lat="43.2730810" lon="-6.6785160">
        <ele>1136.0</ele>
        <time>2021-02-07T10:32:13Z</time>
      </trkpt>
      <trkpt lat="43.2731340" lon="-6.6785120">
        <ele>1136.0</ele>
        <time>2021-02-07T10:32:18Z</time>
      </trkpt>
      <trkpt lat="43.2731860" lon="-6.6785130">
        <ele>1136.0</ele>
        <time>2021-02-07T10:32:22Z</time>
      </trkpt>
      <trkpt lat="43.2732360" lon="-6.6785210">
        <ele>1136.0</ele>
        <time>2021-02-07T10:32:26Z</time>
      </trkpt>
      <trkpt lat="43.2732940" lon="-6.6785310">
        <ele>1136.0</ele>
        <time>2021-02-07T10:32:31Z</time>
      </trkpt>
      <trkpt lat="43.2733500" lon="-6.6785270">
        <ele>1136.0</ele>
        <time>2021-02-07T10:32:36Z</time>
      </trkpt>
      <trkpt lat="43.2733960" lon="-6.6785250">
        <ele>1137.0</ele>
        <time>2021-02-07T10:32:40Z</time>
      </trkpt>
      <trkpt lat="43.2734520" lon="-6.6785390">
        <ele>1138.0</ele>
        <time>2021-02-07T10:32:45Z</time>
      </trkpt>
      <trkpt lat="43.2735070" lon="-6.6785440">
        <ele>1138.0</ele>
        <time>2021-02-07T10:32:50Z</time>
      </trkpt>
      <trkpt lat="43.2735610" lon="-6.6785350">
        <ele>1138.0</ele>
        <time>2021-02-07T10:32:55Z</time>
      </trkpt>
      <trkpt lat="43.2736160" lon="-6.6785370">
        <ele>1139.0</ele>
        <time>2021-02-07T10:33:00Z</time>
      </trkpt>
      <trkpt lat="43.2736660" lon="-6.6785360">
        <ele>1140.0</ele>
        <time>2021-02-07T10:33:05Z</time>
      </trkpt>
      <trkpt lat="43.2737160" lon="-6.6785220">
        <ele>1140.0</ele>
        <time>2021-02-07T10:33:10Z</time>
      </trkpt>
      <trkpt lat="43.2737730" lon="-6.6785060">
        <ele>1140.0</ele>
        <time>2021-02-07T10:33:16Z</time>
      </trkpt>
      <trkpt lat="43.2738280" lon="-6.6785010">
        <ele>1141.0</ele>
        <time>2021-02-07T10:33:21Z</time>
      </trkpt>
      <trkpt lat="43.2738830" lon="-6.6784960">
        <ele>1141.0</ele>
        <time>2021-02-07T10:33:26Z</time>
      </trkpt>
      <trkpt lat="43.2739410" lon="-6.6785080">
        <ele>1142.0</ele>
        <time>2021-02-07T10:33:31Z</time>
      </trkpt>
      <trkpt lat="43.2739980" lon="-6.6785030">
        <ele>1142.0</ele>
        <time>2021-02-07T10:33:36Z</time>
      </trkpt>
      <trkpt lat="43.2740540" lon="-6.6785000">
        <ele>1143.0</ele>
        <time>2021-02-07T10:33:41Z</time>
      </trkpt>
      <trkpt lat="43.2741080" lon="-6.6785060">
        <ele>1143.0</ele>
        <time>2021-02-07T10:33:46Z</time>
      </trkpt>
      <trkpt lat="43.2741580" lon="-6.6785160">
        <ele>1143.0</ele>
        <time>2021-02-07T10:33:51Z</time>
      </trkpt>
      <trkpt lat="43.2742130" lon="-6.6785140">
        <ele>1143.0</ele>
        <time>2021-02-07T10:33:57Z</time>
      </trkpt>
      <trkpt lat="43.2742710" lon="-6.6785060">
        <ele>1144.0</ele>
        <time>2021-02-07T10:34:03Z</time>
      </trkpt>
      <trkpt lat="43.2743170" lon="-6.6785220">
        <ele>1144.0</ele>
        <time>2021-02-07T10:34:08Z</time>
      </trkpt>
      <trkpt lat="43.2743730" lon="-6.6785450">
        <ele>1145.0</ele>
        <time>2021-02-07T10:34:13Z</time>
      </trkpt>
      <trkpt lat="43.2744240" lon="-6.6785550">
        <ele>1145.0</ele>
        <time>2021-02-07T10:34:18Z</time>
      </trkpt>
      <trkpt lat="43.2744770" lon="-6.6785730">
        <ele>1145.0</ele>
        <time>2021-02-07T10:34:24Z</time>
      </trkpt>
      <trkpt lat="43.2745290" lon="-6.6785860">
        <ele>1145.0</ele>
        <time>2021-02-07T10:34:29Z</time>
      </trkpt>
      <trkpt lat="43.2745860" lon="-6.6785950">
        <ele>1145.0</ele>
        <time>2021-02-07T10:34:35Z</time>
      </trkpt>
      <trkpt lat="43.2746400" lon="-6.6786000">
        <ele>1146.0</ele>
        <time>2021-02-07T10:34:40Z</time>
      </trkpt>
      <trkpt lat="43.2746870" lon="-6.6785920">
        <ele>1146.0</ele>
        <time>2021-02-07T10:34:44Z</time>
      </trkpt>
      <trkpt lat="43.2747490" lon="-6.6785900">
        <ele>1146.0</ele>
        <time>2021-02-07T10:34:50Z</time>
      </trkpt>
      <trkpt lat="43.2748080" lon="-6.6785950">
        <ele>1147.0</ele>
        <time>2021-02-07T10:34:58Z</time>
      </trkpt>
      <trkpt lat="43.2748610" lon="-6.6786200">
        <ele>1147.0</ele>
        <time>2021-02-07T10:35:03Z</time>
      </trkpt>
      <trkpt lat="43.2749240" lon="-6.6786230">
        <ele>1147.0</ele>
        <time>2021-02-07T10:35:09Z</time>
      </trkpt>
      <trkpt lat="43.2749850" lon="-6.6786120">
        <ele>1148.0</ele>
        <time>2021-02-07T10:35:15Z</time>
      </trkpt>
      <trkpt lat="43.2750500" lon="-6.6786100">
        <ele>1148.0</ele>
        <time>2021-02-07T10:35:21Z</time>
      </trkpt>
      <trkpt lat="43.2751000" lon="-6.6786320">
        <ele>1148.0</ele>
        <time>2021-02-07T10:35:26Z</time>
      </trkpt>
      <trkpt lat="43.2751530" lon="-6.6786360">
        <ele>1149.0</ele>
        <time>2021-02-07T10:35:31Z</time>
      </trkpt>
      <trkpt lat="43.2752050" lon="-6.6786250">
        <ele>1149.0</ele>
        <time>2021-02-07T10:35:36Z</time>
      </trkpt>
      <trkpt lat="43.2752660" lon="-6.6786230">
        <ele>1149.0</ele>
        <time>2021-02-07T10:35:42Z</time>
      </trkpt>
      <trkpt lat="43.2753230" lon="-6.6786160">
        <ele>1150.0</ele>
        <time>2021-02-07T10:35:48Z</time>
      </trkpt>
      <trkpt lat="43.2753790" lon="-6.6786050">
        <ele>1151.0</ele>
        <time>2021-02-07T10:35:54Z</time>
      </trkpt>
      <trkpt lat="43.2754190" lon="-6.6785690">
        <ele>1152.0</ele>
        <time>2021-02-07T10:35:59Z</time>
      </trkpt>
      <trkpt lat="43.2754700" lon="-6.6785450">
        <ele>1152.0</ele>
        <time>2021-02-07T10:36:04Z</time>
      </trkpt>
      <trkpt lat="43.2755220" lon="-6.6785380">
        <ele>1152.0</ele>
        <time>2021-02-07T10:36:11Z</time>
      </trkpt>
      <trkpt lat="43.2755720" lon="-6.6785080">
        <ele>1152.0</ele>
        <time>2021-02-07T10:36:18Z</time>
      </trkpt>
      <trkpt lat="43.2756190" lon="-6.6784780">
        <ele>1154.0</ele>
        <time>2021-02-07T10:36:24Z</time>
      </trkpt>
      <trkpt lat="43.2756760" lon="-6.6784560">
        <ele>1154.0</ele>
        <time>2021-02-07T10:36:30Z</time>
      </trkpt>
      <trkpt lat="43.2757250" lon="-6.6784470">
        <ele>1155.0</ele>
        <time>2021-02-07T10:36:35Z</time>
      </trkpt>
      <trkpt lat="43.2757790" lon="-6.6784340">
        <ele>1155.0</ele>
        <time>2021-02-07T10:36:41Z</time>
      </trkpt>
      <trkpt lat="43.2758330" lon="-6.6784340">
        <ele>1155.0</ele>
        <time>2021-02-07T10:36:47Z</time>
      </trkpt>
      <trkpt lat="43.2758830" lon="-6.6784240">
        <ele>1155.0</ele>
        <time>2021-02-07T10:36:53Z</time>
      </trkpt>
      <trkpt lat="43.2759420" lon="-6.6784100">
        <ele>1155.0</ele>
        <time>2021-02-07T10:36:59Z</time>
      </trkpt>
      <trkpt lat="43.2759910" lon="-6.6784050">
        <ele>1155.0</ele>
        <time>2021-02-07T10:37:04Z</time>
      </trkpt>
      <trkpt lat="43.2760460" lon="-6.6783950">
        <ele>1155.0</ele>
        <time>2021-02-07T10:37:09Z</time>
      </trkpt>
      <trkpt lat="43.2761010" lon="-6.6783850">
        <ele>1155.0</ele>
        <time>2021-02-07T10:37:14Z</time>
      </trkpt>
      <trkpt lat="43.2761540" lon="-6.6783710">
        <ele>1156.0</ele>
        <time>2021-02-07T10:37:19Z</time>
      </trkpt>
      <trkpt lat="43.2762090" lon="-6.6783560">
        <ele>1156.0</ele>
        <time>2021-02-07T10:37:25Z</time>
      </trkpt>
      <trkpt lat="43.2762590" lon="-6.6783480">
        <ele>1156.0</ele>
        <time>2021-02-07T10:37:30Z</time>
      </trkpt>
      <trkpt lat="43.2763080" lon="-6.6783390">
        <ele>1156.0</ele>
        <time>2021-02-07T10:37:35Z</time>
      </trkpt>
      <trkpt lat="43.2763610" lon="-6.6783380">
        <ele>1156.0</ele>
        <time>2021-02-07T10:37:41Z</time>
      </trkpt>
      <trkpt lat="43.2764140" lon="-6.6783320">
        <ele>1156.0</ele>
        <time>2021-02-07T10:37:47Z</time>
      </trkpt>
      <trkpt lat="43.2764770" lon="-6.6783280">
        <ele>1156.0</ele>
        <time>2021-02-07T10:37:53Z</time>
      </trkpt>
      <trkpt lat="43.2765300" lon="-6.6783200">
        <ele>1156.0</ele>
        <time>2021-02-07T10:37:58Z</time>
      </trkpt>
      <trkpt lat="43.2765850" lon="-6.6783000">
        <ele>1156.0</ele>
        <time>2021-02-07T10:38:04Z</time>
      </trkpt>
      <trkpt lat="43.2766420" lon="-6.6782960">
        <ele>1157.0</ele>
        <time>2021-02-07T10:38:10Z</time>
      </trkpt>
      <trkpt lat="43.2766940" lon="-6.6782920">
        <ele>1157.0</ele>
        <time>2021-02-07T10:38:15Z</time>
      </trkpt>
      <trkpt lat="43.2767430" lon="-6.6782920">
        <ele>1157.0</ele>
        <time>2021-02-07T10:38:21Z</time>
      </trkpt>
      <trkpt lat="43.2767990" lon="-6.6782860">
        <ele>1158.0</ele>
        <time>2021-02-07T10:38:27Z</time>
      </trkpt>
      <trkpt lat="43.2768530" lon="-6.6782770">
        <ele>1159.0</ele>
        <time>2021-02-07T10:38:33Z</time>
      </trkpt>
      <trkpt lat="43.2769030" lon="-6.6782690">
        <ele>1159.0</ele>
        <time>2021-02-07T10:38:38Z</time>
      </trkpt>
      <trkpt lat="43.2769600" lon="-6.6782590">
        <ele>1159.0</ele>
        <time>2021-02-07T10:38:44Z</time>
      </trkpt>
      <trkpt lat="43.2770110" lon="-6.6782490">
        <ele>1159.0</ele>
        <time>2021-02-07T10:38:49Z</time>
      </trkpt>
      <trkpt lat="43.2770650" lon="-6.6782380">
        <ele>1159.0</ele>
        <time>2021-02-07T10:38:55Z</time>
      </trkpt>
      <trkpt lat="43.2771200" lon="-6.6782330">
        <ele>1159.0</ele>
        <time>2021-02-07T10:39:00Z</time>
      </trkpt>
      <trkpt lat="43.2771750" lon="-6.6782260">
        <ele>1159.0</ele>
        <time>2021-02-07T10:39:06Z</time>
      </trkpt>
      <trkpt lat="43.2772210" lon="-6.6782150">
        <ele>1159.0</ele>
        <time>2021-02-07T10:39:11Z</time>
      </trkpt>
      <trkpt lat="43.2772820" lon="-6.6782140">
        <ele>1160.0</ele>
        <time>2021-02-07T10:39:17Z</time>
      </trkpt>
      <trkpt lat="43.2773320" lon="-6.6782110">
        <ele>1161.0</ele>
        <time>2021-02-07T10:39:22Z</time>
      </trkpt>
      <trkpt lat="43.2773850" lon="-6.6782010">
        <ele>1161.0</ele>
        <time>2021-02-07T10:39:27Z</time>
      </trkpt>
      <trkpt lat="43.2774360" lon="-6.6781940">
        <ele>1162.0</ele>
        <time>2021-02-07T10:39:32Z</time>
      </trkpt>
      <trkpt lat="43.2774970" lon="-6.6781810">
        <ele>1162.0</ele>
        <time>2021-02-07T10:39:38Z</time>
      </trkpt>
      <trkpt lat="43.2775600" lon="-6.6781670">
        <ele>1162.0</ele>
        <time>2021-02-07T10:39:44Z</time>
      </trkpt>
      <trkpt lat="43.2776050" lon="-6.6781570">
        <ele>1162.0</ele>
        <time>2021-02-07T10:39:48Z</time>
      </trkpt>
      <trkpt lat="43.2776680" lon="-6.6781330">
        <ele>1163.0</ele>
        <time>2021-02-07T10:39:53Z</time>
      </trkpt>
      <trkpt lat="43.2777220" lon="-6.6781170">
        <ele>1163.0</ele>
        <time>2021-02-07T10:39:57Z</time>
      </trkpt>
      <trkpt lat="43.2777680" lon="-6.6780870">
        <ele>1163.0</ele>
        <time>2021-02-07T10:40:01Z</time>
      </trkpt>
      <trkpt lat="43.2778200" lon="-6.6780670">
        <ele>1163.0</ele>
        <time>2021-02-07T10:40:07Z</time>
      </trkpt>
      <trkpt lat="43.2778810" lon="-6.6780530">
        <ele>1163.0</ele>
        <time>2021-02-07T10:40:13Z</time>
      </trkpt>
      <trkpt lat="43.2779320" lon="-6.6780420">
        <ele>1163.0</ele>
        <time>2021-02-07T10:40:18Z</time>
      </trkpt>
      <trkpt lat="43.2779880" lon="-6.6780200">
        <ele>1163.0</ele>
        <time>2021-02-07T10:40:24Z</time>
      </trkpt>
      <trkpt lat="43.2780430" lon="-6.6779880">
        <ele>1163.0</ele>
        <time>2021-02-07T10:40:29Z</time>
      </trkpt>
      <trkpt lat="43.2780920" lon="-6.6779590">
        <ele>1163.0</ele>
        <time>2021-02-07T10:40:34Z</time>
      </trkpt>
      <trkpt lat="43.2781410" lon="-6.6779250">
        <ele>1163.0</ele>
        <time>2021-02-07T10:40:39Z</time>
      </trkpt>
      <trkpt lat="43.2781880" lon="-6.6779000">
        <ele>1163.0</ele>
        <time>2021-02-07T10:40:44Z</time>
      </trkpt>
      <trkpt lat="43.2782390" lon="-6.6778760">
        <ele>1164.0</ele>
        <time>2021-02-07T10:40:49Z</time>
      </trkpt>
      <trkpt lat="43.2782890" lon="-6.6778450">
        <ele>1165.0</ele>
        <time>2021-02-07T10:40:54Z</time>
      </trkpt>
      <trkpt lat="43.2783420" lon="-6.6778200">
        <ele>1165.0</ele>
        <time>2021-02-07T10:41:03Z</time>
      </trkpt>
      <trkpt lat="43.2783900" lon="-6.6777970">
        <ele>1166.0</ele>
        <time>2021-02-07T10:41:08Z</time>
      </trkpt>
      <trkpt lat="43.2784400" lon="-6.6777800">
        <ele>1166.0</ele>
        <time>2021-02-07T10:41:13Z</time>
      </trkpt>
      <trkpt lat="43.2784900" lon="-6.6777650">
        <ele>1167.0</ele>
        <time>2021-02-07T10:41:19Z</time>
      </trkpt>
      <trkpt lat="43.2785440" lon="-6.6777410">
        <ele>1167.0</ele>
        <time>2021-02-07T10:41:26Z</time>
      </trkpt>
      <trkpt lat="43.2785940" lon="-6.6777220">
        <ele>1168.0</ele>
        <time>2021-02-07T10:41:32Z</time>
      </trkpt>
      <trkpt lat="43.2786520" lon="-6.6777060">
        <ele>1168.0</ele>
        <time>2021-02-07T10:41:38Z</time>
      </trkpt>
      <trkpt lat="43.2787090" lon="-6.6776910">
        <ele>1168.0</ele>
        <time>2021-02-07T10:41:43Z</time>
      </trkpt>
      <trkpt lat="43.2787650" lon="-6.6776770">
        <ele>1168.0</ele>
        <time>2021-02-07T10:41:47Z</time>
      </trkpt>
      <trkpt lat="43.2788090" lon="-6.6776710">
        <ele>1169.0</ele>
        <time>2021-02-07T10:41:51Z</time>
      </trkpt>
      <trkpt lat="43.2788720" lon="-6.6776600">
        <ele>1169.0</ele>
        <time>2021-02-07T10:41:57Z</time>
      </trkpt>
      <trkpt lat="43.2789210" lon="-6.6776330">
        <ele>1170.0</ele>
        <time>2021-02-07T10:42:02Z</time>
      </trkpt>
      <trkpt lat="43.2789710" lon="-6.6776120">
        <ele>1170.0</ele>
        <time>2021-02-07T10:42:07Z</time>
      </trkpt>
      <trkpt lat="43.2790240" lon="-6.6775920">
        <ele>1171.0</ele>
        <time>2021-02-07T10:42:12Z</time>
      </trkpt>
      <trkpt lat="43.2790820" lon="-6.6775640">
        <ele>1171.0</ele>
        <time>2021-02-07T10:42:18Z</time>
      </trkpt>
      <trkpt lat="43.2791390" lon="-6.6775420">
        <ele>1172.0</ele>
        <time>2021-02-07T10:42:24Z</time>
      </trkpt>
      <trkpt lat="43.2791940" lon="-6.6775260">
        <ele>1173.0</ele>
        <time>2021-02-07T10:42:31Z</time>
      </trkpt>
      <trkpt lat="43.2792470" lon="-6.6775020">
        <ele>1173.0</ele>
        <time>2021-02-07T10:42:37Z</time>
      </trkpt>
      <trkpt lat="43.2793000" lon="-6.6774820">
        <ele>1174.0</ele>
        <time>2021-02-07T10:42:43Z</time>
      </trkpt>
      <trkpt lat="43.2793580" lon="-6.6774650">
        <ele>1175.0</ele>
        <time>2021-02-07T10:42:49Z</time>
      </trkpt>
      <trkpt lat="43.2794120" lon="-6.6774440">
        <ele>1175.0</ele>
        <time>2021-02-07T10:42:55Z</time>
      </trkpt>
      <trkpt lat="43.2794710" lon="-6.6774200">
        <ele>1175.0</ele>
        <time>2021-02-07T10:43:01Z</time>
      </trkpt>
      <trkpt lat="43.2795310" lon="-6.6774040">
        <ele>1176.0</ele>
        <time>2021-02-07T10:43:06Z</time>
      </trkpt>
      <trkpt lat="43.2795780" lon="-6.6773890">
        <ele>1176.0</ele>
        <time>2021-02-07T10:43:10Z</time>
      </trkpt>
      <trkpt lat="43.2796300" lon="-6.6773770">
        <ele>1176.0</ele>
        <time>2021-02-07T10:43:14Z</time>
      </trkpt>
      <trkpt lat="43.2796820" lon="-6.6773620">
        <ele>1177.0</ele>
        <time>2021-02-07T10:43:19Z</time>
      </trkpt>
      <trkpt lat="43.2797360" lon="-6.6773460">
        <ele>1177.0</ele>
        <time>2021-02-07T10:43:24Z</time>
      </trkpt>
      <trkpt lat="43.2797970" lon="-6.6773320">
        <ele>1177.0</ele>
        <time>2021-02-07T10:43:29Z</time>
      </trkpt>
      <trkpt lat="43.2798480" lon="-6.6773100">
        <ele>1177.0</ele>
        <time>2021-02-07T10:43:34Z</time>
      </trkpt>
      <trkpt lat="43.2799060" lon="-6.6773000">
        <ele>1178.0</ele>
        <time>2021-02-07T10:43:39Z</time>
      </trkpt>
      <trkpt lat="43.2799630" lon="-6.6773040">
        <ele>1178.0</ele>
        <time>2021-02-07T10:43:44Z</time>
      </trkpt>
      <trkpt lat="43.2800150" lon="-6.6773130">
        <ele>1179.0</ele>
        <time>2021-02-07T10:43:49Z</time>
      </trkpt>
      <trkpt lat="43.2800750" lon="-6.6773280">
        <ele>1179.0</ele>
        <time>2021-02-07T10:43:54Z</time>
      </trkpt>
      <trkpt lat="43.2801270" lon="-6.6773330">
        <ele>1179.0</ele>
        <time>2021-02-07T10:43:59Z</time>
      </trkpt>
      <trkpt lat="43.2801810" lon="-6.6773390">
        <ele>1179.0</ele>
        <time>2021-02-07T10:44:03Z</time>
      </trkpt>
      <trkpt lat="43.2802340" lon="-6.6773500">
        <ele>1179.0</ele>
        <time>2021-02-07T10:44:08Z</time>
      </trkpt>
      <trkpt lat="43.2802890" lon="-6.6773580">
        <ele>1179.0</ele>
        <time>2021-02-07T10:44:13Z</time>
      </trkpt>
      <trkpt lat="43.2803370" lon="-6.6773710">
        <ele>1179.0</ele>
        <time>2021-02-07T10:44:17Z</time>
      </trkpt>
      <trkpt lat="43.2803880" lon="-6.6773870">
        <ele>1179.0</ele>
        <time>2021-02-07T10:44:22Z</time>
      </trkpt>
      <trkpt lat="43.2804360" lon="-6.6774160">
        <ele>1180.0</ele>
        <time>2021-02-07T10:44:27Z</time>
      </trkpt>
      <trkpt lat="43.2804890" lon="-6.6774600">
        <ele>1180.0</ele>
        <time>2021-02-07T10:44:32Z</time>
      </trkpt>
      <trkpt lat="43.2805310" lon="-6.6774920">
        <ele>1180.0</ele>
        <time>2021-02-07T10:44:36Z</time>
      </trkpt>
      <trkpt lat="43.2805790" lon="-6.6775370">
        <ele>1180.0</ele>
        <time>2021-02-07T10:44:41Z</time>
      </trkpt>
      <trkpt lat="43.2806230" lon="-6.6775730">
        <ele>1179.0</ele>
        <time>2021-02-07T10:44:45Z</time>
      </trkpt>
      <trkpt lat="43.2806840" lon="-6.6776240">
        <ele>1179.0</ele>
        <time>2021-02-07T10:44:50Z</time>
      </trkpt>
      <trkpt lat="43.2807370" lon="-6.6776570">
        <ele>1179.0</ele>
        <time>2021-02-07T10:44:54Z</time>
      </trkpt>
      <trkpt lat="43.2807840" lon="-6.6776940">
        <ele>1179.0</ele>
        <time>2021-02-07T10:44:58Z</time>
      </trkpt>
      <trkpt lat="43.2808260" lon="-6.6777320">
        <ele>1179.0</ele>
        <time>2021-02-07T10:45:02Z</time>
      </trkpt>
      <trkpt lat="43.2808820" lon="-6.6777700">
        <ele>1179.0</ele>
        <time>2021-02-07T10:45:07Z</time>
      </trkpt>
      <trkpt lat="43.2809300" lon="-6.6778060">
        <ele>1179.0</ele>
        <time>2021-02-07T10:45:11Z</time>
      </trkpt>
      <trkpt lat="43.2809830" lon="-6.6778380">
        <ele>1179.0</ele>
        <time>2021-02-07T10:45:16Z</time>
      </trkpt>
      <trkpt lat="43.2810360" lon="-6.6778670">
        <ele>1178.0</ele>
        <time>2021-02-07T10:45:21Z</time>
      </trkpt>
      <trkpt lat="43.2810840" lon="-6.6778970">
        <ele>1178.0</ele>
        <time>2021-02-07T10:45:26Z</time>
      </trkpt>
      <trkpt lat="43.2811380" lon="-6.6779230">
        <ele>1178.0</ele>
        <time>2021-02-07T10:45:31Z</time>
      </trkpt>
      <trkpt lat="43.2811920" lon="-6.6779390">
        <ele>1178.0</ele>
        <time>2021-02-07T10:45:35Z</time>
      </trkpt>
      <trkpt lat="43.2812350" lon="-6.6779560">
        <ele>1178.0</ele>
        <time>2021-02-07T10:45:39Z</time>
      </trkpt>
      <trkpt lat="43.2812960" lon="-6.6779780">
        <ele>1177.0</ele>
        <time>2021-02-07T10:45:45Z</time>
      </trkpt>
      <trkpt lat="43.2813600" lon="-6.6779950">
        <ele>1177.0</ele>
        <time>2021-02-07T10:45:50Z</time>
      </trkpt>
      <trkpt lat="43.2814180" lon="-6.6780020">
        <ele>1176.0</ele>
        <time>2021-02-07T10:45:54Z</time>
      </trkpt>
      <trkpt lat="43.2814720" lon="-6.6780070">
        <ele>1175.0</ele>
        <time>2021-02-07T10:45:58Z</time>
      </trkpt>
      <trkpt lat="43.2815410" lon="-6.6780020">
        <ele>1175.0</ele>
        <time>2021-02-07T10:46:03Z</time>
      </trkpt>
      <trkpt lat="43.2815860" lon="-6.6779870">
        <ele>1175.0</ele>
        <time>2021-02-07T10:46:07Z</time>
      </trkpt>
      <trkpt lat="43.2816380" lon="-6.6779560">
        <ele>1174.0</ele>
        <time>2021-02-07T10:46:13Z</time>
      </trkpt>
      <trkpt lat="43.2816860" lon="-6.6779200">
        <ele>1174.0</ele>
        <time>2021-02-07T10:46:19Z</time>
      </trkpt>
      <trkpt lat="43.2817300" lon="-6.6778750">
        <ele>1173.0</ele>
        <time>2021-02-07T10:46:25Z</time>
      </trkpt>
      <trkpt lat="43.2817830" lon="-6.6778320">
        <ele>1172.0</ele>
        <time>2021-02-07T10:46:31Z</time>
      </trkpt>
      <trkpt lat="43.2818330" lon="-6.6777980">
        <ele>1172.0</ele>
        <time>2021-02-07T10:46:35Z</time>
      </trkpt>
      <trkpt lat="43.2818860" lon="-6.6777760">
        <ele>1171.0</ele>
        <time>2021-02-07T10:46:39Z</time>
      </trkpt>
      <trkpt lat="43.2819340" lon="-6.6777430">
        <ele>1171.0</ele>
        <time>2021-02-07T10:46:44Z</time>
      </trkpt>
      <trkpt lat="43.2819800" lon="-6.6777110">
        <ele>1170.0</ele>
        <time>2021-02-07T10:46:50Z</time>
      </trkpt>
      <trkpt lat="43.2820250" lon="-6.6776700">
        <ele>1169.0</ele>
        <time>2021-02-07T10:46:56Z</time>
      </trkpt>
      <trkpt lat="43.2820800" lon="-6.6776460">
        <ele>1168.0</ele>
        <time>2021-02-07T10:47:01Z</time>
      </trkpt>
      <trkpt lat="43.2821320" lon="-6.6776270">
        <ele>1168.0</ele>
        <time>2021-02-07T10:47:06Z</time>
      </trkpt>
      <trkpt lat="43.2821930" lon="-6.6776030">
        <ele>1167.0</ele>
        <time>2021-02-07T10:47:11Z</time>
      </trkpt>
      <trkpt lat="43.2822390" lon="-6.6775930">
        <ele>1167.0</ele>
        <time>2021-02-07T10:47:14Z</time>
      </trkpt>
      <trkpt lat="43.2822940" lon="-6.6775790">
        <ele>1166.0</ele>
        <time>2021-02-07T10:47:18Z</time>
      </trkpt>
      <trkpt lat="43.2823430" lon="-6.6775590">
        <ele>1166.0</ele>
        <time>2021-02-07T10:47:23Z</time>
      </trkpt>
      <trkpt lat="43.2823940" lon="-6.6775420">
        <ele>1166.0</ele>
        <time>2021-02-07T10:47:28Z</time>
      </trkpt>
      <trkpt lat="43.2824480" lon="-6.6775280">
        <ele>1165.0</ele>
        <time>2021-02-07T10:47:33Z</time>
      </trkpt>
      <trkpt lat="43.2825050" lon="-6.6775220">
        <ele>1165.0</ele>
        <time>2021-02-07T10:47:39Z</time>
      </trkpt>
      <trkpt lat="43.2825590" lon="-6.6775150">
        <ele>1165.0</ele>
        <time>2021-02-07T10:47:44Z</time>
      </trkpt>
      <trkpt lat="43.2826190" lon="-6.6775160">
        <ele>1165.0</ele>
        <time>2021-02-07T10:47:49Z</time>
      </trkpt>
      <trkpt lat="43.2826700" lon="-6.6775120">
        <ele>1165.0</ele>
        <time>2021-02-07T10:47:53Z</time>
      </trkpt>
      <trkpt lat="43.2827310" lon="-6.6774990">
        <ele>1165.0</ele>
        <time>2021-02-07T10:47:58Z</time>
      </trkpt>
      <trkpt lat="43.2827770" lon="-6.6775000">
        <ele>1165.0</ele>
        <time>2021-02-07T10:48:02Z</time>
      </trkpt>
      <trkpt lat="43.2828350" lon="-6.6774940">
        <ele>1165.0</ele>
        <time>2021-02-07T10:48:07Z</time>
      </trkpt>
      <trkpt lat="43.2828960" lon="-6.6775050">
        <ele>1165.0</ele>
        <time>2021-02-07T10:48:12Z</time>
      </trkpt>
      <trkpt lat="43.2829490" lon="-6.6775100">
        <ele>1165.0</ele>
        <time>2021-02-07T10:48:17Z</time>
      </trkpt>
      <trkpt lat="43.2830020" lon="-6.6775150">
        <ele>1165.0</ele>
        <time>2021-02-07T10:48:22Z</time>
      </trkpt>
      <trkpt lat="43.2830610" lon="-6.6775210">
        <ele>1166.0</ele>
        <time>2021-02-07T10:48:27Z</time>
      </trkpt>
      <trkpt lat="43.2831220" lon="-6.6775210">
        <ele>1167.0</ele>
        <time>2021-02-07T10:48:33Z</time>
      </trkpt>
      <trkpt lat="43.2831810" lon="-6.6775120">
        <ele>1168.0</ele>
        <time>2021-02-07T10:48:38Z</time>
      </trkpt>
      <trkpt lat="43.2832300" lon="-6.6775000">
        <ele>1169.0</ele>
        <time>2021-02-07T10:48:43Z</time>
      </trkpt>
      <trkpt lat="43.2832950" lon="-6.6774820">
        <ele>1170.0</ele>
        <time>2021-02-07T10:48:48Z</time>
      </trkpt>
      <trkpt lat="43.2833450" lon="-6.6774660">
        <ele>1170.0</ele>
        <time>2021-02-07T10:48:52Z</time>
      </trkpt>
      <trkpt lat="43.2834040" lon="-6.6774440">
        <ele>1170.0</ele>
        <time>2021-02-07T10:48:57Z</time>
      </trkpt>
      <trkpt lat="43.2834460" lon="-6.6774180">
        <ele>1170.0</ele>
        <time>2021-02-07T10:49:01Z</time>
      </trkpt>
      <trkpt lat="43.2834990" lon="-6.6773840">
        <ele>1170.0</ele>
        <time>2021-02-07T10:49:06Z</time>
      </trkpt>
      <trkpt lat="43.2835560" lon="-6.6773600">
        <ele>1170.0</ele>
        <time>2021-02-07T10:49:10Z</time>
      </trkpt>
      <trkpt lat="43.2836100" lon="-6.6773350">
        <ele>1172.0</ele>
        <time>2021-02-07T10:49:15Z</time>
      </trkpt>
      <trkpt lat="43.2836600" lon="-6.6773110">
        <ele>1173.0</ele>
        <time>2021-02-07T10:49:20Z</time>
      </trkpt>
      <trkpt lat="43.2837110" lon="-6.6772840">
        <ele>1173.0</ele>
        <time>2021-02-07T10:49:25Z</time>
      </trkpt>
      <trkpt lat="43.2837540" lon="-6.6772640">
        <ele>1173.0</ele>
        <time>2021-02-07T10:49:30Z</time>
      </trkpt>
      <trkpt lat="43.2838110" lon="-6.6772430">
        <ele>1172.0</ele>
        <time>2021-02-07T10:49:36Z</time>
      </trkpt>
      <trkpt lat="43.2838850" lon="-6.6772150">
        <ele>1172.0</ele>
        <time>2021-02-07T10:49:42Z</time>
      </trkpt>
      <trkpt lat="43.2839370" lon="-6.6771980">
        <ele>1172.0</ele>
        <time>2021-02-07T10:49:46Z</time>
      </trkpt>
      <trkpt lat="43.2839820" lon="-6.6771950">
        <ele>1172.0</ele>
        <time>2021-02-07T10:49:50Z</time>
      </trkpt>
      <trkpt lat="43.2840420" lon="-6.6771860">
        <ele>1173.0</ele>
        <time>2021-02-07T10:49:55Z</time>
      </trkpt>
      <trkpt lat="43.2840870" lon="-6.6771600">
        <ele>1173.0</ele>
        <time>2021-02-07T10:50:00Z</time>
      </trkpt>
      <trkpt lat="43.2841380" lon="-6.6771340">
        <ele>1174.0</ele>
        <time>2021-02-07T10:50:05Z</time>
      </trkpt>
      <trkpt lat="43.2841930" lon="-6.6771040">
        <ele>1174.0</ele>
        <time>2021-02-07T10:50:10Z</time>
      </trkpt>
      <trkpt lat="43.2842370" lon="-6.6770760">
        <ele>1174.0</ele>
        <time>2021-02-07T10:50:14Z</time>
      </trkpt>
      <trkpt lat="43.2842850" lon="-6.6770610">
        <ele>1174.0</ele>
        <time>2021-02-07T10:50:18Z</time>
      </trkpt>
      <trkpt lat="43.2843370" lon="-6.6770440">
        <ele>1174.0</ele>
        <time>2021-02-07T10:50:23Z</time>
      </trkpt>
      <trkpt lat="43.2843910" lon="-6.6770230">
        <ele>1174.0</ele>
        <time>2021-02-07T10:50:28Z</time>
      </trkpt>
      <trkpt lat="43.2844440" lon="-6.6770010">
        <ele>1174.0</ele>
        <time>2021-02-07T10:50:34Z</time>
      </trkpt>
      <trkpt lat="43.2844950" lon="-6.6769820">
        <ele>1176.0</ele>
        <time>2021-02-07T10:50:39Z</time>
      </trkpt>
      <trkpt lat="43.2845420" lon="-6.6769590">
        <ele>1177.0</ele>
        <time>2021-02-07T10:50:44Z</time>
      </trkpt>
      <trkpt lat="43.2846020" lon="-6.6769270">
        <ele>1178.0</ele>
        <time>2021-02-07T10:50:51Z</time>
      </trkpt>
      <trkpt lat="43.2846510" lon="-6.6768960">
        <ele>1178.0</ele>
        <time>2021-02-07T10:50:57Z</time>
      </trkpt>
      <trkpt lat="43.2847050" lon="-6.6768610">
        <ele>1178.0</ele>
        <time>2021-02-07T10:51:03Z</time>
      </trkpt>
      <trkpt lat="43.2847610" lon="-6.6768320">
        <ele>1178.0</ele>
        <time>2021-02-07T10:51:08Z</time>
      </trkpt>
      <trkpt lat="43.2848200" lon="-6.6767960">
        <ele>1178.0</ele>
        <time>2021-02-07T10:51:13Z</time>
      </trkpt>
      <trkpt lat="43.2848650" lon="-6.6767670">
        <ele>1178.0</ele>
        <time>2021-02-07T10:51:17Z</time>
      </trkpt>
      <trkpt lat="43.2849110" lon="-6.6767330">
        <ele>1178.0</ele>
        <time>2021-02-07T10:51:22Z</time>
      </trkpt>
      <trkpt lat="43.2849670" lon="-6.6766870">
        <ele>1179.0</ele>
        <time>2021-02-07T10:51:28Z</time>
      </trkpt>
      <trkpt lat="43.2850200" lon="-6.6766540">
        <ele>1179.0</ele>
        <time>2021-02-07T10:51:33Z</time>
      </trkpt>
      <trkpt lat="43.2850680" lon="-6.6766230">
        <ele>1180.0</ele>
        <time>2021-02-07T10:51:38Z</time>
      </trkpt>
      <trkpt lat="43.2851120" lon="-6.6765960">
        <ele>1180.0</ele>
        <time>2021-02-07T10:51:42Z</time>
      </trkpt>
      <trkpt lat="43.2851610" lon="-6.6765570">
        <ele>1180.0</ele>
        <time>2021-02-07T10:51:47Z</time>
      </trkpt>
      <trkpt lat="43.2852030" lon="-6.6765200">
        <ele>1180.0</ele>
        <time>2021-02-07T10:51:52Z</time>
      </trkpt>
      <trkpt lat="43.2852490" lon="-6.6764770">
        <ele>1181.0</ele>
        <time>2021-02-07T10:51:58Z</time>
      </trkpt>
      <trkpt lat="43.2852890" lon="-6.6764380">
        <ele>1181.0</ele>
        <time>2021-02-07T10:52:07Z</time>
      </trkpt>
      <trkpt lat="43.2853390" lon="-6.6763830">
        <ele>1181.0</ele>
        <time>2021-02-07T10:52:14Z</time>
      </trkpt>
      <trkpt lat="43.2853850" lon="-6.6763340">
        <ele>1182.0</ele>
        <time>2021-02-07T10:52:20Z</time>
      </trkpt>
      <trkpt lat="43.2854360" lon="-6.6763060">
        <ele>1182.0</ele>
        <time>2021-02-07T10:52:25Z</time>
      </trkpt>
      <trkpt lat="43.2854840" lon="-6.6762780">
        <ele>1183.0</ele>
        <time>2021-02-07T10:52:30Z</time>
      </trkpt>
      <trkpt lat="43.2855390" lon="-6.6762470">
        <ele>1183.0</ele>
        <time>2021-02-07T10:52:35Z</time>
      </trkpt>
      <trkpt lat="43.2856150" lon="-6.6761820">
        <ele>1185.0</ele>
        <time>2021-02-07T10:52:51Z</time>
      </trkpt>
      <trkpt lat="43.2856750" lon="-6.6761500">
        <ele>1185.0</ele>
        <time>2021-02-07T10:52:57Z</time>
      </trkpt>
      <trkpt lat="43.2857350" lon="-6.6761530">
        <ele>1186.0</ele>
        <time>2021-02-07T10:53:02Z</time>
      </trkpt>
      <trkpt lat="43.2857830" lon="-6.6761600">
        <ele>1186.0</ele>
        <time>2021-02-07T10:53:06Z</time>
      </trkpt>
      <trkpt lat="43.2858330" lon="-6.6761710">
        <ele>1186.0</ele>
        <time>2021-02-07T10:53:10Z</time>
      </trkpt>
      <trkpt lat="43.2858770" lon="-6.6761750">
        <ele>1185.0</ele>
        <time>2021-02-07T10:53:21Z</time>
      </trkpt>
      <trkpt lat="43.2859410" lon="-6.6761980">
        <ele>1185.0</ele>
        <time>2021-02-07T10:53:41Z</time>
      </trkpt>
      <trkpt lat="43.2860010" lon="-6.6762140">
        <ele>1185.0</ele>
        <time>2021-02-07T10:53:45Z</time>
      </trkpt>
      <trkpt lat="43.2860490" lon="-6.6762210">
        <ele>1185.0</ele>
        <time>2021-02-07T10:53:49Z</time>
      </trkpt>
      <trkpt lat="43.2861000" lon="-6.6762240">
        <ele>1185.0</ele>
        <time>2021-02-07T10:53:53Z</time>
      </trkpt>
      <trkpt lat="43.2861540" lon="-6.6762310">
        <ele>1185.0</ele>
        <time>2021-02-07T10:53:57Z</time>
      </trkpt>
      <trkpt lat="43.2861960" lon="-6.6762270">
        <ele>1185.0</ele>
        <time>2021-02-07T10:54:04Z</time>
      </trkpt>
      <trkpt lat="43.2862460" lon="-6.6761760">
        <ele>1185.0</ele>
        <time>2021-02-07T10:54:11Z</time>
      </trkpt>
      <trkpt lat="43.2862900" lon="-6.6761530">
        <ele>1185.0</ele>
        <time>2021-02-07T10:54:16Z</time>
      </trkpt>
      <trkpt lat="43.2863500" lon="-6.6761440">
        <ele>1185.0</ele>
        <time>2021-02-07T10:54:22Z</time>
      </trkpt>
      <trkpt lat="43.2863990" lon="-6.6761330">
        <ele>1185.0</ele>
        <time>2021-02-07T10:54:27Z</time>
      </trkpt>
      <trkpt lat="43.2864610" lon="-6.6761300">
        <ele>1184.0</ele>
        <time>2021-02-07T10:54:32Z</time>
      </trkpt>
      <trkpt lat="43.2865180" lon="-6.6761290">
        <ele>1183.0</ele>
        <time>2021-02-07T10:54:37Z</time>
      </trkpt>
      <trkpt lat="43.2865750" lon="-6.6761290">
        <ele>1183.0</ele>
        <time>2021-02-07T10:54:42Z</time>
      </trkpt>
      <trkpt lat="43.2866290" lon="-6.6761150">
        <ele>1183.0</ele>
        <time>2021-02-07T10:54:46Z</time>
      </trkpt>
      <trkpt lat="43.2866770" lon="-6.6761100">
        <ele>1183.0</ele>
        <time>2021-02-07T10:54:50Z</time>
      </trkpt>
      <trkpt lat="43.2867370" lon="-6.6761130">
        <ele>1183.0</ele>
        <time>2021-02-07T10:54:54Z</time>
      </trkpt>
      <trkpt lat="43.2867840" lon="-6.6761180">
        <ele>1183.0</ele>
        <time>2021-02-07T10:54:58Z</time>
      </trkpt>
      <trkpt lat="43.2868400" lon="-6.6761190">
        <ele>1182.0</ele>
        <time>2021-02-07T10:55:02Z</time>
      </trkpt>
      <trkpt lat="43.2868910" lon="-6.6761220">
        <ele>1182.0</ele>
        <time>2021-02-07T10:55:06Z</time>
      </trkpt>
      <trkpt lat="43.2869460" lon="-6.6761220">
        <ele>1182.0</ele>
        <time>2021-02-07T10:55:10Z</time>
      </trkpt>
      <trkpt lat="43.2869980" lon="-6.6761260">
        <ele>1181.0</ele>
        <time>2021-02-07T10:55:14Z</time>
      </trkpt>
      <trkpt lat="43.2870570" lon="-6.6761100">
        <ele>1181.0</ele>
        <time>2021-02-07T10:55:20Z</time>
      </trkpt>
      <trkpt lat="43.2871050" lon="-6.6761040">
        <ele>1181.0</ele>
        <time>2021-02-07T10:55:25Z</time>
      </trkpt>
      <trkpt lat="43.2871640" lon="-6.6760990">
        <ele>1181.0</ele>
        <time>2021-02-07T10:55:30Z</time>
      </trkpt>
      <trkpt lat="43.2872120" lon="-6.6760910">
        <ele>1181.0</ele>
        <time>2021-02-07T10:55:34Z</time>
      </trkpt>
      <trkpt lat="43.2872730" lon="-6.6760780">
        <ele>1180.0</ele>
        <time>2021-02-07T10:55:39Z</time>
      </trkpt>
      <trkpt lat="43.2873340" lon="-6.6760710">
        <ele>1179.0</ele>
        <time>2021-02-07T10:55:45Z</time>
      </trkpt>
      <trkpt lat="43.2873900" lon="-6.6760740">
        <ele>1178.0</ele>
        <time>2021-02-07T10:55:50Z</time>
      </trkpt>
      <trkpt lat="43.2874510" lon="-6.6760700">
        <ele>1177.0</ele>
        <time>2021-02-07T10:55:55Z</time>
      </trkpt>
      <trkpt lat="43.2875120" lon="-6.6760650">
        <ele>1176.0</ele>
        <time>2021-02-07T10:56:00Z</time>
      </trkpt>
      <trkpt lat="43.2875570" lon="-6.6760550">
        <ele>1176.0</ele>
        <time>2021-02-07T10:56:04Z</time>
      </trkpt>
      <trkpt lat="43.2876160" lon="-6.6760460">
        <ele>1175.0</ele>
        <time>2021-02-07T10:56:09Z</time>
      </trkpt>
      <trkpt lat="43.2876660" lon="-6.6760500">
        <ele>1174.0</ele>
        <time>2021-02-07T10:56:13Z</time>
      </trkpt>
      <trkpt lat="43.2877250" lon="-6.6760540">
        <ele>1174.0</ele>
        <time>2021-02-07T10:56:18Z</time>
      </trkpt>
      <trkpt lat="43.2877720" lon="-6.6760560">
        <ele>1174.0</ele>
        <time>2021-02-07T10:56:22Z</time>
      </trkpt>
      <trkpt lat="43.2878340" lon="-6.6760560">
        <ele>1173.0</ele>
        <time>2021-02-07T10:56:27Z</time>
      </trkpt>
      <trkpt lat="43.2878800" lon="-6.6760510">
        <ele>1172.0</ele>
        <time>2021-02-07T10:56:31Z</time>
      </trkpt>
      <trkpt lat="43.2879380" lon="-6.6760520">
        <ele>1172.0</ele>
        <time>2021-02-07T10:56:36Z</time>
      </trkpt>
      <trkpt lat="43.2879870" lon="-6.6760590">
        <ele>1172.0</ele>
        <time>2021-02-07T10:56:40Z</time>
      </trkpt>
      <trkpt lat="43.2880510" lon="-6.6760640">
        <ele>1171.0</ele>
        <time>2021-02-07T10:56:45Z</time>
      </trkpt>
      <trkpt lat="43.2881050" lon="-6.6760630">
        <ele>1171.0</ele>
        <time>2021-02-07T10:56:50Z</time>
      </trkpt>
      <trkpt lat="43.2881680" lon="-6.6760670">
        <ele>1171.0</ele>
        <time>2021-02-07T10:56:55Z</time>
      </trkpt>
      <trkpt lat="43.2882300" lon="-6.6760720">
        <ele>1170.0</ele>
        <time>2021-02-07T10:57:00Z</time>
      </trkpt>
      <trkpt lat="43.2882910" lon="-6.6760760">
        <ele>1170.0</ele>
        <time>2021-02-07T10:57:05Z</time>
      </trkpt>
      <trkpt lat="43.2883500" lon="-6.6760730">
        <ele>1169.0</ele>
        <time>2021-02-07T10:57:10Z</time>
      </trkpt>
      <trkpt lat="43.2884020" lon="-6.6760760">
        <ele>1169.0</ele>
        <time>2021-02-07T10:57:14Z</time>
      </trkpt>
      <trkpt lat="43.2884580" lon="-6.6760670">
        <ele>1168.0</ele>
        <time>2021-02-07T10:57:19Z</time>
      </trkpt>
      <trkpt lat="43.2885170" lon="-6.6760410">
        <ele>1168.0</ele>
        <time>2021-02-07T10:57:25Z</time>
      </trkpt>
      <trkpt lat="43.2885740" lon="-6.6760350">
        <ele>1167.0</ele>
        <time>2021-02-07T10:57:29Z</time>
      </trkpt>
      <trkpt lat="43.2886220" lon="-6.6760110">
        <ele>1167.0</ele>
        <time>2021-02-07T10:57:33Z</time>
      </trkpt>
      <trkpt lat="43.2886700" lon="-6.6759850">
        <ele>1166.0</ele>
        <time>2021-02-07T10:57:38Z</time>
      </trkpt>
      <trkpt lat="43.2887220" lon="-6.6759550">
        <ele>1165.0</ele>
        <time>2021-02-07T10:57:44Z</time>
      </trkpt>
      <trkpt lat="43.2887800" lon="-6.6759310">
        <ele>1165.0</ele>
        <time>2021-02-07T10:57:49Z</time>
      </trkpt>
      <trkpt lat="43.2888360" lon="-6.6759080">
        <ele>1164.0</ele>
        <time>2021-02-07T10:57:54Z</time>
      </trkpt>
      <trkpt lat="43.2888880" lon="-6.6758860">
        <ele>1164.0</ele>
        <time>2021-02-07T10:57:58Z</time>
      </trkpt>
      <trkpt lat="43.2889390" lon="-6.6758620">
        <ele>1163.0</ele>
        <time>2021-02-07T10:58:02Z</time>
      </trkpt>
      <trkpt lat="43.2889860" lon="-6.6758430">
        <ele>1163.0</ele>
        <time>2021-02-07T10:58:06Z</time>
      </trkpt>
      <trkpt lat="43.2890500" lon="-6.6758130">
        <ele>1162.0</ele>
        <time>2021-02-07T10:58:11Z</time>
      </trkpt>
      <trkpt lat="43.2891210" lon="-6.6757890">
        <ele>1162.0</ele>
        <time>2021-02-07T10:58:16Z</time>
      </trkpt>
      <trkpt lat="43.2891740" lon="-6.6757690">
        <ele>1162.0</ele>
        <time>2021-02-07T10:58:20Z</time>
      </trkpt>
      <trkpt lat="43.2892240" lon="-6.6757440">
        <ele>1162.0</ele>
        <time>2021-02-07T10:58:24Z</time>
      </trkpt>
      <trkpt lat="43.2892780" lon="-6.6757200">
        <ele>1161.0</ele>
        <time>2021-02-07T10:58:28Z</time>
      </trkpt>
      <trkpt lat="43.2893300" lon="-6.6756970">
        <ele>1161.0</ele>
        <time>2021-02-07T10:58:32Z</time>
      </trkpt>
      <trkpt lat="43.2893860" lon="-6.6756650">
        <ele>1160.0</ele>
        <time>2021-02-07T10:58:37Z</time>
      </trkpt>
      <trkpt lat="43.2894360" lon="-6.6756270">
        <ele>1160.0</ele>
        <time>2021-02-07T10:58:42Z</time>
      </trkpt>
      <trkpt lat="43.2894970" lon="-6.6755960">
        <ele>1159.0</ele>
        <time>2021-02-07T10:58:47Z</time>
      </trkpt>
      <trkpt lat="43.2895530" lon="-6.6755710">
        <ele>1158.0</ele>
        <time>2021-02-07T10:58:52Z</time>
      </trkpt>
      <trkpt lat="43.2896040" lon="-6.6755480">
        <ele>1158.0</ele>
        <time>2021-02-07T10:58:56Z</time>
      </trkpt>
      <trkpt lat="43.2896570" lon="-6.6755240">
        <ele>1158.0</ele>
        <time>2021-02-07T10:59:00Z</time>
      </trkpt>
      <trkpt lat="43.2897110" lon="-6.6754880">
        <ele>1157.0</ele>
        <time>2021-02-07T10:59:05Z</time>
      </trkpt>
      <trkpt lat="43.2897660" lon="-6.6754560">
        <ele>1156.0</ele>
        <time>2021-02-07T10:59:10Z</time>
      </trkpt>
      <trkpt lat="43.2898120" lon="-6.6754250">
        <ele>1156.0</ele>
        <time>2021-02-07T10:59:14Z</time>
      </trkpt>
      <trkpt lat="43.2898590" lon="-6.6753940">
        <ele>1156.0</ele>
        <time>2021-02-07T10:59:18Z</time>
      </trkpt>
      <trkpt lat="43.2899090" lon="-6.6753640">
        <ele>1156.0</ele>
        <time>2021-02-07T10:59:22Z</time>
      </trkpt>
      <trkpt lat="43.2899780" lon="-6.6753290">
        <ele>1155.0</ele>
        <time>2021-02-07T10:59:28Z</time>
      </trkpt>
      <trkpt lat="43.2900290" lon="-6.6752940">
        <ele>1154.0</ele>
        <time>2021-02-07T10:59:32Z</time>
      </trkpt>
      <trkpt lat="43.2900690" lon="-6.6752470">
        <ele>1154.0</ele>
        <time>2021-02-07T10:59:37Z</time>
      </trkpt>
      <trkpt lat="43.2901200" lon="-6.6752010">
        <ele>1153.0</ele>
        <time>2021-02-07T10:59:43Z</time>
      </trkpt>
      <trkpt lat="43.2901720" lon="-6.6751650">
        <ele>1153.0</ele>
        <time>2021-02-07T10:59:48Z</time>
      </trkpt>
      <trkpt lat="43.2902300" lon="-6.6751300">
        <ele>1152.0</ele>
        <time>2021-02-07T10:59:53Z</time>
      </trkpt>
      <trkpt lat="43.2902820" lon="-6.6750910">
        <ele>1151.0</ele>
        <time>2021-02-07T10:59:58Z</time>
      </trkpt>
      <trkpt lat="43.2903270" lon="-6.6750440">
        <ele>1151.0</ele>
        <time>2021-02-07T11:00:03Z</time>
      </trkpt>
      <trkpt lat="43.2903710" lon="-6.6750080">
        <ele>1150.0</ele>
        <time>2021-02-07T11:00:07Z</time>
      </trkpt>
      <trkpt lat="43.2904310" lon="-6.6749670">
        <ele>1150.0</ele>
        <time>2021-02-07T11:00:12Z</time>
      </trkpt>
      <trkpt lat="43.2904820" lon="-6.6749290">
        <ele>1150.0</ele>
        <time>2021-02-07T11:00:17Z</time>
      </trkpt>
      <trkpt lat="43.2905380" lon="-6.6748940">
        <ele>1149.0</ele>
        <time>2021-02-07T11:00:22Z</time>
      </trkpt>
      <trkpt lat="43.2905870" lon="-6.6748590">
        <ele>1149.0</ele>
        <time>2021-02-07T11:00:26Z</time>
      </trkpt>
      <trkpt lat="43.2906440" lon="-6.6748230">
        <ele>1148.0</ele>
        <time>2021-02-07T11:00:30Z</time>
      </trkpt>
      <trkpt lat="43.2906880" lon="-6.6747950">
        <ele>1148.0</ele>
        <time>2021-02-07T11:00:34Z</time>
      </trkpt>
      <trkpt lat="43.2907410" lon="-6.6747570">
        <ele>1148.0</ele>
        <time>2021-02-07T11:00:39Z</time>
      </trkpt>
      <trkpt lat="43.2907930" lon="-6.6747160">
        <ele>1147.0</ele>
        <time>2021-02-07T11:00:44Z</time>
      </trkpt>
      <trkpt lat="43.2908390" lon="-6.6746830">
        <ele>1147.0</ele>
        <time>2021-02-07T11:00:48Z</time>
      </trkpt>
      <trkpt lat="43.2908890" lon="-6.6746490">
        <ele>1147.0</ele>
        <time>2021-02-07T11:00:52Z</time>
      </trkpt>
      <trkpt lat="43.2909290" lon="-6.6746160">
        <ele>1146.0</ele>
        <time>2021-02-07T11:00:56Z</time>
      </trkpt>
      <trkpt lat="43.2909840" lon="-6.6745740">
        <ele>1146.0</ele>
        <time>2021-02-07T11:01:01Z</time>
      </trkpt>
      <trkpt lat="43.2910280" lon="-6.6745410">
        <ele>1146.0</ele>
        <time>2021-02-07T11:01:05Z</time>
      </trkpt>
      <trkpt lat="43.2910820" lon="-6.6745040">
        <ele>1145.0</ele>
        <time>2021-02-07T11:01:10Z</time>
      </trkpt>
      <trkpt lat="43.2911320" lon="-6.6744830">
        <ele>1145.0</ele>
        <time>2021-02-07T11:01:14Z</time>
      </trkpt>
      <trkpt lat="43.2911910" lon="-6.6744580">
        <ele>1145.0</ele>
        <time>2021-02-07T11:01:19Z</time>
      </trkpt>
      <trkpt lat="43.2912470" lon="-6.6744350">
        <ele>1144.0</ele>
        <time>2021-02-07T11:01:24Z</time>
      </trkpt>
      <trkpt lat="43.2912990" lon="-6.6744170">
        <ele>1144.0</ele>
        <time>2021-02-07T11:01:28Z</time>
      </trkpt>
      <trkpt lat="43.2913520" lon="-6.6743880">
        <ele>1144.0</ele>
        <time>2021-02-07T11:01:33Z</time>
      </trkpt>
      <trkpt lat="43.2914170" lon="-6.6743600">
        <ele>1144.0</ele>
        <time>2021-02-07T11:01:38Z</time>
      </trkpt>
      <trkpt lat="43.2914620" lon="-6.6743330">
        <ele>1144.0</ele>
        <time>2021-02-07T11:01:42Z</time>
      </trkpt>
      <trkpt lat="43.2915230" lon="-6.6743000">
        <ele>1143.0</ele>
        <time>2021-02-07T11:01:47Z</time>
      </trkpt>
      <trkpt lat="43.2915780" lon="-6.6742700">
        <ele>1143.0</ele>
        <time>2021-02-07T11:01:52Z</time>
      </trkpt>
      <trkpt lat="43.2916280" lon="-6.6742490">
        <ele>1142.0</ele>
        <time>2021-02-07T11:01:56Z</time>
      </trkpt>
      <trkpt lat="43.2916760" lon="-6.6742310">
        <ele>1142.0</ele>
        <time>2021-02-07T11:02:00Z</time>
      </trkpt>
      <trkpt lat="43.2917260" lon="-6.6742070">
        <ele>1141.0</ele>
        <time>2021-02-07T11:02:04Z</time>
      </trkpt>
      <trkpt lat="43.2917780" lon="-6.6741730">
        <ele>1141.0</ele>
        <time>2021-02-07T11:02:09Z</time>
      </trkpt>
      <trkpt lat="43.2918380" lon="-6.6741570">
        <ele>1141.0</ele>
        <time>2021-02-07T11:02:13Z</time>
      </trkpt>
      <trkpt lat="43.2918970" lon="-6.6741340">
        <ele>1140.0</ele>
        <time>2021-02-07T11:02:18Z</time>
      </trkpt>
      <trkpt lat="43.2919520" lon="-6.6741180">
        <ele>1140.0</ele>
        <time>2021-02-07T11:02:22Z</time>
      </trkpt>
      <trkpt lat="43.2920070" lon="-6.6740960">
        <ele>1139.0</ele>
        <time>2021-02-07T11:02:26Z</time>
      </trkpt>
      <trkpt lat="43.2920590" lon="-6.6740770">
        <ele>1139.0</ele>
        <time>2021-02-07T11:02:30Z</time>
      </trkpt>
      <trkpt lat="43.2921150" lon="-6.6740610">
        <ele>1139.0</ele>
        <time>2021-02-07T11:02:34Z</time>
      </trkpt>
      <trkpt lat="43.2921730" lon="-6.6740410">
        <ele>1138.0</ele>
        <time>2021-02-07T11:02:39Z</time>
      </trkpt>
      <trkpt lat="43.2922240" lon="-6.6740140">
        <ele>1138.0</ele>
        <time>2021-02-07T11:02:44Z</time>
      </trkpt>
      <trkpt lat="43.2922750" lon="-6.6739910">
        <ele>1138.0</ele>
        <time>2021-02-07T11:02:48Z</time>
      </trkpt>
      <trkpt lat="43.2923260" lon="-6.6739720">
        <ele>1137.0</ele>
        <time>2021-02-07T11:02:52Z</time>
      </trkpt>
      <trkpt lat="43.2923780" lon="-6.6739440">
        <ele>1137.0</ele>
        <time>2021-02-07T11:02:57Z</time>
      </trkpt>
      <trkpt lat="43.2924280" lon="-6.6739170">
        <ele>1137.0</ele>
        <time>2021-02-07T11:03:02Z</time>
      </trkpt>
      <trkpt lat="43.2924790" lon="-6.6738980">
        <ele>1136.0</ele>
        <time>2021-02-07T11:03:06Z</time>
      </trkpt>
      <trkpt lat="43.2925410" lon="-6.6738720">
        <ele>1136.0</ele>
        <time>2021-02-07T11:03:11Z</time>
      </trkpt>
      <trkpt lat="43.2925950" lon="-6.6738420">
        <ele>1135.0</ele>
        <time>2021-02-07T11:03:16Z</time>
      </trkpt>
      <trkpt lat="43.2926380" lon="-6.6738160">
        <ele>1135.0</ele>
        <time>2021-02-07T11:03:20Z</time>
      </trkpt>
      <trkpt lat="43.2926970" lon="-6.6737810">
        <ele>1135.0</ele>
        <time>2021-02-07T11:03:25Z</time>
      </trkpt>
      <trkpt lat="43.2927470" lon="-6.6737480">
        <ele>1134.0</ele>
        <time>2021-02-07T11:03:30Z</time>
      </trkpt>
      <trkpt lat="43.2928030" lon="-6.6737310">
        <ele>1134.0</ele>
        <time>2021-02-07T11:03:34Z</time>
      </trkpt>
      <trkpt lat="43.2928530" lon="-6.6737130">
        <ele>1134.0</ele>
        <time>2021-02-07T11:03:38Z</time>
      </trkpt>
      <trkpt lat="43.2929020" lon="-6.6736950">
        <ele>1134.0</ele>
        <time>2021-02-07T11:03:42Z</time>
      </trkpt>
      <trkpt lat="43.2929560" lon="-6.6736790">
        <ele>1133.0</ele>
        <time>2021-02-07T11:03:47Z</time>
      </trkpt>
      <trkpt lat="43.2930050" lon="-6.6736630">
        <ele>1132.0</ele>
        <time>2021-02-07T11:03:52Z</time>
      </trkpt>
      <trkpt lat="43.2930590" lon="-6.6736410">
        <ele>1131.0</ele>
        <time>2021-02-07T11:04:00Z</time>
      </trkpt>
      <trkpt lat="43.2931060" lon="-6.6736240">
        <ele>1130.0</ele>
        <time>2021-02-07T11:04:06Z</time>
      </trkpt>
      <trkpt lat="43.2931620" lon="-6.6735930">
        <ele>1130.0</ele>
        <time>2021-02-07T11:04:12Z</time>
      </trkpt>
      <trkpt lat="43.2932060" lon="-6.6735720">
        <ele>1129.0</ele>
        <time>2021-02-07T11:04:16Z</time>
      </trkpt>
      <trkpt lat="43.2932560" lon="-6.6735450">
        <ele>1128.0</ele>
        <time>2021-02-07T11:04:21Z</time>
      </trkpt>
      <trkpt lat="43.2933150" lon="-6.6735200">
        <ele>1128.0</ele>
        <time>2021-02-07T11:04:26Z</time>
      </trkpt>
      <trkpt lat="43.2933640" lon="-6.6734990">
        <ele>1127.0</ele>
        <time>2021-02-07T11:04:30Z</time>
      </trkpt>
      <trkpt lat="43.2934120" lon="-6.6734800">
        <ele>1127.0</ele>
        <time>2021-02-07T11:04:34Z</time>
      </trkpt>
      <trkpt lat="43.2934710" lon="-6.6734530">
        <ele>1126.0</ele>
        <time>2021-02-07T11:04:39Z</time>
      </trkpt>
      <trkpt lat="43.2935350" lon="-6.6734260">
        <ele>1126.0</ele>
        <time>2021-02-07T11:04:44Z</time>
      </trkpt>
      <trkpt lat="43.2935870" lon="-6.6733900">
        <ele>1126.0</ele>
        <time>2021-02-07T11:04:49Z</time>
      </trkpt>
      <trkpt lat="43.2936410" lon="-6.6733430">
        <ele>1125.0</ele>
        <time>2021-02-07T11:04:54Z</time>
      </trkpt>
      <trkpt lat="43.2936900" lon="-6.6732890">
        <ele>1125.0</ele>
        <time>2021-02-07T11:04:59Z</time>
      </trkpt>
      <trkpt lat="43.2937240" lon="-6.6732250">
        <ele>1125.0</ele>
        <time>2021-02-07T11:05:04Z</time>
      </trkpt>
      <trkpt lat="43.2937600" lon="-6.6731750">
        <ele>1125.0</ele>
        <time>2021-02-07T11:05:08Z</time>
      </trkpt>
      <trkpt lat="43.2938050" lon="-6.6731240">
        <ele>1125.0</ele>
        <time>2021-02-07T11:05:13Z</time>
      </trkpt>
      <trkpt lat="43.2938510" lon="-6.6730710">
        <ele>1124.0</ele>
        <time>2021-02-07T11:05:18Z</time>
      </trkpt>
      <trkpt lat="43.2938940" lon="-6.6730150">
        <ele>1124.0</ele>
        <time>2021-02-07T11:05:23Z</time>
      </trkpt>
      <trkpt lat="43.2939450" lon="-6.6729630">
        <ele>1124.0</ele>
        <time>2021-02-07T11:05:28Z</time>
      </trkpt>
      <trkpt lat="43.2939810" lon="-6.6729110">
        <ele>1124.0</ele>
        <time>2021-02-07T11:05:32Z</time>
      </trkpt>
      <trkpt lat="43.2940130" lon="-6.6728540">
        <ele>1124.0</ele>
        <time>2021-02-07T11:05:37Z</time>
      </trkpt>
      <trkpt lat="43.2940480" lon="-6.6727900">
        <ele>1123.0</ele>
        <time>2021-02-07T11:05:42Z</time>
      </trkpt>
      <trkpt lat="43.2940730" lon="-6.6727190">
        <ele>1123.0</ele>
        <time>2021-02-07T11:05:46Z</time>
      </trkpt>
      <trkpt lat="43.2940900" lon="-6.6726530">
        <ele>1123.0</ele>
        <time>2021-02-07T11:05:50Z</time>
      </trkpt>
      <trkpt lat="43.2941140" lon="-6.6725880">
        <ele>1122.0</ele>
        <time>2021-02-07T11:05:55Z</time>
      </trkpt>
      <trkpt lat="43.2941280" lon="-6.6725140">
        <ele>1122.0</ele>
        <time>2021-02-07T11:06:00Z</time>
      </trkpt>
      <trkpt lat="43.2941310" lon="-6.6724490">
        <ele>1121.0</ele>
        <time>2021-02-07T11:06:04Z</time>
      </trkpt>
      <trkpt lat="43.2941490" lon="-6.6723750">
        <ele>1120.0</ele>
        <time>2021-02-07T11:06:10Z</time>
      </trkpt>
      <trkpt lat="43.2941610" lon="-6.6722960">
        <ele>1120.0</ele>
        <time>2021-02-07T11:06:15Z</time>
      </trkpt>
      <trkpt lat="43.2941880" lon="-6.6722310">
        <ele>1119.0</ele>
        <time>2021-02-07T11:06:19Z</time>
      </trkpt>
      <trkpt lat="43.2942220" lon="-6.6721560">
        <ele>1119.0</ele>
        <time>2021-02-07T11:06:24Z</time>
      </trkpt>
      <trkpt lat="43.2942480" lon="-6.6720890">
        <ele>1119.0</ele>
        <time>2021-02-07T11:06:29Z</time>
      </trkpt>
      <trkpt lat="43.2942720" lon="-6.6720350">
        <ele>1118.0</ele>
        <time>2021-02-07T11:06:34Z</time>
      </trkpt>
      <trkpt lat="43.2942940" lon="-6.6719520">
        <ele>1118.0</ele>
        <time>2021-02-07T11:06:41Z</time>
      </trkpt>
      <trkpt lat="43.2943210" lon="-6.6718790">
        <ele>1117.0</ele>
        <time>2021-02-07T11:06:46Z</time>
      </trkpt>
      <trkpt lat="43.2943540" lon="-6.6718120">
        <ele>1117.0</ele>
        <time>2021-02-07T11:06:51Z</time>
      </trkpt>
      <trkpt lat="43.2943990" lon="-6.6717430">
        <ele>1116.0</ele>
        <time>2021-02-07T11:06:56Z</time>
      </trkpt>
      <trkpt lat="43.2944410" lon="-6.6716890">
        <ele>1116.0</ele>
        <time>2021-02-07T11:07:00Z</time>
      </trkpt>
      <trkpt lat="43.2944840" lon="-6.6716240">
        <ele>1117.0</ele>
        <time>2021-02-07T11:07:05Z</time>
      </trkpt>
      <trkpt lat="43.2945260" lon="-6.6715650">
        <ele>1117.0</ele>
        <time>2021-02-07T11:07:10Z</time>
      </trkpt>
      <trkpt lat="43.2945580" lon="-6.6715120">
        <ele>1117.0</ele>
        <time>2021-02-07T11:07:14Z</time>
      </trkpt>
      <trkpt lat="43.2945990" lon="-6.6714630">
        <ele>1116.0</ele>
        <time>2021-02-07T11:07:18Z</time>
      </trkpt>
      <trkpt lat="43.2946410" lon="-6.6714130">
        <ele>1115.0</ele>
        <time>2021-02-07T11:07:23Z</time>
      </trkpt>
      <trkpt lat="43.2946880" lon="-6.6713710">
        <ele>1114.0</ele>
        <time>2021-02-07T11:07:28Z</time>
      </trkpt>
      <trkpt lat="43.2947480" lon="-6.6713340">
        <ele>1113.0</ele>
        <time>2021-02-07T11:07:33Z</time>
      </trkpt>
      <trkpt lat="43.2947960" lon="-6.6713080">
        <ele>1113.0</ele>
        <time>2021-02-07T11:07:37Z</time>
      </trkpt>
      <trkpt lat="43.2948510" lon="-6.6712770">
        <ele>1113.0</ele>
        <time>2021-02-07T11:07:42Z</time>
      </trkpt>
      <trkpt lat="43.2949030" lon="-6.6712620">
        <ele>1113.0</ele>
        <time>2021-02-07T11:07:47Z</time>
      </trkpt>
      <trkpt lat="43.2949540" lon="-6.6712450">
        <ele>1112.0</ele>
        <time>2021-02-07T11:07:52Z</time>
      </trkpt>
      <trkpt lat="43.2950070" lon="-6.6712220">
        <ele>1112.0</ele>
        <time>2021-02-07T11:07:57Z</time>
      </trkpt>
      <trkpt lat="43.2950560" lon="-6.6712000">
        <ele>1112.0</ele>
        <time>2021-02-07T11:08:01Z</time>
      </trkpt>
      <trkpt lat="43.2951040" lon="-6.6711800">
        <ele>1112.0</ele>
        <time>2021-02-07T11:08:05Z</time>
      </trkpt>
      <trkpt lat="43.2951670" lon="-6.6711490">
        <ele>1112.0</ele>
        <time>2021-02-07T11:08:10Z</time>
      </trkpt>
      <trkpt lat="43.2952390" lon="-6.6711160">
        <ele>1112.0</ele>
        <time>2021-02-07T11:08:16Z</time>
      </trkpt>
      <trkpt lat="43.2952920" lon="-6.6710940">
        <ele>1112.0</ele>
        <time>2021-02-07T11:08:20Z</time>
      </trkpt>
      <trkpt lat="43.2953420" lon="-6.6710660">
        <ele>1112.0</ele>
        <time>2021-02-07T11:08:24Z</time>
      </trkpt>
      <trkpt lat="43.2953940" lon="-6.6710370">
        <ele>1111.0</ele>
        <time>2021-02-07T11:08:29Z</time>
      </trkpt>
      <trkpt lat="43.2954330" lon="-6.6709870">
        <ele>1110.0</ele>
        <time>2021-02-07T11:08:34Z</time>
      </trkpt>
      <trkpt lat="43.2954760" lon="-6.6710200">
        <ele>1110.0</ele>
        <time>2021-02-07T11:08:40Z</time>
      </trkpt>
      <trkpt lat="43.2955080" lon="-6.6710710">
        <ele>1110.0</ele>
        <time>2021-02-07T11:08:44Z</time>
      </trkpt>
      <trkpt lat="43.2955540" lon="-6.6711350">
        <ele>1110.0</ele>
        <time>2021-02-07T11:08:49Z</time>
      </trkpt>
      <trkpt lat="43.2955980" lon="-6.6711650">
        <ele>1110.0</ele>
        <time>2021-02-07T11:08:53Z</time>
      </trkpt>
      <trkpt lat="43.2956470" lon="-6.6711800">
        <ele>1110.0</ele>
        <time>2021-02-07T11:09:00Z</time>
      </trkpt>
      <trkpt lat="43.2957100" lon="-6.6711830">
        <ele>1109.0</ele>
        <time>2021-02-07T11:09:09Z</time>
      </trkpt>
      <trkpt lat="43.2957690" lon="-6.6711890">
        <ele>1108.0</ele>
        <time>2021-02-07T11:09:14Z</time>
      </trkpt>
      <trkpt lat="43.2958280" lon="-6.6711940">
        <ele>1108.0</ele>
        <time>2021-02-07T11:09:19Z</time>
      </trkpt>
      <trkpt lat="43.2959140" lon="-6.6712050">
        <ele>1106.0</ele>
        <time>2021-02-07T11:09:38Z</time>
      </trkpt>
      <trkpt lat="43.2959640" lon="-6.6712110">
        <ele>1105.0</ele>
        <time>2021-02-07T11:09:43Z</time>
      </trkpt>
      <trkpt lat="43.2960190" lon="-6.6712160">
        <ele>1105.0</ele>
        <time>2021-02-07T11:09:48Z</time>
      </trkpt>
      <trkpt lat="43.2960010" lon="-6.6712080">
        <ele>1105.0</ele>
        <time>2021-02-07T11:10:09Z</time>
      </trkpt>
      <trkpt lat="43.2959510" lon="-6.6711980">
        <ele>1106.0</ele>
        <time>2021-02-07T11:10:13Z</time>
      </trkpt>
      <trkpt lat="43.2958920" lon="-6.6711950">
        <ele>1106.0</ele>
        <time>2021-02-07T11:10:18Z</time>
      </trkpt>
      <trkpt lat="43.2958390" lon="-6.6711960">
        <ele>1106.0</ele>
        <time>2021-02-07T11:10:22Z</time>
      </trkpt>
      <trkpt lat="43.2957870" lon="-6.6711820">
        <ele>1107.0</ele>
        <time>2021-02-07T11:10:26Z</time>
      </trkpt>
      <trkpt lat="43.2957360" lon="-6.6711570">
        <ele>1108.0</ele>
        <time>2021-02-07T11:10:30Z</time>
      </trkpt>
      <trkpt lat="43.2956730" lon="-6.6711210">
        <ele>1110.0</ele>
        <time>2021-02-07T11:10:35Z</time>
      </trkpt>
      <trkpt lat="43.2956210" lon="-6.6710900">
        <ele>1111.0</ele>
        <time>2021-02-07T11:10:39Z</time>
      </trkpt>
      <trkpt lat="43.2955760" lon="-6.6710430">
        <ele>1111.0</ele>
        <time>2021-02-07T11:10:43Z</time>
      </trkpt>
      <trkpt lat="43.2955430" lon="-6.6709790">
        <ele>1111.0</ele>
        <time>2021-02-07T11:10:47Z</time>
      </trkpt>
      <trkpt lat="43.2955300" lon="-6.6709120">
        <ele>1111.0</ele>
        <time>2021-02-07T11:10:51Z</time>
      </trkpt>
      <trkpt lat="43.2955410" lon="-6.6708420">
        <ele>1110.0</ele>
        <time>2021-02-07T11:10:58Z</time>
      </trkpt>
      <trkpt lat="43.2955540" lon="-6.6707710">
        <ele>1110.0</ele>
        <time>2021-02-07T11:11:03Z</time>
      </trkpt>
      <trkpt lat="43.2955920" lon="-6.6707330">
        <ele>1109.0</ele>
        <time>2021-02-07T11:11:12Z</time>
      </trkpt>
      <trkpt lat="43.2956510" lon="-6.6706950">
        <ele>1109.0</ele>
        <time>2021-02-07T11:11:17Z</time>
      </trkpt>
      <trkpt lat="43.2956990" lon="-6.6706510">
        <ele>1108.0</ele>
        <time>2021-02-07T11:11:22Z</time>
      </trkpt>
      <trkpt lat="43.2957330" lon="-6.6706100">
        <ele>1108.0</ele>
        <time>2021-02-07T11:11:26Z</time>
      </trkpt>
      <trkpt lat="43.2957730" lon="-6.6705580">
        <ele>1107.0</ele>
        <time>2021-02-07T11:11:31Z</time>
      </trkpt>
      <trkpt lat="43.2958130" lon="-6.6705050">
        <ele>1107.0</ele>
        <time>2021-02-07T11:11:37Z</time>
      </trkpt>
      <trkpt lat="43.2958580" lon="-6.6704590">
        <ele>1107.0</ele>
        <time>2021-02-07T11:11:42Z</time>
      </trkpt>
      <trkpt lat="43.2959070" lon="-6.6704140">
        <ele>1107.0</ele>
        <time>2021-02-07T11:11:46Z</time>
      </trkpt>
      <trkpt lat="43.2959480" lon="-6.6703990">
        <ele>1106.0</ele>
        <time>2021-02-07T11:11:50Z</time>
      </trkpt>
      <trkpt lat="43.2960010" lon="-6.6703890">
        <ele>1107.0</ele>
        <time>2021-02-07T11:12:03Z</time>
      </trkpt>
      <trkpt lat="43.2960460" lon="-6.6703980">
        <ele>1108.0</ele>
        <time>2021-02-07T11:12:12Z</time>
      </trkpt>
      <trkpt lat="43.2960980" lon="-6.6704250">
        <ele>1108.0</ele>
        <time>2021-02-07T11:12:31Z</time>
      </trkpt>
      <trkpt lat="43.2961360" lon="-6.6704600">
        <ele>1109.0</ele>
        <time>2021-02-07T11:12:37Z</time>
      </trkpt>
      <trkpt lat="43.2961750" lon="-6.6704980">
        <ele>1111.0</ele>
        <time>2021-02-07T11:12:48Z</time>
      </trkpt>
      <trkpt lat="43.2962200" lon="-6.6705410">
        <ele>1112.0</ele>
        <time>2021-02-07T11:12:57Z</time>
      </trkpt>
      <trkpt lat="43.2962360" lon="-6.6706100">
        <ele>1114.0</ele>
        <time>2021-02-07T11:13:08Z</time>
      </trkpt>
      <trkpt lat="43.2962640" lon="-6.6706790">
        <ele>1116.0</ele>
        <time>2021-02-07T11:13:16Z</time>
      </trkpt>
      <trkpt lat="43.2963080" lon="-6.6707190">
        <ele>1117.0</ele>
        <time>2021-02-07T11:13:23Z</time>
      </trkpt>
      <trkpt lat="43.2963570" lon="-6.6707020">
        <ele>1117.0</ele>
        <time>2021-02-07T11:13:34Z</time>
      </trkpt>
      <trkpt lat="43.2964050" lon="-6.6706810">
        <ele>1117.0</ele>
        <time>2021-02-07T11:13:40Z</time>
      </trkpt>
      <trkpt lat="43.2964520" lon="-6.6706540">
        <ele>1117.0</ele>
        <time>2021-02-07T11:13:49Z</time>
      </trkpt>
      <trkpt lat="43.2965040" lon="-6.6706560">
        <ele>1118.0</ele>
        <time>2021-02-07T11:14:15Z</time>
      </trkpt>
      <trkpt lat="43.2966830" lon="-6.6705770">
        <ele>1118.0</ele>
        <time>2021-02-07T11:15:03Z</time>
      </trkpt>
      <trkpt lat="43.2967270" lon="-6.6705300">
        <ele>1118.0</ele>
        <time>2021-02-07T11:15:33Z</time>
      </trkpt>
      <trkpt lat="43.2967770" lon="-6.6704900">
        <ele>1118.0</ele>
        <time>2021-02-07T11:15:37Z</time>
      </trkpt>
      <trkpt lat="43.2968210" lon="-6.6704590">
        <ele>1118.0</ele>
        <time>2021-02-07T11:15:41Z</time>
      </trkpt>
      <trkpt lat="43.2968700" lon="-6.6704260">
        <ele>1118.0</ele>
        <time>2021-02-07T11:15:46Z</time>
      </trkpt>
      <trkpt lat="43.2969180" lon="-6.6703880">
        <ele>1118.0</ele>
        <time>2021-02-07T11:15:57Z</time>
      </trkpt>
      <trkpt lat="43.2969560" lon="-6.6703610">
        <ele>1118.0</ele>
        <time>2021-02-07T11:16:03Z</time>
      </trkpt>
      <trkpt lat="43.2970030" lon="-6.6703110">
        <ele>1119.0</ele>
        <time>2021-02-07T11:16:11Z</time>
      </trkpt>
      <trkpt lat="43.2970480" lon="-6.6702700">
        <ele>1119.0</ele>
        <time>2021-02-07T11:16:17Z</time>
      </trkpt>
      <trkpt lat="43.2970940" lon="-6.6702310">
        <ele>1119.0</ele>
        <time>2021-02-07T11:16:23Z</time>
      </trkpt>
      <trkpt lat="43.2971460" lon="-6.6701840">
        <ele>1119.0</ele>
        <time>2021-02-07T11:16:28Z</time>
      </trkpt>
      <trkpt lat="43.2971860" lon="-6.6701350">
        <ele>1120.0</ele>
        <time>2021-02-07T11:16:34Z</time>
      </trkpt>
      <trkpt lat="43.2972230" lon="-6.6700770">
        <ele>1121.0</ele>
        <time>2021-02-07T11:16:42Z</time>
      </trkpt>
      <trkpt lat="43.2972640" lon="-6.6700280">
        <ele>1121.0</ele>
        <time>2021-02-07T11:16:48Z</time>
      </trkpt>
      <trkpt lat="43.2972960" lon="-6.6699760">
        <ele>1121.0</ele>
        <time>2021-02-07T11:16:53Z</time>
      </trkpt>
      <trkpt lat="43.2973400" lon="-6.6699360">
        <ele>1122.0</ele>
        <time>2021-02-07T11:16:59Z</time>
      </trkpt>
      <trkpt lat="43.2973930" lon="-6.6698810">
        <ele>1122.0</ele>
        <time>2021-02-07T11:17:05Z</time>
      </trkpt>
      <trkpt lat="43.2974340" lon="-6.6698290">
        <ele>1123.0</ele>
        <time>2021-02-07T11:17:10Z</time>
      </trkpt>
      <trkpt lat="43.2974710" lon="-6.6697680">
        <ele>1123.0</ele>
        <time>2021-02-07T11:17:15Z</time>
      </trkpt>
      <trkpt lat="43.2975080" lon="-6.6697270">
        <ele>1123.0</ele>
        <time>2021-02-07T11:17:19Z</time>
      </trkpt>
      <trkpt lat="43.2975550" lon="-6.6696960">
        <ele>1123.0</ele>
        <time>2021-02-07T11:17:23Z</time>
      </trkpt>
      <trkpt lat="43.2976070" lon="-6.6696550">
        <ele>1123.0</ele>
        <time>2021-02-07T11:17:28Z</time>
      </trkpt>
      <trkpt lat="43.2976440" lon="-6.6696140">
        <ele>1123.0</ele>
        <time>2021-02-07T11:17:33Z</time>
      </trkpt>
      <trkpt lat="43.2976810" lon="-6.6695690">
        <ele>1123.0</ele>
        <time>2021-02-07T11:17:38Z</time>
      </trkpt>
      <trkpt lat="43.2977190" lon="-6.6695160">
        <ele>1124.0</ele>
        <time>2021-02-07T11:17:44Z</time>
      </trkpt>
      <trkpt lat="43.2977600" lon="-6.6694680">
        <ele>1124.0</ele>
        <time>2021-02-07T11:17:50Z</time>
      </trkpt>
      <trkpt lat="43.2978060" lon="-6.6694260">
        <ele>1125.0</ele>
        <time>2021-02-07T11:17:56Z</time>
      </trkpt>
      <trkpt lat="43.2978560" lon="-6.6693970">
        <ele>1125.0</ele>
        <time>2021-02-07T11:18:02Z</time>
      </trkpt>
      <trkpt lat="43.2979070" lon="-6.6693590">
        <ele>1126.0</ele>
        <time>2021-02-07T11:18:08Z</time>
      </trkpt>
      <trkpt lat="43.2979650" lon="-6.6693210">
        <ele>1126.0</ele>
        <time>2021-02-07T11:18:14Z</time>
      </trkpt>
      <trkpt lat="43.2980100" lon="-6.6692590">
        <ele>1127.0</ele>
        <time>2021-02-07T11:18:20Z</time>
      </trkpt>
      <trkpt lat="43.2980440" lon="-6.6692220">
        <ele>1127.0</ele>
        <time>2021-02-07T11:18:24Z</time>
      </trkpt>
      <trkpt lat="43.2980840" lon="-6.6691690">
        <ele>1128.0</ele>
        <time>2021-02-07T11:18:29Z</time>
      </trkpt>
      <trkpt lat="43.2981140" lon="-6.6691160">
        <ele>1128.0</ele>
        <time>2021-02-07T11:18:34Z</time>
      </trkpt>
      <trkpt lat="43.2981490" lon="-6.6690490">
        <ele>1128.0</ele>
        <time>2021-02-07T11:18:41Z</time>
      </trkpt>
      <trkpt lat="43.2981740" lon="-6.6689940">
        <ele>1129.0</ele>
        <time>2021-02-07T11:18:46Z</time>
      </trkpt>
      <trkpt lat="43.2982140" lon="-6.6689390">
        <ele>1129.0</ele>
        <time>2021-02-07T11:18:53Z</time>
      </trkpt>
      <trkpt lat="43.2982580" lon="-6.6688970">
        <ele>1129.0</ele>
        <time>2021-02-07T11:18:59Z</time>
      </trkpt>
      <trkpt lat="43.2982950" lon="-6.6688530">
        <ele>1130.0</ele>
        <time>2021-02-07T11:19:05Z</time>
      </trkpt>
      <trkpt lat="43.2983290" lon="-6.6687830">
        <ele>1130.0</ele>
        <time>2021-02-07T11:19:12Z</time>
      </trkpt>
      <trkpt lat="43.2983640" lon="-6.6687310">
        <ele>1131.0</ele>
        <time>2021-02-07T11:19:17Z</time>
      </trkpt>
      <trkpt lat="43.2983950" lon="-6.6686780">
        <ele>1132.0</ele>
        <time>2021-02-07T11:19:24Z</time>
      </trkpt>
      <trkpt lat="43.2984360" lon="-6.6686370">
        <ele>1133.0</ele>
        <time>2021-02-07T11:19:32Z</time>
      </trkpt>
      <trkpt lat="43.2984690" lon="-6.6685780">
        <ele>1133.0</ele>
        <time>2021-02-07T11:19:41Z</time>
      </trkpt>
      <trkpt lat="43.2985090" lon="-6.6685150">
        <ele>1134.0</ele>
        <time>2021-02-07T11:19:48Z</time>
      </trkpt>
      <trkpt lat="43.2985390" lon="-6.6684640">
        <ele>1134.0</ele>
        <time>2021-02-07T11:19:53Z</time>
      </trkpt>
      <trkpt lat="43.2985800" lon="-6.6684040">
        <ele>1135.0</ele>
        <time>2021-02-07T11:20:01Z</time>
      </trkpt>
      <trkpt lat="43.2986210" lon="-6.6683560">
        <ele>1135.0</ele>
        <time>2021-02-07T11:20:06Z</time>
      </trkpt>
      <trkpt lat="43.2986540" lon="-6.6683010">
        <ele>1136.0</ele>
        <time>2021-02-07T11:20:12Z</time>
      </trkpt>
      <trkpt lat="43.2986920" lon="-6.6682210">
        <ele>1136.0</ele>
        <time>2021-02-07T11:20:19Z</time>
      </trkpt>
      <trkpt lat="43.2987270" lon="-6.6681640">
        <ele>1136.0</ele>
        <time>2021-02-07T11:20:24Z</time>
      </trkpt>
      <trkpt lat="43.2987620" lon="-6.6680940">
        <ele>1137.0</ele>
        <time>2021-02-07T11:20:30Z</time>
      </trkpt>
      <trkpt lat="43.2988010" lon="-6.6680370">
        <ele>1137.0</ele>
        <time>2021-02-07T11:20:36Z</time>
      </trkpt>
      <trkpt lat="43.2988310" lon="-6.6679780">
        <ele>1138.0</ele>
        <time>2021-02-07T11:20:41Z</time>
      </trkpt>
      <trkpt lat="43.2988670" lon="-6.6679140">
        <ele>1138.0</ele>
        <time>2021-02-07T11:20:47Z</time>
      </trkpt>
      <trkpt lat="43.2989000" lon="-6.6678670">
        <ele>1138.0</ele>
        <time>2021-02-07T11:20:52Z</time>
      </trkpt>
      <trkpt lat="43.2989350" lon="-6.6678190">
        <ele>1138.0</ele>
        <time>2021-02-07T11:20:59Z</time>
      </trkpt>
      <trkpt lat="43.2989730" lon="-6.6677540">
        <ele>1138.0</ele>
        <time>2021-02-07T11:21:06Z</time>
      </trkpt>
      <trkpt lat="43.2990250" lon="-6.6677030">
        <ele>1139.0</ele>
        <time>2021-02-07T11:21:13Z</time>
      </trkpt>
      <trkpt lat="43.2990700" lon="-6.6676520">
        <ele>1139.0</ele>
        <time>2021-02-07T11:21:20Z</time>
      </trkpt>
      <trkpt lat="43.2991040" lon="-6.6675940">
        <ele>1140.0</ele>
        <time>2021-02-07T11:21:26Z</time>
      </trkpt>
      <trkpt lat="43.2991420" lon="-6.6675390">
        <ele>1140.0</ele>
        <time>2021-02-07T11:21:32Z</time>
      </trkpt>
      <trkpt lat="43.2991620" lon="-6.6674820">
        <ele>1141.0</ele>
        <time>2021-02-07T11:21:39Z</time>
      </trkpt>
      <trkpt lat="43.2992080" lon="-6.6674260">
        <ele>1141.0</ele>
        <time>2021-02-07T11:21:45Z</time>
      </trkpt>
      <trkpt lat="43.2992570" lon="-6.6673870">
        <ele>1141.0</ele>
        <time>2021-02-07T11:21:50Z</time>
      </trkpt>
      <trkpt lat="43.2993030" lon="-6.6673440">
        <ele>1142.0</ele>
        <time>2021-02-07T11:21:55Z</time>
      </trkpt>
      <trkpt lat="43.2993570" lon="-6.6672910">
        <ele>1142.0</ele>
        <time>2021-02-07T11:22:00Z</time>
      </trkpt>
      <trkpt lat="43.2993980" lon="-6.6672570">
        <ele>1142.0</ele>
        <time>2021-02-07T11:22:04Z</time>
      </trkpt>
      <trkpt lat="43.2994420" lon="-6.6672080">
        <ele>1142.0</ele>
        <time>2021-02-07T11:22:10Z</time>
      </trkpt>
      <trkpt lat="43.2994800" lon="-6.6671640">
        <ele>1142.0</ele>
        <time>2021-02-07T11:22:16Z</time>
      </trkpt>
      <trkpt lat="43.2995230" lon="-6.6671210">
        <ele>1143.0</ele>
        <time>2021-02-07T11:22:22Z</time>
      </trkpt>
      <trkpt lat="43.2995680" lon="-6.6670820">
        <ele>1143.0</ele>
        <time>2021-02-07T11:22:29Z</time>
      </trkpt>
      <trkpt lat="43.2996090" lon="-6.6670350">
        <ele>1144.0</ele>
        <time>2021-02-07T11:22:35Z</time>
      </trkpt>
      <trkpt lat="43.2996550" lon="-6.6669810">
        <ele>1144.0</ele>
        <time>2021-02-07T11:22:41Z</time>
      </trkpt>
      <trkpt lat="43.2997010" lon="-6.6669350">
        <ele>1145.0</ele>
        <time>2021-02-07T11:22:47Z</time>
      </trkpt>
      <trkpt lat="43.2997530" lon="-6.6669020">
        <ele>1145.0</ele>
        <time>2021-02-07T11:22:52Z</time>
      </trkpt>
      <trkpt lat="43.2998000" lon="-6.6668750">
        <ele>1145.0</ele>
        <time>2021-02-07T11:22:57Z</time>
      </trkpt>
      <trkpt lat="43.2998370" lon="-6.6668270">
        <ele>1145.0</ele>
        <time>2021-02-07T11:23:03Z</time>
      </trkpt>
      <trkpt lat="43.2998870" lon="-6.6667870">
        <ele>1145.0</ele>
        <time>2021-02-07T11:23:08Z</time>
      </trkpt>
      <trkpt lat="43.2999410" lon="-6.6667490">
        <ele>1145.0</ele>
        <time>2021-02-07T11:23:13Z</time>
      </trkpt>
      <trkpt lat="43.2999840" lon="-6.6667330">
        <ele>1145.0</ele>
        <time>2021-02-07T11:23:18Z</time>
      </trkpt>
      <trkpt lat="43.3000320" lon="-6.6667020">
        <ele>1144.0</ele>
        <time>2021-02-07T11:23:26Z</time>
      </trkpt>
      <trkpt lat="43.3000800" lon="-6.6666690">
        <ele>1143.0</ele>
        <time>2021-02-07T11:23:32Z</time>
      </trkpt>
      <trkpt lat="43.3001240" lon="-6.6666320">
        <ele>1142.0</ele>
        <time>2021-02-07T11:23:39Z</time>
      </trkpt>
      <trkpt lat="43.3001750" lon="-6.6665840">
        <ele>1141.0</ele>
        <time>2021-02-07T11:23:46Z</time>
      </trkpt>
      <trkpt lat="43.3002260" lon="-6.6665530">
        <ele>1140.0</ele>
        <time>2021-02-07T11:23:52Z</time>
      </trkpt>
      <trkpt lat="43.3002930" lon="-6.6665120">
        <ele>1140.0</ele>
        <time>2021-02-07T11:23:59Z</time>
      </trkpt>
      <trkpt lat="43.3003470" lon="-6.6664760">
        <ele>1140.0</ele>
        <time>2021-02-07T11:24:05Z</time>
      </trkpt>
      <trkpt lat="43.3003980" lon="-6.6664390">
        <ele>1139.0</ele>
        <time>2021-02-07T11:24:10Z</time>
      </trkpt>
      <trkpt lat="43.3004490" lon="-6.6664060">
        <ele>1139.0</ele>
        <time>2021-02-07T11:24:14Z</time>
      </trkpt>
      <trkpt lat="43.3004890" lon="-6.6663680">
        <ele>1139.0</ele>
        <time>2021-02-07T11:24:18Z</time>
      </trkpt>
      <trkpt lat="43.3005250" lon="-6.6663120">
        <ele>1139.0</ele>
        <time>2021-02-07T11:24:23Z</time>
      </trkpt>
      <trkpt lat="43.3005590" lon="-6.6662570">
        <ele>1138.0</ele>
        <time>2021-02-07T11:24:28Z</time>
      </trkpt>
      <trkpt lat="43.3005990" lon="-6.6661990">
        <ele>1138.0</ele>
        <time>2021-02-07T11:24:33Z</time>
      </trkpt>
      <trkpt lat="43.3006310" lon="-6.6661420">
        <ele>1137.0</ele>
        <time>2021-02-07T11:24:38Z</time>
      </trkpt>
      <trkpt lat="43.3006710" lon="-6.6660750">
        <ele>1137.0</ele>
        <time>2021-02-07T11:24:46Z</time>
      </trkpt>
      <trkpt lat="43.3007050" lon="-6.6660160">
        <ele>1137.0</ele>
        <time>2021-02-07T11:24:53Z</time>
      </trkpt>
      <trkpt lat="43.3007360" lon="-6.6659510">
        <ele>1137.0</ele>
        <time>2021-02-07T11:24:59Z</time>
      </trkpt>
      <trkpt lat="43.3007720" lon="-6.6658870">
        <ele>1137.0</ele>
        <time>2021-02-07T11:25:04Z</time>
      </trkpt>
      <trkpt lat="43.3008050" lon="-6.6658270">
        <ele>1137.0</ele>
        <time>2021-02-07T11:25:08Z</time>
      </trkpt>
      <trkpt lat="43.3008580" lon="-6.6657510">
        <ele>1136.0</ele>
        <time>2021-02-07T11:25:13Z</time>
      </trkpt>
      <trkpt lat="43.3009000" lon="-6.6656700">
        <ele>1136.0</ele>
        <time>2021-02-07T11:25:17Z</time>
      </trkpt>
      <trkpt lat="43.3009290" lon="-6.6656200">
        <ele>1136.0</ele>
        <time>2021-02-07T11:25:19Z</time>
      </trkpt>
      <trkpt lat="43.3009510" lon="-6.6655620">
        <ele>1136.0</ele>
        <time>2021-02-07T11:25:22Z</time>
      </trkpt>
      <trkpt lat="43.3009660" lon="-6.6654910">
        <ele>1136.0</ele>
        <time>2021-02-07T11:25:27Z</time>
      </trkpt>
      <trkpt lat="43.3009880" lon="-6.6654230">
        <ele>1136.0</ele>
        <time>2021-02-07T11:25:32Z</time>
      </trkpt>
      <trkpt lat="43.3010050" lon="-6.6653580">
        <ele>1136.0</ele>
        <time>2021-02-07T11:25:37Z</time>
      </trkpt>
      <trkpt lat="43.3010240" lon="-6.6652870">
        <ele>1136.0</ele>
        <time>2021-02-07T11:25:42Z</time>
      </trkpt>
      <trkpt lat="43.3010330" lon="-6.6652250">
        <ele>1136.0</ele>
        <time>2021-02-07T11:25:47Z</time>
      </trkpt>
      <trkpt lat="43.3010510" lon="-6.6651440">
        <ele>1135.0</ele>
        <time>2021-02-07T11:25:55Z</time>
      </trkpt>
      <trkpt lat="43.3010660" lon="-6.6650680">
        <ele>1135.0</ele>
        <time>2021-02-07T11:26:00Z</time>
      </trkpt>
      <trkpt lat="43.3010910" lon="-6.6649850">
        <ele>1135.0</ele>
        <time>2021-02-07T11:26:05Z</time>
      </trkpt>
      <trkpt lat="43.3010980" lon="-6.6649070">
        <ele>1135.0</ele>
        <time>2021-02-07T11:26:08Z</time>
      </trkpt>
      <trkpt lat="43.3011010" lon="-6.6648550">
        <ele>1135.0</ele>
        <time>2021-02-07T11:26:12Z</time>
      </trkpt>
      <trkpt lat="43.3011190" lon="-6.6647940">
        <ele>1135.0</ele>
        <time>2021-02-07T11:26:19Z</time>
      </trkpt>
      <trkpt lat="43.3010970" lon="-6.6647320">
        <ele>1135.0</ele>
        <time>2021-02-07T11:26:26Z</time>
      </trkpt>
      <trkpt lat="43.3011510" lon="-6.6646680">
        <ele>1135.0</ele>
        <time>2021-02-07T11:26:39Z</time>
      </trkpt>
      <trkpt lat="43.3011900" lon="-6.6646400">
        <ele>1135.0</ele>
        <time>2021-02-07T11:26:44Z</time>
      </trkpt>
      <trkpt lat="43.3012330" lon="-6.6645840">
        <ele>1135.0</ele>
        <time>2021-02-07T11:26:50Z</time>
      </trkpt>
      <trkpt lat="43.3012670" lon="-6.6645300">
        <ele>1135.0</ele>
        <time>2021-02-07T11:26:55Z</time>
      </trkpt>
      <trkpt lat="43.3013110" lon="-6.6644730">
        <ele>1135.0</ele>
        <time>2021-02-07T11:27:00Z</time>
      </trkpt>
      <trkpt lat="43.3013490" lon="-6.6644260">
        <ele>1135.0</ele>
        <time>2021-02-07T11:27:05Z</time>
      </trkpt>
      <trkpt lat="43.3013940" lon="-6.6643730">
        <ele>1135.0</ele>
        <time>2021-02-07T11:27:11Z</time>
      </trkpt>
      <trkpt lat="43.3014310" lon="-6.6643250">
        <ele>1135.0</ele>
        <time>2021-02-07T11:27:16Z</time>
      </trkpt>
      <trkpt lat="43.3014760" lon="-6.6642690">
        <ele>1135.0</ele>
        <time>2021-02-07T11:27:21Z</time>
      </trkpt>
      <trkpt lat="43.3015220" lon="-6.6642250">
        <ele>1135.0</ele>
        <time>2021-02-07T11:27:25Z</time>
      </trkpt>
      <trkpt lat="43.3015660" lon="-6.6641870">
        <ele>1136.0</ele>
        <time>2021-02-07T11:27:30Z</time>
      </trkpt>
      <trkpt lat="43.3016160" lon="-6.6641440">
        <ele>1136.0</ele>
        <time>2021-02-07T11:27:35Z</time>
      </trkpt>
      <trkpt lat="43.3016690" lon="-6.6640950">
        <ele>1136.0</ele>
        <time>2021-02-07T11:27:40Z</time>
      </trkpt>
      <trkpt lat="43.3017080" lon="-6.6640550">
        <ele>1136.0</ele>
        <time>2021-02-07T11:27:44Z</time>
      </trkpt>
      <trkpt lat="43.3017350" lon="-6.6640040">
        <ele>1136.0</ele>
        <time>2021-02-07T11:27:50Z</time>
      </trkpt>
      <trkpt lat="43.3016980" lon="-6.6639420">
        <ele>1136.0</ele>
        <time>2021-02-07T11:27:56Z</time>
      </trkpt>
      <trkpt lat="43.3016840" lon="-6.6638720">
        <ele>1136.0</ele>
        <time>2021-02-07T11:28:01Z</time>
      </trkpt>
      <trkpt lat="43.3016820" lon="-6.6637990">
        <ele>1136.0</ele>
        <time>2021-02-07T11:28:06Z</time>
      </trkpt>
      <trkpt lat="43.3017130" lon="-6.6637310">
        <ele>1136.0</ele>
        <time>2021-02-07T11:28:12Z</time>
      </trkpt>
      <trkpt lat="43.3017390" lon="-6.6636860">
        <ele>1136.0</ele>
        <time>2021-02-07T11:28:16Z</time>
      </trkpt>
      <trkpt lat="43.3017660" lon="-6.6636220">
        <ele>1137.0</ele>
        <time>2021-02-07T11:28:22Z</time>
      </trkpt>
      <trkpt lat="43.3017980" lon="-6.6635560">
        <ele>1137.0</ele>
        <time>2021-02-07T11:28:29Z</time>
      </trkpt>
      <trkpt lat="43.3018190" lon="-6.6634930">
        <ele>1137.0</ele>
        <time>2021-02-07T11:28:34Z</time>
      </trkpt>
      <trkpt lat="43.3018250" lon="-6.6634140">
        <ele>1137.0</ele>
        <time>2021-02-07T11:28:40Z</time>
      </trkpt>
      <trkpt lat="43.3018290" lon="-6.6633380">
        <ele>1137.0</ele>
        <time>2021-02-07T11:28:46Z</time>
      </trkpt>
      <trkpt lat="43.3018190" lon="-6.6632610">
        <ele>1137.0</ele>
        <time>2021-02-07T11:28:51Z</time>
      </trkpt>
      <trkpt lat="43.3018260" lon="-6.6631850">
        <ele>1137.0</ele>
        <time>2021-02-07T11:28:56Z</time>
      </trkpt>
      <trkpt lat="43.3018460" lon="-6.6631130">
        <ele>1137.0</ele>
        <time>2021-02-07T11:29:01Z</time>
      </trkpt>
      <trkpt lat="43.3018600" lon="-6.6630390">
        <ele>1137.0</ele>
        <time>2021-02-07T11:29:06Z</time>
      </trkpt>
      <trkpt lat="43.3018740" lon="-6.6629700">
        <ele>1137.0</ele>
        <time>2021-02-07T11:29:10Z</time>
      </trkpt>
      <trkpt lat="43.3019030" lon="-6.6629090">
        <ele>1137.0</ele>
        <time>2021-02-07T11:29:15Z</time>
      </trkpt>
      <trkpt lat="43.3019430" lon="-6.6628510">
        <ele>1136.0</ele>
        <time>2021-02-07T11:29:20Z</time>
      </trkpt>
      <trkpt lat="43.3019670" lon="-6.6627920">
        <ele>1136.0</ele>
        <time>2021-02-07T11:29:25Z</time>
      </trkpt>
      <trkpt lat="43.3019920" lon="-6.6627210">
        <ele>1136.0</ele>
        <time>2021-02-07T11:29:30Z</time>
      </trkpt>
      <trkpt lat="43.3020200" lon="-6.6626510">
        <ele>1136.0</ele>
        <time>2021-02-07T11:29:35Z</time>
      </trkpt>
      <trkpt lat="43.3020490" lon="-6.6625700">
        <ele>1136.0</ele>
        <time>2021-02-07T11:29:40Z</time>
      </trkpt>
      <trkpt lat="43.3020690" lon="-6.6625070">
        <ele>1135.0</ele>
        <time>2021-02-07T11:29:44Z</time>
      </trkpt>
      <trkpt lat="43.3020820" lon="-6.6624260">
        <ele>1135.0</ele>
        <time>2021-02-07T11:29:49Z</time>
      </trkpt>
      <trkpt lat="43.3020910" lon="-6.6623570">
        <ele>1134.0</ele>
        <time>2021-02-07T11:29:53Z</time>
      </trkpt>
      <trkpt lat="43.3021070" lon="-6.6622770">
        <ele>1134.0</ele>
        <time>2021-02-07T11:29:58Z</time>
      </trkpt>
      <trkpt lat="43.3021440" lon="-6.6621090">
        <ele>1134.0</ele>
        <time>2021-02-07T11:30:12Z</time>
      </trkpt>
      <trkpt lat="43.3021590" lon="-6.6620330">
        <ele>1134.0</ele>
        <time>2021-02-07T11:30:17Z</time>
      </trkpt>
      <trkpt lat="43.3021600" lon="-6.6619480">
        <ele>1134.0</ele>
        <time>2021-02-07T11:30:22Z</time>
      </trkpt>
      <trkpt lat="43.3021780" lon="-6.6618730">
        <ele>1134.0</ele>
        <time>2021-02-07T11:30:26Z</time>
      </trkpt>
      <trkpt lat="43.3021910" lon="-6.6617950">
        <ele>1134.0</ele>
        <time>2021-02-07T11:30:31Z</time>
      </trkpt>
      <trkpt lat="43.3021990" lon="-6.6617340">
        <ele>1134.0</ele>
        <time>2021-02-07T11:30:35Z</time>
      </trkpt>
      <trkpt lat="43.3022080" lon="-6.6616460">
        <ele>1134.0</ele>
        <time>2021-02-07T11:30:41Z</time>
      </trkpt>
      <trkpt lat="43.3022160" lon="-6.6615670">
        <ele>1134.0</ele>
        <time>2021-02-07T11:30:46Z</time>
      </trkpt>
      <trkpt lat="43.3022270" lon="-6.6614850">
        <ele>1134.0</ele>
        <time>2021-02-07T11:30:51Z</time>
      </trkpt>
      <trkpt lat="43.3022370" lon="-6.6614080">
        <ele>1135.0</ele>
        <time>2021-02-07T11:30:56Z</time>
      </trkpt>
      <trkpt lat="43.3022500" lon="-6.6613270">
        <ele>1135.0</ele>
        <time>2021-02-07T11:31:03Z</time>
      </trkpt>
      <trkpt lat="43.3022620" lon="-6.6612410">
        <ele>1134.0</ele>
        <time>2021-02-07T11:31:08Z</time>
      </trkpt>
      <trkpt lat="43.3022710" lon="-6.6611660">
        <ele>1134.0</ele>
        <time>2021-02-07T11:31:12Z</time>
      </trkpt>
      <trkpt lat="43.3022780" lon="-6.6610980">
        <ele>1134.0</ele>
        <time>2021-02-07T11:31:16Z</time>
      </trkpt>
      <trkpt lat="43.3022870" lon="-6.6610150">
        <ele>1134.0</ele>
        <time>2021-02-07T11:31:21Z</time>
      </trkpt>
      <trkpt lat="43.3022900" lon="-6.6609470">
        <ele>1134.0</ele>
        <time>2021-02-07T11:31:25Z</time>
      </trkpt>
      <trkpt lat="43.3022890" lon="-6.6608660">
        <ele>1134.0</ele>
        <time>2021-02-07T11:31:30Z</time>
      </trkpt>
      <trkpt lat="43.3022850" lon="-6.6607840">
        <ele>1134.0</ele>
        <time>2021-02-07T11:31:35Z</time>
      </trkpt>
      <trkpt lat="43.3022820" lon="-6.6607230">
        <ele>1134.0</ele>
        <time>2021-02-07T11:31:39Z</time>
      </trkpt>
      <trkpt lat="43.3022750" lon="-6.6606330">
        <ele>1134.0</ele>
        <time>2021-02-07T11:31:45Z</time>
      </trkpt>
      <trkpt lat="43.3022730" lon="-6.6605500">
        <ele>1134.0</ele>
        <time>2021-02-07T11:31:50Z</time>
      </trkpt>
      <trkpt lat="43.3022760" lon="-6.6604690">
        <ele>1134.0</ele>
        <time>2021-02-07T11:31:55Z</time>
      </trkpt>
      <trkpt lat="43.3022750" lon="-6.6603910">
        <ele>1134.0</ele>
        <time>2021-02-07T11:32:00Z</time>
      </trkpt>
      <trkpt lat="43.3022690" lon="-6.6603160">
        <ele>1135.0</ele>
        <time>2021-02-07T11:32:05Z</time>
      </trkpt>
      <trkpt lat="43.3022590" lon="-6.6602540">
        <ele>1135.0</ele>
        <time>2021-02-07T11:32:09Z</time>
      </trkpt>
      <trkpt lat="43.3022490" lon="-6.6601840">
        <ele>1135.0</ele>
        <time>2021-02-07T11:32:14Z</time>
      </trkpt>
      <trkpt lat="43.3022430" lon="-6.6601050">
        <ele>1136.0</ele>
        <time>2021-02-07T11:32:20Z</time>
      </trkpt>
      <trkpt lat="43.3022340" lon="-6.6600360">
        <ele>1136.0</ele>
        <time>2021-02-07T11:32:25Z</time>
      </trkpt>
      <trkpt lat="43.3022220" lon="-6.6599580">
        <ele>1137.0</ele>
        <time>2021-02-07T11:32:31Z</time>
      </trkpt>
      <trkpt lat="43.3022130" lon="-6.6598850">
        <ele>1137.0</ele>
        <time>2021-02-07T11:32:37Z</time>
      </trkpt>
      <trkpt lat="43.3022100" lon="-6.6598080">
        <ele>1138.0</ele>
        <time>2021-02-07T11:32:43Z</time>
      </trkpt>
      <trkpt lat="43.3022060" lon="-6.6597320">
        <ele>1139.0</ele>
        <time>2021-02-07T11:32:49Z</time>
      </trkpt>
      <trkpt lat="43.3022130" lon="-6.6596540">
        <ele>1140.0</ele>
        <time>2021-02-07T11:32:55Z</time>
      </trkpt>
      <trkpt lat="43.3022200" lon="-6.6595830">
        <ele>1141.0</ele>
        <time>2021-02-07T11:33:01Z</time>
      </trkpt>
      <trkpt lat="43.3022230" lon="-6.6595080">
        <ele>1142.0</ele>
        <time>2021-02-07T11:33:07Z</time>
      </trkpt>
      <trkpt lat="43.3022290" lon="-6.6594330">
        <ele>1142.0</ele>
        <time>2021-02-07T11:33:13Z</time>
      </trkpt>
      <trkpt lat="43.3022340" lon="-6.6593590">
        <ele>1142.0</ele>
        <time>2021-02-07T11:33:19Z</time>
      </trkpt>
      <trkpt lat="43.3022410" lon="-6.6592860">
        <ele>1143.0</ele>
        <time>2021-02-07T11:33:25Z</time>
      </trkpt>
      <trkpt lat="43.3022510" lon="-6.6592100">
        <ele>1143.0</ele>
        <time>2021-02-07T11:33:31Z</time>
      </trkpt>
      <trkpt lat="43.3022610" lon="-6.6591470">
        <ele>1143.0</ele>
        <time>2021-02-07T11:33:36Z</time>
      </trkpt>
      <trkpt lat="43.3022800" lon="-6.6590740">
        <ele>1143.0</ele>
        <time>2021-02-07T11:33:42Z</time>
      </trkpt>
      <trkpt lat="43.3022970" lon="-6.6590050">
        <ele>1142.0</ele>
        <time>2021-02-07T11:33:47Z</time>
      </trkpt>
      <trkpt lat="43.3023160" lon="-6.6589330">
        <ele>1142.0</ele>
        <time>2021-02-07T11:33:52Z</time>
      </trkpt>
      <trkpt lat="43.3023400" lon="-6.6588630">
        <ele>1142.0</ele>
        <time>2021-02-07T11:33:57Z</time>
      </trkpt>
      <trkpt lat="43.3023640" lon="-6.6587940">
        <ele>1142.0</ele>
        <time>2021-02-07T11:34:02Z</time>
      </trkpt>
      <trkpt lat="43.3023910" lon="-6.6587230">
        <ele>1142.0</ele>
        <time>2021-02-07T11:34:07Z</time>
      </trkpt>
      <trkpt lat="43.3024150" lon="-6.6586560">
        <ele>1142.0</ele>
        <time>2021-02-07T11:34:12Z</time>
      </trkpt>
      <trkpt lat="43.3024340" lon="-6.6585910">
        <ele>1142.0</ele>
        <time>2021-02-07T11:34:17Z</time>
      </trkpt>
      <trkpt lat="43.3024610" lon="-6.6585160">
        <ele>1142.0</ele>
        <time>2021-02-07T11:34:23Z</time>
      </trkpt>
      <trkpt lat="43.3024860" lon="-6.6584580">
        <ele>1142.0</ele>
        <time>2021-02-07T11:34:27Z</time>
      </trkpt>
      <trkpt lat="43.3025160" lon="-6.6583970">
        <ele>1142.0</ele>
        <time>2021-02-07T11:34:32Z</time>
      </trkpt>
      <trkpt lat="43.3025510" lon="-6.6583290">
        <ele>1142.0</ele>
        <time>2021-02-07T11:34:38Z</time>
      </trkpt>
      <trkpt lat="43.3025950" lon="-6.6582630">
        <ele>1142.0</ele>
        <time>2021-02-07T11:34:43Z</time>
      </trkpt>
      <trkpt lat="43.3026300" lon="-6.6582070">
        <ele>1142.0</ele>
        <time>2021-02-07T11:34:48Z</time>
      </trkpt>
      <trkpt lat="43.3026810" lon="-6.6581490">
        <ele>1142.0</ele>
        <time>2021-02-07T11:34:53Z</time>
      </trkpt>
      <trkpt lat="43.3027160" lon="-6.6581010">
        <ele>1142.0</ele>
        <time>2021-02-07T11:34:57Z</time>
      </trkpt>
      <trkpt lat="43.3027610" lon="-6.6580390">
        <ele>1141.0</ele>
        <time>2021-02-07T11:35:02Z</time>
      </trkpt>
      <trkpt lat="43.3028000" lon="-6.6579830">
        <ele>1141.0</ele>
        <time>2021-02-07T11:35:07Z</time>
      </trkpt>
      <trkpt lat="43.3028420" lon="-6.6579320">
        <ele>1140.0</ele>
        <time>2021-02-07T11:35:12Z</time>
      </trkpt>
      <trkpt lat="43.3028820" lon="-6.6578990">
        <ele>1139.0</ele>
        <time>2021-02-07T11:35:17Z</time>
      </trkpt>
      <trkpt lat="43.3029410" lon="-6.6578680">
        <ele>1138.0</ele>
        <time>2021-02-07T11:35:23Z</time>
      </trkpt>
      <trkpt lat="43.3029990" lon="-6.6578420">
        <ele>1138.0</ele>
        <time>2021-02-07T11:35:28Z</time>
      </trkpt>
      <trkpt lat="43.3030520" lon="-6.6578180">
        <ele>1137.0</ele>
        <time>2021-02-07T11:35:33Z</time>
      </trkpt>
      <trkpt lat="43.3031040" lon="-6.6577860">
        <ele>1137.0</ele>
        <time>2021-02-07T11:35:38Z</time>
      </trkpt>
      <trkpt lat="43.3031550" lon="-6.6577530">
        <ele>1137.0</ele>
        <time>2021-02-07T11:35:43Z</time>
      </trkpt>
      <trkpt lat="43.3031990" lon="-6.6577280">
        <ele>1136.0</ele>
        <time>2021-02-07T11:35:47Z</time>
      </trkpt>
      <trkpt lat="43.3032510" lon="-6.6577000">
        <ele>1136.0</ele>
        <time>2021-02-07T11:35:52Z</time>
      </trkpt>
      <trkpt lat="43.3032990" lon="-6.6576640">
        <ele>1136.0</ele>
        <time>2021-02-07T11:35:57Z</time>
      </trkpt>
      <trkpt lat="43.3033520" lon="-6.6576190">
        <ele>1135.0</ele>
        <time>2021-02-07T11:36:02Z</time>
      </trkpt>
      <trkpt lat="43.3033920" lon="-6.6575760">
        <ele>1135.0</ele>
        <time>2021-02-07T11:36:07Z</time>
      </trkpt>
      <trkpt lat="43.3034430" lon="-6.6575260">
        <ele>1135.0</ele>
        <time>2021-02-07T11:36:12Z</time>
      </trkpt>
      <trkpt lat="43.3034920" lon="-6.6574800">
        <ele>1135.0</ele>
        <time>2021-02-07T11:36:17Z</time>
      </trkpt>
      <trkpt lat="43.3035350" lon="-6.6574340">
        <ele>1134.0</ele>
        <time>2021-02-07T11:36:22Z</time>
      </trkpt>
      <trkpt lat="43.3035680" lon="-6.6573880">
        <ele>1134.0</ele>
        <time>2021-02-07T11:36:26Z</time>
      </trkpt>
      <trkpt lat="43.3036110" lon="-6.6573370">
        <ele>1134.0</ele>
        <time>2021-02-07T11:36:31Z</time>
      </trkpt>
      <trkpt lat="43.3036550" lon="-6.6572890">
        <ele>1134.0</ele>
        <time>2021-02-07T11:36:36Z</time>
      </trkpt>
      <trkpt lat="43.3036880" lon="-6.6572380">
        <ele>1134.0</ele>
        <time>2021-02-07T11:36:41Z</time>
      </trkpt>
      <trkpt lat="43.3037230" lon="-6.6571800">
        <ele>1134.0</ele>
        <time>2021-02-07T11:36:46Z</time>
      </trkpt>
      <trkpt lat="43.3037500" lon="-6.6571180">
        <ele>1134.0</ele>
        <time>2021-02-07T11:36:51Z</time>
      </trkpt>
      <trkpt lat="43.3037790" lon="-6.6570520">
        <ele>1134.0</ele>
        <time>2021-02-07T11:36:57Z</time>
      </trkpt>
      <trkpt lat="43.3038020" lon="-6.6569950">
        <ele>1135.0</ele>
        <time>2021-02-07T11:37:02Z</time>
      </trkpt>
      <trkpt lat="43.3038180" lon="-6.6569150">
        <ele>1135.0</ele>
        <time>2021-02-07T11:37:07Z</time>
      </trkpt>
      <trkpt lat="43.3038430" lon="-6.6568470">
        <ele>1135.0</ele>
        <time>2021-02-07T11:37:12Z</time>
      </trkpt>
      <trkpt lat="43.3038720" lon="-6.6567790">
        <ele>1136.0</ele>
        <time>2021-02-07T11:37:17Z</time>
      </trkpt>
      <trkpt lat="43.3038970" lon="-6.6567190">
        <ele>1136.0</ele>
        <time>2021-02-07T11:37:22Z</time>
      </trkpt>
      <trkpt lat="43.3039260" lon="-6.6566430">
        <ele>1136.0</ele>
        <time>2021-02-07T11:37:28Z</time>
      </trkpt>
      <trkpt lat="43.3039430" lon="-6.6565690">
        <ele>1136.0</ele>
        <time>2021-02-07T11:37:33Z</time>
      </trkpt>
      <trkpt lat="43.3039560" lon="-6.6564860">
        <ele>1136.0</ele>
        <time>2021-02-07T11:37:39Z</time>
      </trkpt>
      <trkpt lat="43.3039720" lon="-6.6564090">
        <ele>1136.0</ele>
        <time>2021-02-07T11:37:44Z</time>
      </trkpt>
      <trkpt lat="43.3039850" lon="-6.6563450">
        <ele>1136.0</ele>
        <time>2021-02-07T11:37:49Z</time>
      </trkpt>
      <trkpt lat="43.3039990" lon="-6.6562760">
        <ele>1137.0</ele>
        <time>2021-02-07T11:37:57Z</time>
      </trkpt>
      <trkpt lat="43.3040170" lon="-6.6561990">
        <ele>1137.0</ele>
        <time>2021-02-07T11:38:03Z</time>
      </trkpt>
      <trkpt lat="43.3040370" lon="-6.6561210">
        <ele>1137.0</ele>
        <time>2021-02-07T11:38:08Z</time>
      </trkpt>
      <trkpt lat="43.3040560" lon="-6.6560430">
        <ele>1138.0</ele>
        <time>2021-02-07T11:38:13Z</time>
      </trkpt>
      <trkpt lat="43.3040750" lon="-6.6559700">
        <ele>1138.0</ele>
        <time>2021-02-07T11:38:18Z</time>
      </trkpt>
      <trkpt lat="43.3040900" lon="-6.6558940">
        <ele>1139.0</ele>
        <time>2021-02-07T11:38:23Z</time>
      </trkpt>
      <trkpt lat="43.3041040" lon="-6.6558140">
        <ele>1139.0</ele>
        <time>2021-02-07T11:38:28Z</time>
      </trkpt>
      <trkpt lat="43.3041190" lon="-6.6557500">
        <ele>1139.0</ele>
        <time>2021-02-07T11:38:32Z</time>
      </trkpt>
      <trkpt lat="43.3041390" lon="-6.6556710">
        <ele>1140.0</ele>
        <time>2021-02-07T11:38:37Z</time>
      </trkpt>
      <trkpt lat="43.3041580" lon="-6.6555970">
        <ele>1140.0</ele>
        <time>2021-02-07T11:38:42Z</time>
      </trkpt>
      <trkpt lat="43.3041780" lon="-6.6555260">
        <ele>1140.0</ele>
        <time>2021-02-07T11:38:47Z</time>
      </trkpt>
      <trkpt lat="43.3041930" lon="-6.6554640">
        <ele>1140.0</ele>
        <time>2021-02-07T11:38:51Z</time>
      </trkpt>
      <trkpt lat="43.3042110" lon="-6.6553860">
        <ele>1141.0</ele>
        <time>2021-02-07T11:38:56Z</time>
      </trkpt>
      <trkpt lat="43.3042260" lon="-6.6553080">
        <ele>1141.0</ele>
        <time>2021-02-07T11:39:01Z</time>
      </trkpt>
      <trkpt lat="43.3042410" lon="-6.6552290">
        <ele>1141.0</ele>
        <time>2021-02-07T11:39:06Z</time>
      </trkpt>
      <trkpt lat="43.3042540" lon="-6.6551680">
        <ele>1142.0</ele>
        <time>2021-02-07T11:39:10Z</time>
      </trkpt>
      <trkpt lat="43.3042670" lon="-6.6550940">
        <ele>1142.0</ele>
        <time>2021-02-07T11:39:15Z</time>
      </trkpt>
      <trkpt lat="43.3042850" lon="-6.6550250">
        <ele>1143.0</ele>
        <time>2021-02-07T11:39:20Z</time>
      </trkpt>
      <trkpt lat="43.3043110" lon="-6.6549500">
        <ele>1144.0</ele>
        <time>2021-02-07T11:39:26Z</time>
      </trkpt>
      <trkpt lat="43.3043320" lon="-6.6548850">
        <ele>1145.0</ele>
        <time>2021-02-07T11:39:32Z</time>
      </trkpt>
      <trkpt lat="43.3043670" lon="-6.6548270">
        <ele>1145.0</ele>
        <time>2021-02-07T11:39:39Z</time>
      </trkpt>
      <trkpt lat="43.3043940" lon="-6.6547640">
        <ele>1146.0</ele>
        <time>2021-02-07T11:39:46Z</time>
      </trkpt>
      <trkpt lat="43.3044220" lon="-6.6547000">
        <ele>1147.0</ele>
        <time>2021-02-07T11:39:52Z</time>
      </trkpt>
      <trkpt lat="43.3044480" lon="-6.6546240">
        <ele>1147.0</ele>
        <time>2021-02-07T11:39:58Z</time>
      </trkpt>
      <trkpt lat="43.3044720" lon="-6.6545600">
        <ele>1148.0</ele>
        <time>2021-02-07T11:40:03Z</time>
      </trkpt>
      <trkpt lat="43.3044960" lon="-6.6545040">
        <ele>1149.0</ele>
        <time>2021-02-07T11:40:08Z</time>
      </trkpt>
      <trkpt lat="43.3045100" lon="-6.6544310">
        <ele>1150.0</ele>
        <time>2021-02-07T11:40:14Z</time>
      </trkpt>
      <trkpt lat="43.3045220" lon="-6.6543570">
        <ele>1150.0</ele>
        <time>2021-02-07T11:40:20Z</time>
      </trkpt>
      <trkpt lat="43.3045260" lon="-6.6542790">
        <ele>1151.0</ele>
        <time>2021-02-07T11:40:26Z</time>
      </trkpt>
      <trkpt lat="43.3045270" lon="-6.6542050">
        <ele>1151.0</ele>
        <time>2021-02-07T11:40:31Z</time>
      </trkpt>
      <trkpt lat="43.3045360" lon="-6.6541280">
        <ele>1152.0</ele>
        <time>2021-02-07T11:40:37Z</time>
      </trkpt>
      <trkpt lat="43.3045410" lon="-6.6540610">
        <ele>1153.0</ele>
        <time>2021-02-07T11:40:42Z</time>
      </trkpt>
      <trkpt lat="43.3045450" lon="-6.6539840">
        <ele>1154.0</ele>
        <time>2021-02-07T11:40:49Z</time>
      </trkpt>
      <trkpt lat="43.3045500" lon="-6.6539130">
        <ele>1154.0</ele>
        <time>2021-02-07T11:40:54Z</time>
      </trkpt>
      <trkpt lat="43.3045450" lon="-6.6538420">
        <ele>1155.0</ele>
        <time>2021-02-07T11:40:59Z</time>
      </trkpt>
      <trkpt lat="43.3045240" lon="-6.6537760">
        <ele>1155.0</ele>
        <time>2021-02-07T11:41:05Z</time>
      </trkpt>
      <trkpt lat="43.3045100" lon="-6.6536930">
        <ele>1155.0</ele>
        <time>2021-02-07T11:41:11Z</time>
      </trkpt>
      <trkpt lat="43.3045030" lon="-6.6536310">
        <ele>1157.0</ele>
        <time>2021-02-07T11:41:15Z</time>
      </trkpt>
      <trkpt lat="43.3044960" lon="-6.6535530">
        <ele>1158.0</ele>
        <time>2021-02-07T11:41:23Z</time>
      </trkpt>
      <trkpt lat="43.3044660" lon="-6.6534740">
        <ele>1159.0</ele>
        <time>2021-02-07T11:41:30Z</time>
      </trkpt>
      <trkpt lat="43.3044400" lon="-6.6534040">
        <ele>1159.0</ele>
        <time>2021-02-07T11:41:35Z</time>
      </trkpt>
      <trkpt lat="43.3044040" lon="-6.6533330">
        <ele>1155.0</ele>
        <time>2021-02-07T11:41:41Z</time>
      </trkpt>
      <trkpt lat="43.3043760" lon="-6.6532720">
        <ele>1155.0</ele>
        <time>2021-02-07T11:41:46Z</time>
      </trkpt>
      <trkpt lat="43.3043440" lon="-6.6532030">
        <ele>1155.0</ele>
        <time>2021-02-07T11:41:52Z</time>
      </trkpt>
      <trkpt lat="43.3043100" lon="-6.6531540">
        <ele>1155.0</ele>
        <time>2021-02-07T11:41:57Z</time>
      </trkpt>
      <trkpt lat="43.3042660" lon="-6.6531050">
        <ele>1155.0</ele>
        <time>2021-02-07T11:42:02Z</time>
      </trkpt>
      <trkpt lat="43.3042280" lon="-6.6530390">
        <ele>1155.0</ele>
        <time>2021-02-07T11:42:08Z</time>
      </trkpt>
      <trkpt lat="43.3041920" lon="-6.6529810">
        <ele>1155.0</ele>
        <time>2021-02-07T11:42:13Z</time>
      </trkpt>
      <trkpt lat="43.3041550" lon="-6.6529320">
        <ele>1156.0</ele>
        <time>2021-02-07T11:42:18Z</time>
      </trkpt>
      <trkpt lat="43.3041190" lon="-6.6528730">
        <ele>1156.0</ele>
        <time>2021-02-07T11:42:23Z</time>
      </trkpt>
      <trkpt lat="43.3040790" lon="-6.6528110">
        <ele>1157.0</ele>
        <time>2021-02-07T11:42:29Z</time>
      </trkpt>
      <trkpt lat="43.3040490" lon="-6.6527570">
        <ele>1157.0</ele>
        <time>2021-02-07T11:42:34Z</time>
      </trkpt>
      <trkpt lat="43.3040230" lon="-6.6526910">
        <ele>1157.0</ele>
        <time>2021-02-07T11:42:39Z</time>
      </trkpt>
      <trkpt lat="43.3039980" lon="-6.6526260">
        <ele>1157.0</ele>
        <time>2021-02-07T11:42:44Z</time>
      </trkpt>
      <trkpt lat="43.3039740" lon="-6.6525530">
        <ele>1158.0</ele>
        <time>2021-02-07T11:42:50Z</time>
      </trkpt>
      <trkpt lat="43.3039550" lon="-6.6524930">
        <ele>1158.0</ele>
        <time>2021-02-07T11:42:55Z</time>
      </trkpt>
      <trkpt lat="43.3039340" lon="-6.6524120">
        <ele>1159.0</ele>
        <time>2021-02-07T11:43:01Z</time>
      </trkpt>
      <trkpt lat="43.3039150" lon="-6.6523400">
        <ele>1160.0</ele>
        <time>2021-02-07T11:43:06Z</time>
      </trkpt>
      <trkpt lat="43.3038940" lon="-6.6522690">
        <ele>1160.0</ele>
        <time>2021-02-07T11:43:11Z</time>
      </trkpt>
      <trkpt lat="43.3038740" lon="-6.6521950">
        <ele>1160.0</ele>
        <time>2021-02-07T11:43:16Z</time>
      </trkpt>
      <trkpt lat="43.3038520" lon="-6.6521230">
        <ele>1160.0</ele>
        <time>2021-02-07T11:43:21Z</time>
      </trkpt>
      <trkpt lat="43.3038310" lon="-6.6520510">
        <ele>1161.0</ele>
        <time>2021-02-07T11:43:26Z</time>
      </trkpt>
      <trkpt lat="43.3038130" lon="-6.6519880">
        <ele>1161.0</ele>
        <time>2021-02-07T11:43:31Z</time>
      </trkpt>
      <trkpt lat="43.3037880" lon="-6.6519110">
        <ele>1162.0</ele>
        <time>2021-02-07T11:43:37Z</time>
      </trkpt>
      <trkpt lat="43.3037730" lon="-6.6518430">
        <ele>1162.0</ele>
        <time>2021-02-07T11:43:42Z</time>
      </trkpt>
      <trkpt lat="43.3037690" lon="-6.6517750">
        <ele>1162.0</ele>
        <time>2021-02-07T11:43:51Z</time>
      </trkpt>
      <trkpt lat="43.3037580" lon="-6.6516900">
        <ele>1162.0</ele>
        <time>2021-02-07T11:43:57Z</time>
      </trkpt>
      <trkpt lat="43.3037520" lon="-6.6516100">
        <ele>1162.0</ele>
        <time>2021-02-07T11:44:02Z</time>
      </trkpt>
      <trkpt lat="43.3037440" lon="-6.6515330">
        <ele>1162.0</ele>
        <time>2021-02-07T11:44:07Z</time>
      </trkpt>
      <trkpt lat="43.3037350" lon="-6.6514550">
        <ele>1162.0</ele>
        <time>2021-02-07T11:44:12Z</time>
      </trkpt>
      <trkpt lat="43.3037260" lon="-6.6513740">
        <ele>1162.0</ele>
        <time>2021-02-07T11:44:17Z</time>
      </trkpt>
      <trkpt lat="43.3037120" lon="-6.6513000">
        <ele>1163.0</ele>
        <time>2021-02-07T11:44:22Z</time>
      </trkpt>
      <trkpt lat="43.3037060" lon="-6.6512390">
        <ele>1163.0</ele>
        <time>2021-02-07T11:44:26Z</time>
      </trkpt>
      <trkpt lat="43.3036980" lon="-6.6511610">
        <ele>1164.0</ele>
        <time>2021-02-07T11:44:31Z</time>
      </trkpt>
      <trkpt lat="43.3036790" lon="-6.6510950">
        <ele>1164.0</ele>
        <time>2021-02-07T11:44:35Z</time>
      </trkpt>
      <trkpt lat="43.3036480" lon="-6.6510190">
        <ele>1165.0</ele>
        <time>2021-02-07T11:44:40Z</time>
      </trkpt>
      <trkpt lat="43.3036210" lon="-6.6509530">
        <ele>1165.0</ele>
        <time>2021-02-07T11:44:45Z</time>
      </trkpt>
      <trkpt lat="43.3035820" lon="-6.6508960">
        <ele>1164.0</ele>
        <time>2021-02-07T11:44:50Z</time>
      </trkpt>
      <trkpt lat="43.3035560" lon="-6.6508310">
        <ele>1163.0</ele>
        <time>2021-02-07T11:44:55Z</time>
      </trkpt>
      <trkpt lat="43.3035390" lon="-6.6507600">
        <ele>1163.0</ele>
        <time>2021-02-07T11:45:00Z</time>
      </trkpt>
      <trkpt lat="43.3035100" lon="-6.6506920">
        <ele>1163.0</ele>
        <time>2021-02-07T11:45:05Z</time>
      </trkpt>
      <trkpt lat="43.3034870" lon="-6.6506260">
        <ele>1163.0</ele>
        <time>2021-02-07T11:45:10Z</time>
      </trkpt>
      <trkpt lat="43.3034640" lon="-6.6505480">
        <ele>1163.0</ele>
        <time>2021-02-07T11:45:17Z</time>
      </trkpt>
      <trkpt lat="43.3034210" lon="-6.6504690">
        <ele>1162.0</ele>
        <time>2021-02-07T11:45:22Z</time>
      </trkpt>
      <trkpt lat="43.3033910" lon="-6.6504140">
        <ele>1162.0</ele>
        <time>2021-02-07T11:45:26Z</time>
      </trkpt>
      <trkpt lat="43.3033660" lon="-6.6503540">
        <ele>1161.0</ele>
        <time>2021-02-07T11:45:31Z</time>
      </trkpt>
      <trkpt lat="43.3033330" lon="-6.6502980">
        <ele>1161.0</ele>
        <time>2021-02-07T11:45:37Z</time>
      </trkpt>
      <trkpt lat="43.3032950" lon="-6.6502350">
        <ele>1162.0</ele>
        <time>2021-02-07T11:45:44Z</time>
      </trkpt>
      <trkpt lat="43.3032600" lon="-6.6501790">
        <ele>1162.0</ele>
        <time>2021-02-07T11:45:49Z</time>
      </trkpt>
      <trkpt lat="43.3032310" lon="-6.6501210">
        <ele>1163.0</ele>
        <time>2021-02-07T11:45:54Z</time>
      </trkpt>
      <trkpt lat="43.3032030" lon="-6.6500600">
        <ele>1164.0</ele>
        <time>2021-02-07T11:45:59Z</time>
      </trkpt>
      <trkpt lat="43.3031680" lon="-6.6499970">
        <ele>1164.0</ele>
        <time>2021-02-07T11:46:05Z</time>
      </trkpt>
      <trkpt lat="43.3031390" lon="-6.6499390">
        <ele>1165.0</ele>
        <time>2021-02-07T11:46:11Z</time>
      </trkpt>
      <trkpt lat="43.3031090" lon="-6.6498800">
        <ele>1166.0</ele>
        <time>2021-02-07T11:46:18Z</time>
      </trkpt>
      <trkpt lat="43.3030750" lon="-6.6498250">
        <ele>1166.0</ele>
        <time>2021-02-07T11:46:25Z</time>
      </trkpt>
      <trkpt lat="43.3030210" lon="-6.6497720">
        <ele>1167.0</ele>
        <time>2021-02-07T11:46:32Z</time>
      </trkpt>
      <trkpt lat="43.3029900" lon="-6.6497140">
        <ele>1168.0</ele>
        <time>2021-02-07T11:46:38Z</time>
      </trkpt>
      <trkpt lat="43.3029590" lon="-6.6496510">
        <ele>1169.0</ele>
        <time>2021-02-07T11:46:45Z</time>
      </trkpt>
      <trkpt lat="43.3029260" lon="-6.6495860">
        <ele>1169.0</ele>
        <time>2021-02-07T11:46:53Z</time>
      </trkpt>
      <trkpt lat="43.3028980" lon="-6.6495300">
        <ele>1169.0</ele>
        <time>2021-02-07T11:46:59Z</time>
      </trkpt>
      <trkpt lat="43.3028770" lon="-6.6494640">
        <ele>1169.0</ele>
        <time>2021-02-07T11:47:05Z</time>
      </trkpt>
      <trkpt lat="43.3028450" lon="-6.6494060">
        <ele>1169.0</ele>
        <time>2021-02-07T11:47:12Z</time>
      </trkpt>
      <trkpt lat="43.3028010" lon="-6.6493550">
        <ele>1170.0</ele>
        <time>2021-02-07T11:47:20Z</time>
      </trkpt>
      <trkpt lat="43.3027670" lon="-6.6492980">
        <ele>1169.0</ele>
        <time>2021-02-07T11:47:28Z</time>
      </trkpt>
      <trkpt lat="43.3027310" lon="-6.6492370">
        <ele>1171.0</ele>
        <time>2021-02-07T11:47:36Z</time>
      </trkpt>
      <trkpt lat="43.3026900" lon="-6.6491980">
        <ele>1172.0</ele>
        <time>2021-02-07T11:47:43Z</time>
      </trkpt>
      <trkpt lat="43.3026400" lon="-6.6491660">
        <ele>1173.0</ele>
        <time>2021-02-07T11:47:50Z</time>
      </trkpt>
      <trkpt lat="43.3025920" lon="-6.6491370">
        <ele>1173.0</ele>
        <time>2021-02-07T11:47:56Z</time>
      </trkpt>
      <trkpt lat="43.3025450" lon="-6.6490940">
        <ele>1173.0</ele>
        <time>2021-02-07T11:48:04Z</time>
      </trkpt>
      <trkpt lat="43.3025060" lon="-6.6490430">
        <ele>1173.0</ele>
        <time>2021-02-07T11:48:12Z</time>
      </trkpt>
      <trkpt lat="43.3024750" lon="-6.6489860">
        <ele>1174.0</ele>
        <time>2021-02-07T11:48:19Z</time>
      </trkpt>
      <trkpt lat="43.3024350" lon="-6.6489380">
        <ele>1174.0</ele>
        <time>2021-02-07T11:48:25Z</time>
      </trkpt>
      <trkpt lat="43.3023850" lon="-6.6489010">
        <ele>1175.0</ele>
        <time>2021-02-07T11:48:32Z</time>
      </trkpt>
      <trkpt lat="43.3023380" lon="-6.6488840">
        <ele>1177.0</ele>
        <time>2021-02-07T11:48:44Z</time>
      </trkpt>
      <trkpt lat="43.3022920" lon="-6.6488400">
        <ele>1177.0</ele>
        <time>2021-02-07T11:48:55Z</time>
      </trkpt>
      <trkpt lat="43.3022420" lon="-6.6488030">
        <ele>1178.0</ele>
        <time>2021-02-07T11:49:03Z</time>
      </trkpt>
      <trkpt lat="43.3022040" lon="-6.6487510">
        <ele>1179.0</ele>
        <time>2021-02-07T11:49:11Z</time>
      </trkpt>
      <trkpt lat="43.3021670" lon="-6.6486980">
        <ele>1181.0</ele>
        <time>2021-02-07T11:49:20Z</time>
      </trkpt>
      <trkpt lat="43.3021300" lon="-6.6486330">
        <ele>1181.0</ele>
        <time>2021-02-07T11:49:58Z</time>
      </trkpt>
      <trkpt lat="43.3020870" lon="-6.6485690">
        <ele>1182.0</ele>
        <time>2021-02-07T11:50:03Z</time>
      </trkpt>
      <trkpt lat="43.3020530" lon="-6.6485160">
        <ele>1182.0</ele>
        <time>2021-02-07T11:50:08Z</time>
      </trkpt>
      <trkpt lat="43.3020100" lon="-6.6484610">
        <ele>1184.0</ele>
        <time>2021-02-07T11:50:38Z</time>
      </trkpt>
      <trkpt lat="43.3019730" lon="-6.6483960">
        <ele>1185.0</ele>
        <time>2021-02-07T11:50:43Z</time>
      </trkpt>
      <trkpt lat="43.3019390" lon="-6.6483430">
        <ele>1186.0</ele>
        <time>2021-02-07T11:50:48Z</time>
      </trkpt>
      <trkpt lat="43.3019280" lon="-6.6482800">
        <ele>1187.0</ele>
        <time>2021-02-07T11:50:58Z</time>
      </trkpt>
      <trkpt lat="43.3018860" lon="-6.6482180">
        <ele>1190.0</ele>
        <time>2021-02-07T11:51:43Z</time>
      </trkpt>
      <trkpt lat="43.3018430" lon="-6.6481790">
        <ele>1191.0</ele>
        <time>2021-02-07T11:51:47Z</time>
      </trkpt>
      <trkpt lat="43.3017950" lon="-6.6481360">
        <ele>1192.0</ele>
        <time>2021-02-07T11:51:52Z</time>
      </trkpt>
      <trkpt lat="43.3017630" lon="-6.6480930">
        <ele>1192.0</ele>
        <time>2021-02-07T11:51:58Z</time>
      </trkpt>
      <trkpt lat="43.3017100" lon="-6.6480730">
        <ele>1193.0</ele>
        <time>2021-02-07T11:52:10Z</time>
      </trkpt>
      <trkpt lat="43.3016520" lon="-6.6480430">
        <ele>1194.0</ele>
        <time>2021-02-07T11:52:19Z</time>
      </trkpt>
      <trkpt lat="43.3016010" lon="-6.6480200">
        <ele>1195.0</ele>
        <time>2021-02-07T11:52:24Z</time>
      </trkpt>
      <trkpt lat="43.3015510" lon="-6.6479950">
        <ele>1196.0</ele>
        <time>2021-02-07T11:52:34Z</time>
      </trkpt>
      <trkpt lat="43.3015060" lon="-6.6479430">
        <ele>1196.0</ele>
        <time>2021-02-07T11:52:43Z</time>
      </trkpt>
      <trkpt lat="43.3014730" lon="-6.6478840">
        <ele>1197.0</ele>
        <time>2021-02-07T11:52:51Z</time>
      </trkpt>
      <trkpt lat="43.3014140" lon="-6.6478010">
        <ele>1198.0</ele>
        <time>2021-02-07T11:53:13Z</time>
      </trkpt>
      <trkpt lat="43.3013740" lon="-6.6477540">
        <ele>1198.0</ele>
        <time>2021-02-07T11:53:19Z</time>
      </trkpt>
      <trkpt lat="43.3013230" lon="-6.6477200">
        <ele>1198.0</ele>
        <time>2021-02-07T11:53:25Z</time>
      </trkpt>
      <trkpt lat="43.3012800" lon="-6.6476850">
        <ele>1199.0</ele>
        <time>2021-02-07T11:53:30Z</time>
      </trkpt>
      <trkpt lat="43.3012310" lon="-6.6476520">
        <ele>1199.0</ele>
        <time>2021-02-07T11:53:35Z</time>
      </trkpt>
      <trkpt lat="43.3011940" lon="-6.6476080">
        <ele>1199.0</ele>
        <time>2021-02-07T11:53:41Z</time>
      </trkpt>
      <trkpt lat="43.3011510" lon="-6.6475510">
        <ele>1199.0</ele>
        <time>2021-02-07T11:53:49Z</time>
      </trkpt>
      <trkpt lat="43.3011080" lon="-6.6474870">
        <ele>1199.0</ele>
        <time>2021-02-07T11:53:55Z</time>
      </trkpt>
      <trkpt lat="43.3010680" lon="-6.6474340">
        <ele>1199.0</ele>
        <time>2021-02-07T11:54:01Z</time>
      </trkpt>
      <trkpt lat="43.3010320" lon="-6.6473750">
        <ele>1199.0</ele>
        <time>2021-02-07T11:54:06Z</time>
      </trkpt>
      <trkpt lat="43.3010040" lon="-6.6473070">
        <ele>1198.0</ele>
        <time>2021-02-07T11:54:11Z</time>
      </trkpt>
      <trkpt lat="43.3009730" lon="-6.6472480">
        <ele>1197.0</ele>
        <time>2021-02-07T11:54:16Z</time>
      </trkpt>
      <trkpt lat="43.3009510" lon="-6.6471830">
        <ele>1196.0</ele>
        <time>2021-02-07T11:54:21Z</time>
      </trkpt>
      <trkpt lat="43.3009390" lon="-6.6471050">
        <ele>1196.0</ele>
        <time>2021-02-07T11:54:26Z</time>
      </trkpt>
      <trkpt lat="43.3009340" lon="-6.6470310">
        <ele>1195.0</ele>
        <time>2021-02-07T11:54:31Z</time>
      </trkpt>
      <trkpt lat="43.3009350" lon="-6.6469550">
        <ele>1194.0</ele>
        <time>2021-02-07T11:54:36Z</time>
      </trkpt>
      <trkpt lat="43.3009350" lon="-6.6468810">
        <ele>1193.0</ele>
        <time>2021-02-07T11:54:41Z</time>
      </trkpt>
      <trkpt lat="43.3009420" lon="-6.6468030">
        <ele>1193.0</ele>
        <time>2021-02-07T11:54:47Z</time>
      </trkpt>
      <trkpt lat="43.3009450" lon="-6.6467340">
        <ele>1193.0</ele>
        <time>2021-02-07T11:54:51Z</time>
      </trkpt>
      <trkpt lat="43.3009420" lon="-6.6466650">
        <ele>1192.0</ele>
        <time>2021-02-07T11:54:56Z</time>
      </trkpt>
      <trkpt lat="43.3009400" lon="-6.6465810">
        <ele>1192.0</ele>
        <time>2021-02-07T11:55:02Z</time>
      </trkpt>
      <trkpt lat="43.3009270" lon="-6.6465100">
        <ele>1192.0</ele>
        <time>2021-02-07T11:55:07Z</time>
      </trkpt>
      <trkpt lat="43.3009130" lon="-6.6464290">
        <ele>1191.0</ele>
        <time>2021-02-07T11:55:13Z</time>
      </trkpt>
      <trkpt lat="43.3009070" lon="-6.6463620">
        <ele>1191.0</ele>
        <time>2021-02-07T11:55:18Z</time>
      </trkpt>
      <trkpt lat="43.3009010" lon="-6.6462860">
        <ele>1191.0</ele>
        <time>2021-02-07T11:55:25Z</time>
      </trkpt>
      <trkpt lat="43.3009060" lon="-6.6462130">
        <ele>1191.0</ele>
        <time>2021-02-07T11:55:31Z</time>
      </trkpt>
      <trkpt lat="43.3009140" lon="-6.6461400">
        <ele>1191.0</ele>
        <time>2021-02-07T11:55:37Z</time>
      </trkpt>
      <trkpt lat="43.3009180" lon="-6.6460730">
        <ele>1191.0</ele>
        <time>2021-02-07T11:55:43Z</time>
      </trkpt>
      <trkpt lat="43.3009250" lon="-6.6459970">
        <ele>1191.0</ele>
        <time>2021-02-07T11:55:49Z</time>
      </trkpt>
      <trkpt lat="43.3009140" lon="-6.6459290">
        <ele>1192.0</ele>
        <time>2021-02-07T11:55:55Z</time>
      </trkpt>
      <trkpt lat="43.3008980" lon="-6.6458470">
        <ele>1192.0</ele>
        <time>2021-02-07T11:56:01Z</time>
      </trkpt>
      <trkpt lat="43.3008770" lon="-6.6457880">
        <ele>1193.0</ele>
        <time>2021-02-07T11:56:06Z</time>
      </trkpt>
      <trkpt lat="43.3008520" lon="-6.6457190">
        <ele>1193.0</ele>
        <time>2021-02-07T11:56:13Z</time>
      </trkpt>
      <trkpt lat="43.3008250" lon="-6.6456480">
        <ele>1193.0</ele>
        <time>2021-02-07T11:56:20Z</time>
      </trkpt>
      <trkpt lat="43.3008130" lon="-6.6455830">
        <ele>1193.0</ele>
        <time>2021-02-07T11:56:25Z</time>
      </trkpt>
      <trkpt lat="43.3008030" lon="-6.6455040">
        <ele>1192.0</ele>
        <time>2021-02-07T11:56:31Z</time>
      </trkpt>
      <trkpt lat="43.3008000" lon="-6.6454290">
        <ele>1192.0</ele>
        <time>2021-02-07T11:56:36Z</time>
      </trkpt>
      <trkpt lat="43.3007890" lon="-6.6453660">
        <ele>1192.0</ele>
        <time>2021-02-07T11:56:40Z</time>
      </trkpt>
      <trkpt lat="43.3007870" lon="-6.6452860">
        <ele>1192.0</ele>
        <time>2021-02-07T11:56:45Z</time>
      </trkpt>
      <trkpt lat="43.3007930" lon="-6.6452080">
        <ele>1192.0</ele>
        <time>2021-02-07T11:56:50Z</time>
      </trkpt>
      <trkpt lat="43.3007890" lon="-6.6451370">
        <ele>1192.0</ele>
        <time>2021-02-07T11:56:55Z</time>
      </trkpt>
      <trkpt lat="43.3007880" lon="-6.6450710">
        <ele>1192.0</ele>
        <time>2021-02-07T11:57:00Z</time>
      </trkpt>
      <trkpt lat="43.3007920" lon="-6.6449930">
        <ele>1192.0</ele>
        <time>2021-02-07T11:57:06Z</time>
      </trkpt>
      <trkpt lat="43.3008130" lon="-6.6449340">
        <ele>1192.0</ele>
        <time>2021-02-07T11:57:11Z</time>
      </trkpt>
      <trkpt lat="43.3008220" lon="-6.6448580">
        <ele>1192.0</ele>
        <time>2021-02-07T11:57:18Z</time>
      </trkpt>
      <trkpt lat="43.3008260" lon="-6.6447900">
        <ele>1193.0</ele>
        <time>2021-02-07T11:57:25Z</time>
      </trkpt>
      <trkpt lat="43.3008080" lon="-6.6446900">
        <ele>1194.0</ele>
        <time>2021-02-07T11:57:33Z</time>
      </trkpt>
      <trkpt lat="43.3008040" lon="-6.6446110">
        <ele>1194.0</ele>
        <time>2021-02-07T11:57:43Z</time>
      </trkpt>
      <trkpt lat="43.3007930" lon="-6.6445400">
        <ele>1194.0</ele>
        <time>2021-02-07T11:57:49Z</time>
      </trkpt>
      <trkpt lat="43.3007830" lon="-6.6444750">
        <ele>1194.0</ele>
        <time>2021-02-07T11:57:55Z</time>
      </trkpt>
      <trkpt lat="43.3007790" lon="-6.6443980">
        <ele>1193.0</ele>
        <time>2021-02-07T11:58:01Z</time>
      </trkpt>
      <trkpt lat="43.3007790" lon="-6.6443130">
        <ele>1192.0</ele>
        <time>2021-02-07T11:58:07Z</time>
      </trkpt>
      <trkpt lat="43.3007780" lon="-6.6442460">
        <ele>1192.0</ele>
        <time>2021-02-07T11:58:12Z</time>
      </trkpt>
      <trkpt lat="43.3007750" lon="-6.6441730">
        <ele>1192.0</ele>
        <time>2021-02-07T11:58:18Z</time>
      </trkpt>
      <trkpt lat="43.3007780" lon="-6.6440920">
        <ele>1192.0</ele>
        <time>2021-02-07T11:58:23Z</time>
      </trkpt>
      <trkpt lat="43.3007780" lon="-6.6440250">
        <ele>1192.0</ele>
        <time>2021-02-07T11:58:28Z</time>
      </trkpt>
      <trkpt lat="43.3007750" lon="-6.6439500">
        <ele>1192.0</ele>
        <time>2021-02-07T11:58:33Z</time>
      </trkpt>
      <trkpt lat="43.3007800" lon="-6.6438710">
        <ele>1192.0</ele>
        <time>2021-02-07T11:58:38Z</time>
      </trkpt>
      <trkpt lat="43.3007850" lon="-6.6437930">
        <ele>1192.0</ele>
        <time>2021-02-07T11:58:45Z</time>
      </trkpt>
      <trkpt lat="43.3007960" lon="-6.6437220">
        <ele>1192.0</ele>
        <time>2021-02-07T11:58:50Z</time>
      </trkpt>
      <trkpt lat="43.3007970" lon="-6.6436450">
        <ele>1191.0</ele>
        <time>2021-02-07T11:58:56Z</time>
      </trkpt>
      <trkpt lat="43.3007910" lon="-6.6435720">
        <ele>1191.0</ele>
        <time>2021-02-07T11:59:01Z</time>
      </trkpt>
      <trkpt lat="43.3007860" lon="-6.6434970">
        <ele>1191.0</ele>
        <time>2021-02-07T11:59:06Z</time>
      </trkpt>
      <trkpt lat="43.3007820" lon="-6.6434320">
        <ele>1191.0</ele>
        <time>2021-02-07T11:59:11Z</time>
      </trkpt>
      <trkpt lat="43.3007670" lon="-6.6433580">
        <ele>1191.0</ele>
        <time>2021-02-07T11:59:17Z</time>
      </trkpt>
      <trkpt lat="43.3007560" lon="-6.6432750">
        <ele>1191.0</ele>
        <time>2021-02-07T11:59:22Z</time>
      </trkpt>
      <trkpt lat="43.3007520" lon="-6.6432090">
        <ele>1191.0</ele>
        <time>2021-02-07T11:59:26Z</time>
      </trkpt>
      <trkpt lat="43.3007510" lon="-6.6431250">
        <ele>1190.0</ele>
        <time>2021-02-07T11:59:31Z</time>
      </trkpt>
      <trkpt lat="43.3007520" lon="-6.6430620">
        <ele>1190.0</ele>
        <time>2021-02-07T11:59:35Z</time>
      </trkpt>
      <trkpt lat="43.3007550" lon="-6.6429840">
        <ele>1189.0</ele>
        <time>2021-02-07T11:59:41Z</time>
      </trkpt>
      <trkpt lat="43.3007580" lon="-6.6429080">
        <ele>1189.0</ele>
        <time>2021-02-07T11:59:46Z</time>
      </trkpt>
      <trkpt lat="43.3007530" lon="-6.6428390">
        <ele>1188.0</ele>
        <time>2021-02-07T11:59:51Z</time>
      </trkpt>
      <trkpt lat="43.3007590" lon="-6.6427670">
        <ele>1188.0</ele>
        <time>2021-02-07T11:59:57Z</time>
      </trkpt>
      <trkpt lat="43.3007530" lon="-6.6426780">
        <ele>1188.0</ele>
        <time>2021-02-07T12:00:02Z</time>
      </trkpt>
      <trkpt lat="43.3007480" lon="-6.6426080">
        <ele>1187.0</ele>
        <time>2021-02-07T12:00:06Z</time>
      </trkpt>
      <trkpt lat="43.3007490" lon="-6.6425170">
        <ele>1187.0</ele>
        <time>2021-02-07T12:00:11Z</time>
      </trkpt>
      <trkpt lat="43.3007470" lon="-6.6424330">
        <ele>1187.0</ele>
        <time>2021-02-07T12:00:16Z</time>
      </trkpt>
      <trkpt lat="43.3007460" lon="-6.6423520">
        <ele>1186.0</ele>
        <time>2021-02-07T12:00:21Z</time>
      </trkpt>
      <trkpt lat="43.3007480" lon="-6.6422780">
        <ele>1186.0</ele>
        <time>2021-02-07T12:00:26Z</time>
      </trkpt>
      <trkpt lat="43.3007520" lon="-6.6421990">
        <ele>1186.0</ele>
        <time>2021-02-07T12:00:31Z</time>
      </trkpt>
      <trkpt lat="43.3007560" lon="-6.6421170">
        <ele>1186.0</ele>
        <time>2021-02-07T12:00:36Z</time>
      </trkpt>
      <trkpt lat="43.3007590" lon="-6.6420370">
        <ele>1185.0</ele>
        <time>2021-02-07T12:00:42Z</time>
      </trkpt>
      <trkpt lat="43.3007720" lon="-6.6419580">
        <ele>1184.0</ele>
        <time>2021-02-07T12:00:47Z</time>
      </trkpt>
      <trkpt lat="43.3007800" lon="-6.6418970">
        <ele>1183.0</ele>
        <time>2021-02-07T12:00:51Z</time>
      </trkpt>
      <trkpt lat="43.3007850" lon="-6.6418260">
        <ele>1183.0</ele>
        <time>2021-02-07T12:00:56Z</time>
      </trkpt>
      <trkpt lat="43.3008020" lon="-6.6417520">
        <ele>1182.0</ele>
        <time>2021-02-07T12:01:01Z</time>
      </trkpt>
      <trkpt lat="43.3008200" lon="-6.6416730">
        <ele>1182.0</ele>
        <time>2021-02-07T12:01:06Z</time>
      </trkpt>
      <trkpt lat="43.3008330" lon="-6.6416140">
        <ele>1181.0</ele>
        <time>2021-02-07T12:01:10Z</time>
      </trkpt>
      <trkpt lat="43.3008500" lon="-6.6415380">
        <ele>1181.0</ele>
        <time>2021-02-07T12:01:15Z</time>
      </trkpt>
      <trkpt lat="43.3008640" lon="-6.6414670">
        <ele>1180.0</ele>
        <time>2021-02-07T12:01:19Z</time>
      </trkpt>
      <trkpt lat="43.3008790" lon="-6.6413820">
        <ele>1179.0</ele>
        <time>2021-02-07T12:01:24Z</time>
      </trkpt>
      <trkpt lat="43.3008930" lon="-6.6413130">
        <ele>1179.0</ele>
        <time>2021-02-07T12:01:28Z</time>
      </trkpt>
      <trkpt lat="43.3009140" lon="-6.6412300">
        <ele>1179.0</ele>
        <time>2021-02-07T12:01:33Z</time>
      </trkpt>
      <trkpt lat="43.3009350" lon="-6.6411480">
        <ele>1178.0</ele>
        <time>2021-02-07T12:01:38Z</time>
      </trkpt>
      <trkpt lat="43.3009520" lon="-6.6410770">
        <ele>1177.0</ele>
        <time>2021-02-07T12:01:43Z</time>
      </trkpt>
      <trkpt lat="43.3009660" lon="-6.6410000">
        <ele>1177.0</ele>
        <time>2021-02-07T12:01:48Z</time>
      </trkpt>
      <trkpt lat="43.3009860" lon="-6.6409320">
        <ele>1176.0</ele>
        <time>2021-02-07T12:01:53Z</time>
      </trkpt>
      <trkpt lat="43.3010210" lon="-6.6408680">
        <ele>1176.0</ele>
        <time>2021-02-07T12:01:58Z</time>
      </trkpt>
      <trkpt lat="43.3010430" lon="-6.6407960">
        <ele>1175.0</ele>
        <time>2021-02-07T12:02:03Z</time>
      </trkpt>
      <trkpt lat="43.3010540" lon="-6.6407270">
        <ele>1175.0</ele>
        <time>2021-02-07T12:02:08Z</time>
      </trkpt>
      <trkpt lat="43.3010630" lon="-6.6406530">
        <ele>1174.0</ele>
        <time>2021-02-07T12:02:13Z</time>
      </trkpt>
      <trkpt lat="43.3010690" lon="-6.6405730">
        <ele>1173.0</ele>
        <time>2021-02-07T12:02:18Z</time>
      </trkpt>
      <trkpt lat="43.3010660" lon="-6.6404900">
        <ele>1173.0</ele>
        <time>2021-02-07T12:02:24Z</time>
      </trkpt>
      <trkpt lat="43.3010510" lon="-6.6404130">
        <ele>1173.0</ele>
        <time>2021-02-07T12:02:29Z</time>
      </trkpt>
      <trkpt lat="43.3010360" lon="-6.6403300">
        <ele>1172.0</ele>
        <time>2021-02-07T12:02:34Z</time>
      </trkpt>
      <trkpt lat="43.3010250" lon="-6.6402550">
        <ele>1172.0</ele>
        <time>2021-02-07T12:02:39Z</time>
      </trkpt>
      <trkpt lat="43.3010160" lon="-6.6401800">
        <ele>1172.0</ele>
        <time>2021-02-07T12:02:44Z</time>
      </trkpt>
      <trkpt lat="43.3009960" lon="-6.6401090">
        <ele>1171.0</ele>
        <time>2021-02-07T12:02:49Z</time>
      </trkpt>
      <trkpt lat="43.3009810" lon="-6.6400350">
        <ele>1171.0</ele>
        <time>2021-02-07T12:02:54Z</time>
      </trkpt>
      <trkpt lat="43.3009520" lon="-6.6399490">
        <ele>1171.0</ele>
        <time>2021-02-07T12:03:00Z</time>
      </trkpt>
      <trkpt lat="43.3009360" lon="-6.6398770">
        <ele>1171.0</ele>
        <time>2021-02-07T12:03:05Z</time>
      </trkpt>
      <trkpt lat="43.3009280" lon="-6.6398090">
        <ele>1171.0</ele>
        <time>2021-02-07T12:03:10Z</time>
      </trkpt>
      <trkpt lat="43.3009120" lon="-6.6397310">
        <ele>1171.0</ele>
        <time>2021-02-07T12:03:16Z</time>
      </trkpt>
      <trkpt lat="43.3008990" lon="-6.6396470">
        <ele>1171.0</ele>
        <time>2021-02-07T12:03:21Z</time>
      </trkpt>
      <trkpt lat="43.3008840" lon="-6.6395910">
        <ele>1171.0</ele>
        <time>2021-02-07T12:03:26Z</time>
      </trkpt>
      <trkpt lat="43.3008660" lon="-6.6395140">
        <ele>1170.0</ele>
        <time>2021-02-07T12:03:32Z</time>
      </trkpt>
      <trkpt lat="43.3008450" lon="-6.6394520">
        <ele>1170.0</ele>
        <time>2021-02-07T12:03:38Z</time>
      </trkpt>
      <trkpt lat="43.3008220" lon="-6.6393900">
        <ele>1170.0</ele>
        <time>2021-02-07T12:03:45Z</time>
      </trkpt>
      <trkpt lat="43.3007970" lon="-6.6393260">
        <ele>1170.0</ele>
        <time>2021-02-07T12:03:57Z</time>
      </trkpt>
      <trkpt lat="43.3007860" lon="-6.6392600">
        <ele>1170.0</ele>
        <time>2021-02-07T12:04:07Z</time>
      </trkpt>
      <trkpt lat="43.3007750" lon="-6.6391800">
        <ele>1170.0</ele>
        <time>2021-02-07T12:04:13Z</time>
      </trkpt>
      <trkpt lat="43.3007620" lon="-6.6391040">
        <ele>1170.0</ele>
        <time>2021-02-07T12:04:18Z</time>
      </trkpt>
      <trkpt lat="43.3007410" lon="-6.6390480">
        <ele>1170.0</ele>
        <time>2021-02-07T12:04:22Z</time>
      </trkpt>
      <trkpt lat="43.3007190" lon="-6.6389650">
        <ele>1171.0</ele>
        <time>2021-02-07T12:04:28Z</time>
      </trkpt>
      <trkpt lat="43.3007010" lon="-6.6388940">
        <ele>1171.0</ele>
        <time>2021-02-07T12:04:33Z</time>
      </trkpt>
      <trkpt lat="43.3007060" lon="-6.6388190">
        <ele>1171.0</ele>
        <time>2021-02-07T12:04:39Z</time>
      </trkpt>
      <trkpt lat="43.3007160" lon="-6.6387560">
        <ele>1171.0</ele>
        <time>2021-02-07T12:04:44Z</time>
      </trkpt>
      <trkpt lat="43.3007300" lon="-6.6386860">
        <ele>1172.0</ele>
        <time>2021-02-07T12:04:51Z</time>
      </trkpt>
      <trkpt lat="43.3007320" lon="-6.6386070">
        <ele>1172.0</ele>
        <time>2021-02-07T12:04:59Z</time>
      </trkpt>
      <trkpt lat="43.3007430" lon="-6.6385420">
        <ele>1173.0</ele>
        <time>2021-02-07T12:05:06Z</time>
      </trkpt>
      <trkpt lat="43.3007620" lon="-6.6384710">
        <ele>1173.0</ele>
        <time>2021-02-07T12:05:14Z</time>
      </trkpt>
      <trkpt lat="43.3007670" lon="-6.6383920">
        <ele>1174.0</ele>
        <time>2021-02-07T12:05:23Z</time>
      </trkpt>
      <trkpt lat="43.3007620" lon="-6.6383160">
        <ele>1174.0</ele>
        <time>2021-02-07T12:05:30Z</time>
      </trkpt>
      <trkpt lat="43.3007340" lon="-6.6382600">
        <ele>1174.0</ele>
        <time>2021-02-07T12:05:35Z</time>
      </trkpt>
      <trkpt lat="43.3006570" lon="-6.6381700">
        <ele>1174.0</ele>
        <time>2021-02-07T12:06:13Z</time>
      </trkpt>
      <trkpt lat="43.3006180" lon="-6.6381000">
        <ele>1174.0</ele>
        <time>2021-02-07T12:06:17Z</time>
      </trkpt>
      <trkpt lat="43.3005980" lon="-6.6380400">
        <ele>1174.0</ele>
        <time>2021-02-07T12:06:21Z</time>
      </trkpt>
      <trkpt lat="43.3006050" lon="-6.6379780">
        <ele>1174.0</ele>
        <time>2021-02-07T12:06:28Z</time>
      </trkpt>
      <trkpt lat="43.3005950" lon="-6.6379040">
        <ele>1174.0</ele>
        <time>2021-02-07T12:06:36Z</time>
      </trkpt>
      <trkpt lat="43.3005640" lon="-6.6378290">
        <ele>1174.0</ele>
        <time>2021-02-07T12:06:43Z</time>
      </trkpt>
      <trkpt lat="43.3005340" lon="-6.6377640">
        <ele>1174.0</ele>
        <time>2021-02-07T12:06:49Z</time>
      </trkpt>
      <trkpt lat="43.3005380" lon="-6.6376990">
        <ele>1175.0</ele>
        <time>2021-02-07T12:06:58Z</time>
      </trkpt>
      <trkpt lat="43.3005190" lon="-6.6376240">
        <ele>1176.0</ele>
        <time>2021-02-07T12:07:05Z</time>
      </trkpt>
      <trkpt lat="43.3004940" lon="-6.6375590">
        <ele>1176.0</ele>
        <time>2021-02-07T12:07:12Z</time>
      </trkpt>
      <trkpt lat="43.3004750" lon="-6.6374920">
        <ele>1177.0</ele>
        <time>2021-02-07T12:07:19Z</time>
      </trkpt>
      <trkpt lat="43.3004650" lon="-6.6374120">
        <ele>1177.0</ele>
        <time>2021-02-07T12:07:25Z</time>
      </trkpt>
      <trkpt lat="43.3004660" lon="-6.6373320">
        <ele>1178.0</ele>
        <time>2021-02-07T12:07:31Z</time>
      </trkpt>
      <trkpt lat="43.3004710" lon="-6.6372530">
        <ele>1179.0</ele>
        <time>2021-02-07T12:07:37Z</time>
      </trkpt>
      <trkpt lat="43.3004840" lon="-6.6371910">
        <ele>1179.0</ele>
        <time>2021-02-07T12:07:43Z</time>
      </trkpt>
      <trkpt lat="43.3004910" lon="-6.6371080">
        <ele>1180.0</ele>
        <time>2021-02-07T12:07:52Z</time>
      </trkpt>
      <trkpt lat="43.3004820" lon="-6.6370350">
        <ele>1181.0</ele>
        <time>2021-02-07T12:07:58Z</time>
      </trkpt>
      <trkpt lat="43.3004630" lon="-6.6369610">
        <ele>1182.0</ele>
        <time>2021-02-07T12:08:04Z</time>
      </trkpt>
      <trkpt lat="43.3004470" lon="-6.6368910">
        <ele>1182.0</ele>
        <time>2021-02-07T12:08:09Z</time>
      </trkpt>
      <trkpt lat="43.3004420" lon="-6.6368130">
        <ele>1181.0</ele>
        <time>2021-02-07T12:08:15Z</time>
      </trkpt>
      <trkpt lat="43.3004390" lon="-6.6367330">
        <ele>1181.0</ele>
        <time>2021-02-07T12:08:21Z</time>
      </trkpt>
      <trkpt lat="43.3004080" lon="-6.6366730">
        <ele>1181.0</ele>
        <time>2021-02-07T12:08:27Z</time>
      </trkpt>
      <trkpt lat="43.3003690" lon="-6.6366270">
        <ele>1181.0</ele>
        <time>2021-02-07T12:08:32Z</time>
      </trkpt>
      <trkpt lat="43.3003260" lon="-6.6365830">
        <ele>1181.0</ele>
        <time>2021-02-07T12:08:37Z</time>
      </trkpt>
      <trkpt lat="43.3002900" lon="-6.6365370">
        <ele>1180.0</ele>
        <time>2021-02-07T12:08:42Z</time>
      </trkpt>
      <trkpt lat="43.3002660" lon="-6.6364680">
        <ele>1180.0</ele>
        <time>2021-02-07T12:08:53Z</time>
      </trkpt>
      <trkpt lat="43.3002520" lon="-6.6363860">
        <ele>1180.0</ele>
        <time>2021-02-07T12:08:59Z</time>
      </trkpt>
      <trkpt lat="43.3002370" lon="-6.6363110">
        <ele>1180.0</ele>
        <time>2021-02-07T12:09:04Z</time>
      </trkpt>
      <trkpt lat="43.3002110" lon="-6.6362430">
        <ele>1180.0</ele>
        <time>2021-02-07T12:09:09Z</time>
      </trkpt>
      <trkpt lat="43.3001910" lon="-6.6361770">
        <ele>1180.0</ele>
        <time>2021-02-07T12:09:15Z</time>
      </trkpt>
      <trkpt lat="43.3002200" lon="-6.6361220">
        <ele>1180.0</ele>
        <time>2021-02-07T12:09:21Z</time>
      </trkpt>
      <trkpt lat="43.3002720" lon="-6.6360800">
        <ele>1181.0</ele>
        <time>2021-02-07T12:09:28Z</time>
      </trkpt>
      <trkpt lat="43.3003070" lon="-6.6360390">
        <ele>1182.0</ele>
        <time>2021-02-07T12:09:33Z</time>
      </trkpt>
      <trkpt lat="43.3003000" lon="-6.6359620">
        <ele>1183.0</ele>
        <time>2021-02-07T12:09:40Z</time>
      </trkpt>
      <trkpt lat="43.3002830" lon="-6.6358860">
        <ele>1183.0</ele>
        <time>2021-02-07T12:09:59Z</time>
      </trkpt>
      <trkpt lat="43.3002750" lon="-6.6358160">
        <ele>1183.0</ele>
        <time>2021-02-07T12:10:05Z</time>
      </trkpt>
      <trkpt lat="43.3002710" lon="-6.6357450">
        <ele>1184.0</ele>
        <time>2021-02-07T12:10:11Z</time>
      </trkpt>
      <trkpt lat="43.3002690" lon="-6.6356640">
        <ele>1185.0</ele>
        <time>2021-02-07T12:10:17Z</time>
      </trkpt>
      <trkpt lat="43.3002680" lon="-6.6356020">
        <ele>1185.0</ele>
        <time>2021-02-07T12:10:23Z</time>
      </trkpt>
      <trkpt lat="43.3002650" lon="-6.6355260">
        <ele>1187.0</ele>
        <time>2021-02-07T12:10:32Z</time>
      </trkpt>
      <trkpt lat="43.3002600" lon="-6.6354510">
        <ele>1187.0</ele>
        <time>2021-02-07T12:10:40Z</time>
      </trkpt>
      <trkpt lat="43.3002490" lon="-6.6353820">
        <ele>1187.0</ele>
        <time>2021-02-07T12:10:46Z</time>
      </trkpt>
      <trkpt lat="43.3002420" lon="-6.6352990">
        <ele>1187.0</ele>
        <time>2021-02-07T12:10:53Z</time>
      </trkpt>
      <trkpt lat="43.3002290" lon="-6.6352350">
        <ele>1187.0</ele>
        <time>2021-02-07T12:10:58Z</time>
      </trkpt>
      <trkpt lat="43.3002260" lon="-6.6351440">
        <ele>1187.0</ele>
        <time>2021-02-07T12:11:04Z</time>
      </trkpt>
      <trkpt lat="43.3002400" lon="-6.6350760">
        <ele>1187.0</ele>
        <time>2021-02-07T12:11:09Z</time>
      </trkpt>
      <trkpt lat="43.3002660" lon="-6.6350190">
        <ele>1188.0</ele>
        <time>2021-02-07T12:11:15Z</time>
      </trkpt>
      <trkpt lat="43.3002900" lon="-6.6349450">
        <ele>1188.0</ele>
        <time>2021-02-07T12:11:23Z</time>
      </trkpt>
      <trkpt lat="43.3003400" lon="-6.6348940">
        <ele>1188.0</ele>
        <time>2021-02-07T12:11:29Z</time>
      </trkpt>
      <trkpt lat="43.3003880" lon="-6.6348640">
        <ele>1189.0</ele>
        <time>2021-02-07T12:11:34Z</time>
      </trkpt>
      <trkpt lat="43.3004320" lon="-6.6348270">
        <ele>1189.0</ele>
        <time>2021-02-07T12:11:40Z</time>
      </trkpt>
      <trkpt lat="43.3004680" lon="-6.6347720">
        <ele>1190.0</ele>
        <time>2021-02-07T12:11:47Z</time>
      </trkpt>
      <trkpt lat="43.3005040" lon="-6.6347230">
        <ele>1190.0</ele>
        <time>2021-02-07T12:11:53Z</time>
      </trkpt>
      <trkpt lat="43.3005450" lon="-6.6346710">
        <ele>1191.0</ele>
        <time>2021-02-07T12:12:00Z</time>
      </trkpt>
      <trkpt lat="43.3005880" lon="-6.6346160">
        <ele>1191.0</ele>
        <time>2021-02-07T12:12:07Z</time>
      </trkpt>
      <trkpt lat="43.3006200" lon="-6.6345730">
        <ele>1191.0</ele>
        <time>2021-02-07T12:12:13Z</time>
      </trkpt>
      <trkpt lat="43.3006630" lon="-6.6345070">
        <ele>1192.0</ele>
        <time>2021-02-07T12:12:21Z</time>
      </trkpt>
      <trkpt lat="43.3006970" lon="-6.6344540">
        <ele>1192.0</ele>
        <time>2021-02-07T12:12:26Z</time>
      </trkpt>
      <trkpt lat="43.3007240" lon="-6.6344030">
        <ele>1192.0</ele>
        <time>2021-02-07T12:12:35Z</time>
      </trkpt>
      <trkpt lat="43.3007760" lon="-6.6343240">
        <ele>1193.0</ele>
        <time>2021-02-07T12:12:44Z</time>
      </trkpt>
      <trkpt lat="43.3008150" lon="-6.6342770">
        <ele>1193.0</ele>
        <time>2021-02-07T12:12:49Z</time>
      </trkpt>
      <trkpt lat="43.3008570" lon="-6.6342290">
        <ele>1194.0</ele>
        <time>2021-02-07T12:12:54Z</time>
      </trkpt>
      <trkpt lat="43.3009000" lon="-6.6341870">
        <ele>1194.0</ele>
        <time>2021-02-07T12:12:59Z</time>
      </trkpt>
      <trkpt lat="43.3009480" lon="-6.6341500">
        <ele>1194.0</ele>
        <time>2021-02-07T12:13:04Z</time>
      </trkpt>
      <trkpt lat="43.3009970" lon="-6.6341200">
        <ele>1195.0</ele>
        <time>2021-02-07T12:13:08Z</time>
      </trkpt>
      <trkpt lat="43.3010570" lon="-6.6340940">
        <ele>1195.0</ele>
        <time>2021-02-07T12:13:13Z</time>
      </trkpt>
      <trkpt lat="43.3011150" lon="-6.6340720">
        <ele>1195.0</ele>
        <time>2021-02-07T12:13:19Z</time>
      </trkpt>
      <trkpt lat="43.3011730" lon="-6.6340520">
        <ele>1195.0</ele>
        <time>2021-02-07T12:13:25Z</time>
      </trkpt>
      <trkpt lat="43.3012270" lon="-6.6340430">
        <ele>1196.0</ele>
        <time>2021-02-07T12:13:31Z</time>
      </trkpt>
      <trkpt lat="43.3012730" lon="-6.6340210">
        <ele>1197.0</ele>
        <time>2021-02-07T12:13:37Z</time>
      </trkpt>
      <trkpt lat="43.3013230" lon="-6.6339880">
        <ele>1198.0</ele>
        <time>2021-02-07T12:13:43Z</time>
      </trkpt>
      <trkpt lat="43.3013760" lon="-6.6339560">
        <ele>1198.0</ele>
        <time>2021-02-07T12:13:48Z</time>
      </trkpt>
      <trkpt lat="43.3014150" lon="-6.6339390">
        <ele>1198.0</ele>
        <time>2021-02-07T12:13:58Z</time>
      </trkpt>
      <trkpt lat="43.3014760" lon="-6.6339290">
        <ele>1198.0</ele>
        <time>2021-02-07T12:14:05Z</time>
      </trkpt>
      <trkpt lat="43.3015240" lon="-6.6339230">
        <ele>1199.0</ele>
        <time>2021-02-07T12:14:10Z</time>
      </trkpt>
      <trkpt lat="43.3015840" lon="-6.6339020">
        <ele>1199.0</ele>
        <time>2021-02-07T12:14:16Z</time>
      </trkpt>
      <trkpt lat="43.3016330" lon="-6.6338910">
        <ele>1199.0</ele>
        <time>2021-02-07T12:14:21Z</time>
      </trkpt>
      <trkpt lat="43.3016890" lon="-6.6338760">
        <ele>1199.0</ele>
        <time>2021-02-07T12:14:26Z</time>
      </trkpt>
      <trkpt lat="43.3017360" lon="-6.6338620">
        <ele>1199.0</ele>
        <time>2021-02-07T12:14:31Z</time>
      </trkpt>
      <trkpt lat="43.3017890" lon="-6.6338560">
        <ele>1199.0</ele>
        <time>2021-02-07T12:14:37Z</time>
      </trkpt>
      <trkpt lat="43.3018420" lon="-6.6338610">
        <ele>1200.0</ele>
        <time>2021-02-07T12:14:43Z</time>
      </trkpt>
      <trkpt lat="43.3018980" lon="-6.6338620">
        <ele>1200.0</ele>
        <time>2021-02-07T12:14:48Z</time>
      </trkpt>
      <trkpt lat="43.3019550" lon="-6.6338480">
        <ele>1200.0</ele>
        <time>2021-02-07T12:14:53Z</time>
      </trkpt>
      <trkpt lat="43.3020060" lon="-6.6338400">
        <ele>1200.0</ele>
        <time>2021-02-07T12:14:58Z</time>
      </trkpt>
      <trkpt lat="43.3020620" lon="-6.6338250">
        <ele>1200.0</ele>
        <time>2021-02-07T12:15:04Z</time>
      </trkpt>
      <trkpt lat="43.3021130" lon="-6.6338020">
        <ele>1200.0</ele>
        <time>2021-02-07T12:15:10Z</time>
      </trkpt>
      <trkpt lat="43.3021660" lon="-6.6337820">
        <ele>1200.0</ele>
        <time>2021-02-07T12:15:15Z</time>
      </trkpt>
      <trkpt lat="43.3022170" lon="-6.6337630">
        <ele>1201.0</ele>
        <time>2021-02-07T12:15:20Z</time>
      </trkpt>
      <trkpt lat="43.3022690" lon="-6.6337490">
        <ele>1202.0</ele>
        <time>2021-02-07T12:15:26Z</time>
      </trkpt>
      <trkpt lat="43.3023190" lon="-6.6337490">
        <ele>1202.0</ele>
        <time>2021-02-07T12:15:31Z</time>
      </trkpt>
      <trkpt lat="43.3023760" lon="-6.6337600">
        <ele>1201.0</ele>
        <time>2021-02-07T12:15:36Z</time>
      </trkpt>
      <trkpt lat="43.3024310" lon="-6.6337710">
        <ele>1201.0</ele>
        <time>2021-02-07T12:15:41Z</time>
      </trkpt>
      <trkpt lat="43.3024890" lon="-6.6337840">
        <ele>1201.0</ele>
        <time>2021-02-07T12:15:46Z</time>
      </trkpt>
      <trkpt lat="43.3025440" lon="-6.6337940">
        <ele>1201.0</ele>
        <time>2021-02-07T12:15:51Z</time>
      </trkpt>
      <trkpt lat="43.3025960" lon="-6.6338040">
        <ele>1201.0</ele>
        <time>2021-02-07T12:15:56Z</time>
      </trkpt>
      <trkpt lat="43.3026550" lon="-6.6338220">
        <ele>1201.0</ele>
        <time>2021-02-07T12:16:01Z</time>
      </trkpt>
      <trkpt lat="43.3027090" lon="-6.6338170">
        <ele>1201.0</ele>
        <time>2021-02-07T12:16:06Z</time>
      </trkpt>
      <trkpt lat="43.3027560" lon="-6.6338110">
        <ele>1201.0</ele>
        <time>2021-02-07T12:16:11Z</time>
      </trkpt>
      <trkpt lat="43.3028180" lon="-6.6338160">
        <ele>1201.0</ele>
        <time>2021-02-07T12:16:17Z</time>
      </trkpt>
      <trkpt lat="43.3028660" lon="-6.6338160">
        <ele>1201.0</ele>
        <time>2021-02-07T12:16:23Z</time>
      </trkpt>
      <trkpt lat="43.3029220" lon="-6.6338080">
        <ele>1200.0</ele>
        <time>2021-02-07T12:16:30Z</time>
      </trkpt>
      <trkpt lat="43.3029740" lon="-6.6337890">
        <ele>1199.0</ele>
        <time>2021-02-07T12:16:35Z</time>
      </trkpt>
      <trkpt lat="43.3030150" lon="-6.6337560">
        <ele>1199.0</ele>
        <time>2021-02-07T12:16:41Z</time>
      </trkpt>
      <trkpt lat="43.3030630" lon="-6.6337050">
        <ele>1197.0</ele>
        <time>2021-02-07T12:16:49Z</time>
      </trkpt>
      <trkpt lat="43.3031060" lon="-6.6336740">
        <ele>1196.0</ele>
        <time>2021-02-07T12:16:55Z</time>
      </trkpt>
      <trkpt lat="43.3031510" lon="-6.6336490">
        <ele>1195.0</ele>
        <time>2021-02-07T12:17:02Z</time>
      </trkpt>
      <trkpt lat="43.3032060" lon="-6.6336110">
        <ele>1194.0</ele>
        <time>2021-02-07T12:17:12Z</time>
      </trkpt>
      <trkpt lat="43.3032410" lon="-6.6335640">
        <ele>1193.0</ele>
        <time>2021-02-07T12:17:18Z</time>
      </trkpt>
      <trkpt lat="43.3032680" lon="-6.6334920">
        <ele>1192.0</ele>
        <time>2021-02-07T12:17:25Z</time>
      </trkpt>
      <trkpt lat="43.3032590" lon="-6.6334220">
        <ele>1191.0</ele>
        <time>2021-02-07T12:17:31Z</time>
      </trkpt>
      <trkpt lat="43.3032280" lon="-6.6333580">
        <ele>1191.0</ele>
        <time>2021-02-07T12:17:37Z</time>
      </trkpt>
      <trkpt lat="43.3031910" lon="-6.6333320">
        <ele>1191.0</ele>
        <time>2021-02-07T12:17:43Z</time>
      </trkpt>
      <trkpt lat="43.3031340" lon="-6.6332960">
        <ele>1191.0</ele>
        <time>2021-02-07T12:17:56Z</time>
      </trkpt>
      <trkpt lat="43.3030760" lon="-6.6332660">
        <ele>1190.0</ele>
        <time>2021-02-07T12:18:02Z</time>
      </trkpt>
      <trkpt lat="43.3030180" lon="-6.6332490">
        <ele>1190.0</ele>
        <time>2021-02-07T12:18:08Z</time>
      </trkpt>
      <trkpt lat="43.3029710" lon="-6.6332290">
        <ele>1190.0</ele>
        <time>2021-02-07T12:18:16Z</time>
      </trkpt>
      <trkpt lat="43.3029550" lon="-6.6331800">
        <ele>1190.0</ele>
        <time>2021-02-07T12:18:29Z</time>
      </trkpt>
      <trkpt lat="43.3029900" lon="-6.6331270">
        <ele>1190.0</ele>
        <time>2021-02-07T12:18:36Z</time>
      </trkpt>
      <trkpt lat="43.3030310" lon="-6.6330740">
        <ele>1190.0</ele>
        <time>2021-02-07T12:18:43Z</time>
      </trkpt>
      <trkpt lat="43.3030720" lon="-6.6330320">
        <ele>1190.0</ele>
        <time>2021-02-07T12:18:51Z</time>
      </trkpt>
      <trkpt lat="43.3031230" lon="-6.6330070">
        <ele>1188.0</ele>
        <time>2021-02-07T12:18:58Z</time>
      </trkpt>
      <trkpt lat="43.3031650" lon="-6.6329660">
        <ele>1187.0</ele>
        <time>2021-02-07T12:19:05Z</time>
      </trkpt>
      <trkpt lat="43.3031860" lon="-6.6329010">
        <ele>1185.0</ele>
        <time>2021-02-07T12:19:15Z</time>
      </trkpt>
      <trkpt lat="43.3032190" lon="-6.6328410">
        <ele>1184.0</ele>
        <time>2021-02-07T12:19:26Z</time>
      </trkpt>
      <trkpt lat="43.3032540" lon="-6.6327910">
        <ele>1183.0</ele>
        <time>2021-02-07T12:19:33Z</time>
      </trkpt>
      <trkpt lat="43.3033040" lon="-6.6327720">
        <ele>1182.0</ele>
        <time>2021-02-07T12:19:41Z</time>
      </trkpt>
      <trkpt lat="43.3033480" lon="-6.6327260">
        <ele>1181.0</ele>
        <time>2021-02-07T12:19:52Z</time>
      </trkpt>
      <trkpt lat="43.3033830" lon="-6.6326660">
        <ele>1180.0</ele>
        <time>2021-02-07T12:20:00Z</time>
      </trkpt>
      <trkpt lat="43.3034260" lon="-6.6326310">
        <ele>1180.0</ele>
        <time>2021-02-07T12:20:07Z</time>
      </trkpt>
      <trkpt lat="43.3034700" lon="-6.6325850">
        <ele>1179.0</ele>
        <time>2021-02-07T12:20:14Z</time>
      </trkpt>
      <trkpt lat="43.3035110" lon="-6.6325420">
        <ele>1178.0</ele>
        <time>2021-02-07T12:20:22Z</time>
      </trkpt>
      <trkpt lat="43.3035510" lon="-6.6324820">
        <ele>1177.0</ele>
        <time>2021-02-07T12:20:30Z</time>
      </trkpt>
      <trkpt lat="43.3035750" lon="-6.6324300">
        <ele>1176.0</ele>
        <time>2021-02-07T12:20:36Z</time>
      </trkpt>
      <trkpt lat="43.3036100" lon="-6.6323730">
        <ele>1176.0</ele>
        <time>2021-02-07T12:20:43Z</time>
      </trkpt>
      <trkpt lat="43.3036240" lon="-6.6322940">
        <ele>1174.0</ele>
        <time>2021-02-07T12:20:52Z</time>
      </trkpt>
      <trkpt lat="43.3036520" lon="-6.6322310">
        <ele>1173.0</ele>
        <time>2021-02-07T12:20:58Z</time>
      </trkpt>
      <trkpt lat="43.3036770" lon="-6.6321620">
        <ele>1172.0</ele>
        <time>2021-02-07T12:21:04Z</time>
      </trkpt>
      <trkpt lat="43.3037040" lon="-6.6320950">
        <ele>1171.0</ele>
        <time>2021-02-07T12:21:10Z</time>
      </trkpt>
      <trkpt lat="43.3037230" lon="-6.6320330">
        <ele>1171.0</ele>
        <time>2021-02-07T12:21:15Z</time>
      </trkpt>
      <trkpt lat="43.3037510" lon="-6.6319740">
        <ele>1171.0</ele>
        <time>2021-02-07T12:21:21Z</time>
      </trkpt>
      <trkpt lat="43.3037700" lon="-6.6318990">
        <ele>1170.0</ele>
        <time>2021-02-07T12:21:27Z</time>
      </trkpt>
      <trkpt lat="43.3037840" lon="-6.6318310">
        <ele>1170.0</ele>
        <time>2021-02-07T12:21:33Z</time>
      </trkpt>
      <trkpt lat="43.3038060" lon="-6.6317620">
        <ele>1169.0</ele>
        <time>2021-02-07T12:21:39Z</time>
      </trkpt>
      <trkpt lat="43.3038100" lon="-6.6317050">
        <ele>1169.0</ele>
        <time>2021-02-07T12:21:45Z</time>
      </trkpt>
      <trkpt lat="43.3038340" lon="-6.6316290">
        <ele>1169.0</ele>
        <time>2021-02-07T12:21:58Z</time>
      </trkpt>
      <trkpt lat="43.3038770" lon="-6.6315890">
        <ele>1169.0</ele>
        <time>2021-02-07T12:22:08Z</time>
      </trkpt>
      <trkpt lat="43.3039220" lon="-6.6315590">
        <ele>1167.0</ele>
        <time>2021-02-07T12:22:14Z</time>
      </trkpt>
      <trkpt lat="43.3039680" lon="-6.6315100">
        <ele>1165.0</ele>
        <time>2021-02-07T12:22:24Z</time>
      </trkpt>
      <trkpt lat="43.3040150" lon="-6.6314870">
        <ele>1164.0</ele>
        <time>2021-02-07T12:22:31Z</time>
      </trkpt>
      <trkpt lat="43.3040660" lon="-6.6314470">
        <ele>1163.0</ele>
        <time>2021-02-07T12:22:38Z</time>
      </trkpt>
      <trkpt lat="43.3041100" lon="-6.6314000">
        <ele>1162.0</ele>
        <time>2021-02-07T12:22:44Z</time>
      </trkpt>
      <trkpt lat="43.3041480" lon="-6.6313550">
        <ele>1162.0</ele>
        <time>2021-02-07T12:22:49Z</time>
      </trkpt>
      <trkpt lat="43.3041840" lon="-6.6313050">
        <ele>1161.0</ele>
        <time>2021-02-07T12:22:54Z</time>
      </trkpt>
      <trkpt lat="43.3042320" lon="-6.6312680">
        <ele>1160.0</ele>
        <time>2021-02-07T12:23:00Z</time>
      </trkpt>
      <trkpt lat="43.3042830" lon="-6.6312670">
        <ele>1159.0</ele>
        <time>2021-02-07T12:23:06Z</time>
      </trkpt>
      <trkpt lat="43.3043220" lon="-6.6312210">
        <ele>1159.0</ele>
        <time>2021-02-07T12:23:13Z</time>
      </trkpt>
      <trkpt lat="43.3043670" lon="-6.6311630">
        <ele>1158.0</ele>
        <time>2021-02-07T12:23:20Z</time>
      </trkpt>
      <trkpt lat="43.3043940" lon="-6.6311090">
        <ele>1157.0</ele>
        <time>2021-02-07T12:23:26Z</time>
      </trkpt>
      <trkpt lat="43.3044260" lon="-6.6310460">
        <ele>1156.0</ele>
        <time>2021-02-07T12:23:35Z</time>
      </trkpt>
      <trkpt lat="43.3044430" lon="-6.6309740">
        <ele>1156.0</ele>
        <time>2021-02-07T12:23:42Z</time>
      </trkpt>
      <trkpt lat="43.3044660" lon="-6.6309020">
        <ele>1155.0</ele>
        <time>2021-02-07T12:23:48Z</time>
      </trkpt>
      <trkpt lat="43.3045030" lon="-6.6308420">
        <ele>1155.0</ele>
        <time>2021-02-07T12:23:54Z</time>
      </trkpt>
      <trkpt lat="43.3045380" lon="-6.6307870">
        <ele>1154.0</ele>
        <time>2021-02-07T12:23:59Z</time>
      </trkpt>
      <trkpt lat="43.3045690" lon="-6.6307280">
        <ele>1154.0</ele>
        <time>2021-02-07T12:24:04Z</time>
      </trkpt>
      <trkpt lat="43.3046070" lon="-6.6306710">
        <ele>1154.0</ele>
        <time>2021-02-07T12:24:09Z</time>
      </trkpt>
      <trkpt lat="43.3046360" lon="-6.6306080">
        <ele>1153.0</ele>
        <time>2021-02-07T12:24:14Z</time>
      </trkpt>
      <trkpt lat="43.3046530" lon="-6.6305470">
        <ele>1153.0</ele>
        <time>2021-02-07T12:24:19Z</time>
      </trkpt>
      <trkpt lat="43.3046830" lon="-6.6304840">
        <ele>1152.0</ele>
        <time>2021-02-07T12:24:24Z</time>
      </trkpt>
      <trkpt lat="43.3047060" lon="-6.6304190">
        <ele>1152.0</ele>
        <time>2021-02-07T12:24:30Z</time>
      </trkpt>
      <trkpt lat="43.3047470" lon="-6.6303550">
        <ele>1151.0</ele>
        <time>2021-02-07T12:24:36Z</time>
      </trkpt>
      <trkpt lat="43.3047770" lon="-6.6303100">
        <ele>1151.0</ele>
        <time>2021-02-07T12:24:40Z</time>
      </trkpt>
      <trkpt lat="43.3048280" lon="-6.6302570">
        <ele>1150.0</ele>
        <time>2021-02-07T12:24:46Z</time>
      </trkpt>
      <trkpt lat="43.3048790" lon="-6.6302150">
        <ele>1150.0</ele>
        <time>2021-02-07T12:24:51Z</time>
      </trkpt>
      <trkpt lat="43.3049180" lon="-6.6301790">
        <ele>1150.0</ele>
        <time>2021-02-07T12:24:56Z</time>
      </trkpt>
      <trkpt lat="43.3049660" lon="-6.6301090">
        <ele>1151.0</ele>
        <time>2021-02-07T12:25:01Z</time>
      </trkpt>
      <trkpt lat="43.3049810" lon="-6.6300360">
        <ele>1151.0</ele>
        <time>2021-02-07T12:25:05Z</time>
      </trkpt>
      <trkpt lat="43.3049950" lon="-6.6299580">
        <ele>1151.0</ele>
        <time>2021-02-07T12:25:10Z</time>
      </trkpt>
      <trkpt lat="43.3050180" lon="-6.6299020">
        <ele>1151.0</ele>
        <time>2021-02-07T12:25:14Z</time>
      </trkpt>
      <trkpt lat="43.3050500" lon="-6.6298310">
        <ele>1151.0</ele>
        <time>2021-02-07T12:25:19Z</time>
      </trkpt>
      <trkpt lat="43.3050790" lon="-6.6297710">
        <ele>1151.0</ele>
        <time>2021-02-07T12:25:23Z</time>
      </trkpt>
      <trkpt lat="43.3051070" lon="-6.6297070">
        <ele>1150.0</ele>
        <time>2021-02-07T12:25:27Z</time>
      </trkpt>
      <trkpt lat="43.3051380" lon="-6.6296510">
        <ele>1150.0</ele>
        <time>2021-02-07T12:25:31Z</time>
      </trkpt>
      <trkpt lat="43.3051640" lon="-6.6295780">
        <ele>1150.0</ele>
        <time>2021-02-07T12:25:36Z</time>
      </trkpt>
      <trkpt lat="43.3051860" lon="-6.6295100">
        <ele>1149.0</ele>
        <time>2021-02-07T12:25:41Z</time>
      </trkpt>
      <trkpt lat="43.3052100" lon="-6.6294360">
        <ele>1148.0</ele>
        <time>2021-02-07T12:25:46Z</time>
      </trkpt>
      <trkpt lat="43.3052450" lon="-6.6293880">
        <ele>1148.0</ele>
        <time>2021-02-07T12:25:51Z</time>
      </trkpt>
      <trkpt lat="43.3052590" lon="-6.6293200">
        <ele>1147.0</ele>
        <time>2021-02-07T12:25:57Z</time>
      </trkpt>
      <trkpt lat="43.3052980" lon="-6.6292480">
        <ele>1146.0</ele>
        <time>2021-02-07T12:26:02Z</time>
      </trkpt>
      <trkpt lat="43.3053220" lon="-6.6291820">
        <ele>1146.0</ele>
        <time>2021-02-07T12:26:06Z</time>
      </trkpt>
      <trkpt lat="43.3053380" lon="-6.6291140">
        <ele>1146.0</ele>
        <time>2021-02-07T12:26:11Z</time>
      </trkpt>
      <trkpt lat="43.3053770" lon="-6.6290510">
        <ele>1146.0</ele>
        <time>2021-02-07T12:26:15Z</time>
      </trkpt>
      <trkpt lat="43.3054170" lon="-6.6289880">
        <ele>1147.0</ele>
        <time>2021-02-07T12:26:19Z</time>
      </trkpt>
      <trkpt lat="43.3054400" lon="-6.6289230">
        <ele>1148.0</ele>
        <time>2021-02-07T12:26:24Z</time>
      </trkpt>
      <trkpt lat="43.3054670" lon="-6.6288660">
        <ele>1149.0</ele>
        <time>2021-02-07T12:26:29Z</time>
      </trkpt>
      <trkpt lat="43.3054960" lon="-6.6287880">
        <ele>1149.0</ele>
        <time>2021-02-07T12:26:35Z</time>
      </trkpt>
      <trkpt lat="43.3055300" lon="-6.6287330">
        <ele>1149.0</ele>
        <time>2021-02-07T12:26:40Z</time>
      </trkpt>
      <trkpt lat="43.3055630" lon="-6.6286710">
        <ele>1148.0</ele>
        <time>2021-02-07T12:26:46Z</time>
      </trkpt>
      <trkpt lat="43.3055720" lon="-6.6285940">
        <ele>1147.0</ele>
        <time>2021-02-07T12:26:51Z</time>
      </trkpt>
      <trkpt lat="43.3055950" lon="-6.6285340">
        <ele>1146.0</ele>
        <time>2021-02-07T12:26:55Z</time>
      </trkpt>
      <trkpt lat="43.3056260" lon="-6.6284700">
        <ele>1146.0</ele>
        <time>2021-02-07T12:26:59Z</time>
      </trkpt>
      <trkpt lat="43.3056550" lon="-6.6284090">
        <ele>1145.0</ele>
        <time>2021-02-07T12:27:03Z</time>
      </trkpt>
      <trkpt lat="43.3056840" lon="-6.6283390">
        <ele>1145.0</ele>
        <time>2021-02-07T12:27:08Z</time>
      </trkpt>
      <trkpt lat="43.3057040" lon="-6.6282740">
        <ele>1144.0</ele>
        <time>2021-02-07T12:27:12Z</time>
      </trkpt>
      <trkpt lat="43.3057200" lon="-6.6282070">
        <ele>1143.0</ele>
        <time>2021-02-07T12:27:16Z</time>
      </trkpt>
      <trkpt lat="43.3057360" lon="-6.6281350">
        <ele>1143.0</ele>
        <time>2021-02-07T12:27:21Z</time>
      </trkpt>
      <trkpt lat="43.3057500" lon="-6.6280680">
        <ele>1143.0</ele>
        <time>2021-02-07T12:27:25Z</time>
      </trkpt>
      <trkpt lat="43.3057620" lon="-6.6279940">
        <ele>1143.0</ele>
        <time>2021-02-07T12:27:29Z</time>
      </trkpt>
      <trkpt lat="43.3057690" lon="-6.6279170">
        <ele>1143.0</ele>
        <time>2021-02-07T12:27:33Z</time>
      </trkpt>
      <trkpt lat="43.3057830" lon="-6.6278530">
        <ele>1143.0</ele>
        <time>2021-02-07T12:27:37Z</time>
      </trkpt>
      <trkpt lat="43.3057930" lon="-6.6277860">
        <ele>1143.0</ele>
        <time>2021-02-07T12:27:43Z</time>
      </trkpt>
      <trkpt lat="43.3058350" lon="-6.6277440">
        <ele>1142.0</ele>
        <time>2021-02-07T12:27:50Z</time>
      </trkpt>
      <trkpt lat="43.3058630" lon="-6.6276720">
        <ele>1142.0</ele>
        <time>2021-02-07T12:27:58Z</time>
      </trkpt>
      <trkpt lat="43.3059100" lon="-6.6276170">
        <ele>1143.0</ele>
        <time>2021-02-07T12:28:03Z</time>
      </trkpt>
      <trkpt lat="43.3059470" lon="-6.6275600">
        <ele>1143.0</ele>
        <time>2021-02-07T12:28:07Z</time>
      </trkpt>
      <trkpt lat="43.3059810" lon="-6.6275060">
        <ele>1143.0</ele>
        <time>2021-02-07T12:28:12Z</time>
      </trkpt>
      <trkpt lat="43.3060210" lon="-6.6274490">
        <ele>1143.0</ele>
        <time>2021-02-07T12:28:17Z</time>
      </trkpt>
      <trkpt lat="43.3060570" lon="-6.6273940">
        <ele>1143.0</ele>
        <time>2021-02-07T12:28:22Z</time>
      </trkpt>
      <trkpt lat="43.3061060" lon="-6.6273230">
        <ele>1143.0</ele>
        <time>2021-02-07T12:28:29Z</time>
      </trkpt>
      <trkpt lat="43.3061500" lon="-6.6272620">
        <ele>1143.0</ele>
        <time>2021-02-07T12:28:35Z</time>
      </trkpt>
      <trkpt lat="43.3061890" lon="-6.6272030">
        <ele>1143.0</ele>
        <time>2021-02-07T12:28:40Z</time>
      </trkpt>
      <trkpt lat="43.3062140" lon="-6.6271340">
        <ele>1142.0</ele>
        <time>2021-02-07T12:28:45Z</time>
      </trkpt>
      <trkpt lat="43.3062540" lon="-6.6270820">
        <ele>1142.0</ele>
        <time>2021-02-07T12:28:51Z</time>
      </trkpt>
      <trkpt lat="43.3062990" lon="-6.6270420">
        <ele>1142.0</ele>
        <time>2021-02-07T12:28:56Z</time>
      </trkpt>
      <trkpt lat="43.3063400" lon="-6.6270130">
        <ele>1141.0</ele>
        <time>2021-02-07T12:29:02Z</time>
      </trkpt>
      <trkpt lat="43.3063850" lon="-6.6269780">
        <ele>1140.0</ele>
        <time>2021-02-07T12:29:08Z</time>
      </trkpt>
      <trkpt lat="43.3064370" lon="-6.6269430">
        <ele>1139.0</ele>
        <time>2021-02-07T12:29:14Z</time>
      </trkpt>
      <trkpt lat="43.3064860" lon="-6.6269070">
        <ele>1139.0</ele>
        <time>2021-02-07T12:29:20Z</time>
      </trkpt>
      <trkpt lat="43.3065360" lon="-6.6268760">
        <ele>1139.0</ele>
        <time>2021-02-07T12:29:25Z</time>
      </trkpt>
      <trkpt lat="43.3065830" lon="-6.6268530">
        <ele>1138.0</ele>
        <time>2021-02-07T12:29:29Z</time>
      </trkpt>
      <trkpt lat="43.3066250" lon="-6.6268010">
        <ele>1138.0</ele>
        <time>2021-02-07T12:29:34Z</time>
      </trkpt>
      <trkpt lat="43.3066680" lon="-6.6267520">
        <ele>1137.0</ele>
        <time>2021-02-07T12:29:39Z</time>
      </trkpt>
      <trkpt lat="43.3067150" lon="-6.6267060">
        <ele>1137.0</ele>
        <time>2021-02-07T12:29:44Z</time>
      </trkpt>
      <trkpt lat="43.3067690" lon="-6.6266540">
        <ele>1136.0</ele>
        <time>2021-02-07T12:29:49Z</time>
      </trkpt>
      <trkpt lat="43.3068140" lon="-6.6266160">
        <ele>1135.0</ele>
        <time>2021-02-07T12:29:53Z</time>
      </trkpt>
      <trkpt lat="43.3068640" lon="-6.6265860">
        <ele>1135.0</ele>
        <time>2021-02-07T12:29:57Z</time>
      </trkpt>
      <trkpt lat="43.3069160" lon="-6.6265390">
        <ele>1135.0</ele>
        <time>2021-02-07T12:30:02Z</time>
      </trkpt>
      <trkpt lat="43.3069570" lon="-6.6264860">
        <ele>1135.0</ele>
        <time>2021-02-07T12:30:06Z</time>
      </trkpt>
      <trkpt lat="43.3069900" lon="-6.6264290">
        <ele>1134.0</ele>
        <time>2021-02-07T12:30:10Z</time>
      </trkpt>
      <trkpt lat="43.3070120" lon="-6.6263610">
        <ele>1134.0</ele>
        <time>2021-02-07T12:30:14Z</time>
      </trkpt>
      <trkpt lat="43.3070220" lon="-6.6262860">
        <ele>1134.0</ele>
        <time>2021-02-07T12:30:18Z</time>
      </trkpt>
      <trkpt lat="43.3070270" lon="-6.6262160">
        <ele>1134.0</ele>
        <time>2021-02-07T12:30:22Z</time>
      </trkpt>
      <trkpt lat="43.3070330" lon="-6.6261370">
        <ele>1134.0</ele>
        <time>2021-02-07T12:30:27Z</time>
      </trkpt>
      <trkpt lat="43.3070260" lon="-6.6260670">
        <ele>1133.0</ele>
        <time>2021-02-07T12:30:31Z</time>
      </trkpt>
      <trkpt lat="43.3070080" lon="-6.6260050">
        <ele>1132.0</ele>
        <time>2021-02-07T12:30:35Z</time>
      </trkpt>
      <trkpt lat="43.3069920" lon="-6.6259370">
        <ele>1132.0</ele>
        <time>2021-02-07T12:30:40Z</time>
      </trkpt>
      <trkpt lat="43.3069650" lon="-6.6258740">
        <ele>1131.0</ele>
        <time>2021-02-07T12:30:46Z</time>
      </trkpt>
      <trkpt lat="43.3069760" lon="-6.6258020">
        <ele>1130.0</ele>
        <time>2021-02-07T12:30:53Z</time>
      </trkpt>
      <trkpt lat="43.3069960" lon="-6.6257390">
        <ele>1129.0</ele>
        <time>2021-02-07T12:31:00Z</time>
      </trkpt>
      <trkpt lat="43.3070280" lon="-6.6256700">
        <ele>1127.0</ele>
        <time>2021-02-07T12:31:08Z</time>
      </trkpt>
      <trkpt lat="43.3070540" lon="-6.6256090">
        <ele>1126.0</ele>
        <time>2021-02-07T12:31:13Z</time>
      </trkpt>
      <trkpt lat="43.3070870" lon="-6.6255480">
        <ele>1125.0</ele>
        <time>2021-02-07T12:31:18Z</time>
      </trkpt>
      <trkpt lat="43.3071220" lon="-6.6254920">
        <ele>1125.0</ele>
        <time>2021-02-07T12:31:23Z</time>
      </trkpt>
      <trkpt lat="43.3071540" lon="-6.6254260">
        <ele>1124.0</ele>
        <time>2021-02-07T12:31:28Z</time>
      </trkpt>
      <trkpt lat="43.3071900" lon="-6.6253560">
        <ele>1124.0</ele>
        <time>2021-02-07T12:31:33Z</time>
      </trkpt>
      <trkpt lat="43.3072240" lon="-6.6252890">
        <ele>1123.0</ele>
        <time>2021-02-07T12:31:38Z</time>
      </trkpt>
      <trkpt lat="43.3072580" lon="-6.6252230">
        <ele>1123.0</ele>
        <time>2021-02-07T12:31:43Z</time>
      </trkpt>
      <trkpt lat="43.3072830" lon="-6.6251630">
        <ele>1122.0</ele>
        <time>2021-02-07T12:31:47Z</time>
      </trkpt>
      <trkpt lat="43.3073060" lon="-6.6251030">
        <ele>1121.0</ele>
        <time>2021-02-07T12:31:51Z</time>
      </trkpt>
      <trkpt lat="43.3073360" lon="-6.6250390">
        <ele>1120.0</ele>
        <time>2021-02-07T12:31:56Z</time>
      </trkpt>
      <trkpt lat="43.3073690" lon="-6.6249860">
        <ele>1120.0</ele>
        <time>2021-02-07T12:32:01Z</time>
      </trkpt>
      <trkpt lat="43.3074000" lon="-6.6249220">
        <ele>1119.0</ele>
        <time>2021-02-07T12:32:07Z</time>
      </trkpt>
      <trkpt lat="43.3074250" lon="-6.6248530">
        <ele>1118.0</ele>
        <time>2021-02-07T12:32:12Z</time>
      </trkpt>
      <trkpt lat="43.3074530" lon="-6.6247860">
        <ele>1117.0</ele>
        <time>2021-02-07T12:32:17Z</time>
      </trkpt>
      <trkpt lat="43.3074820" lon="-6.6247200">
        <ele>1116.0</ele>
        <time>2021-02-07T12:32:22Z</time>
      </trkpt>
      <trkpt lat="43.3075110" lon="-6.6246530">
        <ele>1115.0</ele>
        <time>2021-02-07T12:32:27Z</time>
      </trkpt>
      <trkpt lat="43.3075320" lon="-6.6245820">
        <ele>1115.0</ele>
        <time>2021-02-07T12:32:32Z</time>
      </trkpt>
      <trkpt lat="43.3075610" lon="-6.6245100">
        <ele>1114.0</ele>
        <time>2021-02-07T12:32:37Z</time>
      </trkpt>
      <trkpt lat="43.3075850" lon="-6.6244360">
        <ele>1114.0</ele>
        <time>2021-02-07T12:32:42Z</time>
      </trkpt>
      <trkpt lat="43.3076070" lon="-6.6243710">
        <ele>1113.0</ele>
        <time>2021-02-07T12:32:47Z</time>
      </trkpt>
      <trkpt lat="43.3076280" lon="-6.6243090">
        <ele>1112.0</ele>
        <time>2021-02-07T12:32:52Z</time>
      </trkpt>
      <trkpt lat="43.3076530" lon="-6.6242460">
        <ele>1112.0</ele>
        <time>2021-02-07T12:32:57Z</time>
      </trkpt>
      <trkpt lat="43.3076800" lon="-6.6241770">
        <ele>1111.0</ele>
        <time>2021-02-07T12:33:02Z</time>
      </trkpt>
      <trkpt lat="43.3077070" lon="-6.6241060">
        <ele>1111.0</ele>
        <time>2021-02-07T12:33:07Z</time>
      </trkpt>
      <trkpt lat="43.3077290" lon="-6.6240260">
        <ele>1110.0</ele>
        <time>2021-02-07T12:33:12Z</time>
      </trkpt>
      <trkpt lat="43.3077470" lon="-6.6239520">
        <ele>1110.0</ele>
        <time>2021-02-07T12:33:17Z</time>
      </trkpt>
      <trkpt lat="43.3077590" lon="-6.6238900">
        <ele>1110.0</ele>
        <time>2021-02-07T12:33:21Z</time>
      </trkpt>
      <trkpt lat="43.3077760" lon="-6.6238080">
        <ele>1109.0</ele>
        <time>2021-02-07T12:33:26Z</time>
      </trkpt>
      <trkpt lat="43.3077980" lon="-6.6237340">
        <ele>1109.0</ele>
        <time>2021-02-07T12:33:31Z</time>
      </trkpt>
      <trkpt lat="43.3078200" lon="-6.6236660">
        <ele>1108.0</ele>
        <time>2021-02-07T12:33:35Z</time>
      </trkpt>
      <trkpt lat="43.3078400" lon="-6.6236050">
        <ele>1108.0</ele>
        <time>2021-02-07T12:33:39Z</time>
      </trkpt>
      <trkpt lat="43.3078650" lon="-6.6235260">
        <ele>1107.0</ele>
        <time>2021-02-07T12:33:44Z</time>
      </trkpt>
      <trkpt lat="43.3078870" lon="-6.6234540">
        <ele>1106.0</ele>
        <time>2021-02-07T12:33:48Z</time>
      </trkpt>
      <trkpt lat="43.3079090" lon="-6.6233860">
        <ele>1106.0</ele>
        <time>2021-02-07T12:33:52Z</time>
      </trkpt>
      <trkpt lat="43.3079270" lon="-6.6233130">
        <ele>1106.0</ele>
        <time>2021-02-07T12:33:56Z</time>
      </trkpt>
      <trkpt lat="43.3079440" lon="-6.6232420">
        <ele>1105.0</ele>
        <time>2021-02-07T12:34:00Z</time>
      </trkpt>
      <trkpt lat="43.3079560" lon="-6.6231600">
        <ele>1105.0</ele>
        <time>2021-02-07T12:34:05Z</time>
      </trkpt>
      <trkpt lat="43.3079670" lon="-6.6230820">
        <ele>1104.0</ele>
        <time>2021-02-07T12:34:09Z</time>
      </trkpt>
      <trkpt lat="43.3079780" lon="-6.6230160">
        <ele>1104.0</ele>
        <time>2021-02-07T12:34:13Z</time>
      </trkpt>
      <trkpt lat="43.3079890" lon="-6.6229520">
        <ele>1103.0</ele>
        <time>2021-02-07T12:34:17Z</time>
      </trkpt>
      <trkpt lat="43.3079870" lon="-6.6228720">
        <ele>1102.0</ele>
        <time>2021-02-07T12:34:22Z</time>
      </trkpt>
      <trkpt lat="43.3079890" lon="-6.6227830">
        <ele>1102.0</ele>
        <time>2021-02-07T12:34:27Z</time>
      </trkpt>
      <trkpt lat="43.3080060" lon="-6.6227090">
        <ele>1102.0</ele>
        <time>2021-02-07T12:34:31Z</time>
      </trkpt>
      <trkpt lat="43.3080250" lon="-6.6226430">
        <ele>1101.0</ele>
        <time>2021-02-07T12:34:35Z</time>
      </trkpt>
      <trkpt lat="43.3080380" lon="-6.6225680">
        <ele>1100.0</ele>
        <time>2021-02-07T12:34:40Z</time>
      </trkpt>
      <trkpt lat="43.3080410" lon="-6.6224850">
        <ele>1100.0</ele>
        <time>2021-02-07T12:34:45Z</time>
      </trkpt>
      <trkpt lat="43.3080390" lon="-6.6224100">
        <ele>1099.0</ele>
        <time>2021-02-07T12:34:49Z</time>
      </trkpt>
      <trkpt lat="43.3080320" lon="-6.6223480">
        <ele>1099.0</ele>
        <time>2021-02-07T12:34:53Z</time>
      </trkpt>
      <trkpt lat="43.3080290" lon="-6.6222720">
        <ele>1098.0</ele>
        <time>2021-02-07T12:34:59Z</time>
      </trkpt>
      <trkpt lat="43.3080300" lon="-6.6221970">
        <ele>1097.0</ele>
        <time>2021-02-07T12:35:05Z</time>
      </trkpt>
      <trkpt lat="43.3080390" lon="-6.6221200">
        <ele>1095.0</ele>
        <time>2021-02-07T12:35:12Z</time>
      </trkpt>
      <trkpt lat="43.3080490" lon="-6.6220560">
        <ele>1095.0</ele>
        <time>2021-02-07T12:35:17Z</time>
      </trkpt>
      <trkpt lat="43.3080760" lon="-6.6219860">
        <ele>1094.0</ele>
        <time>2021-02-07T12:35:24Z</time>
      </trkpt>
      <trkpt lat="43.3080920" lon="-6.6219120">
        <ele>1092.0</ele>
        <time>2021-02-07T12:35:32Z</time>
      </trkpt>
      <trkpt lat="43.3081060" lon="-6.6218440">
        <ele>1091.0</ele>
        <time>2021-02-07T12:35:39Z</time>
      </trkpt>
      <trkpt lat="43.3081120" lon="-6.6217650">
        <ele>1089.0</ele>
        <time>2021-02-07T12:35:47Z</time>
      </trkpt>
      <trkpt lat="43.3081120" lon="-6.6216930">
        <ele>1088.0</ele>
        <time>2021-02-07T12:35:53Z</time>
      </trkpt>
      <trkpt lat="43.3081160" lon="-6.6216210">
        <ele>1087.0</ele>
        <time>2021-02-07T12:35:59Z</time>
      </trkpt>
      <trkpt lat="43.3081310" lon="-6.6215480">
        <ele>1086.0</ele>
        <time>2021-02-07T12:36:07Z</time>
      </trkpt>
      <trkpt lat="43.3081510" lon="-6.6214940">
        <ele>1085.0</ele>
        <time>2021-02-07T12:36:17Z</time>
      </trkpt>
      <trkpt lat="43.3081780" lon="-6.6214240">
        <ele>1083.0</ele>
        <time>2021-02-07T12:36:26Z</time>
      </trkpt>
      <trkpt lat="43.3082040" lon="-6.6213530">
        <ele>1083.0</ele>
        <time>2021-02-07T12:36:33Z</time>
      </trkpt>
      <trkpt lat="43.3082130" lon="-6.6212770">
        <ele>1082.0</ele>
        <time>2021-02-07T12:36:38Z</time>
      </trkpt>
      <trkpt lat="43.3082260" lon="-6.6212120">
        <ele>1081.0</ele>
        <time>2021-02-07T12:36:43Z</time>
      </trkpt>
      <trkpt lat="43.3082440" lon="-6.6211470">
        <ele>1080.0</ele>
        <time>2021-02-07T12:36:49Z</time>
      </trkpt>
      <trkpt lat="43.3082750" lon="-6.6210780">
        <ele>1079.0</ele>
        <time>2021-02-07T12:36:55Z</time>
      </trkpt>
      <trkpt lat="43.3082810" lon="-6.6210160">
        <ele>1078.0</ele>
        <time>2021-02-07T12:37:02Z</time>
      </trkpt>
      <trkpt lat="43.3082930" lon="-6.6209450">
        <ele>1076.0</ele>
        <time>2021-02-07T12:37:10Z</time>
      </trkpt>
      <trkpt lat="43.3083180" lon="-6.6208830">
        <ele>1075.0</ele>
        <time>2021-02-07T12:37:19Z</time>
      </trkpt>
      <trkpt lat="43.3083530" lon="-6.6208260">
        <ele>1073.0</ele>
        <time>2021-02-07T12:37:30Z</time>
      </trkpt>
      <trkpt lat="43.3083900" lon="-6.6207740">
        <ele>1072.0</ele>
        <time>2021-02-07T12:37:40Z</time>
      </trkpt>
      <trkpt lat="43.3084050" lon="-6.6207070">
        <ele>1070.0</ele>
        <time>2021-02-07T12:37:48Z</time>
      </trkpt>
      <trkpt lat="43.3084100" lon="-6.6206330">
        <ele>1069.0</ele>
        <time>2021-02-07T12:37:56Z</time>
      </trkpt>
      <trkpt lat="43.3084150" lon="-6.6205680">
        <ele>1069.0</ele>
        <time>2021-02-07T12:38:04Z</time>
      </trkpt>
      <trkpt lat="43.3084420" lon="-6.6205130">
        <ele>1067.0</ele>
        <time>2021-02-07T12:38:13Z</time>
      </trkpt>
      <trkpt lat="43.3084710" lon="-6.6204490">
        <ele>1066.0</ele>
        <time>2021-02-07T12:38:22Z</time>
      </trkpt>
      <trkpt lat="43.3084930" lon="-6.6203820">
        <ele>1065.0</ele>
        <time>2021-02-07T12:38:28Z</time>
      </trkpt>
      <trkpt lat="43.3085120" lon="-6.6203040">
        <ele>1064.0</ele>
        <time>2021-02-07T12:38:34Z</time>
      </trkpt>
      <trkpt lat="43.3085210" lon="-6.6202320">
        <ele>1063.0</ele>
        <time>2021-02-07T12:38:40Z</time>
      </trkpt>
      <trkpt lat="43.3085290" lon="-6.6201670">
        <ele>1062.0</ele>
        <time>2021-02-07T12:38:46Z</time>
      </trkpt>
      <trkpt lat="43.3085450" lon="-6.6200970">
        <ele>1061.0</ele>
        <time>2021-02-07T12:38:52Z</time>
      </trkpt>
      <trkpt lat="43.3085660" lon="-6.6200210">
        <ele>1061.0</ele>
        <time>2021-02-07T12:38:58Z</time>
      </trkpt>
      <trkpt lat="43.3085850" lon="-6.6199590">
        <ele>1060.0</ele>
        <time>2021-02-07T12:39:03Z</time>
      </trkpt>
      <trkpt lat="43.3086220" lon="-6.6199030">
        <ele>1059.0</ele>
        <time>2021-02-07T12:39:08Z</time>
      </trkpt>
      <trkpt lat="43.3086530" lon="-6.6198400">
        <ele>1057.0</ele>
        <time>2021-02-07T12:39:14Z</time>
      </trkpt>
      <trkpt lat="43.3086740" lon="-6.6197700">
        <ele>1056.0</ele>
        <time>2021-02-07T12:39:20Z</time>
      </trkpt>
      <trkpt lat="43.3086940" lon="-6.6197120">
        <ele>1055.0</ele>
        <time>2021-02-07T12:39:26Z</time>
      </trkpt>
      <trkpt lat="43.3086970" lon="-6.6196410">
        <ele>1054.0</ele>
        <time>2021-02-07T12:39:35Z</time>
      </trkpt>
      <trkpt lat="43.3087060" lon="-6.6195580">
        <ele>1053.0</ele>
        <time>2021-02-07T12:39:44Z</time>
      </trkpt>
      <trkpt lat="43.3087270" lon="-6.6194930">
        <ele>1051.0</ele>
        <time>2021-02-07T12:39:49Z</time>
      </trkpt>
      <trkpt lat="43.3087570" lon="-6.6194340">
        <ele>1050.0</ele>
        <time>2021-02-07T12:39:54Z</time>
      </trkpt>
      <trkpt lat="43.3087850" lon="-6.6193570">
        <ele>1049.0</ele>
        <time>2021-02-07T12:40:00Z</time>
      </trkpt>
      <trkpt lat="43.3088090" lon="-6.6192900">
        <ele>1048.0</ele>
        <time>2021-02-07T12:40:06Z</time>
      </trkpt>
      <trkpt lat="43.3088250" lon="-6.6192230">
        <ele>1046.0</ele>
        <time>2021-02-07T12:40:14Z</time>
      </trkpt>
      <trkpt lat="43.3088440" lon="-6.6191440">
        <ele>1046.0</ele>
        <time>2021-02-07T12:40:20Z</time>
      </trkpt>
      <trkpt lat="43.3088710" lon="-6.6190690">
        <ele>1045.0</ele>
        <time>2021-02-07T12:40:25Z</time>
      </trkpt>
      <trkpt lat="43.3089030" lon="-6.6189940">
        <ele>1044.0</ele>
        <time>2021-02-07T12:40:30Z</time>
      </trkpt>
      <trkpt lat="43.3089360" lon="-6.6189370">
        <ele>1043.0</ele>
        <time>2021-02-07T12:40:34Z</time>
      </trkpt>
      <trkpt lat="43.3089620" lon="-6.6188600">
        <ele>1042.0</ele>
        <time>2021-02-07T12:40:39Z</time>
      </trkpt>
      <trkpt lat="43.3089800" lon="-6.6187790">
        <ele>1041.0</ele>
        <time>2021-02-07T12:40:44Z</time>
      </trkpt>
      <trkpt lat="43.3089890" lon="-6.6187060">
        <ele>1041.0</ele>
        <time>2021-02-07T12:40:49Z</time>
      </trkpt>
      <trkpt lat="43.3090090" lon="-6.6186300">
        <ele>1041.0</ele>
        <time>2021-02-07T12:40:54Z</time>
      </trkpt>
      <trkpt lat="43.3090290" lon="-6.6185670">
        <ele>1040.0</ele>
        <time>2021-02-07T12:40:58Z</time>
      </trkpt>
      <trkpt lat="43.3090410" lon="-6.6184800">
        <ele>1040.0</ele>
        <time>2021-02-07T12:41:03Z</time>
      </trkpt>
      <trkpt lat="43.3090500" lon="-6.6184060">
        <ele>1039.0</ele>
        <time>2021-02-07T12:41:07Z</time>
      </trkpt>
      <trkpt lat="43.3090640" lon="-6.6183200">
        <ele>1039.0</ele>
        <time>2021-02-07T12:41:12Z</time>
      </trkpt>
      <trkpt lat="43.3090790" lon="-6.6182500">
        <ele>1038.0</ele>
        <time>2021-02-07T12:41:16Z</time>
      </trkpt>
      <trkpt lat="43.3091040" lon="-6.6181890">
        <ele>1038.0</ele>
        <time>2021-02-07T12:41:20Z</time>
      </trkpt>
      <trkpt lat="43.3091290" lon="-6.6181140">
        <ele>1038.0</ele>
        <time>2021-02-07T12:41:25Z</time>
      </trkpt>
      <trkpt lat="43.3091480" lon="-6.6180430">
        <ele>1038.0</ele>
        <time>2021-02-07T12:41:29Z</time>
      </trkpt>
      <trkpt lat="43.3091550" lon="-6.6179650">
        <ele>1038.0</ele>
        <time>2021-02-07T12:41:33Z</time>
      </trkpt>
      <trkpt lat="43.3091710" lon="-6.6178980">
        <ele>1037.0</ele>
        <time>2021-02-07T12:41:37Z</time>
      </trkpt>
      <trkpt lat="43.3091940" lon="-6.6178220">
        <ele>1037.0</ele>
        <time>2021-02-07T12:41:42Z</time>
      </trkpt>
      <trkpt lat="43.3092160" lon="-6.6177630">
        <ele>1037.0</ele>
        <time>2021-02-07T12:41:46Z</time>
      </trkpt>
      <trkpt lat="43.3092490" lon="-6.6176870">
        <ele>1036.0</ele>
        <time>2021-02-07T12:41:51Z</time>
      </trkpt>
      <trkpt lat="43.3092800" lon="-6.6176330">
        <ele>1035.0</ele>
        <time>2021-02-07T12:41:55Z</time>
      </trkpt>
      <trkpt lat="43.3093190" lon="-6.6175690">
        <ele>1035.0</ele>
        <time>2021-02-07T12:42:00Z</time>
      </trkpt>
      <trkpt lat="43.3093530" lon="-6.6175030">
        <ele>1035.0</ele>
        <time>2021-02-07T12:42:04Z</time>
      </trkpt>
      <trkpt lat="43.3093910" lon="-6.6174390">
        <ele>1035.0</ele>
        <time>2021-02-07T12:42:08Z</time>
      </trkpt>
      <trkpt lat="43.3094320" lon="-6.6173760">
        <ele>1035.0</ele>
        <time>2021-02-07T12:42:12Z</time>
      </trkpt>
      <trkpt lat="43.3094680" lon="-6.6173160">
        <ele>1034.0</ele>
        <time>2021-02-07T12:42:16Z</time>
      </trkpt>
      <trkpt lat="43.3095030" lon="-6.6172470">
        <ele>1034.0</ele>
        <time>2021-02-07T12:42:20Z</time>
      </trkpt>
      <trkpt lat="43.3095440" lon="-6.6171830">
        <ele>1034.0</ele>
        <time>2021-02-07T12:42:24Z</time>
      </trkpt>
      <trkpt lat="43.3095480" lon="-6.6171120">
        <ele>1033.0</ele>
        <time>2021-02-07T12:42:28Z</time>
      </trkpt>
      <trkpt lat="43.3095500" lon="-6.6170260">
        <ele>1032.0</ele>
        <time>2021-02-07T12:42:32Z</time>
      </trkpt>
      <trkpt lat="43.3095770" lon="-6.6169580">
        <ele>1032.0</ele>
        <time>2021-02-07T12:42:36Z</time>
      </trkpt>
      <trkpt lat="43.3096040" lon="-6.6168990">
        <ele>1032.0</ele>
        <time>2021-02-07T12:42:40Z</time>
      </trkpt>
      <trkpt lat="43.3096290" lon="-6.6168310">
        <ele>1032.0</ele>
        <time>2021-02-07T12:42:44Z</time>
      </trkpt>
      <trkpt lat="43.3096550" lon="-6.6167680">
        <ele>1032.0</ele>
        <time>2021-02-07T12:42:48Z</time>
      </trkpt>
      <trkpt lat="43.3096720" lon="-6.6166990">
        <ele>1032.0</ele>
        <time>2021-02-07T12:42:52Z</time>
      </trkpt>
      <trkpt lat="43.3096830" lon="-6.6166340">
        <ele>1032.0</ele>
        <time>2021-02-07T12:42:57Z</time>
      </trkpt>
      <trkpt lat="43.3096780" lon="-6.6165420">
        <ele>1032.0</ele>
        <time>2021-02-07T12:43:03Z</time>
      </trkpt>
      <trkpt lat="43.3096830" lon="-6.6164690">
        <ele>1032.0</ele>
        <time>2021-02-07T12:43:08Z</time>
      </trkpt>
      <trkpt lat="43.3096850" lon="-6.6163780">
        <ele>1032.0</ele>
        <time>2021-02-07T12:43:13Z</time>
      </trkpt>
      <trkpt lat="43.3096840" lon="-6.6162980">
        <ele>1032.0</ele>
        <time>2021-02-07T12:43:17Z</time>
      </trkpt>
      <trkpt lat="43.3096820" lon="-6.6162130">
        <ele>1032.0</ele>
        <time>2021-02-07T12:43:21Z</time>
      </trkpt>
      <trkpt lat="43.3096800" lon="-6.6161450">
        <ele>1032.0</ele>
        <time>2021-02-07T12:43:25Z</time>
      </trkpt>
      <trkpt lat="43.3096940" lon="-6.6160810">
        <ele>1032.0</ele>
        <time>2021-02-07T12:43:35Z</time>
      </trkpt>
      <trkpt lat="43.3097240" lon="-6.6160220">
        <ele>1032.0</ele>
        <time>2021-02-07T12:43:41Z</time>
      </trkpt>
      <trkpt lat="43.3097520" lon="-6.6159510">
        <ele>1032.0</ele>
        <time>2021-02-07T12:43:46Z</time>
      </trkpt>
      <trkpt lat="43.3097720" lon="-6.6158720">
        <ele>1032.0</ele>
        <time>2021-02-07T12:43:51Z</time>
      </trkpt>
      <trkpt lat="43.3097920" lon="-6.6158020">
        <ele>1034.0</ele>
        <time>2021-02-07T12:43:55Z</time>
      </trkpt>
      <trkpt lat="43.3098090" lon="-6.6157340">
        <ele>1034.0</ele>
        <time>2021-02-07T12:43:59Z</time>
      </trkpt>
      <trkpt lat="43.3098410" lon="-6.6156470">
        <ele>1034.0</ele>
        <time>2021-02-07T12:44:05Z</time>
      </trkpt>
      <trkpt lat="43.3098710" lon="-6.6155880">
        <ele>1034.0</ele>
        <time>2021-02-07T12:44:10Z</time>
      </trkpt>
      <trkpt lat="43.3099030" lon="-6.6155130">
        <ele>1033.0</ele>
        <time>2021-02-07T12:44:16Z</time>
      </trkpt>
      <trkpt lat="43.3099350" lon="-6.6154460">
        <ele>1033.0</ele>
        <time>2021-02-07T12:44:21Z</time>
      </trkpt>
      <trkpt lat="43.3099690" lon="-6.6153800">
        <ele>1033.0</ele>
        <time>2021-02-07T12:44:26Z</time>
      </trkpt>
      <trkpt lat="43.3099960" lon="-6.6153160">
        <ele>1033.0</ele>
        <time>2021-02-07T12:44:31Z</time>
      </trkpt>
      <trkpt lat="43.3100230" lon="-6.6152460">
        <ele>1034.0</ele>
        <time>2021-02-07T12:44:36Z</time>
      </trkpt>
      <trkpt lat="43.3100550" lon="-6.6151750">
        <ele>1034.0</ele>
        <time>2021-02-07T12:44:41Z</time>
      </trkpt>
      <trkpt lat="43.3100760" lon="-6.6150960">
        <ele>1033.0</ele>
        <time>2021-02-07T12:44:46Z</time>
      </trkpt>
      <trkpt lat="43.3100990" lon="-6.6150260">
        <ele>1033.0</ele>
        <time>2021-02-07T12:44:51Z</time>
      </trkpt>
      <trkpt lat="43.3101240" lon="-6.6149570">
        <ele>1033.0</ele>
        <time>2021-02-07T12:44:56Z</time>
      </trkpt>
      <trkpt lat="43.3101440" lon="-6.6148860">
        <ele>1033.0</ele>
        <time>2021-02-07T12:45:01Z</time>
      </trkpt>
      <trkpt lat="43.3101640" lon="-6.6148150">
        <ele>1033.0</ele>
        <time>2021-02-07T12:45:06Z</time>
      </trkpt>
      <trkpt lat="43.3101890" lon="-6.6147410">
        <ele>1033.0</ele>
        <time>2021-02-07T12:45:12Z</time>
      </trkpt>
      <trkpt lat="43.3102160" lon="-6.6146780">
        <ele>1033.0</ele>
        <time>2021-02-07T12:45:17Z</time>
      </trkpt>
      <trkpt lat="43.3102410" lon="-6.6146110">
        <ele>1033.0</ele>
        <time>2021-02-07T12:45:22Z</time>
      </trkpt>
      <trkpt lat="43.3102630" lon="-6.6145360">
        <ele>1034.0</ele>
        <time>2021-02-07T12:45:27Z</time>
      </trkpt>
      <trkpt lat="43.3102840" lon="-6.6144590">
        <ele>1034.0</ele>
        <time>2021-02-07T12:45:32Z</time>
      </trkpt>
      <trkpt lat="43.3103040" lon="-6.6143970">
        <ele>1034.0</ele>
        <time>2021-02-07T12:45:36Z</time>
      </trkpt>
      <trkpt lat="43.3103310" lon="-6.6143240">
        <ele>1034.0</ele>
        <time>2021-02-07T12:45:41Z</time>
      </trkpt>
      <trkpt lat="43.3103640" lon="-6.6142530">
        <ele>1034.0</ele>
        <time>2021-02-07T12:45:46Z</time>
      </trkpt>
      <trkpt lat="43.3103960" lon="-6.6142020">
        <ele>1034.0</ele>
        <time>2021-02-07T12:45:50Z</time>
      </trkpt>
      <trkpt lat="43.3104240" lon="-6.6141460">
        <ele>1035.0</ele>
        <time>2021-02-07T12:45:55Z</time>
      </trkpt>
      <trkpt lat="43.3104500" lon="-6.6140730">
        <ele>1035.0</ele>
        <time>2021-02-07T12:46:01Z</time>
      </trkpt>
      <trkpt lat="43.3104700" lon="-6.6140120">
        <ele>1035.0</ele>
        <time>2021-02-07T12:46:06Z</time>
      </trkpt>
      <trkpt lat="43.3105010" lon="-6.6139490">
        <ele>1035.0</ele>
        <time>2021-02-07T12:46:11Z</time>
      </trkpt>
      <trkpt lat="43.3105400" lon="-6.6138960">
        <ele>1036.0</ele>
        <time>2021-02-07T12:46:15Z</time>
      </trkpt>
      <trkpt lat="43.3105730" lon="-6.6138450">
        <ele>1036.0</ele>
        <time>2021-02-07T12:46:19Z</time>
      </trkpt>
      <trkpt lat="43.3106130" lon="-6.6137840">
        <ele>1036.0</ele>
        <time>2021-02-07T12:46:24Z</time>
      </trkpt>
      <trkpt lat="43.3106520" lon="-6.6137450">
        <ele>1036.0</ele>
        <time>2021-02-07T12:46:28Z</time>
      </trkpt>
      <trkpt lat="43.3107040" lon="-6.6137140">
        <ele>1036.0</ele>
        <time>2021-02-07T12:46:32Z</time>
      </trkpt>
      <trkpt lat="43.3107470" lon="-6.6136660">
        <ele>1036.0</ele>
        <time>2021-02-07T12:46:36Z</time>
      </trkpt>
      <trkpt lat="43.3107890" lon="-6.6136180">
        <ele>1037.0</ele>
        <time>2021-02-07T12:46:40Z</time>
      </trkpt>
      <trkpt lat="43.3108330" lon="-6.6135720">
        <ele>1038.0</ele>
        <time>2021-02-07T12:46:45Z</time>
      </trkpt>
      <trkpt lat="43.3108800" lon="-6.6135220">
        <ele>1038.0</ele>
        <time>2021-02-07T12:46:50Z</time>
      </trkpt>
      <trkpt lat="43.3109220" lon="-6.6134880">
        <ele>1038.0</ele>
        <time>2021-02-07T12:46:54Z</time>
      </trkpt>
      <trkpt lat="43.3109720" lon="-6.6134430">
        <ele>1038.0</ele>
        <time>2021-02-07T12:47:00Z</time>
      </trkpt>
      <trkpt lat="43.3110150" lon="-6.6134100">
        <ele>1038.0</ele>
        <time>2021-02-07T12:47:04Z</time>
      </trkpt>
      <trkpt lat="43.3110680" lon="-6.6133840">
        <ele>1038.0</ele>
        <time>2021-02-07T12:47:08Z</time>
      </trkpt>
      <trkpt lat="43.3111200" lon="-6.6133460">
        <ele>1039.0</ele>
        <time>2021-02-07T12:47:13Z</time>
      </trkpt>
      <trkpt lat="43.3111680" lon="-6.6133060">
        <ele>1039.0</ele>
        <time>2021-02-07T12:47:18Z</time>
      </trkpt>
      <trkpt lat="43.3112240" lon="-6.6132610">
        <ele>1040.0</ele>
        <time>2021-02-07T12:47:23Z</time>
      </trkpt>
      <trkpt lat="43.3112700" lon="-6.6132320">
        <ele>1040.0</ele>
        <time>2021-02-07T12:47:27Z</time>
      </trkpt>
      <trkpt lat="43.3113180" lon="-6.6132030">
        <ele>1040.0</ele>
        <time>2021-02-07T12:47:31Z</time>
      </trkpt>
      <trkpt lat="43.3113740" lon="-6.6131660">
        <ele>1041.0</ele>
        <time>2021-02-07T12:47:36Z</time>
      </trkpt>
      <trkpt lat="43.3114230" lon="-6.6131380">
        <ele>1041.0</ele>
        <time>2021-02-07T12:47:40Z</time>
      </trkpt>
      <trkpt lat="43.3114720" lon="-6.6131200">
        <ele>1041.0</ele>
        <time>2021-02-07T12:47:43Z</time>
      </trkpt>
      <trkpt lat="43.3115170" lon="-6.6130850">
        <ele>1042.0</ele>
        <time>2021-02-07T12:47:47Z</time>
      </trkpt>
      <trkpt lat="43.3115670" lon="-6.6130400">
        <ele>1043.0</ele>
        <time>2021-02-07T12:47:53Z</time>
      </trkpt>
      <trkpt lat="43.3116210" lon="-6.6130050">
        <ele>1044.0</ele>
        <time>2021-02-07T12:47:58Z</time>
      </trkpt>
      <trkpt lat="43.3116710" lon="-6.6129680">
        <ele>1045.0</ele>
        <time>2021-02-07T12:48:02Z</time>
      </trkpt>
      <trkpt lat="43.3117120" lon="-6.6129360">
        <ele>1046.0</ele>
        <time>2021-02-07T12:48:06Z</time>
      </trkpt>
      <trkpt lat="43.3117640" lon="-6.6128860">
        <ele>1048.0</ele>
        <time>2021-02-07T12:48:11Z</time>
      </trkpt>
      <trkpt lat="43.3118110" lon="-6.6128340">
        <ele>1048.0</ele>
        <time>2021-02-07T12:48:16Z</time>
      </trkpt>
      <trkpt lat="43.3118530" lon="-6.6127740">
        <ele>1049.0</ele>
        <time>2021-02-07T12:48:21Z</time>
      </trkpt>
      <trkpt lat="43.3118910" lon="-6.6127200">
        <ele>1049.0</ele>
        <time>2021-02-07T12:48:25Z</time>
      </trkpt>
      <trkpt lat="43.3119280" lon="-6.6126660">
        <ele>1049.0</ele>
        <time>2021-02-07T12:48:29Z</time>
      </trkpt>
      <trkpt lat="43.3119650" lon="-6.6126110">
        <ele>1049.0</ele>
        <time>2021-02-07T12:48:33Z</time>
      </trkpt>
      <trkpt lat="43.3120030" lon="-6.6125530">
        <ele>1050.0</ele>
        <time>2021-02-07T12:48:37Z</time>
      </trkpt>
      <trkpt lat="43.3120380" lon="-6.6124960">
        <ele>1050.0</ele>
        <time>2021-02-07T12:48:41Z</time>
      </trkpt>
      <trkpt lat="43.3120730" lon="-6.6124430">
        <ele>1050.0</ele>
        <time>2021-02-07T12:48:45Z</time>
      </trkpt>
      <trkpt lat="43.3121120" lon="-6.6123790">
        <ele>1050.0</ele>
        <time>2021-02-07T12:48:49Z</time>
      </trkpt>
      <trkpt lat="43.3121320" lon="-6.6123040">
        <ele>1050.0</ele>
        <time>2021-02-07T12:48:53Z</time>
      </trkpt>
      <trkpt lat="43.3121490" lon="-6.6122270">
        <ele>1050.0</ele>
        <time>2021-02-07T12:48:57Z</time>
      </trkpt>
      <trkpt lat="43.3121650" lon="-6.6121600">
        <ele>1049.0</ele>
        <time>2021-02-07T12:49:01Z</time>
      </trkpt>
      <trkpt lat="43.3121880" lon="-6.6120720">
        <ele>1048.0</ele>
        <time>2021-02-07T12:49:06Z</time>
      </trkpt>
      <trkpt lat="43.3122150" lon="-6.6120010">
        <ele>1047.0</ele>
        <time>2021-02-07T12:49:10Z</time>
      </trkpt>
      <trkpt lat="43.3122440" lon="-6.6119290">
        <ele>1047.0</ele>
        <time>2021-02-07T12:49:14Z</time>
      </trkpt>
      <trkpt lat="43.3122740" lon="-6.6118600">
        <ele>1048.0</ele>
        <time>2021-02-07T12:49:19Z</time>
      </trkpt>
      <trkpt lat="43.3123070" lon="-6.6117860">
        <ele>1048.0</ele>
        <time>2021-02-07T12:49:24Z</time>
      </trkpt>
      <trkpt lat="43.3123380" lon="-6.6117250">
        <ele>1048.0</ele>
        <time>2021-02-07T12:49:29Z</time>
      </trkpt>
      <trkpt lat="43.3123820" lon="-6.6116660">
        <ele>1048.0</ele>
        <time>2021-02-07T12:49:34Z</time>
      </trkpt>
      <trkpt lat="43.3124180" lon="-6.6116130">
        <ele>1048.0</ele>
        <time>2021-02-07T12:49:38Z</time>
      </trkpt>
      <trkpt lat="43.3124570" lon="-6.6115580">
        <ele>1048.0</ele>
        <time>2021-02-07T12:49:42Z</time>
      </trkpt>
      <trkpt lat="43.3124940" lon="-6.6115050">
        <ele>1050.0</ele>
        <time>2021-02-07T12:49:46Z</time>
      </trkpt>
      <trkpt lat="43.3125310" lon="-6.6114420">
        <ele>1050.0</ele>
        <time>2021-02-07T12:49:51Z</time>
      </trkpt>
      <trkpt lat="43.3125800" lon="-6.6113780">
        <ele>1051.0</ele>
        <time>2021-02-07T12:49:56Z</time>
      </trkpt>
      <trkpt lat="43.3126160" lon="-6.6113260">
        <ele>1051.0</ele>
        <time>2021-02-07T12:50:00Z</time>
      </trkpt>
      <trkpt lat="43.3126510" lon="-6.6112720">
        <ele>1052.0</ele>
        <time>2021-02-07T12:50:04Z</time>
      </trkpt>
      <trkpt lat="43.3126900" lon="-6.6112060">
        <ele>1052.0</ele>
        <time>2021-02-07T12:50:09Z</time>
      </trkpt>
      <trkpt lat="43.3127370" lon="-6.6111390">
        <ele>1053.0</ele>
        <time>2021-02-07T12:50:14Z</time>
      </trkpt>
      <trkpt lat="43.3127700" lon="-6.6110900">
        <ele>1053.0</ele>
        <time>2021-02-07T12:50:18Z</time>
      </trkpt>
      <trkpt lat="43.3128130" lon="-6.6110310">
        <ele>1054.0</ele>
        <time>2021-02-07T12:50:23Z</time>
      </trkpt>
      <trkpt lat="43.3128560" lon="-6.6109740">
        <ele>1054.0</ele>
        <time>2021-02-07T12:50:27Z</time>
      </trkpt>
      <trkpt lat="43.3129090" lon="-6.6109120">
        <ele>1054.0</ele>
        <time>2021-02-07T12:50:31Z</time>
      </trkpt>
      <trkpt lat="43.3129490" lon="-6.6108720">
        <ele>1053.0</ele>
        <time>2021-02-07T12:50:34Z</time>
      </trkpt>
      <trkpt lat="43.3129890" lon="-6.6108160">
        <ele>1053.0</ele>
        <time>2021-02-07T12:50:38Z</time>
      </trkpt>
      <trkpt lat="43.3130340" lon="-6.6107590">
        <ele>1053.0</ele>
        <time>2021-02-07T12:50:42Z</time>
      </trkpt>
      <trkpt lat="43.3130670" lon="-6.6106950">
        <ele>1053.0</ele>
        <time>2021-02-07T12:50:46Z</time>
      </trkpt>
      <trkpt lat="43.3130950" lon="-6.6106180">
        <ele>1053.0</ele>
        <time>2021-02-07T12:50:50Z</time>
      </trkpt>
      <trkpt lat="43.3131230" lon="-6.6105640">
        <ele>1053.0</ele>
        <time>2021-02-07T12:50:53Z</time>
      </trkpt>
      <trkpt lat="43.3131560" lon="-6.6104980">
        <ele>1053.0</ele>
        <time>2021-02-07T12:50:57Z</time>
      </trkpt>
      <trkpt lat="43.3131770" lon="-6.6104230">
        <ele>1053.0</ele>
        <time>2021-02-07T12:51:01Z</time>
      </trkpt>
      <trkpt lat="43.3132070" lon="-6.6103300">
        <ele>1056.0</ele>
        <time>2021-02-07T12:51:05Z</time>
      </trkpt>
      <trkpt lat="43.3132250" lon="-6.6102680">
        <ele>1057.0</ele>
        <time>2021-02-07T12:51:08Z</time>
      </trkpt>
      <trkpt lat="43.3132370" lon="-6.6101940">
        <ele>1058.0</ele>
        <time>2021-02-07T12:51:13Z</time>
      </trkpt>
      <trkpt lat="43.3132500" lon="-6.6101260">
        <ele>1051.0</ele>
        <time>2021-02-07T12:51:17Z</time>
      </trkpt>
      <trkpt lat="43.3132670" lon="-6.6100570">
        <ele>1049.0</ele>
        <time>2021-02-07T12:51:21Z</time>
      </trkpt>
      <trkpt lat="43.3132980" lon="-6.6099770">
        <ele>1046.0</ele>
        <time>2021-02-07T12:51:26Z</time>
      </trkpt>
      <trkpt lat="43.3133290" lon="-6.6099200">
        <ele>1044.0</ele>
        <time>2021-02-07T12:51:30Z</time>
      </trkpt>
      <trkpt lat="43.3133700" lon="-6.6098680">
        <ele>1044.0</ele>
        <time>2021-02-07T12:51:34Z</time>
      </trkpt>
      <trkpt lat="43.3134170" lon="-6.6098160">
        <ele>1043.0</ele>
        <time>2021-02-07T12:51:38Z</time>
      </trkpt>
      <trkpt lat="43.3134470" lon="-6.6097600">
        <ele>1043.0</ele>
        <time>2021-02-07T12:51:42Z</time>
      </trkpt>
      <trkpt lat="43.3134850" lon="-6.6097010">
        <ele>1043.0</ele>
        <time>2021-02-07T12:51:46Z</time>
      </trkpt>
      <trkpt lat="43.3135060" lon="-6.6096240">
        <ele>1043.0</ele>
        <time>2021-02-07T12:51:50Z</time>
      </trkpt>
      <trkpt lat="43.3135310" lon="-6.6095560">
        <ele>1043.0</ele>
        <time>2021-02-07T12:51:54Z</time>
      </trkpt>
      <trkpt lat="43.3135590" lon="-6.6094900">
        <ele>1043.0</ele>
        <time>2021-02-07T12:51:58Z</time>
      </trkpt>
      <trkpt lat="43.3135900" lon="-6.6094290">
        <ele>1043.0</ele>
        <time>2021-02-07T12:52:02Z</time>
      </trkpt>
      <trkpt lat="43.3136130" lon="-6.6093680">
        <ele>1043.0</ele>
        <time>2021-02-07T12:52:06Z</time>
      </trkpt>
      <trkpt lat="43.3136280" lon="-6.6092930">
        <ele>1043.0</ele>
        <time>2021-02-07T12:52:10Z</time>
      </trkpt>
      <trkpt lat="43.3136470" lon="-6.6092220">
        <ele>1043.0</ele>
        <time>2021-02-07T12:52:14Z</time>
      </trkpt>
      <trkpt lat="43.3136690" lon="-6.6091480">
        <ele>1043.0</ele>
        <time>2021-02-07T12:52:18Z</time>
      </trkpt>
      <trkpt lat="43.3136880" lon="-6.6090790">
        <ele>1043.0</ele>
        <time>2021-02-07T12:52:22Z</time>
      </trkpt>
      <trkpt lat="43.3137140" lon="-6.6090090">
        <ele>1043.0</ele>
        <time>2021-02-07T12:52:28Z</time>
      </trkpt>
      <trkpt lat="43.3137220" lon="-6.6089380">
        <ele>1043.0</ele>
        <time>2021-02-07T12:52:32Z</time>
      </trkpt>
      <trkpt lat="43.3137370" lon="-6.6088660">
        <ele>1043.0</ele>
        <time>2021-02-07T12:52:36Z</time>
      </trkpt>
      <trkpt lat="43.3137540" lon="-6.6087820">
        <ele>1043.0</ele>
        <time>2021-02-07T12:52:41Z</time>
      </trkpt>
      <trkpt lat="43.3137680" lon="-6.6087040">
        <ele>1044.0</ele>
        <time>2021-02-07T12:52:45Z</time>
      </trkpt>
      <trkpt lat="43.3137920" lon="-6.6086400">
        <ele>1044.0</ele>
        <time>2021-02-07T12:52:49Z</time>
      </trkpt>
      <trkpt lat="43.3138150" lon="-6.6085780">
        <ele>1044.0</ele>
        <time>2021-02-07T12:52:53Z</time>
      </trkpt>
      <trkpt lat="43.3138430" lon="-6.6085070">
        <ele>1044.0</ele>
        <time>2021-02-07T12:52:58Z</time>
      </trkpt>
      <trkpt lat="43.3138630" lon="-6.6084280">
        <ele>1044.0</ele>
        <time>2021-02-07T12:53:03Z</time>
      </trkpt>
      <trkpt lat="43.3138870" lon="-6.6083660">
        <ele>1044.0</ele>
        <time>2021-02-07T12:53:07Z</time>
      </trkpt>
      <trkpt lat="43.3139150" lon="-6.6082950">
        <ele>1044.0</ele>
        <time>2021-02-07T12:53:11Z</time>
      </trkpt>
      <trkpt lat="43.3139330" lon="-6.6082210">
        <ele>1044.0</ele>
        <time>2021-02-07T12:53:15Z</time>
      </trkpt>
      <trkpt lat="43.3139530" lon="-6.6081590">
        <ele>1043.0</ele>
        <time>2021-02-07T12:53:19Z</time>
      </trkpt>
      <trkpt lat="43.3139710" lon="-6.6080710">
        <ele>1041.0</ele>
        <time>2021-02-07T12:53:24Z</time>
      </trkpt>
      <trkpt lat="43.3139840" lon="-6.6079940">
        <ele>1041.0</ele>
        <time>2021-02-07T12:53:28Z</time>
      </trkpt>
      <trkpt lat="43.3140000" lon="-6.6079280">
        <ele>1041.0</ele>
        <time>2021-02-07T12:53:32Z</time>
      </trkpt>
      <trkpt lat="43.3140190" lon="-6.6078620">
        <ele>1040.0</ele>
        <time>2021-02-07T12:53:36Z</time>
      </trkpt>
      <trkpt lat="43.3140390" lon="-6.6077840">
        <ele>1039.0</ele>
        <time>2021-02-07T12:53:40Z</time>
      </trkpt>
      <trkpt lat="43.3140510" lon="-6.6077090">
        <ele>1039.0</ele>
        <time>2021-02-07T12:53:44Z</time>
      </trkpt>
      <trkpt lat="43.3140650" lon="-6.6076370">
        <ele>1038.0</ele>
        <time>2021-02-07T12:53:49Z</time>
      </trkpt>
      <trkpt lat="43.3140930" lon="-6.6075400">
        <ele>1037.0</ele>
        <time>2021-02-07T12:53:55Z</time>
      </trkpt>
      <trkpt lat="43.3141170" lon="-6.6074880">
        <ele>1036.0</ele>
        <time>2021-02-07T12:53:59Z</time>
      </trkpt>
      <trkpt lat="43.3141530" lon="-6.6074300">
        <ele>1035.0</ele>
        <time>2021-02-07T12:54:04Z</time>
      </trkpt>
      <trkpt lat="43.3141900" lon="-6.6073550">
        <ele>1035.0</ele>
        <time>2021-02-07T12:54:09Z</time>
      </trkpt>
      <trkpt lat="43.3142190" lon="-6.6072890">
        <ele>1034.0</ele>
        <time>2021-02-07T12:54:13Z</time>
      </trkpt>
      <trkpt lat="43.3142460" lon="-6.6072240">
        <ele>1033.0</ele>
        <time>2021-02-07T12:54:17Z</time>
      </trkpt>
      <trkpt lat="43.3142780" lon="-6.6071660">
        <ele>1033.0</ele>
        <time>2021-02-07T12:54:21Z</time>
      </trkpt>
      <trkpt lat="43.3143080" lon="-6.6071100">
        <ele>1032.0</ele>
        <time>2021-02-07T12:54:25Z</time>
      </trkpt>
      <trkpt lat="43.3143390" lon="-6.6070470">
        <ele>1031.0</ele>
        <time>2021-02-07T12:54:30Z</time>
      </trkpt>
      <trkpt lat="43.3143840" lon="-6.6070100">
        <ele>1031.0</ele>
        <time>2021-02-07T12:54:35Z</time>
      </trkpt>
      <trkpt lat="43.3144420" lon="-6.6069730">
        <ele>1031.0</ele>
        <time>2021-02-07T12:54:40Z</time>
      </trkpt>
      <trkpt lat="43.3144980" lon="-6.6069540">
        <ele>1028.0</ele>
        <time>2021-02-07T12:54:45Z</time>
      </trkpt>
      <trkpt lat="43.3145580" lon="-6.6069380">
        <ele>1027.0</ele>
        <time>2021-02-07T12:54:51Z</time>
      </trkpt>
      <trkpt lat="43.3146210" lon="-6.6069330">
        <ele>1027.0</ele>
        <time>2021-02-07T12:54:56Z</time>
      </trkpt>
      <trkpt lat="43.3146820" lon="-6.6069320">
        <ele>1026.0</ele>
        <time>2021-02-07T12:55:00Z</time>
      </trkpt>
      <trkpt lat="43.3147330" lon="-6.6069200">
        <ele>1025.0</ele>
        <time>2021-02-07T12:55:04Z</time>
      </trkpt>
      <trkpt lat="43.3147780" lon="-6.6069050">
        <ele>1024.0</ele>
        <time>2021-02-07T12:55:09Z</time>
      </trkpt>
      <trkpt lat="43.3148250" lon="-6.6068720">
        <ele>1023.0</ele>
        <time>2021-02-07T12:55:22Z</time>
      </trkpt>
      <trkpt lat="43.3148740" lon="-6.6068300">
        <ele>1022.0</ele>
        <time>2021-02-07T12:55:28Z</time>
      </trkpt>
      <trkpt lat="43.3149060" lon="-6.6067690">
        <ele>1021.0</ele>
        <time>2021-02-07T12:55:33Z</time>
      </trkpt>
      <trkpt lat="43.3149240" lon="-6.6067030">
        <ele>1020.0</ele>
        <time>2021-02-07T12:55:37Z</time>
      </trkpt>
      <trkpt lat="43.3149310" lon="-6.6066380">
        <ele>1019.0</ele>
        <time>2021-02-07T12:55:42Z</time>
      </trkpt>
      <trkpt lat="43.3149480" lon="-6.6065770">
        <ele>1018.0</ele>
        <time>2021-02-07T12:56:23Z</time>
      </trkpt>
      <trkpt lat="43.3149600" lon="-6.6065060">
        <ele>1017.0</ele>
        <time>2021-02-07T12:56:26Z</time>
      </trkpt>
      <trkpt lat="43.3149750" lon="-6.6064340">
        <ele>1016.0</ele>
        <time>2021-02-07T12:56:29Z</time>
      </trkpt>
      <trkpt lat="43.3149860" lon="-6.6063560">
        <ele>1015.0</ele>
        <time>2021-02-07T12:56:33Z</time>
      </trkpt>
      <trkpt lat="43.3149960" lon="-6.6064100">
        <ele>1013.0</ele>
        <time>2021-02-07T12:56:41Z</time>
      </trkpt>
      <trkpt lat="43.3149910" lon="-6.6064840">
        <ele>1015.0</ele>
        <time>2021-02-07T12:56:44Z</time>
      </trkpt>
      <trkpt lat="43.3149810" lon="-6.6065580">
        <ele>1016.0</ele>
        <time>2021-02-07T12:56:47Z</time>
      </trkpt>
      <trkpt lat="43.3149650" lon="-6.6066100">
        <ele>1017.0</ele>
        <time>2021-02-07T12:56:51Z</time>
      </trkpt>
      <trkpt lat="43.3149280" lon="-6.6066830">
        <ele>1018.0</ele>
        <time>2021-02-07T12:57:01Z</time>
      </trkpt>
      <trkpt lat="43.3148920" lon="-6.6067510">
        <ele>1018.0</ele>
        <time>2021-02-07T12:57:04Z</time>
      </trkpt>
      <trkpt lat="43.3148640" lon="-6.6068090">
        <ele>1019.0</ele>
        <time>2021-02-07T12:57:07Z</time>
      </trkpt>
      <trkpt lat="43.3148780" lon="-6.6068660">
        <ele>1022.0</ele>
        <time>2021-02-07T12:57:12Z</time>
      </trkpt>
      <trkpt lat="43.3149300" lon="-6.6068500">
        <ele>1023.0</ele>
        <time>2021-02-07T12:57:18Z</time>
      </trkpt>
      <trkpt lat="43.3149820" lon="-6.6068020">
        <ele>1023.0</ele>
        <time>2021-02-07T12:57:28Z</time>
      </trkpt>
      <trkpt lat="43.3150160" lon="-6.6067530">
        <ele>1023.0</ele>
        <time>2021-02-07T12:57:32Z</time>
      </trkpt>
      <trkpt lat="43.3150560" lon="-6.6066800">
        <ele>1023.0</ele>
        <time>2021-02-07T12:57:37Z</time>
      </trkpt>
      <trkpt lat="43.3150830" lon="-6.6066070">
        <ele>1023.0</ele>
        <time>2021-02-07T12:57:41Z</time>
      </trkpt>
      <trkpt lat="43.3151020" lon="-6.6065370">
        <ele>1023.0</ele>
        <time>2021-02-07T12:57:45Z</time>
      </trkpt>
      <trkpt lat="43.3151360" lon="-6.6064690">
        <ele>1023.0</ele>
        <time>2021-02-07T12:57:50Z</time>
      </trkpt>
      <trkpt lat="43.3151600" lon="-6.6064080">
        <ele>1023.0</ele>
        <time>2021-02-07T12:57:54Z</time>
      </trkpt>
      <trkpt lat="43.3151860" lon="-6.6063450">
        <ele>1023.0</ele>
        <time>2021-02-07T12:57:58Z</time>
      </trkpt>
      <trkpt lat="43.3152050" lon="-6.6062800">
        <ele>1022.0</ele>
        <time>2021-02-07T12:58:02Z</time>
      </trkpt>
      <trkpt lat="43.3152150" lon="-6.6062090">
        <ele>1022.0</ele>
        <time>2021-02-07T12:58:06Z</time>
      </trkpt>
      <trkpt lat="43.3152300" lon="-6.6061230">
        <ele>1019.0</ele>
        <time>2021-02-07T12:58:11Z</time>
      </trkpt>
      <trkpt lat="43.3152400" lon="-6.6060480">
        <ele>1019.0</ele>
        <time>2021-02-07T12:58:15Z</time>
      </trkpt>
      <trkpt lat="43.3152540" lon="-6.6059680">
        <ele>1019.0</ele>
        <time>2021-02-07T12:58:20Z</time>
      </trkpt>
      <trkpt lat="43.3152570" lon="-6.6058910">
        <ele>1018.0</ele>
        <time>2021-02-07T12:58:24Z</time>
      </trkpt>
      <trkpt lat="43.3152670" lon="-6.6058130">
        <ele>1018.0</ele>
        <time>2021-02-07T12:58:28Z</time>
      </trkpt>
      <trkpt lat="43.3152820" lon="-6.6057370">
        <ele>1018.0</ele>
        <time>2021-02-07T12:58:32Z</time>
      </trkpt>
      <trkpt lat="43.3152950" lon="-6.6056640">
        <ele>1018.0</ele>
        <time>2021-02-07T12:58:36Z</time>
      </trkpt>
      <trkpt lat="43.3153170" lon="-6.6055860">
        <ele>1018.0</ele>
        <time>2021-02-07T12:58:41Z</time>
      </trkpt>
      <trkpt lat="43.3153400" lon="-6.6055010">
        <ele>1018.0</ele>
        <time>2021-02-07T12:58:46Z</time>
      </trkpt>
      <trkpt lat="43.3153610" lon="-6.6054340">
        <ele>1018.0</ele>
        <time>2021-02-07T12:58:50Z</time>
      </trkpt>
      <trkpt lat="43.3153830" lon="-6.6053570">
        <ele>1018.0</ele>
        <time>2021-02-07T12:58:55Z</time>
      </trkpt>
      <trkpt lat="43.3154040" lon="-6.6052930">
        <ele>1017.0</ele>
        <time>2021-02-07T12:58:59Z</time>
      </trkpt>
      <trkpt lat="43.3154280" lon="-6.6052280">
        <ele>1017.0</ele>
        <time>2021-02-07T12:59:03Z</time>
      </trkpt>
      <trkpt lat="43.3154560" lon="-6.6051630">
        <ele>1017.0</ele>
        <time>2021-02-07T12:59:07Z</time>
      </trkpt>
      <trkpt lat="43.3154740" lon="-6.6050820">
        <ele>1017.0</ele>
        <time>2021-02-07T12:59:11Z</time>
      </trkpt>
      <trkpt lat="43.3154920" lon="-6.6050140">
        <ele>1016.0</ele>
        <time>2021-02-07T12:59:15Z</time>
      </trkpt>
      <trkpt lat="43.3155200" lon="-6.6049550">
        <ele>1016.0</ele>
        <time>2021-02-07T12:59:19Z</time>
      </trkpt>
      <trkpt lat="43.3155470" lon="-6.6048700">
        <ele>1016.0</ele>
        <time>2021-02-07T12:59:24Z</time>
      </trkpt>
      <trkpt lat="43.3155690" lon="-6.6047960">
        <ele>1016.0</ele>
        <time>2021-02-07T12:59:29Z</time>
      </trkpt>
      <trkpt lat="43.3155970" lon="-6.6047170">
        <ele>1015.0</ele>
        <time>2021-02-07T12:59:34Z</time>
      </trkpt>
      <trkpt lat="43.3156210" lon="-6.6046570">
        <ele>1015.0</ele>
        <time>2021-02-07T12:59:38Z</time>
      </trkpt>
      <trkpt lat="43.3156460" lon="-6.6045900">
        <ele>1015.0</ele>
        <time>2021-02-07T12:59:43Z</time>
      </trkpt>
      <trkpt lat="43.3156770" lon="-6.6045230">
        <ele>1015.0</ele>
        <time>2021-02-07T12:59:48Z</time>
      </trkpt>
      <trkpt lat="43.3157060" lon="-6.6044620">
        <ele>1015.0</ele>
        <time>2021-02-07T12:59:52Z</time>
      </trkpt>
      <trkpt lat="43.3157320" lon="-6.6043960">
        <ele>1015.0</ele>
        <time>2021-02-07T12:59:56Z</time>
      </trkpt>
      <trkpt lat="43.3157560" lon="-6.6043260">
        <ele>1015.0</ele>
        <time>2021-02-07T13:00:00Z</time>
      </trkpt>
      <trkpt lat="43.3157870" lon="-6.6042470">
        <ele>1015.0</ele>
        <time>2021-02-07T13:00:06Z</time>
      </trkpt>
      <trkpt lat="43.3158150" lon="-6.6041610">
        <ele>1014.0</ele>
        <time>2021-02-07T13:00:11Z</time>
      </trkpt>
      <trkpt lat="43.3158350" lon="-6.6040810">
        <ele>1014.0</ele>
        <time>2021-02-07T13:00:15Z</time>
      </trkpt>
      <trkpt lat="43.3158650" lon="-6.6040110">
        <ele>1013.0</ele>
        <time>2021-02-07T13:00:19Z</time>
      </trkpt>
      <trkpt lat="43.3159180" lon="-6.6039560">
        <ele>1013.0</ele>
        <time>2021-02-07T13:00:24Z</time>
      </trkpt>
      <trkpt lat="43.3159560" lon="-6.6039040">
        <ele>1012.0</ele>
        <time>2021-02-07T13:00:28Z</time>
      </trkpt>
      <trkpt lat="43.3159960" lon="-6.6038560">
        <ele>1012.0</ele>
        <time>2021-02-07T13:00:32Z</time>
      </trkpt>
      <trkpt lat="43.3160300" lon="-6.6037970">
        <ele>1011.0</ele>
        <time>2021-02-07T13:00:37Z</time>
      </trkpt>
      <trkpt lat="43.3160780" lon="-6.6037460">
        <ele>1011.0</ele>
        <time>2021-02-07T13:00:43Z</time>
      </trkpt>
      <trkpt lat="43.3161260" lon="-6.6037230">
        <ele>1010.0</ele>
        <time>2021-02-07T13:00:47Z</time>
      </trkpt>
      <trkpt lat="43.3161750" lon="-6.6036770">
        <ele>1009.0</ele>
        <time>2021-02-07T13:00:52Z</time>
      </trkpt>
      <trkpt lat="43.3162160" lon="-6.6036190">
        <ele>1008.0</ele>
        <time>2021-02-07T13:00:58Z</time>
      </trkpt>
      <trkpt lat="43.3162540" lon="-6.6035710">
        <ele>1008.0</ele>
        <time>2021-02-07T13:01:02Z</time>
      </trkpt>
      <trkpt lat="43.3162870" lon="-6.6035210">
        <ele>1007.0</ele>
        <time>2021-02-07T13:01:06Z</time>
      </trkpt>
      <trkpt lat="43.3163260" lon="-6.6034560">
        <ele>1006.0</ele>
        <time>2021-02-07T13:01:12Z</time>
      </trkpt>
      <trkpt lat="43.3163710" lon="-6.6034160">
        <ele>1005.0</ele>
        <time>2021-02-07T13:01:17Z</time>
      </trkpt>
      <trkpt lat="43.3164070" lon="-6.6033750">
        <ele>1004.0</ele>
        <time>2021-02-07T13:01:21Z</time>
      </trkpt>
      <trkpt lat="43.3164610" lon="-6.6033230">
        <ele>1004.0</ele>
        <time>2021-02-07T13:01:26Z</time>
      </trkpt>
      <trkpt lat="43.3165040" lon="-6.6032770">
        <ele>1004.0</ele>
        <time>2021-02-07T13:01:31Z</time>
      </trkpt>
      <trkpt lat="43.3165570" lon="-6.6032660">
        <ele>1003.0</ele>
        <time>2021-02-07T13:01:36Z</time>
      </trkpt>
      <trkpt lat="43.3166070" lon="-6.6032670">
        <ele>1001.0</ele>
        <time>2021-02-07T13:01:40Z</time>
      </trkpt>
      <trkpt lat="43.3166610" lon="-6.6032680">
        <ele>1000.0</ele>
        <time>2021-02-07T13:01:44Z</time>
      </trkpt>
      <trkpt lat="43.3167090" lon="-6.6032580">
        <ele>999.0</ele>
        <time>2021-02-07T13:01:51Z</time>
      </trkpt>
      <trkpt lat="43.3167580" lon="-6.6032390">
        <ele>999.0</ele>
        <time>2021-02-07T13:02:03Z</time>
      </trkpt>
      <trkpt lat="43.3168210" lon="-6.6032330">
        <ele>998.0</ele>
        <time>2021-02-07T13:02:09Z</time>
      </trkpt>
      <trkpt lat="43.3168720" lon="-6.6032470">
        <ele>997.0</ele>
        <time>2021-02-07T13:02:14Z</time>
      </trkpt>
      <trkpt lat="43.3169170" lon="-6.6032690">
        <ele>996.0</ele>
        <time>2021-02-07T13:02:18Z</time>
      </trkpt>
      <trkpt lat="43.3169640" lon="-6.6032830">
        <ele>995.0</ele>
        <time>2021-02-07T13:02:24Z</time>
      </trkpt>
      <trkpt lat="43.3170210" lon="-6.6033130">
        <ele>995.0</ele>
        <time>2021-02-07T13:02:30Z</time>
      </trkpt>
      <trkpt lat="43.3170700" lon="-6.6033410">
        <ele>995.0</ele>
        <time>2021-02-07T13:02:35Z</time>
      </trkpt>
      <trkpt lat="43.3171250" lon="-6.6033600">
        <ele>994.0</ele>
        <time>2021-02-07T13:02:40Z</time>
      </trkpt>
      <trkpt lat="43.3171790" lon="-6.6033760">
        <ele>994.0</ele>
        <time>2021-02-07T13:02:44Z</time>
      </trkpt>
      <trkpt lat="43.3172250" lon="-6.6033740">
        <ele>993.0</ele>
        <time>2021-02-07T13:02:49Z</time>
      </trkpt>
      <trkpt lat="43.3172840" lon="-6.6033780">
        <ele>993.0</ele>
        <time>2021-02-07T13:02:54Z</time>
      </trkpt>
      <trkpt lat="43.3173490" lon="-6.6033850">
        <ele>993.0</ele>
        <time>2021-02-07T13:02:58Z</time>
      </trkpt>
      <trkpt lat="43.3173990" lon="-6.6034020">
        <ele>993.0</ele>
        <time>2021-02-07T13:03:01Z</time>
      </trkpt>
      <trkpt lat="43.3174470" lon="-6.6034200">
        <ele>992.0</ele>
        <time>2021-02-07T13:03:05Z</time>
      </trkpt>
      <trkpt lat="43.3175090" lon="-6.6034540">
        <ele>991.0</ele>
        <time>2021-02-07T13:03:11Z</time>
      </trkpt>
      <trkpt lat="43.3175570" lon="-6.6034610">
        <ele>991.0</ele>
        <time>2021-02-07T13:03:15Z</time>
      </trkpt>
      <trkpt lat="43.3176160" lon="-6.6034700">
        <ele>990.0</ele>
        <time>2021-02-07T13:03:20Z</time>
      </trkpt>
      <trkpt lat="43.3176750" lon="-6.6034800">
        <ele>990.0</ele>
        <time>2021-02-07T13:03:25Z</time>
      </trkpt>
      <trkpt lat="43.3177400" lon="-6.6034970">
        <ele>989.0</ele>
        <time>2021-02-07T13:03:29Z</time>
      </trkpt>
      <trkpt lat="43.3177970" lon="-6.6035220">
        <ele>989.0</ele>
        <time>2021-02-07T13:03:33Z</time>
      </trkpt>
      <trkpt lat="43.3178540" lon="-6.6035330">
        <ele>988.0</ele>
        <time>2021-02-07T13:03:38Z</time>
      </trkpt>
      <trkpt lat="43.3179090" lon="-6.6035600">
        <ele>987.0</ele>
        <time>2021-02-07T13:03:42Z</time>
      </trkpt>
      <trkpt lat="43.3179610" lon="-6.6035970">
        <ele>986.0</ele>
        <time>2021-02-07T13:03:46Z</time>
      </trkpt>
      <trkpt lat="43.3180170" lon="-6.6036020">
        <ele>985.0</ele>
        <time>2021-02-07T13:03:52Z</time>
      </trkpt>
      <trkpt lat="43.3180670" lon="-6.6035980">
        <ele>985.0</ele>
        <time>2021-02-07T13:03:57Z</time>
      </trkpt>
      <trkpt lat="43.3181270" lon="-6.6035670">
        <ele>984.0</ele>
        <time>2021-02-07T13:04:02Z</time>
      </trkpt>
      <trkpt lat="43.3181910" lon="-6.6035380">
        <ele>983.0</ele>
        <time>2021-02-07T13:04:06Z</time>
      </trkpt>
      <trkpt lat="43.3182420" lon="-6.6035200">
        <ele>983.0</ele>
        <time>2021-02-07T13:04:09Z</time>
      </trkpt>
      <trkpt lat="43.3182910" lon="-6.6034570">
        <ele>983.0</ele>
        <time>2021-02-07T13:04:13Z</time>
      </trkpt>
      <trkpt lat="43.3183180" lon="-6.6034050">
        <ele>983.0</ele>
        <time>2021-02-07T13:04:16Z</time>
      </trkpt>
      <trkpt lat="43.3183460" lon="-6.6033400">
        <ele>982.0</ele>
        <time>2021-02-07T13:04:20Z</time>
      </trkpt>
      <trkpt lat="43.3183710" lon="-6.6032790">
        <ele>982.0</ele>
        <time>2021-02-07T13:04:24Z</time>
      </trkpt>
      <trkpt lat="43.3183970" lon="-6.6032140">
        <ele>981.0</ele>
        <time>2021-02-07T13:04:28Z</time>
      </trkpt>
      <trkpt lat="43.3184370" lon="-6.6031440">
        <ele>981.0</ele>
        <time>2021-02-07T13:04:33Z</time>
      </trkpt>
      <trkpt lat="43.3184700" lon="-6.6030850">
        <ele>981.0</ele>
        <time>2021-02-07T13:04:37Z</time>
      </trkpt>
      <trkpt lat="43.3185080" lon="-6.6030390">
        <ele>981.0</ele>
        <time>2021-02-07T13:04:41Z</time>
      </trkpt>
      <trkpt lat="43.3185570" lon="-6.6029880">
        <ele>980.0</ele>
        <time>2021-02-07T13:04:46Z</time>
      </trkpt>
      <trkpt lat="43.3185930" lon="-6.6029180">
        <ele>980.0</ele>
        <time>2021-02-07T13:04:51Z</time>
      </trkpt>
      <trkpt lat="43.3186430" lon="-6.6028630">
        <ele>980.0</ele>
        <time>2021-02-07T13:04:56Z</time>
      </trkpt>
      <trkpt lat="43.3186870" lon="-6.6028150">
        <ele>980.0</ele>
        <time>2021-02-07T13:05:01Z</time>
      </trkpt>
      <trkpt lat="43.3187110" lon="-6.6027610">
        <ele>980.0</ele>
        <time>2021-02-07T13:05:05Z</time>
      </trkpt>
      <trkpt lat="43.3187440" lon="-6.6026970">
        <ele>979.0</ele>
        <time>2021-02-07T13:05:10Z</time>
      </trkpt>
      <trkpt lat="43.3187700" lon="-6.6026300">
        <ele>979.0</ele>
        <time>2021-02-07T13:05:14Z</time>
      </trkpt>
      <trkpt lat="43.3188020" lon="-6.6025680">
        <ele>979.0</ele>
        <time>2021-02-07T13:05:18Z</time>
      </trkpt>
      <trkpt lat="43.3188350" lon="-6.6025120">
        <ele>979.0</ele>
        <time>2021-02-07T13:05:22Z</time>
      </trkpt>
      <trkpt lat="43.3188680" lon="-6.6024590">
        <ele>979.0</ele>
        <time>2021-02-07T13:05:26Z</time>
      </trkpt>
      <trkpt lat="43.3189120" lon="-6.6024070">
        <ele>979.0</ele>
        <time>2021-02-07T13:05:31Z</time>
      </trkpt>
      <trkpt lat="43.3189540" lon="-6.6023480">
        <ele>979.0</ele>
        <time>2021-02-07T13:05:36Z</time>
      </trkpt>
      <trkpt lat="43.3189870" lon="-6.6022710">
        <ele>979.0</ele>
        <time>2021-02-07T13:05:41Z</time>
      </trkpt>
      <trkpt lat="43.3190110" lon="-6.6021930">
        <ele>979.0</ele>
        <time>2021-02-07T13:05:45Z</time>
      </trkpt>
      <trkpt lat="43.3190330" lon="-6.6021230">
        <ele>979.0</ele>
        <time>2021-02-07T13:05:49Z</time>
      </trkpt>
      <trkpt lat="43.3190590" lon="-6.6020600">
        <ele>978.0</ele>
        <time>2021-02-07T13:05:53Z</time>
      </trkpt>
      <trkpt lat="43.3190860" lon="-6.6019910">
        <ele>978.0</ele>
        <time>2021-02-07T13:05:57Z</time>
      </trkpt>
      <trkpt lat="43.3191190" lon="-6.6019270">
        <ele>978.0</ele>
        <time>2021-02-07T13:06:01Z</time>
      </trkpt>
      <trkpt lat="43.3191610" lon="-6.6018650">
        <ele>978.0</ele>
        <time>2021-02-07T13:06:06Z</time>
      </trkpt>
      <trkpt lat="43.3192010" lon="-6.6018010">
        <ele>978.0</ele>
        <time>2021-02-07T13:06:11Z</time>
      </trkpt>
      <trkpt lat="43.3192270" lon="-6.6017380">
        <ele>978.0</ele>
        <time>2021-02-07T13:06:15Z</time>
      </trkpt>
      <trkpt lat="43.3192700" lon="-6.6016720">
        <ele>977.0</ele>
        <time>2021-02-07T13:06:20Z</time>
      </trkpt>
      <trkpt lat="43.3192970" lon="-6.6016160">
        <ele>977.0</ele>
        <time>2021-02-07T13:06:24Z</time>
      </trkpt>
      <trkpt lat="43.3193300" lon="-6.6015620">
        <ele>977.0</ele>
        <time>2021-02-07T13:06:28Z</time>
      </trkpt>
      <trkpt lat="43.3193650" lon="-6.6015120">
        <ele>976.0</ele>
        <time>2021-02-07T13:06:32Z</time>
      </trkpt>
      <trkpt lat="43.3194120" lon="-6.6014480">
        <ele>976.0</ele>
        <time>2021-02-07T13:06:37Z</time>
      </trkpt>
      <trkpt lat="43.3194490" lon="-6.6013890">
        <ele>976.0</ele>
        <time>2021-02-07T13:06:41Z</time>
      </trkpt>
      <trkpt lat="43.3194830" lon="-6.6013370">
        <ele>976.0</ele>
        <time>2021-02-07T13:06:45Z</time>
      </trkpt>
      <trkpt lat="43.3195290" lon="-6.6012810">
        <ele>976.0</ele>
        <time>2021-02-07T13:06:50Z</time>
      </trkpt>
      <trkpt lat="43.3195690" lon="-6.6012150">
        <ele>976.0</ele>
        <time>2021-02-07T13:06:55Z</time>
      </trkpt>
      <trkpt lat="43.3196100" lon="-6.6011570">
        <ele>976.0</ele>
        <time>2021-02-07T13:07:00Z</time>
      </trkpt>
      <trkpt lat="43.3196450" lon="-6.6011070">
        <ele>976.0</ele>
        <time>2021-02-07T13:07:04Z</time>
      </trkpt>
      <trkpt lat="43.3196810" lon="-6.6010560">
        <ele>976.0</ele>
        <time>2021-02-07T13:07:08Z</time>
      </trkpt>
      <trkpt lat="43.3197190" lon="-6.6010030">
        <ele>975.0</ele>
        <time>2021-02-07T13:07:12Z</time>
      </trkpt>
      <trkpt lat="43.3197560" lon="-6.6009460">
        <ele>975.0</ele>
        <time>2021-02-07T13:07:16Z</time>
      </trkpt>
      <trkpt lat="43.3197880" lon="-6.6008760">
        <ele>975.0</ele>
        <time>2021-02-07T13:07:21Z</time>
      </trkpt>
      <trkpt lat="43.3198210" lon="-6.6008110">
        <ele>975.0</ele>
        <time>2021-02-07T13:07:25Z</time>
      </trkpt>
      <trkpt lat="43.3198580" lon="-6.6007610">
        <ele>975.0</ele>
        <time>2021-02-07T13:07:29Z</time>
      </trkpt>
      <trkpt lat="43.3199010" lon="-6.6006990">
        <ele>974.0</ele>
        <time>2021-02-07T13:07:34Z</time>
      </trkpt>
      <trkpt lat="43.3199420" lon="-6.6006430">
        <ele>974.0</ele>
        <time>2021-02-07T13:07:39Z</time>
      </trkpt>
      <trkpt lat="43.3199740" lon="-6.6005880">
        <ele>974.0</ele>
        <time>2021-02-07T13:07:44Z</time>
      </trkpt>
      <trkpt lat="43.3200060" lon="-6.6005290">
        <ele>974.0</ele>
        <time>2021-02-07T13:07:49Z</time>
      </trkpt>
      <trkpt lat="43.3200280" lon="-6.6004560">
        <ele>974.0</ele>
        <time>2021-02-07T13:07:53Z</time>
      </trkpt>
      <trkpt lat="43.3200420" lon="-6.6003930">
        <ele>973.0</ele>
        <time>2021-02-07T13:07:56Z</time>
      </trkpt>
      <trkpt lat="43.3200730" lon="-6.6003300">
        <ele>973.0</ele>
        <time>2021-02-07T13:08:00Z</time>
      </trkpt>
      <trkpt lat="43.3201030" lon="-6.6002680">
        <ele>973.0</ele>
        <time>2021-02-07T13:08:05Z</time>
      </trkpt>
      <trkpt lat="43.3201440" lon="-6.6002140">
        <ele>972.0</ele>
        <time>2021-02-07T13:08:10Z</time>
      </trkpt>
      <trkpt lat="43.3201820" lon="-6.6001640">
        <ele>972.0</ele>
        <time>2021-02-07T13:08:15Z</time>
      </trkpt>
      <trkpt lat="43.3202200" lon="-6.6001060">
        <ele>971.0</ele>
        <time>2021-02-07T13:08:20Z</time>
      </trkpt>
      <trkpt lat="43.3202580" lon="-6.6000440">
        <ele>970.0</ele>
        <time>2021-02-07T13:08:25Z</time>
      </trkpt>
      <trkpt lat="43.3203050" lon="-6.5999860">
        <ele>970.0</ele>
        <time>2021-02-07T13:08:31Z</time>
      </trkpt>
      <trkpt lat="43.3203450" lon="-6.5999380">
        <ele>970.0</ele>
        <time>2021-02-07T13:08:36Z</time>
      </trkpt>
      <trkpt lat="43.3203820" lon="-6.5998800">
        <ele>970.0</ele>
        <time>2021-02-07T13:08:41Z</time>
      </trkpt>
      <trkpt lat="43.3204080" lon="-6.5998010">
        <ele>969.0</ele>
        <time>2021-02-07T13:08:46Z</time>
      </trkpt>
      <trkpt lat="43.3204450" lon="-6.5997460">
        <ele>969.0</ele>
        <time>2021-02-07T13:08:50Z</time>
      </trkpt>
      <trkpt lat="43.3204810" lon="-6.5996840">
        <ele>968.0</ele>
        <time>2021-02-07T13:08:55Z</time>
      </trkpt>
      <trkpt lat="43.3205180" lon="-6.5996150">
        <ele>968.0</ele>
        <time>2021-02-07T13:08:59Z</time>
      </trkpt>
      <trkpt lat="43.3205450" lon="-6.5995550">
        <ele>968.0</ele>
        <time>2021-02-07T13:09:03Z</time>
      </trkpt>
      <trkpt lat="43.3205650" lon="-6.5994810">
        <ele>967.0</ele>
        <time>2021-02-07T13:09:07Z</time>
      </trkpt>
      <trkpt lat="43.3205910" lon="-6.5994130">
        <ele>967.0</ele>
        <time>2021-02-07T13:09:11Z</time>
      </trkpt>
      <trkpt lat="43.3206220" lon="-6.5993470">
        <ele>967.0</ele>
        <time>2021-02-07T13:09:15Z</time>
      </trkpt>
      <trkpt lat="43.3206420" lon="-6.5992810">
        <ele>967.0</ele>
        <time>2021-02-07T13:09:19Z</time>
      </trkpt>
      <trkpt lat="43.3206710" lon="-6.5992160">
        <ele>966.0</ele>
        <time>2021-02-07T13:09:23Z</time>
      </trkpt>
      <trkpt lat="43.3206940" lon="-6.5991420">
        <ele>966.0</ele>
        <time>2021-02-07T13:09:27Z</time>
      </trkpt>
      <trkpt lat="43.3207190" lon="-6.5990790">
        <ele>966.0</ele>
        <time>2021-02-07T13:09:31Z</time>
      </trkpt>
      <trkpt lat="43.3207480" lon="-6.5990070">
        <ele>965.0</ele>
        <time>2021-02-07T13:09:37Z</time>
      </trkpt>
      <trkpt lat="43.3207910" lon="-6.5989590">
        <ele>964.0</ele>
        <time>2021-02-07T13:09:42Z</time>
      </trkpt>
      <trkpt lat="43.3208240" lon="-6.5988980">
        <ele>964.0</ele>
        <time>2021-02-07T13:09:47Z</time>
      </trkpt>
      <trkpt lat="43.3208570" lon="-6.5988340">
        <ele>963.0</ele>
        <time>2021-02-07T13:09:52Z</time>
      </trkpt>
      <trkpt lat="43.3208870" lon="-6.5987780">
        <ele>963.0</ele>
        <time>2021-02-07T13:09:56Z</time>
      </trkpt>
      <trkpt lat="43.3209180" lon="-6.5987200">
        <ele>963.0</ele>
        <time>2021-02-07T13:10:00Z</time>
      </trkpt>
      <trkpt lat="43.3209510" lon="-6.5986660">
        <ele>963.0</ele>
        <time>2021-02-07T13:10:05Z</time>
      </trkpt>
      <trkpt lat="43.3209870" lon="-6.5986090">
        <ele>963.0</ele>
        <time>2021-02-07T13:10:10Z</time>
      </trkpt>
      <trkpt lat="43.3210050" lon="-6.5985370">
        <ele>963.0</ele>
        <time>2021-02-07T13:10:15Z</time>
      </trkpt>
      <trkpt lat="43.3210310" lon="-6.5984740">
        <ele>962.0</ele>
        <time>2021-02-07T13:10:20Z</time>
      </trkpt>
      <trkpt lat="43.3210490" lon="-6.5984070">
        <ele>962.0</ele>
        <time>2021-02-07T13:10:24Z</time>
      </trkpt>
      <trkpt lat="43.3210740" lon="-6.5983280">
        <ele>962.0</ele>
        <time>2021-02-07T13:10:29Z</time>
      </trkpt>
      <trkpt lat="43.3210880" lon="-6.5982500">
        <ele>961.0</ele>
        <time>2021-02-07T13:10:33Z</time>
      </trkpt>
      <trkpt lat="43.3211040" lon="-6.5981700">
        <ele>961.0</ele>
        <time>2021-02-07T13:10:37Z</time>
      </trkpt>
      <trkpt lat="43.3211150" lon="-6.5981060">
        <ele>961.0</ele>
        <time>2021-02-07T13:10:40Z</time>
      </trkpt>
      <trkpt lat="43.3211290" lon="-6.5980300">
        <ele>960.0</ele>
        <time>2021-02-07T13:10:44Z</time>
      </trkpt>
      <trkpt lat="43.3211330" lon="-6.5979450">
        <ele>960.0</ele>
        <time>2021-02-07T13:10:48Z</time>
      </trkpt>
      <trkpt lat="43.3211490" lon="-6.5978690">
        <ele>959.0</ele>
        <time>2021-02-07T13:10:51Z</time>
      </trkpt>
      <trkpt lat="43.3211600" lon="-6.5978060">
        <ele>959.0</ele>
        <time>2021-02-07T13:10:54Z</time>
      </trkpt>
      <trkpt lat="43.3211620" lon="-6.5977310">
        <ele>958.0</ele>
        <time>2021-02-07T13:10:58Z</time>
      </trkpt>
      <trkpt lat="43.3211440" lon="-6.5976500">
        <ele>957.0</ele>
        <time>2021-02-07T13:11:03Z</time>
      </trkpt>
      <trkpt lat="43.3211240" lon="-6.5975810">
        <ele>957.0</ele>
        <time>2021-02-07T13:11:07Z</time>
      </trkpt>
      <trkpt lat="43.3211090" lon="-6.5975190">
        <ele>956.0</ele>
        <time>2021-02-07T13:11:12Z</time>
      </trkpt>
      <trkpt lat="43.3210800" lon="-6.5974510">
        <ele>954.0</ele>
        <time>2021-02-07T13:11:18Z</time>
      </trkpt>
      <trkpt lat="43.3210690" lon="-6.5973760">
        <ele>954.0</ele>
        <time>2021-02-07T13:11:22Z</time>
      </trkpt>
      <trkpt lat="43.3210690" lon="-6.5972960">
        <ele>953.0</ele>
        <time>2021-02-07T13:11:26Z</time>
      </trkpt>
      <trkpt lat="43.3210630" lon="-6.5972170">
        <ele>952.0</ele>
        <time>2021-02-07T13:11:30Z</time>
      </trkpt>
      <trkpt lat="43.3210580" lon="-6.5971400">
        <ele>951.0</ele>
        <time>2021-02-07T13:11:34Z</time>
      </trkpt>
      <trkpt lat="43.3210680" lon="-6.5970760">
        <ele>950.0</ele>
        <time>2021-02-07T13:11:38Z</time>
      </trkpt>
      <trkpt lat="43.3210980" lon="-6.5970100">
        <ele>950.0</ele>
        <time>2021-02-07T13:11:43Z</time>
      </trkpt>
      <trkpt lat="43.3211270" lon="-6.5969290">
        <ele>949.0</ele>
        <time>2021-02-07T13:11:48Z</time>
      </trkpt>
      <trkpt lat="43.3211550" lon="-6.5968660">
        <ele>949.0</ele>
        <time>2021-02-07T13:11:52Z</time>
      </trkpt>
      <trkpt lat="43.3211950" lon="-6.5968230">
        <ele>949.0</ele>
        <time>2021-02-07T13:11:56Z</time>
      </trkpt>
      <trkpt lat="43.3212400" lon="-6.5967760">
        <ele>948.0</ele>
        <time>2021-02-07T13:12:01Z</time>
      </trkpt>
      <trkpt lat="43.3212940" lon="-6.5967480">
        <ele>948.0</ele>
        <time>2021-02-07T13:12:06Z</time>
      </trkpt>
      <trkpt lat="43.3213490" lon="-6.5967260">
        <ele>947.0</ele>
        <time>2021-02-07T13:12:11Z</time>
      </trkpt>
      <trkpt lat="43.3214110" lon="-6.5967000">
        <ele>946.0</ele>
        <time>2021-02-07T13:12:16Z</time>
      </trkpt>
      <trkpt lat="43.3214590" lon="-6.5966680">
        <ele>946.0</ele>
        <time>2021-02-07T13:12:20Z</time>
      </trkpt>
      <trkpt lat="43.3215070" lon="-6.5966470">
        <ele>945.0</ele>
        <time>2021-02-07T13:12:25Z</time>
      </trkpt>
      <trkpt lat="43.3215600" lon="-6.5966380">
        <ele>945.0</ele>
        <time>2021-02-07T13:12:30Z</time>
      </trkpt>
      <trkpt lat="43.3216230" lon="-6.5966340">
        <ele>944.0</ele>
        <time>2021-02-07T13:12:35Z</time>
      </trkpt>
      <trkpt lat="43.3216770" lon="-6.5966170">
        <ele>943.0</ele>
        <time>2021-02-07T13:12:39Z</time>
      </trkpt>
      <trkpt lat="43.3217240" lon="-6.5966090">
        <ele>942.0</ele>
        <time>2021-02-07T13:12:43Z</time>
      </trkpt>
      <trkpt lat="43.3217820" lon="-6.5965980">
        <ele>941.0</ele>
        <time>2021-02-07T13:12:48Z</time>
      </trkpt>
      <trkpt lat="43.3218480" lon="-6.5965870">
        <ele>941.0</ele>
        <time>2021-02-07T13:12:52Z</time>
      </trkpt>
      <trkpt lat="43.3218960" lon="-6.5965740">
        <ele>940.0</ele>
        <time>2021-02-07T13:12:55Z</time>
      </trkpt>
      <trkpt lat="43.3219570" lon="-6.5965610">
        <ele>940.0</ele>
        <time>2021-02-07T13:13:00Z</time>
      </trkpt>
      <trkpt lat="43.3220100" lon="-6.5965480">
        <ele>939.0</ele>
        <time>2021-02-07T13:13:04Z</time>
      </trkpt>
      <trkpt lat="43.3220730" lon="-6.5965340">
        <ele>938.0</ele>
        <time>2021-02-07T13:13:08Z</time>
      </trkpt>
      <trkpt lat="43.3221220" lon="-6.5965260">
        <ele>938.0</ele>
        <time>2021-02-07T13:13:11Z</time>
      </trkpt>
      <trkpt lat="43.3221790" lon="-6.5965040">
        <ele>937.0</ele>
        <time>2021-02-07T13:13:15Z</time>
      </trkpt>
      <trkpt lat="43.3222340" lon="-6.5964840">
        <ele>937.0</ele>
        <time>2021-02-07T13:13:19Z</time>
      </trkpt>
      <trkpt lat="43.3222850" lon="-6.5964680">
        <ele>936.0</ele>
        <time>2021-02-07T13:13:23Z</time>
      </trkpt>
      <trkpt lat="43.3223330" lon="-6.5964440">
        <ele>936.0</ele>
        <time>2021-02-07T13:13:28Z</time>
      </trkpt>
      <trkpt lat="43.3223870" lon="-6.5964300">
        <ele>936.0</ele>
        <time>2021-02-07T13:13:33Z</time>
      </trkpt>
      <trkpt lat="43.3224510" lon="-6.5964170">
        <ele>935.0</ele>
        <time>2021-02-07T13:13:38Z</time>
      </trkpt>
      <trkpt lat="43.3225110" lon="-6.5964140">
        <ele>935.0</ele>
        <time>2021-02-07T13:13:42Z</time>
      </trkpt>
      <trkpt lat="43.3225740" lon="-6.5964100">
        <ele>934.0</ele>
        <time>2021-02-07T13:13:46Z</time>
      </trkpt>
      <trkpt lat="43.3226320" lon="-6.5964100">
        <ele>934.0</ele>
        <time>2021-02-07T13:13:50Z</time>
      </trkpt>
      <trkpt lat="43.3226820" lon="-6.5964050">
        <ele>934.0</ele>
        <time>2021-02-07T13:13:54Z</time>
      </trkpt>
      <trkpt lat="43.3227430" lon="-6.5964200">
        <ele>933.0</ele>
        <time>2021-02-07T13:13:59Z</time>
      </trkpt>
      <trkpt lat="43.3227980" lon="-6.5964480">
        <ele>933.0</ele>
        <time>2021-02-07T13:14:03Z</time>
      </trkpt>
      <trkpt lat="43.3228430" lon="-6.5964760">
        <ele>933.0</ele>
        <time>2021-02-07T13:14:06Z</time>
      </trkpt>
      <trkpt lat="43.3228990" lon="-6.5965230">
        <ele>932.0</ele>
        <time>2021-02-07T13:14:10Z</time>
      </trkpt>
      <trkpt lat="43.3229550" lon="-6.5965640">
        <ele>932.0</ele>
        <time>2021-02-07T13:14:14Z</time>
      </trkpt>
      <trkpt lat="43.3229970" lon="-6.5966040">
        <ele>932.0</ele>
        <time>2021-02-07T13:14:18Z</time>
      </trkpt>
      <trkpt lat="43.3230380" lon="-6.5966510">
        <ele>931.0</ele>
        <time>2021-02-07T13:14:22Z</time>
      </trkpt>
      <trkpt lat="43.3230910" lon="-6.5966980">
        <ele>931.0</ele>
        <time>2021-02-07T13:14:26Z</time>
      </trkpt>
      <trkpt lat="43.3231450" lon="-6.5967420">
        <ele>930.0</ele>
        <time>2021-02-07T13:14:30Z</time>
      </trkpt>
      <trkpt lat="43.3231890" lon="-6.5967810">
        <ele>930.0</ele>
        <time>2021-02-07T13:14:34Z</time>
      </trkpt>
      <trkpt lat="43.3232370" lon="-6.5968200">
        <ele>929.0</ele>
        <time>2021-02-07T13:14:39Z</time>
      </trkpt>
      <trkpt lat="43.3232800" lon="-6.5968630">
        <ele>928.0</ele>
        <time>2021-02-07T13:14:43Z</time>
      </trkpt>
      <trkpt lat="43.3233110" lon="-6.5969180">
        <ele>927.0</ele>
        <time>2021-02-07T13:14:47Z</time>
      </trkpt>
      <trkpt lat="43.3233540" lon="-6.5969690">
        <ele>926.0</ele>
        <time>2021-02-07T13:14:52Z</time>
      </trkpt>
      <trkpt lat="43.3233920" lon="-6.5970310">
        <ele>925.0</ele>
        <time>2021-02-07T13:14:57Z</time>
      </trkpt>
      <trkpt lat="43.3234400" lon="-6.5970820">
        <ele>924.0</ele>
        <time>2021-02-07T13:15:02Z</time>
      </trkpt>
      <trkpt lat="43.3234930" lon="-6.5971320">
        <ele>923.0</ele>
        <time>2021-02-07T13:15:08Z</time>
      </trkpt>
      <trkpt lat="43.3235460" lon="-6.5971490">
        <ele>922.0</ele>
        <time>2021-02-07T13:15:14Z</time>
      </trkpt>
      <trkpt lat="43.3235910" lon="-6.5971360">
        <ele>922.0</ele>
        <time>2021-02-07T13:15:20Z</time>
      </trkpt>
      <trkpt lat="43.3236510" lon="-6.5971210">
        <ele>921.0</ele>
        <time>2021-02-07T13:15:25Z</time>
      </trkpt>
      <trkpt lat="43.3236980" lon="-6.5971090">
        <ele>920.0</ele>
        <time>2021-02-07T13:15:29Z</time>
      </trkpt>
      <trkpt lat="43.3237500" lon="-6.5970950">
        <ele>919.0</ele>
        <time>2021-02-07T13:15:35Z</time>
      </trkpt>
      <trkpt lat="43.3238050" lon="-6.5970700">
        <ele>918.0</ele>
        <time>2021-02-07T13:15:41Z</time>
      </trkpt>
      <trkpt lat="43.3238570" lon="-6.5970600">
        <ele>917.0</ele>
        <time>2021-02-07T13:15:45Z</time>
      </trkpt>
      <trkpt lat="43.3239160" lon="-6.5970420">
        <ele>917.0</ele>
        <time>2021-02-07T13:15:50Z</time>
      </trkpt>
      <trkpt lat="43.3239750" lon="-6.5970260">
        <ele>916.0</ele>
        <time>2021-02-07T13:15:55Z</time>
      </trkpt>
      <trkpt lat="43.3240220" lon="-6.5970150">
        <ele>915.0</ele>
        <time>2021-02-07T13:15:59Z</time>
      </trkpt>
      <trkpt lat="43.3240750" lon="-6.5969910">
        <ele>914.0</ele>
        <time>2021-02-07T13:16:04Z</time>
      </trkpt>
      <trkpt lat="43.3241260" lon="-6.5969710">
        <ele>914.0</ele>
        <time>2021-02-07T13:16:09Z</time>
      </trkpt>
      <trkpt lat="43.3241770" lon="-6.5969550">
        <ele>913.0</ele>
        <time>2021-02-07T13:16:13Z</time>
      </trkpt>
      <trkpt lat="43.3242330" lon="-6.5969390">
        <ele>913.0</ele>
        <time>2021-02-07T13:16:17Z</time>
      </trkpt>
      <trkpt lat="43.3242920" lon="-6.5969140">
        <ele>912.0</ele>
        <time>2021-02-07T13:16:21Z</time>
      </trkpt>
      <trkpt lat="43.3243490" lon="-6.5968870">
        <ele>912.0</ele>
        <time>2021-02-07T13:16:25Z</time>
      </trkpt>
      <trkpt lat="43.3243900" lon="-6.5968610">
        <ele>912.0</ele>
        <time>2021-02-07T13:16:28Z</time>
      </trkpt>
      <trkpt lat="43.3244330" lon="-6.5968270">
        <ele>911.0</ele>
        <time>2021-02-07T13:16:32Z</time>
      </trkpt>
      <trkpt lat="43.3244920" lon="-6.5968130">
        <ele>910.0</ele>
        <time>2021-02-07T13:16:39Z</time>
      </trkpt>
      <trkpt lat="43.3245470" lon="-6.5967970">
        <ele>910.0</ele>
        <time>2021-02-07T13:16:44Z</time>
      </trkpt>
      <trkpt lat="43.3245910" lon="-6.5968030">
        <ele>909.0</ele>
        <time>2021-02-07T13:16:49Z</time>
      </trkpt>
      <trkpt lat="43.3245980" lon="-6.5967180">
        <ele>909.0</ele>
        <time>2021-02-07T13:17:40Z</time>
      </trkpt>
      <trkpt lat="43.3245910" lon="-6.5966450">
        <ele>909.0</ele>
        <time>2021-02-07T13:17:44Z</time>
      </trkpt>
      <trkpt lat="43.3245960" lon="-6.5965550">
        <ele>909.0</ele>
        <time>2021-02-07T13:17:49Z</time>
      </trkpt>
      <trkpt lat="43.3246030" lon="-6.5964810">
        <ele>909.0</ele>
        <time>2021-02-07T13:17:53Z</time>
      </trkpt>
      <trkpt lat="43.3246140" lon="-6.5964030">
        <ele>907.0</ele>
        <time>2021-02-07T13:17:58Z</time>
      </trkpt>
      <trkpt lat="43.3246190" lon="-6.5963250">
        <ele>907.0</ele>
        <time>2021-02-07T13:18:02Z</time>
      </trkpt>
      <trkpt lat="43.3246310" lon="-6.5962470">
        <ele>906.0</ele>
        <time>2021-02-07T13:18:06Z</time>
      </trkpt>
      <trkpt lat="43.3246370" lon="-6.5961650">
        <ele>905.0</ele>
        <time>2021-02-07T13:18:10Z</time>
      </trkpt>
      <trkpt lat="43.3246350" lon="-6.5960850">
        <ele>904.0</ele>
        <time>2021-02-07T13:18:14Z</time>
      </trkpt>
      <trkpt lat="43.3246340" lon="-6.5960050">
        <ele>903.0</ele>
        <time>2021-02-07T13:18:18Z</time>
      </trkpt>
      <trkpt lat="43.3246380" lon="-6.5959350">
        <ele>903.0</ele>
        <time>2021-02-07T13:18:22Z</time>
      </trkpt>
      <trkpt lat="43.3246470" lon="-6.5958540">
        <ele>902.0</ele>
        <time>2021-02-07T13:18:27Z</time>
      </trkpt>
      <trkpt lat="43.3246530" lon="-6.5957860">
        <ele>901.0</ele>
        <time>2021-02-07T13:18:31Z</time>
      </trkpt>
      <trkpt lat="43.3246560" lon="-6.5957010">
        <ele>900.0</ele>
        <time>2021-02-07T13:18:36Z</time>
      </trkpt>
      <trkpt lat="43.3246500" lon="-6.5956150">
        <ele>899.0</ele>
        <time>2021-02-07T13:18:41Z</time>
      </trkpt>
      <trkpt lat="43.3246490" lon="-6.5955430">
        <ele>899.0</ele>
        <time>2021-02-07T13:18:45Z</time>
      </trkpt>
      <trkpt lat="43.3246460" lon="-6.5954670">
        <ele>899.0</ele>
        <time>2021-02-07T13:18:49Z</time>
      </trkpt>
      <trkpt lat="43.3246430" lon="-6.5953870">
        <ele>899.0</ele>
        <time>2021-02-07T13:18:53Z</time>
      </trkpt>
      <trkpt lat="43.3246400" lon="-6.5953040">
        <ele>899.0</ele>
        <time>2021-02-07T13:18:57Z</time>
      </trkpt>
      <trkpt lat="43.3246330" lon="-6.5952270">
        <ele>899.0</ele>
        <time>2021-02-07T13:19:01Z</time>
      </trkpt>
      <trkpt lat="43.3246340" lon="-6.5951480">
        <ele>898.0</ele>
        <time>2021-02-07T13:19:05Z</time>
      </trkpt>
      <trkpt lat="43.3246270" lon="-6.5950730">
        <ele>898.0</ele>
        <time>2021-02-07T13:19:09Z</time>
      </trkpt>
      <trkpt lat="43.3246220" lon="-6.5950000">
        <ele>897.0</ele>
        <time>2021-02-07T13:19:13Z</time>
      </trkpt>
      <trkpt lat="43.3246190" lon="-6.5949290">
        <ele>897.0</ele>
        <time>2021-02-07T13:19:17Z</time>
      </trkpt>
      <trkpt lat="43.3246200" lon="-6.5948400">
        <ele>896.0</ele>
        <time>2021-02-07T13:19:22Z</time>
      </trkpt>
      <trkpt lat="43.3246220" lon="-6.5947630">
        <ele>895.0</ele>
        <time>2021-02-07T13:19:26Z</time>
      </trkpt>
      <trkpt lat="43.3246220" lon="-6.5946850">
        <ele>895.0</ele>
        <time>2021-02-07T13:19:30Z</time>
      </trkpt>
      <trkpt lat="43.3246200" lon="-6.5946110">
        <ele>895.0</ele>
        <time>2021-02-07T13:19:34Z</time>
      </trkpt>
      <trkpt lat="43.3246100" lon="-6.5945470">
        <ele>895.0</ele>
        <time>2021-02-07T13:19:38Z</time>
      </trkpt>
      <trkpt lat="43.3246050" lon="-6.5944660">
        <ele>894.0</ele>
        <time>2021-02-07T13:19:43Z</time>
      </trkpt>
      <trkpt lat="43.3246010" lon="-6.5943970">
        <ele>894.0</ele>
        <time>2021-02-07T13:19:47Z</time>
      </trkpt>
      <trkpt lat="43.3245960" lon="-6.5943210">
        <ele>893.0</ele>
        <time>2021-02-07T13:19:51Z</time>
      </trkpt>
      <trkpt lat="43.3245950" lon="-6.5942500">
        <ele>893.0</ele>
        <time>2021-02-07T13:19:55Z</time>
      </trkpt>
      <trkpt lat="43.3245860" lon="-6.5941620">
        <ele>892.0</ele>
        <time>2021-02-07T13:20:00Z</time>
      </trkpt>
      <trkpt lat="43.3245860" lon="-6.5940830">
        <ele>891.0</ele>
        <time>2021-02-07T13:20:04Z</time>
      </trkpt>
      <trkpt lat="43.3245800" lon="-6.5940030">
        <ele>891.0</ele>
        <time>2021-02-07T13:20:08Z</time>
      </trkpt>
      <trkpt lat="43.3245690" lon="-6.5939260">
        <ele>891.0</ele>
        <time>2021-02-07T13:20:12Z</time>
      </trkpt>
      <trkpt lat="43.3245520" lon="-6.5938480">
        <ele>890.0</ele>
        <time>2021-02-07T13:20:16Z</time>
      </trkpt>
      <trkpt lat="43.3245370" lon="-6.5937740">
        <ele>890.0</ele>
        <time>2021-02-07T13:20:20Z</time>
      </trkpt>
      <trkpt lat="43.3245200" lon="-6.5937030">
        <ele>889.0</ele>
        <time>2021-02-07T13:20:24Z</time>
      </trkpt>
      <trkpt lat="43.3245030" lon="-6.5936270">
        <ele>889.0</ele>
        <time>2021-02-07T13:20:28Z</time>
      </trkpt>
      <trkpt lat="43.3244960" lon="-6.5935560">
        <ele>888.0</ele>
        <time>2021-02-07T13:20:32Z</time>
      </trkpt>
      <trkpt lat="43.3244890" lon="-6.5934790">
        <ele>887.0</ele>
        <time>2021-02-07T13:20:37Z</time>
      </trkpt>
      <trkpt lat="43.3244720" lon="-6.5934080">
        <ele>887.0</ele>
        <time>2021-02-07T13:20:42Z</time>
      </trkpt>
      <trkpt lat="43.3244630" lon="-6.5933340">
        <ele>886.0</ele>
        <time>2021-02-07T13:20:47Z</time>
      </trkpt>
      <trkpt lat="43.3244560" lon="-6.5932590">
        <ele>886.0</ele>
        <time>2021-02-07T13:20:52Z</time>
      </trkpt>
      <trkpt lat="43.3244530" lon="-6.5931910">
        <ele>885.0</ele>
        <time>2021-02-07T13:20:56Z</time>
      </trkpt>
      <trkpt lat="43.3244520" lon="-6.5931120">
        <ele>885.0</ele>
        <time>2021-02-07T13:21:01Z</time>
      </trkpt>
      <trkpt lat="43.3244470" lon="-6.5930430">
        <ele>885.0</ele>
        <time>2021-02-07T13:21:05Z</time>
      </trkpt>
      <trkpt lat="43.3244410" lon="-6.5929520">
        <ele>884.0</ele>
        <time>2021-02-07T13:21:10Z</time>
      </trkpt>
      <trkpt lat="43.3244380" lon="-6.5928720">
        <ele>883.0</ele>
        <time>2021-02-07T13:21:14Z</time>
      </trkpt>
      <trkpt lat="43.3244450" lon="-6.5927940">
        <ele>883.0</ele>
        <time>2021-02-07T13:21:18Z</time>
      </trkpt>
      <trkpt lat="43.3244460" lon="-6.5927220">
        <ele>883.0</ele>
        <time>2021-02-07T13:21:22Z</time>
      </trkpt>
      <trkpt lat="43.3244430" lon="-6.5926390">
        <ele>882.0</ele>
        <time>2021-02-07T13:21:27Z</time>
      </trkpt>
      <trkpt lat="43.3244390" lon="-6.5925550">
        <ele>882.0</ele>
        <time>2021-02-07T13:21:32Z</time>
      </trkpt>
      <trkpt lat="43.3244440" lon="-6.5924840">
        <ele>881.0</ele>
        <time>2021-02-07T13:21:37Z</time>
      </trkpt>
      <trkpt lat="43.3244430" lon="-6.5924030">
        <ele>881.0</ele>
        <time>2021-02-07T13:21:42Z</time>
      </trkpt>
      <trkpt lat="43.3244410" lon="-6.5923230">
        <ele>880.0</ele>
        <time>2021-02-07T13:21:46Z</time>
      </trkpt>
      <trkpt lat="43.3244430" lon="-6.5922420">
        <ele>880.0</ele>
        <time>2021-02-07T13:21:50Z</time>
      </trkpt>
      <trkpt lat="43.3244400" lon="-6.5921730">
        <ele>880.0</ele>
        <time>2021-02-07T13:21:54Z</time>
      </trkpt>
      <trkpt lat="43.3244390" lon="-6.5920890">
        <ele>879.0</ele>
        <time>2021-02-07T13:21:59Z</time>
      </trkpt>
      <trkpt lat="43.3244400" lon="-6.5920210">
        <ele>879.0</ele>
        <time>2021-02-07T13:22:03Z</time>
      </trkpt>
      <trkpt lat="43.3244390" lon="-6.5919470">
        <ele>879.0</ele>
        <time>2021-02-07T13:22:07Z</time>
      </trkpt>
      <trkpt lat="43.3244340" lon="-6.5918770">
        <ele>878.0</ele>
        <time>2021-02-07T13:22:11Z</time>
      </trkpt>
      <trkpt lat="43.3244260" lon="-6.5917870">
        <ele>878.0</ele>
        <time>2021-02-07T13:22:16Z</time>
      </trkpt>
      <trkpt lat="43.3244210" lon="-6.5917100">
        <ele>877.0</ele>
        <time>2021-02-07T13:22:20Z</time>
      </trkpt>
      <trkpt lat="43.3244220" lon="-6.5916330">
        <ele>877.0</ele>
        <time>2021-02-07T13:22:24Z</time>
      </trkpt>
      <trkpt lat="43.3244240" lon="-6.5915610">
        <ele>877.0</ele>
        <time>2021-02-07T13:22:28Z</time>
      </trkpt>
      <trkpt lat="43.3244200" lon="-6.5914850">
        <ele>877.0</ele>
        <time>2021-02-07T13:22:32Z</time>
      </trkpt>
      <trkpt lat="43.3244220" lon="-6.5914210">
        <ele>876.0</ele>
        <time>2021-02-07T13:22:36Z</time>
      </trkpt>
      <trkpt lat="43.3244150" lon="-6.5913260">
        <ele>876.0</ele>
        <time>2021-02-07T13:22:42Z</time>
      </trkpt>
      <trkpt lat="43.3244070" lon="-6.5912520">
        <ele>875.0</ele>
        <time>2021-02-07T13:22:47Z</time>
      </trkpt>
      <trkpt lat="43.3243960" lon="-6.5911580">
        <ele>875.0</ele>
        <time>2021-02-07T13:22:52Z</time>
      </trkpt>
      <trkpt lat="43.3243890" lon="-6.5910720">
        <ele>875.0</ele>
        <time>2021-02-07T13:22:56Z</time>
      </trkpt>
      <trkpt lat="43.3243800" lon="-6.5909930">
        <ele>874.0</ele>
        <time>2021-02-07T13:23:00Z</time>
      </trkpt>
      <trkpt lat="43.3243720" lon="-6.5909190">
        <ele>874.0</ele>
        <time>2021-02-07T13:23:04Z</time>
      </trkpt>
      <trkpt lat="43.3243620" lon="-6.5908460">
        <ele>874.0</ele>
        <time>2021-02-07T13:23:08Z</time>
      </trkpt>
      <trkpt lat="43.3243630" lon="-6.5907650">
        <ele>874.0</ele>
        <time>2021-02-07T13:23:12Z</time>
      </trkpt>
      <trkpt lat="43.3243600" lon="-6.5907000">
        <ele>874.0</ele>
        <time>2021-02-07T13:23:16Z</time>
      </trkpt>
      <trkpt lat="43.3243510" lon="-6.5906090">
        <ele>874.0</ele>
        <time>2021-02-07T13:23:21Z</time>
      </trkpt>
      <trkpt lat="43.3243470" lon="-6.5905320">
        <ele>874.0</ele>
        <time>2021-02-07T13:23:25Z</time>
      </trkpt>
      <trkpt lat="43.3243320" lon="-6.5904670">
        <ele>874.0</ele>
        <time>2021-02-07T13:23:29Z</time>
      </trkpt>
      <trkpt lat="43.3243120" lon="-6.5903860">
        <ele>874.0</ele>
        <time>2021-02-07T13:23:34Z</time>
      </trkpt>
      <trkpt lat="43.3242970" lon="-6.5903110">
        <ele>873.0</ele>
        <time>2021-02-07T13:23:39Z</time>
      </trkpt>
      <trkpt lat="43.3242750" lon="-6.5902250">
        <ele>872.0</ele>
        <time>2021-02-07T13:23:45Z</time>
      </trkpt>
      <trkpt lat="43.3242500" lon="-6.5901670">
        <ele>872.0</ele>
        <time>2021-02-07T13:23:49Z</time>
      </trkpt>
      <trkpt lat="43.3242280" lon="-6.5901000">
        <ele>872.0</ele>
        <time>2021-02-07T13:23:54Z</time>
      </trkpt>
      <trkpt lat="43.3242000" lon="-6.5900460">
        <ele>872.0</ele>
        <time>2021-02-07T13:23:59Z</time>
      </trkpt>
      <trkpt lat="43.3241570" lon="-6.5899820">
        <ele>873.0</ele>
        <time>2021-02-07T13:24:05Z</time>
      </trkpt>
      <trkpt lat="43.3241270" lon="-6.5899310">
        <ele>874.0</ele>
        <time>2021-02-07T13:24:09Z</time>
      </trkpt>
      <trkpt lat="43.3240930" lon="-6.5898620">
        <ele>874.0</ele>
        <time>2021-02-07T13:24:14Z</time>
      </trkpt>
      <trkpt lat="43.3240670" lon="-6.5898130">
        <ele>873.0</ele>
        <time>2021-02-07T13:24:18Z</time>
      </trkpt>
      <trkpt lat="43.3240300" lon="-6.5897480">
        <ele>873.0</ele>
        <time>2021-02-07T13:24:23Z</time>
      </trkpt>
      <trkpt lat="43.3239940" lon="-6.5896940">
        <ele>873.0</ele>
        <time>2021-02-07T13:24:27Z</time>
      </trkpt>
      <trkpt lat="43.3239540" lon="-6.5896360">
        <ele>873.0</ele>
        <time>2021-02-07T13:24:32Z</time>
      </trkpt>
      <trkpt lat="43.3239170" lon="-6.5895670">
        <ele>873.0</ele>
        <time>2021-02-07T13:24:37Z</time>
      </trkpt>
      <trkpt lat="43.3238860" lon="-6.5895020">
        <ele>873.0</ele>
        <time>2021-02-07T13:24:41Z</time>
      </trkpt>
      <trkpt lat="43.3238510" lon="-6.5894550">
        <ele>872.0</ele>
        <time>2021-02-07T13:24:45Z</time>
      </trkpt>
      <trkpt lat="43.3238090" lon="-6.5894060">
        <ele>872.0</ele>
        <time>2021-02-07T13:24:49Z</time>
      </trkpt>
      <trkpt lat="43.3237700" lon="-6.5893500">
        <ele>872.0</ele>
        <time>2021-02-07T13:24:53Z</time>
      </trkpt>
      <trkpt lat="43.3237360" lon="-6.5892870">
        <ele>872.0</ele>
        <time>2021-02-07T13:24:57Z</time>
      </trkpt>
      <trkpt lat="43.3237200" lon="-6.5892270">
        <ele>872.0</ele>
        <time>2021-02-07T13:25:01Z</time>
      </trkpt>
      <trkpt lat="43.3237070" lon="-6.5891390">
        <ele>871.0</ele>
        <time>2021-02-07T13:25:06Z</time>
      </trkpt>
      <trkpt lat="43.3236850" lon="-6.5890570">
        <ele>871.0</ele>
        <time>2021-02-07T13:25:11Z</time>
      </trkpt>
      <trkpt lat="43.3236660" lon="-6.5889950">
        <ele>871.0</ele>
        <time>2021-02-07T13:25:15Z</time>
      </trkpt>
      <trkpt lat="43.3236340" lon="-6.5889120">
        <ele>871.0</ele>
        <time>2021-02-07T13:25:20Z</time>
      </trkpt>
      <trkpt lat="43.3236190" lon="-6.5888420">
        <ele>871.0</ele>
        <time>2021-02-07T13:25:24Z</time>
      </trkpt>
      <trkpt lat="43.3236120" lon="-6.5887640">
        <ele>871.0</ele>
        <time>2021-02-07T13:25:28Z</time>
      </trkpt>
      <trkpt lat="43.3236070" lon="-6.5886830">
        <ele>871.0</ele>
        <time>2021-02-07T13:25:32Z</time>
      </trkpt>
      <trkpt lat="43.3235960" lon="-6.5886060">
        <ele>871.0</ele>
        <time>2021-02-07T13:25:37Z</time>
      </trkpt>
      <trkpt lat="43.3235820" lon="-6.5885310">
        <ele>871.0</ele>
        <time>2021-02-07T13:25:41Z</time>
      </trkpt>
      <trkpt lat="43.3235760" lon="-6.5884560">
        <ele>871.0</ele>
        <time>2021-02-07T13:25:45Z</time>
      </trkpt>
      <trkpt lat="43.3235720" lon="-6.5883720">
        <ele>871.0</ele>
        <time>2021-02-07T13:25:49Z</time>
      </trkpt>
      <trkpt lat="43.3235690" lon="-6.5882960">
        <ele>871.0</ele>
        <time>2021-02-07T13:25:53Z</time>
      </trkpt>
      <trkpt lat="43.3235740" lon="-6.5882170">
        <ele>871.0</ele>
        <time>2021-02-07T13:25:57Z</time>
      </trkpt>
      <trkpt lat="43.3235860" lon="-6.5881380">
        <ele>870.0</ele>
        <time>2021-02-07T13:26:01Z</time>
      </trkpt>
      <trkpt lat="43.3235990" lon="-6.5880630">
        <ele>870.0</ele>
        <time>2021-02-07T13:26:05Z</time>
      </trkpt>
      <trkpt lat="43.3236310" lon="-6.5879890">
        <ele>871.0</ele>
        <time>2021-02-07T13:26:10Z</time>
      </trkpt>
      <trkpt lat="43.3236510" lon="-6.5879130">
        <ele>872.0</ele>
        <time>2021-02-07T13:26:15Z</time>
      </trkpt>
      <trkpt lat="43.3236600" lon="-6.5878510">
        <ele>869.0</ele>
        <time>2021-02-07T13:26:19Z</time>
      </trkpt>
      <trkpt lat="43.3236830" lon="-6.5877820">
        <ele>868.0</ele>
        <time>2021-02-07T13:26:24Z</time>
      </trkpt>
      <trkpt lat="43.3236990" lon="-6.5877130">
        <ele>867.0</ele>
        <time>2021-02-07T13:26:28Z</time>
      </trkpt>
      <trkpt lat="43.3237200" lon="-6.5876440">
        <ele>866.0</ele>
        <time>2021-02-07T13:26:32Z</time>
      </trkpt>
      <trkpt lat="43.3237410" lon="-6.5875760">
        <ele>866.0</ele>
        <time>2021-02-07T13:26:36Z</time>
      </trkpt>
      <trkpt lat="43.3237650" lon="-6.5875090">
        <ele>863.0</ele>
        <time>2021-02-07T13:26:40Z</time>
      </trkpt>
      <trkpt lat="43.3237850" lon="-6.5874360">
        <ele>862.0</ele>
        <time>2021-02-07T13:26:44Z</time>
      </trkpt>
      <trkpt lat="43.3237950" lon="-6.5873690">
        <ele>861.0</ele>
        <time>2021-02-07T13:26:48Z</time>
      </trkpt>
      <trkpt lat="43.3238170" lon="-6.5873010">
        <ele>861.0</ele>
        <time>2021-02-07T13:26:52Z</time>
      </trkpt>
      <trkpt lat="43.3238510" lon="-6.5872430">
        <ele>861.0</ele>
        <time>2021-02-07T13:26:56Z</time>
      </trkpt>
      <trkpt lat="43.3238830" lon="-6.5871830">
        <ele>861.0</ele>
        <time>2021-02-07T13:27:00Z</time>
      </trkpt>
      <trkpt lat="43.3239090" lon="-6.5871200">
        <ele>858.0</ele>
        <time>2021-02-07T13:27:04Z</time>
      </trkpt>
      <trkpt lat="43.3239380" lon="-6.5870500">
        <ele>857.0</ele>
        <time>2021-02-07T13:27:08Z</time>
      </trkpt>
      <trkpt lat="43.3239690" lon="-6.5869840">
        <ele>856.0</ele>
        <time>2021-02-07T13:27:12Z</time>
      </trkpt>
      <trkpt lat="43.3240020" lon="-6.5869210">
        <ele>856.0</ele>
        <time>2021-02-07T13:27:16Z</time>
      </trkpt>
      <trkpt lat="43.3240250" lon="-6.5868550">
        <ele>855.0</ele>
        <time>2021-02-07T13:27:20Z</time>
      </trkpt>
      <trkpt lat="43.3240470" lon="-6.5867850">
        <ele>854.0</ele>
        <time>2021-02-07T13:27:24Z</time>
      </trkpt>
      <trkpt lat="43.3240780" lon="-6.5867170">
        <ele>852.0</ele>
        <time>2021-02-07T13:27:28Z</time>
      </trkpt>
      <trkpt lat="43.3241080" lon="-6.5866540">
        <ele>851.0</ele>
        <time>2021-02-07T13:27:32Z</time>
      </trkpt>
      <trkpt lat="43.3241400" lon="-6.5865870">
        <ele>850.0</ele>
        <time>2021-02-07T13:27:36Z</time>
      </trkpt>
      <trkpt lat="43.3241670" lon="-6.5865340">
        <ele>849.0</ele>
        <time>2021-02-07T13:27:40Z</time>
      </trkpt>
      <trkpt lat="43.3242070" lon="-6.5864820">
        <ele>848.0</ele>
        <time>2021-02-07T13:27:45Z</time>
      </trkpt>
      <trkpt lat="43.3242440" lon="-6.5864270">
        <ele>847.0</ele>
        <time>2021-02-07T13:27:50Z</time>
      </trkpt>
      <trkpt lat="43.3242850" lon="-6.5863610">
        <ele>846.0</ele>
        <time>2021-02-07T13:27:55Z</time>
      </trkpt>
      <trkpt lat="43.3243140" lon="-6.5863080">
        <ele>845.0</ele>
        <time>2021-02-07T13:27:59Z</time>
      </trkpt>
      <trkpt lat="43.3243500" lon="-6.5862500">
        <ele>844.0</ele>
        <time>2021-02-07T13:28:04Z</time>
      </trkpt>
      <trkpt lat="43.3243930" lon="-6.5861980">
        <ele>843.0</ele>
        <time>2021-02-07T13:28:09Z</time>
      </trkpt>
      <trkpt lat="43.3244370" lon="-6.5861500">
        <ele>842.0</ele>
        <time>2021-02-07T13:28:14Z</time>
      </trkpt>
      <trkpt lat="43.3244740" lon="-6.5860940">
        <ele>841.0</ele>
        <time>2021-02-07T13:28:19Z</time>
      </trkpt>
      <trkpt lat="43.3244980" lon="-6.5860280">
        <ele>840.0</ele>
        <time>2021-02-07T13:28:23Z</time>
      </trkpt>
      <trkpt lat="43.3245350" lon="-6.5859850">
        <ele>840.0</ele>
        <time>2021-02-07T13:28:27Z</time>
      </trkpt>
      <trkpt lat="43.3245810" lon="-6.5859320">
        <ele>838.0</ele>
        <time>2021-02-07T13:28:32Z</time>
      </trkpt>
      <trkpt lat="43.3246230" lon="-6.5858720">
        <ele>837.0</ele>
        <time>2021-02-07T13:28:37Z</time>
      </trkpt>
      <trkpt lat="43.3246620" lon="-6.5858400">
        <ele>836.0</ele>
        <time>2021-02-07T13:28:41Z</time>
      </trkpt>
      <trkpt lat="43.3247170" lon="-6.5857930">
        <ele>836.0</ele>
        <time>2021-02-07T13:28:46Z</time>
      </trkpt>
      <trkpt lat="43.3247610" lon="-6.5857450">
        <ele>835.0</ele>
        <time>2021-02-07T13:28:51Z</time>
      </trkpt>
      <trkpt lat="43.3248060" lon="-6.5856920">
        <ele>835.0</ele>
        <time>2021-02-07T13:28:56Z</time>
      </trkpt>
      <trkpt lat="43.3248540" lon="-6.5856400">
        <ele>834.0</ele>
        <time>2021-02-07T13:29:00Z</time>
      </trkpt>
      <trkpt lat="43.3248950" lon="-6.5855820">
        <ele>833.0</ele>
        <time>2021-02-07T13:29:04Z</time>
      </trkpt>
      <trkpt lat="43.3249420" lon="-6.5855310">
        <ele>832.0</ele>
        <time>2021-02-07T13:29:08Z</time>
      </trkpt>
      <trkpt lat="43.3249830" lon="-6.5854890">
        <ele>831.0</ele>
        <time>2021-02-07T13:29:12Z</time>
      </trkpt>
      <trkpt lat="43.3250180" lon="-6.5854370">
        <ele>830.0</ele>
        <time>2021-02-07T13:29:17Z</time>
      </trkpt>
      <trkpt lat="43.3250610" lon="-6.5853850">
        <ele>829.0</ele>
        <time>2021-02-07T13:29:22Z</time>
      </trkpt>
      <trkpt lat="43.3251020" lon="-6.5853240">
        <ele>828.0</ele>
        <time>2021-02-07T13:29:27Z</time>
      </trkpt>
      <trkpt lat="43.3251340" lon="-6.5852690">
        <ele>827.0</ele>
        <time>2021-02-07T13:29:31Z</time>
      </trkpt>
      <trkpt lat="43.3251620" lon="-6.5852040">
        <ele>826.0</ele>
        <time>2021-02-07T13:29:35Z</time>
      </trkpt>
      <trkpt lat="43.3251910" lon="-6.5851370">
        <ele>825.0</ele>
        <time>2021-02-07T13:29:39Z</time>
      </trkpt>
      <trkpt lat="43.3252180" lon="-6.5850630">
        <ele>825.0</ele>
        <time>2021-02-07T13:29:43Z</time>
      </trkpt>
      <trkpt lat="43.3252400" lon="-6.5849890">
        <ele>824.0</ele>
        <time>2021-02-07T13:29:47Z</time>
      </trkpt>
      <trkpt lat="43.3252650" lon="-6.5849170">
        <ele>824.0</ele>
        <time>2021-02-07T13:29:51Z</time>
      </trkpt>
      <trkpt lat="43.3252900" lon="-6.5848420">
        <ele>823.0</ele>
        <time>2021-02-07T13:29:55Z</time>
      </trkpt>
      <trkpt lat="43.3253200" lon="-6.5847650">
        <ele>823.0</ele>
        <time>2021-02-07T13:29:59Z</time>
      </trkpt>
      <trkpt lat="43.3253420" lon="-6.5847030">
        <ele>823.0</ele>
        <time>2021-02-07T13:30:02Z</time>
      </trkpt>
      <trkpt lat="43.3253640" lon="-6.5846210">
        <ele>822.0</ele>
        <time>2021-02-07T13:30:06Z</time>
      </trkpt>
      <trkpt lat="43.3253830" lon="-6.5845600">
        <ele>822.0</ele>
        <time>2021-02-07T13:30:09Z</time>
      </trkpt>
      <trkpt lat="43.3253960" lon="-6.5845060">
        <ele>820.0</ele>
        <time>2021-02-07T13:30:17Z</time>
      </trkpt>
      <trkpt lat="43.3254210" lon="-6.5844130">
        <ele>820.0</ele>
        <time>2021-02-07T13:30:26Z</time>
      </trkpt>
      <trkpt lat="43.3254460" lon="-6.5843440">
        <ele>820.0</ele>
        <time>2021-02-07T13:30:30Z</time>
      </trkpt>
      <trkpt lat="43.3254650" lon="-6.5842670">
        <ele>820.0</ele>
        <time>2021-02-07T13:30:34Z</time>
      </trkpt>
      <trkpt lat="43.3254810" lon="-6.5841900">
        <ele>819.0</ele>
        <time>2021-02-07T13:30:38Z</time>
      </trkpt>
      <trkpt lat="43.3255090" lon="-6.5841230">
        <ele>819.0</ele>
        <time>2021-02-07T13:30:42Z</time>
      </trkpt>
      <trkpt lat="43.3255420" lon="-6.5840560">
        <ele>819.0</ele>
        <time>2021-02-07T13:30:46Z</time>
      </trkpt>
      <trkpt lat="43.3255810" lon="-6.5839880">
        <ele>818.0</ele>
        <time>2021-02-07T13:30:50Z</time>
      </trkpt>
      <trkpt lat="43.3256220" lon="-6.5839260">
        <ele>817.0</ele>
        <time>2021-02-07T13:30:54Z</time>
      </trkpt>
      <trkpt lat="43.3256540" lon="-6.5838800">
        <ele>816.0</ele>
        <time>2021-02-07T13:30:57Z</time>
      </trkpt>
      <trkpt lat="43.3256920" lon="-6.5838180">
        <ele>816.0</ele>
        <time>2021-02-07T13:31:01Z</time>
      </trkpt>
      <trkpt lat="43.3257320" lon="-6.5837660">
        <ele>815.0</ele>
        <time>2021-02-07T13:31:05Z</time>
      </trkpt>
      <trkpt lat="43.3257720" lon="-6.5837240">
        <ele>814.0</ele>
        <time>2021-02-07T13:31:09Z</time>
      </trkpt>
      <trkpt lat="43.3258100" lon="-6.5836770">
        <ele>814.0</ele>
        <time>2021-02-07T13:31:13Z</time>
      </trkpt>
      <trkpt lat="43.3258720" lon="-6.5835800">
        <ele>814.0</ele>
        <time>2021-02-07T13:31:18Z</time>
      </trkpt>
      <trkpt lat="43.3258960" lon="-6.5834980">
        <ele>814.0</ele>
        <time>2021-02-07T13:31:25Z</time>
      </trkpt>
      <trkpt lat="43.3258940" lon="-6.5834090">
        <ele>813.0</ele>
        <time>2021-02-07T13:31:30Z</time>
      </trkpt>
      <trkpt lat="43.3258720" lon="-6.5833340">
        <ele>812.0</ele>
        <time>2021-02-07T13:31:34Z</time>
      </trkpt>
      <trkpt lat="43.3258510" lon="-6.5832760">
        <ele>811.0</ele>
        <time>2021-02-07T13:31:38Z</time>
      </trkpt>
      <trkpt lat="43.3258070" lon="-6.5831980">
        <ele>810.0</ele>
        <time>2021-02-07T13:31:43Z</time>
      </trkpt>
      <trkpt lat="43.3257670" lon="-6.5831570">
        <ele>810.0</ele>
        <time>2021-02-07T13:31:46Z</time>
      </trkpt>
      <trkpt lat="43.3257270" lon="-6.5830970">
        <ele>809.0</ele>
        <time>2021-02-07T13:31:50Z</time>
      </trkpt>
      <trkpt lat="43.3256870" lon="-6.5830180">
        <ele>808.0</ele>
        <time>2021-02-07T13:31:55Z</time>
      </trkpt>
      <trkpt lat="43.3256580" lon="-6.5829660">
        <ele>808.0</ele>
        <time>2021-02-07T13:32:01Z</time>
      </trkpt>
      <trkpt lat="43.3256120" lon="-6.5829100">
        <ele>807.0</ele>
        <time>2021-02-07T13:32:07Z</time>
      </trkpt>
      <trkpt lat="43.3255760" lon="-6.5828500">
        <ele>807.0</ele>
        <time>2021-02-07T13:32:11Z</time>
      </trkpt>
      <trkpt lat="43.3255460" lon="-6.5827830">
        <ele>807.0</ele>
        <time>2021-02-07T13:32:15Z</time>
      </trkpt>
      <trkpt lat="43.3255160" lon="-6.5827140">
        <ele>807.0</ele>
        <time>2021-02-07T13:32:19Z</time>
      </trkpt>
      <trkpt lat="43.3254910" lon="-6.5826320">
        <ele>807.0</ele>
        <time>2021-02-07T13:32:24Z</time>
      </trkpt>
      <trkpt lat="43.3254730" lon="-6.5825520">
        <ele>806.0</ele>
        <time>2021-02-07T13:32:29Z</time>
      </trkpt>
      <trkpt lat="43.3254630" lon="-6.5824670">
        <ele>806.0</ele>
        <time>2021-02-07T13:32:34Z</time>
      </trkpt>
      <trkpt lat="43.3254500" lon="-6.5823840">
        <ele>806.0</ele>
        <time>2021-02-07T13:32:38Z</time>
      </trkpt>
      <trkpt lat="43.3254330" lon="-6.5823050">
        <ele>806.0</ele>
        <time>2021-02-07T13:32:42Z</time>
      </trkpt>
      <trkpt lat="43.3254190" lon="-6.5822330">
        <ele>805.0</ele>
        <time>2021-02-07T13:32:46Z</time>
      </trkpt>
      <trkpt lat="43.3253920" lon="-6.5821650">
        <ele>805.0</ele>
        <time>2021-02-07T13:32:51Z</time>
      </trkpt>
      <trkpt lat="43.3253840" lon="-6.5820810">
        <ele>805.0</ele>
        <time>2021-02-07T13:32:56Z</time>
      </trkpt>
      <trkpt lat="43.3253780" lon="-6.5820080">
        <ele>806.0</ele>
        <time>2021-02-07T13:33:00Z</time>
      </trkpt>
      <trkpt lat="43.3253650" lon="-6.5819400">
        <ele>806.0</ele>
        <time>2021-02-07T13:33:04Z</time>
      </trkpt>
      <trkpt lat="43.3253520" lon="-6.5818660">
        <ele>806.0</ele>
        <time>2021-02-07T13:33:08Z</time>
      </trkpt>
      <trkpt lat="43.3253430" lon="-6.5817920">
        <ele>806.0</ele>
        <time>2021-02-07T13:33:12Z</time>
      </trkpt>
      <trkpt lat="43.3253430" lon="-6.5817250">
        <ele>807.0</ele>
        <time>2021-02-07T13:33:16Z</time>
      </trkpt>
      <trkpt lat="43.3253590" lon="-6.5816480">
        <ele>807.0</ele>
        <time>2021-02-07T13:33:21Z</time>
      </trkpt>
      <trkpt lat="43.3253800" lon="-6.5815900">
        <ele>807.0</ele>
        <time>2021-02-07T13:33:25Z</time>
      </trkpt>
      <trkpt lat="43.3254050" lon="-6.5815180">
        <ele>808.0</ele>
        <time>2021-02-07T13:33:30Z</time>
      </trkpt>
      <trkpt lat="43.3254280" lon="-6.5814480">
        <ele>808.0</ele>
        <time>2021-02-07T13:33:35Z</time>
      </trkpt>
      <trkpt lat="43.3254600" lon="-6.5813940">
        <ele>808.0</ele>
        <time>2021-02-07T13:33:39Z</time>
      </trkpt>
      <trkpt lat="43.3254950" lon="-6.5813370">
        <ele>809.0</ele>
        <time>2021-02-07T13:33:43Z</time>
      </trkpt>
      <trkpt lat="43.3255360" lon="-6.5812890">
        <ele>809.0</ele>
        <time>2021-02-07T13:33:47Z</time>
      </trkpt>
      <trkpt lat="43.3255780" lon="-6.5812480">
        <ele>809.0</ele>
        <time>2021-02-07T13:33:51Z</time>
      </trkpt>
      <trkpt lat="43.3256200" lon="-6.5812060">
        <ele>810.0</ele>
        <time>2021-02-07T13:33:55Z</time>
      </trkpt>
      <trkpt lat="43.3256630" lon="-6.5811480">
        <ele>810.0</ele>
        <time>2021-02-07T13:34:00Z</time>
      </trkpt>
      <trkpt lat="43.3257020" lon="-6.5811030">
        <ele>811.0</ele>
        <time>2021-02-07T13:34:04Z</time>
      </trkpt>
      <trkpt lat="43.3257400" lon="-6.5810570">
        <ele>811.0</ele>
        <time>2021-02-07T13:34:08Z</time>
      </trkpt>
      <trkpt lat="43.3257750" lon="-6.5809930">
        <ele>812.0</ele>
        <time>2021-02-07T13:34:13Z</time>
      </trkpt>
      <trkpt lat="43.3258010" lon="-6.5809280">
        <ele>813.0</ele>
        <time>2021-02-07T13:34:18Z</time>
      </trkpt>
      <trkpt lat="43.3258370" lon="-6.5808630">
        <ele>814.0</ele>
        <time>2021-02-07T13:34:24Z</time>
      </trkpt>
      <trkpt lat="43.3258770" lon="-6.5808000">
        <ele>815.0</ele>
        <time>2021-02-07T13:34:29Z</time>
      </trkpt>
      <trkpt lat="43.3259220" lon="-6.5807470">
        <ele>815.0</ele>
        <time>2021-02-07T13:34:34Z</time>
      </trkpt>
      <trkpt lat="43.3259600" lon="-6.5807100">
        <ele>815.0</ele>
        <time>2021-02-07T13:34:38Z</time>
      </trkpt>
      <trkpt lat="43.3260100" lon="-6.5806610">
        <ele>815.0</ele>
        <time>2021-02-07T13:34:43Z</time>
      </trkpt>
      <trkpt lat="43.3260550" lon="-6.5806270">
        <ele>816.0</ele>
        <time>2021-02-07T13:34:47Z</time>
      </trkpt>
      <trkpt lat="43.3260940" lon="-6.5805810">
        <ele>816.0</ele>
        <time>2021-02-07T13:34:52Z</time>
      </trkpt>
      <trkpt lat="43.3261330" lon="-6.5805110">
        <ele>816.0</ele>
        <time>2021-02-07T13:34:57Z</time>
      </trkpt>
      <trkpt lat="43.3261580" lon="-6.5804660">
        <ele>816.0</ele>
        <time>2021-02-07T13:35:00Z</time>
      </trkpt>
      <trkpt lat="43.3261880" lon="-6.5804070">
        <ele>816.0</ele>
        <time>2021-02-07T13:35:05Z</time>
      </trkpt>
      <trkpt lat="43.3262320" lon="-6.5803490">
        <ele>815.0</ele>
        <time>2021-02-07T13:35:10Z</time>
      </trkpt>
      <trkpt lat="43.3262670" lon="-6.5803050">
        <ele>815.0</ele>
        <time>2021-02-07T13:35:14Z</time>
      </trkpt>
      <trkpt lat="43.3263110" lon="-6.5802360">
        <ele>815.0</ele>
        <time>2021-02-07T13:35:19Z</time>
      </trkpt>
      <trkpt lat="43.3263500" lon="-6.5801850">
        <ele>815.0</ele>
        <time>2021-02-07T13:35:23Z</time>
      </trkpt>
      <trkpt lat="43.3263840" lon="-6.5801270">
        <ele>815.0</ele>
        <time>2021-02-07T13:35:28Z</time>
      </trkpt>
      <trkpt lat="43.3264080" lon="-6.5800560">
        <ele>815.0</ele>
        <time>2021-02-07T13:35:33Z</time>
      </trkpt>
      <trkpt lat="43.3264350" lon="-6.5799800">
        <ele>815.0</ele>
        <time>2021-02-07T13:35:38Z</time>
      </trkpt>
      <trkpt lat="43.3264670" lon="-6.5799090">
        <ele>815.0</ele>
        <time>2021-02-07T13:35:43Z</time>
      </trkpt>
      <trkpt lat="43.3264810" lon="-6.5798440">
        <ele>815.0</ele>
        <time>2021-02-07T13:35:47Z</time>
      </trkpt>
      <trkpt lat="43.3264900" lon="-6.5797630">
        <ele>814.0</ele>
        <time>2021-02-07T13:35:52Z</time>
      </trkpt>
      <trkpt lat="43.3265010" lon="-6.5796910">
        <ele>814.0</ele>
        <time>2021-02-07T13:35:56Z</time>
      </trkpt>
      <trkpt lat="43.3265070" lon="-6.5796120">
        <ele>814.0</ele>
        <time>2021-02-07T13:36:00Z</time>
      </trkpt>
      <trkpt lat="43.3265040" lon="-6.5795360">
        <ele>813.0</ele>
        <time>2021-02-07T13:36:04Z</time>
      </trkpt>
      <trkpt lat="43.3264920" lon="-6.5794690">
        <ele>813.0</ele>
        <time>2021-02-07T13:36:08Z</time>
      </trkpt>
      <trkpt lat="43.3264880" lon="-6.5793950">
        <ele>814.0</ele>
        <time>2021-02-07T13:36:13Z</time>
      </trkpt>
      <trkpt lat="43.3264830" lon="-6.5793120">
        <ele>814.0</ele>
        <time>2021-02-07T13:36:18Z</time>
      </trkpt>
      <trkpt lat="43.3264810" lon="-6.5792460">
        <ele>815.0</ele>
        <time>2021-02-07T13:36:22Z</time>
      </trkpt>
      <trkpt lat="43.3264730" lon="-6.5791750">
        <ele>815.0</ele>
        <time>2021-02-07T13:36:27Z</time>
      </trkpt>
      <trkpt lat="43.3264630" lon="-6.5790830">
        <ele>815.0</ele>
        <time>2021-02-07T13:36:32Z</time>
      </trkpt>
      <trkpt lat="43.3264600" lon="-6.5790030">
        <ele>815.0</ele>
        <time>2021-02-07T13:36:36Z</time>
      </trkpt>
      <trkpt lat="43.3264670" lon="-6.5789310">
        <ele>815.0</ele>
        <time>2021-02-07T13:36:40Z</time>
      </trkpt>
      <trkpt lat="43.3264710" lon="-6.5788530">
        <ele>815.0</ele>
        <time>2021-02-07T13:36:44Z</time>
      </trkpt>
      <trkpt lat="43.3264710" lon="-6.5787690">
        <ele>815.0</ele>
        <time>2021-02-07T13:36:48Z</time>
      </trkpt>
      <trkpt lat="43.3264740" lon="-6.5786860">
        <ele>815.0</ele>
        <time>2021-02-07T13:36:52Z</time>
      </trkpt>
      <trkpt lat="43.3264780" lon="-6.5786090">
        <ele>815.0</ele>
        <time>2021-02-07T13:36:56Z</time>
      </trkpt>
      <trkpt lat="43.3264840" lon="-6.5785340">
        <ele>815.0</ele>
        <time>2021-02-07T13:37:00Z</time>
      </trkpt>
      <trkpt lat="43.3264840" lon="-6.5784670">
        <ele>815.0</ele>
        <time>2021-02-07T13:37:04Z</time>
      </trkpt>
      <trkpt lat="43.3265000" lon="-6.5783850">
        <ele>815.0</ele>
        <time>2021-02-07T13:37:09Z</time>
      </trkpt>
      <trkpt lat="43.3265150" lon="-6.5783130">
        <ele>815.0</ele>
        <time>2021-02-07T13:37:13Z</time>
      </trkpt>
      <trkpt lat="43.3265280" lon="-6.5782370">
        <ele>815.0</ele>
        <time>2021-02-07T13:37:17Z</time>
      </trkpt>
      <trkpt lat="43.3265490" lon="-6.5781620">
        <ele>815.0</ele>
        <time>2021-02-07T13:37:21Z</time>
      </trkpt>
      <trkpt lat="43.3265630" lon="-6.5780950">
        <ele>815.0</ele>
        <time>2021-02-07T13:37:25Z</time>
      </trkpt>
      <trkpt lat="43.3265730" lon="-6.5780100">
        <ele>814.0</ele>
        <time>2021-02-07T13:37:30Z</time>
      </trkpt>
      <trkpt lat="43.3265780" lon="-6.5779370">
        <ele>814.0</ele>
        <time>2021-02-07T13:37:34Z</time>
      </trkpt>
      <trkpt lat="43.3265890" lon="-6.5778560">
        <ele>813.0</ele>
        <time>2021-02-07T13:37:38Z</time>
      </trkpt>
      <trkpt lat="43.3266090" lon="-6.5777870">
        <ele>813.0</ele>
        <time>2021-02-07T13:37:42Z</time>
      </trkpt>
      <trkpt lat="43.3266420" lon="-6.5777290">
        <ele>813.0</ele>
        <time>2021-02-07T13:37:46Z</time>
      </trkpt>
      <trkpt lat="43.3266880" lon="-6.5776790">
        <ele>813.0</ele>
        <time>2021-02-07T13:37:50Z</time>
      </trkpt>
      <trkpt lat="43.3267210" lon="-6.5776310">
        <ele>813.0</ele>
        <time>2021-02-07T13:37:54Z</time>
      </trkpt>
      <trkpt lat="43.3267280" lon="-6.5775670">
        <ele>813.0</ele>
        <time>2021-02-07T13:37:59Z</time>
      </trkpt>
      <trkpt lat="43.3267410" lon="-6.5774750">
        <ele>814.0</ele>
        <time>2021-02-07T13:38:05Z</time>
      </trkpt>
      <trkpt lat="43.3267450" lon="-6.5774060">
        <ele>814.0</ele>
        <time>2021-02-07T13:38:09Z</time>
      </trkpt>
      <trkpt lat="43.3267390" lon="-6.5773200">
        <ele>814.0</ele>
        <time>2021-02-07T13:38:14Z</time>
      </trkpt>
      <trkpt lat="43.3267300" lon="-6.5772330">
        <ele>814.0</ele>
        <time>2021-02-07T13:38:19Z</time>
      </trkpt>
      <trkpt lat="43.3267240" lon="-6.5771610">
        <ele>814.0</ele>
        <time>2021-02-07T13:38:23Z</time>
      </trkpt>
      <trkpt lat="43.3267140" lon="-6.5770780">
        <ele>814.0</ele>
        <time>2021-02-07T13:38:28Z</time>
      </trkpt>
      <trkpt lat="43.3267040" lon="-6.5770050">
        <ele>814.0</ele>
        <time>2021-02-07T13:38:32Z</time>
      </trkpt>
      <trkpt lat="43.3266950" lon="-6.5769300">
        <ele>814.0</ele>
        <time>2021-02-07T13:38:36Z</time>
      </trkpt>
      <trkpt lat="43.3266860" lon="-6.5768480">
        <ele>814.0</ele>
        <time>2021-02-07T13:38:40Z</time>
      </trkpt>
      <trkpt lat="43.3266770" lon="-6.5767770">
        <ele>814.0</ele>
        <time>2021-02-07T13:38:44Z</time>
      </trkpt>
      <trkpt lat="43.3266700" lon="-6.5767070">
        <ele>814.0</ele>
        <time>2021-02-07T13:38:48Z</time>
      </trkpt>
      <trkpt lat="43.3266630" lon="-6.5766370">
        <ele>814.0</ele>
        <time>2021-02-07T13:38:52Z</time>
      </trkpt>
      <trkpt lat="43.3266630" lon="-6.5765520">
        <ele>814.0</ele>
        <time>2021-02-07T13:38:57Z</time>
      </trkpt>
      <trkpt lat="43.3266690" lon="-6.5764810">
        <ele>813.0</ele>
        <time>2021-02-07T13:39:01Z</time>
      </trkpt>
      <trkpt lat="43.3267010" lon="-6.5764160">
        <ele>813.0</ele>
        <time>2021-02-07T13:39:06Z</time>
      </trkpt>
      <trkpt lat="43.3267460" lon="-6.5763540">
        <ele>813.0</ele>
        <time>2021-02-07T13:39:11Z</time>
      </trkpt>
      <trkpt lat="43.3267840" lon="-6.5763050">
        <ele>813.0</ele>
        <time>2021-02-07T13:39:16Z</time>
      </trkpt>
      <trkpt lat="43.3268310" lon="-6.5762490">
        <ele>813.0</ele>
        <time>2021-02-07T13:39:21Z</time>
      </trkpt>
      <trkpt lat="43.3268730" lon="-6.5762020">
        <ele>813.0</ele>
        <time>2021-02-07T13:39:25Z</time>
      </trkpt>
      <trkpt lat="43.3269270" lon="-6.5761680">
        <ele>814.0</ele>
        <time>2021-02-07T13:39:30Z</time>
      </trkpt>
      <trkpt lat="43.3269710" lon="-6.5761360">
        <ele>815.0</ele>
        <time>2021-02-07T13:39:34Z</time>
      </trkpt>
      <trkpt lat="43.3270110" lon="-6.5760900">
        <ele>815.0</ele>
        <time>2021-02-07T13:39:38Z</time>
      </trkpt>
      <trkpt lat="43.3270420" lon="-6.5760170">
        <ele>816.0</ele>
        <time>2021-02-07T13:39:43Z</time>
      </trkpt>
      <trkpt lat="43.3270550" lon="-6.5759430">
        <ele>816.0</ele>
        <time>2021-02-07T13:39:48Z</time>
      </trkpt>
      <trkpt lat="43.3270600" lon="-6.5758710">
        <ele>816.0</ele>
        <time>2021-02-07T13:39:53Z</time>
      </trkpt>
      <trkpt lat="43.3270750" lon="-6.5758110">
        <ele>816.0</ele>
        <time>2021-02-07T13:40:01Z</time>
      </trkpt>
      <trkpt lat="43.3270900" lon="-6.5757370">
        <ele>816.0</ele>
        <time>2021-02-07T13:40:12Z</time>
      </trkpt>
      <trkpt lat="43.3271130" lon="-6.5756700">
        <ele>816.0</ele>
        <time>2021-02-07T13:40:19Z</time>
      </trkpt>
      <trkpt lat="43.3271470" lon="-6.5756100">
        <ele>817.0</ele>
        <time>2021-02-07T13:40:26Z</time>
      </trkpt>
      <trkpt lat="43.3271860" lon="-6.5755500">
        <ele>817.0</ele>
        <time>2021-02-07T13:40:31Z</time>
      </trkpt>
      <trkpt lat="43.3272220" lon="-6.5754910">
        <ele>817.0</ele>
        <time>2021-02-07T13:40:36Z</time>
      </trkpt>
      <trkpt lat="43.3272540" lon="-6.5754370">
        <ele>817.0</ele>
        <time>2021-02-07T13:40:40Z</time>
      </trkpt>
      <trkpt lat="43.3272870" lon="-6.5753870">
        <ele>817.0</ele>
        <time>2021-02-07T13:40:44Z</time>
      </trkpt>
      <trkpt lat="43.3273230" lon="-6.5753300">
        <ele>817.0</ele>
        <time>2021-02-07T13:40:49Z</time>
      </trkpt>
      <trkpt lat="43.3273620" lon="-6.5752600">
        <ele>817.0</ele>
        <time>2021-02-07T13:40:54Z</time>
      </trkpt>
      <trkpt lat="43.3274020" lon="-6.5751970">
        <ele>817.0</ele>
        <time>2021-02-07T13:40:59Z</time>
      </trkpt>
      <trkpt lat="43.3274360" lon="-6.5751240">
        <ele>817.0</ele>
        <time>2021-02-07T13:41:04Z</time>
      </trkpt>
      <trkpt lat="43.3274670" lon="-6.5750620">
        <ele>817.0</ele>
        <time>2021-02-07T13:41:08Z</time>
      </trkpt>
      <trkpt lat="43.3275040" lon="-6.5749990">
        <ele>818.0</ele>
        <time>2021-02-07T13:41:13Z</time>
      </trkpt>
      <trkpt lat="43.3275410" lon="-6.5749430">
        <ele>819.0</ele>
        <time>2021-02-07T13:41:21Z</time>
      </trkpt>
      <trkpt lat="43.3275820" lon="-6.5748960">
        <ele>819.0</ele>
        <time>2021-02-07T13:41:27Z</time>
      </trkpt>
      <trkpt lat="43.3276260" lon="-6.5748590">
        <ele>819.0</ele>
        <time>2021-02-07T13:41:32Z</time>
      </trkpt>
      <trkpt lat="43.3276270" lon="-6.5748560">
        <ele>820.0</ele>
        <time>2021-02-07T13:41:43Z</time>
      </trkpt>
      <trkpt lat="43.3275920" lon="-6.5748520">
        <ele>819.0</ele>
        <time>2021-02-07T13:41:52Z</time>
      </trkpt>
      <trkpt lat="43.3276140" lon="-6.5747860">
        <ele>819.0</ele>
        <time>2021-02-07T13:41:57Z</time>
      </trkpt>
      <trkpt lat="43.3276420" lon="-6.5747080">
        <ele>818.0</ele>
        <time>2021-02-07T13:42:02Z</time>
      </trkpt>
      <trkpt lat="43.3276640" lon="-6.5746560">
        <ele>818.0</ele>
        <time>2021-02-07T13:42:06Z</time>
      </trkpt>
      <trkpt lat="43.3276960" lon="-6.5746070">
        <ele>818.0</ele>
        <time>2021-02-07T13:42:17Z</time>
      </trkpt>
      <trkpt lat="43.3277120" lon="-6.5745340">
        <ele>818.0</ele>
        <time>2021-02-07T13:42:36Z</time>
      </trkpt>
      <trkpt lat="43.3277130" lon="-6.5744300">
        <ele>818.0</ele>
        <time>2021-02-07T13:43:31Z</time>
      </trkpt>
      <trkpt lat="43.3277110" lon="-6.5743500">
        <ele>818.0</ele>
        <time>2021-02-07T13:43:34Z</time>
      </trkpt>
      <trkpt lat="43.3277110" lon="-6.5742750">
        <ele>818.0</ele>
        <time>2021-02-07T13:43:37Z</time>
      </trkpt>
      <trkpt lat="43.3277110" lon="-6.5742110">
        <ele>818.0</ele>
        <time>2021-02-07T13:43:40Z</time>
      </trkpt>
      <trkpt lat="43.3277120" lon="-6.5741420">
        <ele>818.0</ele>
        <time>2021-02-07T13:43:44Z</time>
      </trkpt>
      <trkpt lat="43.3277120" lon="-6.5740670">
        <ele>818.0</ele>
        <time>2021-02-07T13:43:49Z</time>
      </trkpt>
      <trkpt lat="43.3277160" lon="-6.5739860">
        <ele>818.0</ele>
        <time>2021-02-07T13:43:54Z</time>
      </trkpt>
      <trkpt lat="43.3277260" lon="-6.5739210">
        <ele>818.0</ele>
        <time>2021-02-07T13:43:59Z</time>
      </trkpt>
      <trkpt lat="43.3277100" lon="-6.5738550">
        <ele>818.0</ele>
        <time>2021-02-07T13:44:06Z</time>
      </trkpt>
      <trkpt lat="43.3277130" lon="-6.5737830">
        <ele>818.0</ele>
        <time>2021-02-07T13:44:13Z</time>
      </trkpt>
      <trkpt lat="43.3277130" lon="-6.5737000">
        <ele>818.0</ele>
        <time>2021-02-07T13:44:20Z</time>
      </trkpt>
      <trkpt lat="43.3277070" lon="-6.5736280">
        <ele>818.0</ele>
        <time>2021-02-07T13:44:25Z</time>
      </trkpt>
      <trkpt lat="43.3277090" lon="-6.5735490">
        <ele>818.0</ele>
        <time>2021-02-07T13:44:30Z</time>
      </trkpt>
      <trkpt lat="43.3277010" lon="-6.5734820">
        <ele>818.0</ele>
        <time>2021-02-07T13:44:35Z</time>
      </trkpt>
      <trkpt lat="43.3277000" lon="-6.5734020">
        <ele>818.0</ele>
        <time>2021-02-07T13:44:41Z</time>
      </trkpt>
      <trkpt lat="43.3277160" lon="-6.5733320">
        <ele>819.0</ele>
        <time>2021-02-07T13:44:48Z</time>
      </trkpt>
      <trkpt lat="43.3277090" lon="-6.5732560">
        <ele>819.0</ele>
        <time>2021-02-07T13:44:56Z</time>
      </trkpt>
      <trkpt lat="43.3276810" lon="-6.5731940">
        <ele>820.0</ele>
        <time>2021-02-07T13:45:03Z</time>
      </trkpt>
      <trkpt lat="43.3276630" lon="-6.5731150">
        <ele>820.0</ele>
        <time>2021-02-07T13:45:09Z</time>
      </trkpt>
      <trkpt lat="43.3276650" lon="-6.5730470">
        <ele>820.0</ele>
        <time>2021-02-07T13:45:14Z</time>
      </trkpt>
      <trkpt lat="43.3276350" lon="-6.5728930">
        <ele>820.0</ele>
        <time>2021-02-07T13:45:39Z</time>
      </trkpt>
      <trkpt lat="43.3276340" lon="-6.5728150">
        <ele>820.0</ele>
        <time>2021-02-07T13:45:44Z</time>
      </trkpt>
      <trkpt lat="43.3276290" lon="-6.5727470">
        <ele>820.0</ele>
        <time>2021-02-07T13:45:48Z</time>
      </trkpt>
      <trkpt lat="43.3276270" lon="-6.5726640">
        <ele>820.0</ele>
        <time>2021-02-07T13:45:53Z</time>
      </trkpt>
      <trkpt lat="43.3276250" lon="-6.5725760">
        <ele>820.0</ele>
        <time>2021-02-07T13:45:58Z</time>
      </trkpt>
      <trkpt lat="43.3276250" lon="-6.5724910">
        <ele>820.0</ele>
        <time>2021-02-07T13:46:03Z</time>
      </trkpt>
      <trkpt lat="43.3276170" lon="-6.5724140">
        <ele>820.0</ele>
        <time>2021-02-07T13:46:09Z</time>
      </trkpt>
      <trkpt lat="43.3276250" lon="-6.5723420">
        <ele>820.0</ele>
        <time>2021-02-07T13:46:14Z</time>
      </trkpt>
      <trkpt lat="43.3276280" lon="-6.5722640">
        <ele>820.0</ele>
        <time>2021-02-07T13:46:19Z</time>
      </trkpt>
      <trkpt lat="43.3276200" lon="-6.5721850">
        <ele>820.0</ele>
        <time>2021-02-07T13:46:24Z</time>
      </trkpt>
      <trkpt lat="43.3276160" lon="-6.5721080">
        <ele>820.0</ele>
        <time>2021-02-07T13:46:29Z</time>
      </trkpt>
      <trkpt lat="43.3276170" lon="-6.5720440">
        <ele>820.0</ele>
        <time>2021-02-07T13:46:35Z</time>
      </trkpt>
      <trkpt lat="43.3276110" lon="-6.5719630">
        <ele>820.0</ele>
        <time>2021-02-07T13:46:41Z</time>
      </trkpt>
      <trkpt lat="43.3276110" lon="-6.5718830">
        <ele>820.0</ele>
        <time>2021-02-07T13:46:46Z</time>
      </trkpt>
      <trkpt lat="43.3276110" lon="-6.5718040">
        <ele>820.0</ele>
        <time>2021-02-07T13:46:51Z</time>
      </trkpt>
      <trkpt lat="43.3276080" lon="-6.5717260">
        <ele>820.0</ele>
        <time>2021-02-07T13:46:56Z</time>
      </trkpt>
      <trkpt lat="43.3276110" lon="-6.5716610">
        <ele>820.0</ele>
        <time>2021-02-07T13:47:02Z</time>
      </trkpt>
      <trkpt lat="43.3275860" lon="-6.5715920">
        <ele>820.0</ele>
        <time>2021-02-07T13:47:08Z</time>
      </trkpt>
      <trkpt lat="43.3275720" lon="-6.5715120">
        <ele>820.0</ele>
        <time>2021-02-07T13:47:13Z</time>
      </trkpt>
      <trkpt lat="43.3275630" lon="-6.5714430">
        <ele>820.0</ele>
        <time>2021-02-07T13:47:17Z</time>
      </trkpt>
      <trkpt lat="43.3275490" lon="-6.5713700">
        <ele>820.0</ele>
        <time>2021-02-07T13:47:21Z</time>
      </trkpt>
      <trkpt lat="43.3275480" lon="-6.5712940">
        <ele>820.0</ele>
        <time>2021-02-07T13:47:25Z</time>
      </trkpt>
      <trkpt lat="43.3275460" lon="-6.5712150">
        <ele>820.0</ele>
        <time>2021-02-07T13:47:29Z</time>
      </trkpt>
      <trkpt lat="43.3275380" lon="-6.5711310">
        <ele>820.0</ele>
        <time>2021-02-07T13:47:33Z</time>
      </trkpt>
      <trkpt lat="43.3275370" lon="-6.5710550">
        <ele>820.0</ele>
        <time>2021-02-07T13:47:37Z</time>
      </trkpt>
      <trkpt lat="43.3275380" lon="-6.5709780">
        <ele>819.0</ele>
        <time>2021-02-07T13:47:41Z</time>
      </trkpt>
      <trkpt lat="43.3275480" lon="-6.5709010">
        <ele>819.0</ele>
        <time>2021-02-07T13:47:45Z</time>
      </trkpt>
      <trkpt lat="43.3275590" lon="-6.5708340">
        <ele>819.0</ele>
        <time>2021-02-07T13:47:49Z</time>
      </trkpt>
      <trkpt lat="43.3275670" lon="-6.5707620">
        <ele>819.0</ele>
        <time>2021-02-07T13:47:53Z</time>
      </trkpt>
      <trkpt lat="43.3275890" lon="-6.5706810">
        <ele>819.0</ele>
        <time>2021-02-07T13:47:58Z</time>
      </trkpt>
      <trkpt lat="43.3276030" lon="-6.5705770">
        <ele>819.0</ele>
        <time>2021-02-07T13:48:04Z</time>
      </trkpt>
      <trkpt lat="43.3276000" lon="-6.5705050">
        <ele>819.0</ele>
        <time>2021-02-07T13:48:08Z</time>
      </trkpt>
      <trkpt lat="43.3276110" lon="-6.5704310">
        <ele>819.0</ele>
        <time>2021-02-07T13:48:13Z</time>
      </trkpt>
      <trkpt lat="43.3276150" lon="-6.5703540">
        <ele>818.0</ele>
        <time>2021-02-07T13:48:18Z</time>
      </trkpt>
      <trkpt lat="43.3276310" lon="-6.5702700">
        <ele>818.0</ele>
        <time>2021-02-07T13:48:23Z</time>
      </trkpt>
      <trkpt lat="43.3276500" lon="-6.5701950">
        <ele>818.0</ele>
        <time>2021-02-07T13:48:27Z</time>
      </trkpt>
      <trkpt lat="43.3276530" lon="-6.5701100">
        <ele>818.0</ele>
        <time>2021-02-07T13:48:31Z</time>
      </trkpt>
      <trkpt lat="43.3276640" lon="-6.5700290">
        <ele>818.0</ele>
        <time>2021-02-07T13:48:35Z</time>
      </trkpt>
      <trkpt lat="43.3276700" lon="-6.5699450">
        <ele>817.0</ele>
        <time>2021-02-07T13:48:40Z</time>
      </trkpt>
      <trkpt lat="43.3276850" lon="-6.5698680">
        <ele>817.0</ele>
        <time>2021-02-07T13:48:45Z</time>
      </trkpt>
      <trkpt lat="43.3277060" lon="-6.5698080">
        <ele>817.0</ele>
        <time>2021-02-07T13:48:49Z</time>
      </trkpt>
      <trkpt lat="43.3277300" lon="-6.5697310">
        <ele>816.0</ele>
        <time>2021-02-07T13:48:54Z</time>
      </trkpt>
      <trkpt lat="43.3277490" lon="-6.5696700">
        <ele>816.0</ele>
        <time>2021-02-07T13:48:58Z</time>
      </trkpt>
      <trkpt lat="43.3277590" lon="-6.5695990">
        <ele>816.0</ele>
        <time>2021-02-07T13:49:04Z</time>
      </trkpt>
      <trkpt lat="43.3277720" lon="-6.5695170">
        <ele>815.0</ele>
        <time>2021-02-07T13:49:10Z</time>
      </trkpt>
      <trkpt lat="43.3277720" lon="-6.5694360">
        <ele>815.0</ele>
        <time>2021-02-07T13:49:15Z</time>
      </trkpt>
      <trkpt lat="43.3277960" lon="-6.5693560">
        <ele>814.0</ele>
        <time>2021-02-07T13:49:20Z</time>
      </trkpt>
      <trkpt lat="43.3278070" lon="-6.5692820">
        <ele>814.0</ele>
        <time>2021-02-07T13:49:24Z</time>
      </trkpt>
      <trkpt lat="43.3278090" lon="-6.5692140">
        <ele>814.0</ele>
        <time>2021-02-07T13:49:28Z</time>
      </trkpt>
      <trkpt lat="43.3278200" lon="-6.5691220">
        <ele>813.0</ele>
        <time>2021-02-07T13:49:33Z</time>
      </trkpt>
      <trkpt lat="43.3278200" lon="-6.5690570">
        <ele>813.0</ele>
        <time>2021-02-07T13:49:37Z</time>
      </trkpt>
      <trkpt lat="43.3278390" lon="-6.5689760">
        <ele>813.0</ele>
        <time>2021-02-07T13:49:42Z</time>
      </trkpt>
      <trkpt lat="43.3278550" lon="-6.5688960">
        <ele>813.0</ele>
        <time>2021-02-07T13:49:47Z</time>
      </trkpt>
      <trkpt lat="43.3278660" lon="-6.5688240">
        <ele>812.0</ele>
        <time>2021-02-07T13:49:51Z</time>
      </trkpt>
      <trkpt lat="43.3278860" lon="-6.5687560">
        <ele>812.0</ele>
        <time>2021-02-07T13:49:55Z</time>
      </trkpt>
      <trkpt lat="43.3279070" lon="-6.5686910">
        <ele>812.0</ele>
        <time>2021-02-07T13:49:59Z</time>
      </trkpt>
      <trkpt lat="43.3279190" lon="-6.5686200">
        <ele>811.0</ele>
        <time>2021-02-07T13:50:03Z</time>
      </trkpt>
      <trkpt lat="43.3279260" lon="-6.5685370">
        <ele>811.0</ele>
        <time>2021-02-07T13:50:08Z</time>
      </trkpt>
      <trkpt lat="43.3279340" lon="-6.5684440">
        <ele>810.0</ele>
        <time>2021-02-07T13:50:13Z</time>
      </trkpt>
      <trkpt lat="43.3279430" lon="-6.5683720">
        <ele>809.0</ele>
        <time>2021-02-07T13:50:17Z</time>
      </trkpt>
      <trkpt lat="43.3279620" lon="-6.5683090">
        <ele>809.0</ele>
        <time>2021-02-07T13:50:21Z</time>
      </trkpt>
      <trkpt lat="43.3279920" lon="-6.5682520">
        <ele>808.0</ele>
        <time>2021-02-07T13:50:26Z</time>
      </trkpt>
      <trkpt lat="43.3280280" lon="-6.5681930">
        <ele>807.0</ele>
        <time>2021-02-07T13:50:32Z</time>
      </trkpt>
      <trkpt lat="43.3280570" lon="-6.5681260">
        <ele>806.0</ele>
        <time>2021-02-07T13:50:39Z</time>
      </trkpt>
      <trkpt lat="43.3280930" lon="-6.5680760">
        <ele>806.0</ele>
        <time>2021-02-07T13:50:43Z</time>
      </trkpt>
      <trkpt lat="43.3281230" lon="-6.5680170">
        <ele>805.0</ele>
        <time>2021-02-07T13:50:49Z</time>
      </trkpt>
      <trkpt lat="43.3281590" lon="-6.5679630">
        <ele>804.0</ele>
        <time>2021-02-07T13:50:54Z</time>
      </trkpt>
      <trkpt lat="43.3281980" lon="-6.5679110">
        <ele>804.0</ele>
        <time>2021-02-07T13:50:59Z</time>
      </trkpt>
      <trkpt lat="43.3282250" lon="-6.5678560">
        <ele>804.0</ele>
        <time>2021-02-07T13:51:05Z</time>
      </trkpt>
      <trkpt lat="43.3282740" lon="-6.5677880">
        <ele>804.0</ele>
        <time>2021-02-07T13:51:11Z</time>
      </trkpt>
      <trkpt lat="43.3283120" lon="-6.5677460">
        <ele>804.0</ele>
        <time>2021-02-07T13:51:18Z</time>
      </trkpt>
      <trkpt lat="43.3283740" lon="-6.5676940">
        <ele>804.0</ele>
        <time>2021-02-07T13:51:23Z</time>
      </trkpt>
      <trkpt lat="43.3284220" lon="-6.5676570">
        <ele>804.0</ele>
        <time>2021-02-07T13:51:27Z</time>
      </trkpt>
      <trkpt lat="43.3284790" lon="-6.5676180">
        <ele>804.0</ele>
        <time>2021-02-07T13:51:31Z</time>
      </trkpt>
      <trkpt lat="43.3285270" lon="-6.5675780">
        <ele>804.0</ele>
        <time>2021-02-07T13:51:35Z</time>
      </trkpt>
      <trkpt lat="43.3285750" lon="-6.5675380">
        <ele>804.0</ele>
        <time>2021-02-07T13:51:39Z</time>
      </trkpt>
      <trkpt lat="43.3286120" lon="-6.5674920">
        <ele>804.0</ele>
        <time>2021-02-07T13:51:43Z</time>
      </trkpt>
      <trkpt lat="43.3286480" lon="-6.5674510">
        <ele>804.0</ele>
        <time>2021-02-07T13:51:51Z</time>
      </trkpt>
      <trkpt lat="43.3286930" lon="-6.5673850">
        <ele>804.0</ele>
        <time>2021-02-07T13:51:58Z</time>
      </trkpt>
      <trkpt lat="43.3287280" lon="-6.5673270">
        <ele>804.0</ele>
        <time>2021-02-07T13:52:02Z</time>
      </trkpt>
      <trkpt lat="43.3287610" lon="-6.5672700">
        <ele>804.0</ele>
        <time>2021-02-07T13:52:07Z</time>
      </trkpt>
      <trkpt lat="43.3287920" lon="-6.5671970">
        <ele>804.0</ele>
        <time>2021-02-07T13:52:12Z</time>
      </trkpt>
      <trkpt lat="43.3288130" lon="-6.5671300">
        <ele>804.0</ele>
        <time>2021-02-07T13:52:16Z</time>
      </trkpt>
      <trkpt lat="43.3288350" lon="-6.5670490">
        <ele>804.0</ele>
        <time>2021-02-07T13:52:20Z</time>
      </trkpt>
      <trkpt lat="43.3288460" lon="-6.5669870">
        <ele>804.0</ele>
        <time>2021-02-07T13:52:24Z</time>
      </trkpt>
      <trkpt lat="43.3288720" lon="-6.5669050">
        <ele>804.0</ele>
        <time>2021-02-07T13:52:29Z</time>
      </trkpt>
      <trkpt lat="43.3288940" lon="-6.5668290">
        <ele>804.0</ele>
        <time>2021-02-07T13:52:33Z</time>
      </trkpt>
      <trkpt lat="43.3289300" lon="-6.5667660">
        <ele>804.0</ele>
        <time>2021-02-07T13:52:37Z</time>
      </trkpt>
      <trkpt lat="43.3289720" lon="-6.5667010">
        <ele>804.0</ele>
        <time>2021-02-07T13:52:42Z</time>
      </trkpt>
      <trkpt lat="43.3290090" lon="-6.5666420">
        <ele>804.0</ele>
        <time>2021-02-07T13:52:47Z</time>
      </trkpt>
      <trkpt lat="43.3290330" lon="-6.5665730">
        <ele>804.0</ele>
        <time>2021-02-07T13:52:52Z</time>
      </trkpt>
      <trkpt lat="43.3290580" lon="-6.5665030">
        <ele>803.0</ele>
        <time>2021-02-07T13:52:56Z</time>
      </trkpt>
      <trkpt lat="43.3290960" lon="-6.5664270">
        <ele>803.0</ele>
        <time>2021-02-07T13:53:01Z</time>
      </trkpt>
      <trkpt lat="43.3291310" lon="-6.5663570">
        <ele>802.0</ele>
        <time>2021-02-07T13:53:05Z</time>
      </trkpt>
      <trkpt lat="43.3291510" lon="-6.5662830">
        <ele>802.0</ele>
        <time>2021-02-07T13:53:09Z</time>
      </trkpt>
      <trkpt lat="43.3291790" lon="-6.5662060">
        <ele>801.0</ele>
        <time>2021-02-07T13:53:14Z</time>
      </trkpt>
      <trkpt lat="43.3292050" lon="-6.5661370">
        <ele>801.0</ele>
        <time>2021-02-07T13:53:18Z</time>
      </trkpt>
      <trkpt lat="43.3292140" lon="-6.5660790">
        <ele>801.0</ele>
        <time>2021-02-07T13:53:24Z</time>
      </trkpt>
      <trkpt lat="43.3292060" lon="-6.5660050">
        <ele>800.0</ele>
        <time>2021-02-07T13:53:33Z</time>
      </trkpt>
      <trkpt lat="43.3291870" lon="-6.5659470">
        <ele>799.0</ele>
        <time>2021-02-07T13:53:41Z</time>
      </trkpt>
      <trkpt lat="43.3291280" lon="-6.5659340">
        <ele>799.0</ele>
        <time>2021-02-07T13:54:07Z</time>
      </trkpt>
      <trkpt lat="43.3290620" lon="-6.5659150">
        <ele>798.0</ele>
        <time>2021-02-07T13:54:11Z</time>
      </trkpt>
      <trkpt lat="43.3290150" lon="-6.5659070">
        <ele>798.0</ele>
        <time>2021-02-07T13:54:14Z</time>
      </trkpt>
      <trkpt lat="43.3289590" lon="-6.5658990">
        <ele>797.0</ele>
        <time>2021-02-07T13:54:18Z</time>
      </trkpt>
      <trkpt lat="43.3289070" lon="-6.5658900">
        <ele>797.0</ele>
        <time>2021-02-07T13:54:22Z</time>
      </trkpt>
      <trkpt lat="43.3288480" lon="-6.5659000">
        <ele>797.0</ele>
        <time>2021-02-07T13:54:27Z</time>
      </trkpt>
      <trkpt lat="43.3287950" lon="-6.5659450">
        <ele>796.0</ele>
        <time>2021-02-07T13:54:32Z</time>
      </trkpt>
      <trkpt lat="43.3287530" lon="-6.5660070">
        <ele>796.0</ele>
        <time>2021-02-07T13:54:37Z</time>
      </trkpt>
      <trkpt lat="43.3287150" lon="-6.5660550">
        <ele>796.0</ele>
        <time>2021-02-07T13:54:42Z</time>
      </trkpt>
      <trkpt lat="43.3286970" lon="-6.5661020">
        <ele>796.0</ele>
        <time>2021-02-07T13:54:52Z</time>
      </trkpt>
      <trkpt lat="43.3286400" lon="-6.5661550">
        <ele>796.0</ele>
        <time>2021-02-07T13:55:00Z</time>
      </trkpt>
      <trkpt lat="43.3286010" lon="-6.5661940">
        <ele>796.0</ele>
        <time>2021-02-07T13:55:05Z</time>
      </trkpt>
      <trkpt lat="43.3285590" lon="-6.5662520">
        <ele>796.0</ele>
        <time>2021-02-07T13:55:11Z</time>
      </trkpt>
      <trkpt lat="43.3285130" lon="-6.5663150">
        <ele>796.0</ele>
        <time>2021-02-07T13:55:15Z</time>
      </trkpt>
      <trkpt lat="43.3284800" lon="-6.5663640">
        <ele>796.0</ele>
        <time>2021-02-07T13:55:18Z</time>
      </trkpt>
      <trkpt lat="43.3284270" lon="-6.5664540">
        <ele>796.0</ele>
        <time>2021-02-07T13:55:40Z</time>
      </trkpt>
      <trkpt lat="43.3283890" lon="-6.5665120">
        <ele>796.0</ele>
        <time>2021-02-07T13:55:44Z</time>
      </trkpt>
      <trkpt lat="43.3283560" lon="-6.5665670">
        <ele>796.0</ele>
        <time>2021-02-07T13:55:48Z</time>
      </trkpt>
      <trkpt lat="43.3283190" lon="-6.5666140">
        <ele>796.0</ele>
        <time>2021-02-07T13:55:52Z</time>
      </trkpt>
      <trkpt lat="43.3282690" lon="-6.5666580">
        <ele>796.0</ele>
        <time>2021-02-07T13:55:56Z</time>
      </trkpt>
      <trkpt lat="43.3282450" lon="-6.5667030">
        <ele>796.0</ele>
        <time>2021-02-07T13:56:00Z</time>
      </trkpt>
      <trkpt lat="43.3282090" lon="-6.5667730">
        <ele>796.0</ele>
        <time>2021-02-07T13:56:23Z</time>
      </trkpt>
      <trkpt lat="43.3281700" lon="-6.5668460">
        <ele>796.0</ele>
        <time>2021-02-07T13:56:27Z</time>
      </trkpt>
      <trkpt lat="43.3281330" lon="-6.5669100">
        <ele>796.0</ele>
        <time>2021-02-07T13:56:31Z</time>
      </trkpt>
      <trkpt lat="43.3281030" lon="-6.5669730">
        <ele>796.0</ele>
        <time>2021-02-07T13:56:35Z</time>
      </trkpt>
      <trkpt lat="43.3280800" lon="-6.5670290">
        <ele>796.0</ele>
        <time>2021-02-07T13:56:39Z</time>
      </trkpt>
      <trkpt lat="43.3280510" lon="-6.5670950">
        <ele>795.0</ele>
        <time>2021-02-07T13:56:44Z</time>
      </trkpt>
      <trkpt lat="43.3280280" lon="-6.5671700">
        <ele>795.0</ele>
        <time>2021-02-07T13:56:49Z</time>
      </trkpt>
      <trkpt lat="43.3279890" lon="-6.5672480">
        <ele>795.0</ele>
        <time>2021-02-07T13:56:54Z</time>
      </trkpt>
      <trkpt lat="43.3279640" lon="-6.5673140">
        <ele>795.0</ele>
        <time>2021-02-07T13:56:58Z</time>
      </trkpt>
      <trkpt lat="43.3279310" lon="-6.5673710">
        <ele>795.0</ele>
        <time>2021-02-07T13:57:02Z</time>
      </trkpt>
      <trkpt lat="43.3278930" lon="-6.5674130">
        <ele>795.0</ele>
        <time>2021-02-07T13:57:06Z</time>
      </trkpt>
      <trkpt lat="43.3278610" lon="-6.5674600">
        <ele>795.0</ele>
        <time>2021-02-07T13:57:18Z</time>
      </trkpt>
      <trkpt lat="43.3278380" lon="-6.5675360">
        <ele>795.0</ele>
        <time>2021-02-07T13:57:30Z</time>
      </trkpt>
      <trkpt lat="43.3278180" lon="-6.5676010">
        <ele>795.0</ele>
        <time>2021-02-07T13:57:35Z</time>
      </trkpt>
      <trkpt lat="43.3278000" lon="-6.5676740">
        <ele>795.0</ele>
        <time>2021-02-07T13:57:40Z</time>
      </trkpt>
      <trkpt lat="43.3277700" lon="-6.5677470">
        <ele>795.0</ele>
        <time>2021-02-07T13:57:45Z</time>
      </trkpt>
      <trkpt lat="43.3277230" lon="-6.5678160">
        <ele>795.0</ele>
        <time>2021-02-07T13:57:50Z</time>
      </trkpt>
      <trkpt lat="43.3276820" lon="-6.5678670">
        <ele>795.0</ele>
        <time>2021-02-07T13:57:54Z</time>
      </trkpt>
      <trkpt lat="43.3276370" lon="-6.5679030">
        <ele>795.0</ele>
        <time>2021-02-07T13:57:59Z</time>
      </trkpt>
      <trkpt lat="43.3275870" lon="-6.5679320">
        <ele>795.0</ele>
        <time>2021-02-07T13:58:04Z</time>
      </trkpt>
      <trkpt lat="43.3275110" lon="-6.5679490">
        <ele>795.0</ele>
        <time>2021-02-07T13:58:11Z</time>
      </trkpt>
      <trkpt lat="43.3274590" lon="-6.5679610">
        <ele>795.0</ele>
        <time>2021-02-07T13:58:15Z</time>
      </trkpt>
      <trkpt lat="43.3273960" lon="-6.5679840">
        <ele>794.0</ele>
        <time>2021-02-07T13:58:20Z</time>
      </trkpt>
      <trkpt lat="43.3273460" lon="-6.5680150">
        <ele>794.0</ele>
        <time>2021-02-07T13:58:24Z</time>
      </trkpt>
      <trkpt lat="43.3272990" lon="-6.5680500">
        <ele>793.0</ele>
        <time>2021-02-07T13:58:29Z</time>
      </trkpt>
      <trkpt lat="43.3272480" lon="-6.5680890">
        <ele>793.0</ele>
        <time>2021-02-07T13:58:33Z</time>
      </trkpt>
      <trkpt lat="43.3272070" lon="-6.5681370">
        <ele>793.0</ele>
        <time>2021-02-07T13:58:37Z</time>
      </trkpt>
      <trkpt lat="43.3271670" lon="-6.5681830">
        <ele>793.0</ele>
        <time>2021-02-07T13:58:41Z</time>
      </trkpt>
      <trkpt lat="43.3271190" lon="-6.5682270">
        <ele>792.0</ele>
        <time>2021-02-07T13:58:45Z</time>
      </trkpt>
      <trkpt lat="43.3270780" lon="-6.5682620">
        <ele>792.0</ele>
        <time>2021-02-07T13:58:48Z</time>
      </trkpt>
      <trkpt lat="43.3270250" lon="-6.5683090">
        <ele>792.0</ele>
        <time>2021-02-07T13:58:52Z</time>
      </trkpt>
      <trkpt lat="43.3269800" lon="-6.5683590">
        <ele>791.0</ele>
        <time>2021-02-07T13:58:56Z</time>
      </trkpt>
      <trkpt lat="43.3269440" lon="-6.5684060">
        <ele>791.0</ele>
        <time>2021-02-07T13:59:00Z</time>
      </trkpt>
      <trkpt lat="43.3269060" lon="-6.5684610">
        <ele>791.0</ele>
        <time>2021-02-07T13:59:05Z</time>
      </trkpt>
      <trkpt lat="43.3268620" lon="-6.5685200">
        <ele>791.0</ele>
        <time>2021-02-07T13:59:10Z</time>
      </trkpt>
      <trkpt lat="43.3268090" lon="-6.5685570">
        <ele>790.0</ele>
        <time>2021-02-07T13:59:14Z</time>
      </trkpt>
      <trkpt lat="43.3267630" lon="-6.5685750">
        <ele>790.0</ele>
        <time>2021-02-07T13:59:17Z</time>
      </trkpt>
      <trkpt lat="43.3267280" lon="-6.5686210">
        <ele>790.0</ele>
        <time>2021-02-07T13:59:21Z</time>
      </trkpt>
      <trkpt lat="43.3266870" lon="-6.5686790">
        <ele>789.0</ele>
        <time>2021-02-07T13:59:26Z</time>
      </trkpt>
      <trkpt lat="43.3266460" lon="-6.5687330">
        <ele>789.0</ele>
        <time>2021-02-07T13:59:30Z</time>
      </trkpt>
      <trkpt lat="43.3266050" lon="-6.5687910">
        <ele>789.0</ele>
        <time>2021-02-07T13:59:34Z</time>
      </trkpt>
      <trkpt lat="43.3265680" lon="-6.5688460">
        <ele>789.0</ele>
        <time>2021-02-07T13:59:38Z</time>
      </trkpt>
      <trkpt lat="43.3265250" lon="-6.5689150">
        <ele>789.0</ele>
        <time>2021-02-07T13:59:43Z</time>
      </trkpt>
      <trkpt lat="43.3264960" lon="-6.5689670">
        <ele>789.0</ele>
        <time>2021-02-07T13:59:48Z</time>
      </trkpt>
      <trkpt lat="43.3264600" lon="-6.5690270">
        <ele>788.0</ele>
        <time>2021-02-07T13:59:53Z</time>
      </trkpt>
      <trkpt lat="43.3264150" lon="-6.5691020">
        <ele>787.0</ele>
        <time>2021-02-07T13:59:58Z</time>
      </trkpt>
      <trkpt lat="43.3263900" lon="-6.5691640">
        <ele>787.0</ele>
        <time>2021-02-07T14:00:02Z</time>
      </trkpt>
      <trkpt lat="43.3263830" lon="-6.5692010">
        <ele>787.0</ele>
        <time>2021-02-07T14:00:12Z</time>
      </trkpt>
    </trkseg>
  </trk>
</gpx>
